<?xml version="1.0" encoding="UTF-8" standalone="no" ?>
<gpx xmlns="http://www.topografix.com/GPX/1/1" xmlns:xsi="http://www.w3.org/2001/XMLSchema-instance" xsi:schemaLocation="http://www.topografix.com/GPX/1/1 http://www.topografix.com/GPX/1/1/gpx.xsd" version="1.1" creator="VisuGPX - https://www.visugpx.com">
  <metadata>
    <name>2018-06-20 Bike ride-Ambérieux Saône O 31k</name>
    <desc><![CDATA[2018-06-20 Bike ride-Ambérieux Saône O 31k]]></desc>
  </metadata>
  <wpt lat="45.92462" lon="4.73724">
    <ele>174</ele>
    <name><![CDATA[2018-06-20 11:35 (Start)]]></name>
  </wpt>
  <wpt lat="45.92458" lon="4.73706">
    <ele>174</ele>
    <name><![CDATA[2018-06-20 11:35 (End)]]></name>
  </wpt>
  <trk>
    <name><![CDATA[2018-06-20 11:35]]></name>
    <trkseg>
      <trkpt lat="45.92462" lon="4.73724">
        <ele>174</ele>
        <time>2018-06-20T09:35:21.606Z</time>
      </trkpt>
      <trkpt lat="45.92464" lon="4.73722">
        <ele>174</ele>
        <time>2018-06-20T09:35:23Z</time>
      </trkpt>
      <trkpt lat="45.92463" lon="4.73722">
        <ele>174</ele>
        <time>2018-06-20T09:35:24Z</time>
      </trkpt>
      <trkpt lat="45.9246" lon="4.73725">
        <ele>174</ele>
        <time>2018-06-20T09:35:42Z</time>
      </trkpt>
      <trkpt lat="45.9246" lon="4.73725">
        <ele>174</ele>
        <time>2018-06-20T09:35:43Z</time>
      </trkpt>
      <trkpt lat="45.92466" lon="4.73716">
        <ele>174</ele>
        <time>2018-06-20T09:35:49Z</time>
      </trkpt>
      <trkpt lat="45.92467" lon="4.73713">
        <ele>174</ele>
        <time>2018-06-20T09:35:50Z</time>
      </trkpt>
      <trkpt lat="45.92469" lon="4.73703">
        <ele>174</ele>
        <time>2018-06-20T09:35:53Z</time>
      </trkpt>
      <trkpt lat="45.92469" lon="4.73699">
        <ele>174</ele>
        <time>2018-06-20T09:35:54Z</time>
      </trkpt>
      <trkpt lat="45.9247" lon="4.73688">
        <ele>174</ele>
        <time>2018-06-20T09:35:57Z</time>
      </trkpt>
      <trkpt lat="45.92471" lon="4.73684">
        <ele>174</ele>
        <time>2018-06-20T09:35:58Z</time>
      </trkpt>
      <trkpt lat="45.92473" lon="4.73676">
        <ele>174</ele>
        <time>2018-06-20T09:36:00Z</time>
      </trkpt>
      <trkpt lat="45.92474" lon="4.73672">
        <ele>174</ele>
        <time>2018-06-20T09:36:01Z</time>
      </trkpt>
      <trkpt lat="45.92478" lon="4.73661">
        <ele>174</ele>
        <time>2018-06-20T09:36:04Z</time>
      </trkpt>
      <trkpt lat="45.9248" lon="4.73658">
        <ele>174</ele>
        <time>2018-06-20T09:36:05Z</time>
      </trkpt>
      <trkpt lat="45.92488" lon="4.73655">
        <ele>174</ele>
        <time>2018-06-20T09:36:08Z</time>
      </trkpt>
      <trkpt lat="45.92491" lon="4.73655">
        <ele>175</ele>
        <time>2018-06-20T09:36:09Z</time>
      </trkpt>
      <trkpt lat="45.92498" lon="4.73656">
        <ele>175</ele>
        <time>2018-06-20T09:36:11Z</time>
      </trkpt>
      <trkpt lat="45.92507" lon="4.73655">
        <ele>174</ele>
        <time>2018-06-20T09:36:12Z</time>
      </trkpt>
      <trkpt lat="45.92515" lon="4.73654">
        <ele>174</ele>
        <time>2018-06-20T09:36:14Z</time>
      </trkpt>
      <trkpt lat="45.92519" lon="4.73654">
        <ele>174</ele>
        <time>2018-06-20T09:36:15Z</time>
      </trkpt>
      <trkpt lat="45.92526" lon="4.73653">
        <ele>173</ele>
        <time>2018-06-20T09:36:17Z</time>
      </trkpt>
      <trkpt lat="45.92534" lon="4.73649">
        <ele>173</ele>
        <time>2018-06-20T09:36:18Z</time>
      </trkpt>
      <trkpt lat="45.92539" lon="4.73649">
        <ele>173</ele>
        <time>2018-06-20T09:36:19Z</time>
      </trkpt>
      <trkpt lat="45.92544" lon="4.7365">
        <ele>173</ele>
        <time>2018-06-20T09:36:20Z</time>
      </trkpt>
      <trkpt lat="45.92552" lon="4.73647">
        <ele>173</ele>
        <time>2018-06-20T09:36:22Z</time>
      </trkpt>
      <trkpt lat="45.92555" lon="4.73646">
        <ele>173</ele>
        <time>2018-06-20T09:36:23Z</time>
      </trkpt>
      <trkpt lat="45.92557" lon="4.73646">
        <ele>173</ele>
        <time>2018-06-20T09:36:24Z</time>
      </trkpt>
      <trkpt lat="45.92565" lon="4.73644">
        <ele>172</ele>
        <time>2018-06-20T09:36:25Z</time>
      </trkpt>
      <trkpt lat="45.9257" lon="4.73643">
        <ele>172</ele>
        <time>2018-06-20T09:36:26Z</time>
      </trkpt>
      <trkpt lat="45.92575" lon="4.73641">
        <ele>172</ele>
        <time>2018-06-20T09:36:27Z</time>
      </trkpt>
      <trkpt lat="45.92581" lon="4.73639">
        <ele>172</ele>
        <time>2018-06-20T09:36:28Z</time>
      </trkpt>
      <trkpt lat="45.92585" lon="4.73636">
        <ele>172</ele>
        <time>2018-06-20T09:36:29Z</time>
      </trkpt>
      <trkpt lat="45.92591" lon="4.73634">
        <ele>172</ele>
        <time>2018-06-20T09:36:30Z</time>
      </trkpt>
      <trkpt lat="45.92597" lon="4.73633">
        <ele>172</ele>
        <time>2018-06-20T09:36:31Z</time>
      </trkpt>
      <trkpt lat="45.92604" lon="4.73629">
        <ele>173</ele>
        <time>2018-06-20T09:36:32Z</time>
      </trkpt>
      <trkpt lat="45.9261" lon="4.7363">
        <ele>173</ele>
        <time>2018-06-20T09:36:33Z</time>
      </trkpt>
      <trkpt lat="45.92617" lon="4.73631">
        <ele>173</ele>
        <time>2018-06-20T09:36:34Z</time>
      </trkpt>
      <trkpt lat="45.92623" lon="4.7363">
        <ele>173</ele>
        <time>2018-06-20T09:36:35Z</time>
      </trkpt>
      <trkpt lat="45.92627" lon="4.7363">
        <ele>173</ele>
        <time>2018-06-20T09:36:36Z</time>
      </trkpt>
      <trkpt lat="45.92631" lon="4.73639">
        <ele>173</ele>
        <time>2018-06-20T09:36:37Z</time>
      </trkpt>
      <trkpt lat="45.92636" lon="4.73644">
        <ele>173</ele>
        <time>2018-06-20T09:36:38Z</time>
      </trkpt>
      <trkpt lat="45.92639" lon="4.73648">
        <ele>173</ele>
        <time>2018-06-20T09:36:39Z</time>
      </trkpt>
      <trkpt lat="45.92637" lon="4.73659">
        <ele>173</ele>
        <time>2018-06-20T09:36:40Z</time>
      </trkpt>
      <trkpt lat="45.92643" lon="4.73663">
        <ele>173</ele>
        <time>2018-06-20T09:36:41Z</time>
      </trkpt>
      <trkpt lat="45.92646" lon="4.73669">
        <ele>173</ele>
        <time>2018-06-20T09:36:42Z</time>
      </trkpt>
      <trkpt lat="45.92649" lon="4.73675">
        <ele>173</ele>
        <time>2018-06-20T09:36:43Z</time>
      </trkpt>
      <trkpt lat="45.92653" lon="4.73682">
        <ele>173</ele>
        <time>2018-06-20T09:36:44Z</time>
      </trkpt>
      <trkpt lat="45.92658" lon="4.73684">
        <ele>173</ele>
        <time>2018-06-20T09:36:45Z</time>
      </trkpt>
      <trkpt lat="45.92662" lon="4.73689">
        <ele>173</ele>
        <time>2018-06-20T09:36:46Z</time>
      </trkpt>
      <trkpt lat="45.92665" lon="4.73693">
        <ele>173</ele>
        <time>2018-06-20T09:36:47Z</time>
      </trkpt>
      <trkpt lat="45.92669" lon="4.73698">
        <ele>174</ele>
        <time>2018-06-20T09:36:48Z</time>
      </trkpt>
      <trkpt lat="45.92675" lon="4.73702">
        <ele>174</ele>
        <time>2018-06-20T09:36:49Z</time>
      </trkpt>
      <trkpt lat="45.92679" lon="4.73705">
        <ele>173</ele>
        <time>2018-06-20T09:36:50Z</time>
      </trkpt>
      <trkpt lat="45.92682" lon="4.7371">
        <ele>173</ele>
        <time>2018-06-20T09:36:51Z</time>
      </trkpt>
      <trkpt lat="45.92687" lon="4.73711">
        <ele>173</ele>
        <time>2018-06-20T09:36:52Z</time>
      </trkpt>
      <trkpt lat="45.92692" lon="4.73713">
        <ele>173</ele>
        <time>2018-06-20T09:36:53Z</time>
      </trkpt>
      <trkpt lat="45.92697" lon="4.73715">
        <ele>173</ele>
        <time>2018-06-20T09:36:54Z</time>
      </trkpt>
      <trkpt lat="45.92703" lon="4.73716">
        <ele>173</ele>
        <time>2018-06-20T09:36:55Z</time>
      </trkpt>
      <trkpt lat="45.92708" lon="4.73716">
        <ele>173</ele>
        <time>2018-06-20T09:36:56Z</time>
      </trkpt>
      <trkpt lat="45.92712" lon="4.73718">
        <ele>173</ele>
        <time>2018-06-20T09:36:57Z</time>
      </trkpt>
      <trkpt lat="45.92718" lon="4.7372">
        <ele>173</ele>
        <time>2018-06-20T09:36:58Z</time>
      </trkpt>
      <trkpt lat="45.92724" lon="4.73722">
        <ele>173</ele>
        <time>2018-06-20T09:36:59Z</time>
      </trkpt>
      <trkpt lat="45.92729" lon="4.73724">
        <ele>173</ele>
        <time>2018-06-20T09:37:00Z</time>
      </trkpt>
      <trkpt lat="45.92734" lon="4.73725">
        <ele>173</ele>
        <time>2018-06-20T09:37:01Z</time>
      </trkpt>
      <trkpt lat="45.92739" lon="4.73726">
        <ele>173</ele>
        <time>2018-06-20T09:37:02Z</time>
      </trkpt>
      <trkpt lat="45.92746" lon="4.73727">
        <ele>173</ele>
        <time>2018-06-20T09:37:03Z</time>
      </trkpt>
      <trkpt lat="45.92754" lon="4.7373">
        <ele>172</ele>
        <time>2018-06-20T09:37:05Z</time>
      </trkpt>
      <trkpt lat="45.92756" lon="4.73733">
        <ele>172</ele>
        <time>2018-06-20T09:37:06Z</time>
      </trkpt>
      <trkpt lat="45.92761" lon="4.73735">
        <ele>172</ele>
        <time>2018-06-20T09:37:08Z</time>
      </trkpt>
      <trkpt lat="45.92768" lon="4.73737">
        <ele>172</ele>
        <time>2018-06-20T09:37:09Z</time>
      </trkpt>
      <trkpt lat="45.92775" lon="4.73742">
        <ele>172</ele>
        <time>2018-06-20T09:37:12Z</time>
      </trkpt>
      <trkpt lat="45.92777" lon="4.7374">
        <ele>172</ele>
        <time>2018-06-20T09:37:13Z</time>
      </trkpt>
      <trkpt lat="45.92779" lon="4.73738">
        <ele>172</ele>
        <time>2018-06-20T09:37:14Z</time>
      </trkpt>
      <trkpt lat="45.92784" lon="4.73727">
        <ele>172</ele>
        <time>2018-06-20T09:37:15Z</time>
      </trkpt>
      <trkpt lat="45.92786" lon="4.7372">
        <ele>172</ele>
        <time>2018-06-20T09:37:16Z</time>
      </trkpt>
      <trkpt lat="45.92787" lon="4.73714">
        <ele>172</ele>
        <time>2018-06-20T09:37:17Z</time>
      </trkpt>
      <trkpt lat="45.92788" lon="4.73707">
        <ele>172</ele>
        <time>2018-06-20T09:37:18Z</time>
      </trkpt>
      <trkpt lat="45.92789" lon="4.73699">
        <ele>172</ele>
        <time>2018-06-20T09:37:19Z</time>
      </trkpt>
      <trkpt lat="45.92791" lon="4.73692">
        <ele>172</ele>
        <time>2018-06-20T09:37:20Z</time>
      </trkpt>
      <trkpt lat="45.92793" lon="4.73686">
        <ele>172</ele>
        <time>2018-06-20T09:37:21Z</time>
      </trkpt>
      <trkpt lat="45.92796" lon="4.73674">
        <ele>172</ele>
        <time>2018-06-20T09:37:23Z</time>
      </trkpt>
      <trkpt lat="45.92798" lon="4.73668">
        <ele>172</ele>
        <time>2018-06-20T09:37:24Z</time>
      </trkpt>
      <trkpt lat="45.92799" lon="4.73661">
        <ele>172</ele>
        <time>2018-06-20T09:37:25Z</time>
      </trkpt>
      <trkpt lat="45.92802" lon="4.73654">
        <ele>172</ele>
        <time>2018-06-20T09:37:26Z</time>
      </trkpt>
      <trkpt lat="45.92806" lon="4.73643">
        <ele>172</ele>
        <time>2018-06-20T09:37:28Z</time>
      </trkpt>
      <trkpt lat="45.92809" lon="4.73636">
        <ele>172</ele>
        <time>2018-06-20T09:37:29Z</time>
      </trkpt>
      <trkpt lat="45.92814" lon="4.73627">
        <ele>172</ele>
        <time>2018-06-20T09:37:31Z</time>
      </trkpt>
      <trkpt lat="45.92817" lon="4.73622">
        <ele>172</ele>
        <time>2018-06-20T09:37:32Z</time>
      </trkpt>
      <trkpt lat="45.92818" lon="4.73615">
        <ele>172</ele>
        <time>2018-06-20T09:37:33Z</time>
      </trkpt>
      <trkpt lat="45.92817" lon="4.73607">
        <ele>172</ele>
        <time>2018-06-20T09:37:34Z</time>
      </trkpt>
      <trkpt lat="45.92817" lon="4.73601">
        <ele>171</ele>
        <time>2018-06-20T09:37:35Z</time>
      </trkpt>
      <trkpt lat="45.92817" lon="4.73592">
        <ele>171</ele>
        <time>2018-06-20T09:37:36Z</time>
      </trkpt>
      <trkpt lat="45.92818" lon="4.73584">
        <ele>171</ele>
        <time>2018-06-20T09:37:37Z</time>
      </trkpt>
      <trkpt lat="45.92818" lon="4.73577">
        <ele>171</ele>
        <time>2018-06-20T09:37:38Z</time>
      </trkpt>
      <trkpt lat="45.92819" lon="4.7357">
        <ele>171</ele>
        <time>2018-06-20T09:37:39Z</time>
      </trkpt>
      <trkpt lat="45.9282" lon="4.73562">
        <ele>171</ele>
        <time>2018-06-20T09:37:40Z</time>
      </trkpt>
      <trkpt lat="45.92821" lon="4.73553">
        <ele>171</ele>
        <time>2018-06-20T09:37:41Z</time>
      </trkpt>
      <trkpt lat="45.92822" lon="4.73545">
        <ele>171</ele>
        <time>2018-06-20T09:37:42Z</time>
      </trkpt>
      <trkpt lat="45.92823" lon="4.73536">
        <ele>172</ele>
        <time>2018-06-20T09:37:43Z</time>
      </trkpt>
      <trkpt lat="45.92823" lon="4.73529">
        <ele>172</ele>
        <time>2018-06-20T09:37:44Z</time>
      </trkpt>
      <trkpt lat="45.92824" lon="4.7352">
        <ele>172</ele>
        <time>2018-06-20T09:37:45Z</time>
      </trkpt>
      <trkpt lat="45.92824" lon="4.73512">
        <ele>172</ele>
        <time>2018-06-20T09:37:46Z</time>
      </trkpt>
      <trkpt lat="45.92825" lon="4.73504">
        <ele>172</ele>
        <time>2018-06-20T09:37:47Z</time>
      </trkpt>
      <trkpt lat="45.92827" lon="4.73496">
        <ele>172</ele>
        <time>2018-06-20T09:37:48Z</time>
      </trkpt>
      <trkpt lat="45.92827" lon="4.73487">
        <ele>172</ele>
        <time>2018-06-20T09:37:49Z</time>
      </trkpt>
      <trkpt lat="45.92827" lon="4.73479">
        <ele>172</ele>
        <time>2018-06-20T09:37:50Z</time>
      </trkpt>
      <trkpt lat="45.92829" lon="4.7347">
        <ele>172</ele>
        <time>2018-06-20T09:37:51Z</time>
      </trkpt>
      <trkpt lat="45.9283" lon="4.73462">
        <ele>172</ele>
        <time>2018-06-20T09:37:52Z</time>
      </trkpt>
      <trkpt lat="45.92832" lon="4.73453">
        <ele>172</ele>
        <time>2018-06-20T09:37:53Z</time>
      </trkpt>
      <trkpt lat="45.92833" lon="4.73445">
        <ele>172</ele>
        <time>2018-06-20T09:37:54Z</time>
      </trkpt>
      <trkpt lat="45.92833" lon="4.73436">
        <ele>172</ele>
        <time>2018-06-20T09:37:55Z</time>
      </trkpt>
      <trkpt lat="45.92834" lon="4.73428">
        <ele>172</ele>
        <time>2018-06-20T09:37:56Z</time>
      </trkpt>
      <trkpt lat="45.92836" lon="4.73419">
        <ele>172</ele>
        <time>2018-06-20T09:37:57Z</time>
      </trkpt>
      <trkpt lat="45.92837" lon="4.7341">
        <ele>172</ele>
        <time>2018-06-20T09:37:58Z</time>
      </trkpt>
      <trkpt lat="45.92838" lon="4.73401">
        <ele>172</ele>
        <time>2018-06-20T09:37:59Z</time>
      </trkpt>
      <trkpt lat="45.9284" lon="4.73392">
        <ele>172</ele>
        <time>2018-06-20T09:38:00Z</time>
      </trkpt>
      <trkpt lat="45.92841" lon="4.73384">
        <ele>172</ele>
        <time>2018-06-20T09:38:01Z</time>
      </trkpt>
      <trkpt lat="45.92843" lon="4.73374">
        <ele>171</ele>
        <time>2018-06-20T09:38:02Z</time>
      </trkpt>
      <trkpt lat="45.92845" lon="4.73364">
        <ele>171</ele>
        <time>2018-06-20T09:38:03Z</time>
      </trkpt>
      <trkpt lat="45.92846" lon="4.73355">
        <ele>171</ele>
        <time>2018-06-20T09:38:04Z</time>
      </trkpt>
      <trkpt lat="45.92847" lon="4.73344">
        <ele>171</ele>
        <time>2018-06-20T09:38:05Z</time>
      </trkpt>
      <trkpt lat="45.92848" lon="4.73335">
        <ele>171</ele>
        <time>2018-06-20T09:38:06Z</time>
      </trkpt>
      <trkpt lat="45.92849" lon="4.73326">
        <ele>171</ele>
        <time>2018-06-20T09:38:07Z</time>
      </trkpt>
      <trkpt lat="45.92849" lon="4.73318">
        <ele>171</ele>
        <time>2018-06-20T09:38:08Z</time>
      </trkpt>
      <trkpt lat="45.9285" lon="4.73309">
        <ele>171</ele>
        <time>2018-06-20T09:38:09Z</time>
      </trkpt>
      <trkpt lat="45.92852" lon="4.733">
        <ele>171</ele>
        <time>2018-06-20T09:38:10Z</time>
      </trkpt>
      <trkpt lat="45.92853" lon="4.7329">
        <ele>171</ele>
        <time>2018-06-20T09:38:11Z</time>
      </trkpt>
      <trkpt lat="45.92853" lon="4.7328">
        <ele>171</ele>
        <time>2018-06-20T09:38:12Z</time>
      </trkpt>
      <trkpt lat="45.92855" lon="4.73272">
        <ele>171</ele>
        <time>2018-06-20T09:38:13Z</time>
      </trkpt>
      <trkpt lat="45.92856" lon="4.73263">
        <ele>171</ele>
        <time>2018-06-20T09:38:14Z</time>
      </trkpt>
      <trkpt lat="45.92857" lon="4.73253">
        <ele>171</ele>
        <time>2018-06-20T09:38:15Z</time>
      </trkpt>
      <trkpt lat="45.92859" lon="4.73244">
        <ele>171</ele>
        <time>2018-06-20T09:38:16Z</time>
      </trkpt>
      <trkpt lat="45.9286" lon="4.73235">
        <ele>171</ele>
        <time>2018-06-20T09:38:17Z</time>
      </trkpt>
      <trkpt lat="45.92861" lon="4.73226">
        <ele>171</ele>
        <time>2018-06-20T09:38:18Z</time>
      </trkpt>
      <trkpt lat="45.92863" lon="4.73217">
        <ele>171</ele>
        <time>2018-06-20T09:38:19Z</time>
      </trkpt>
      <trkpt lat="45.92863" lon="4.73209">
        <ele>171</ele>
        <time>2018-06-20T09:38:20Z</time>
      </trkpt>
      <trkpt lat="45.92865" lon="4.732">
        <ele>171</ele>
        <time>2018-06-20T09:38:21Z</time>
      </trkpt>
      <trkpt lat="45.92866" lon="4.73192">
        <ele>171</ele>
        <time>2018-06-20T09:38:22Z</time>
      </trkpt>
      <trkpt lat="45.92867" lon="4.73185">
        <ele>171</ele>
        <time>2018-06-20T09:38:23Z</time>
      </trkpt>
      <trkpt lat="45.92868" lon="4.73176">
        <ele>171</ele>
        <time>2018-06-20T09:38:24Z</time>
      </trkpt>
      <trkpt lat="45.92869" lon="4.73167">
        <ele>171</ele>
        <time>2018-06-20T09:38:25Z</time>
      </trkpt>
      <trkpt lat="45.9287" lon="4.7316">
        <ele>171</ele>
        <time>2018-06-20T09:38:26Z</time>
      </trkpt>
      <trkpt lat="45.9287" lon="4.73151">
        <ele>171</ele>
        <time>2018-06-20T09:38:27Z</time>
      </trkpt>
      <trkpt lat="45.92872" lon="4.73142">
        <ele>171</ele>
        <time>2018-06-20T09:38:28Z</time>
      </trkpt>
      <trkpt lat="45.92873" lon="4.73135">
        <ele>171</ele>
        <time>2018-06-20T09:38:29Z</time>
      </trkpt>
      <trkpt lat="45.92876" lon="4.73127">
        <ele>171</ele>
        <time>2018-06-20T09:38:30Z</time>
      </trkpt>
      <trkpt lat="45.92877" lon="4.7312">
        <ele>172</ele>
        <time>2018-06-20T09:38:31Z</time>
      </trkpt>
      <trkpt lat="45.92878" lon="4.73111">
        <ele>172</ele>
        <time>2018-06-20T09:38:32Z</time>
      </trkpt>
      <trkpt lat="45.9288" lon="4.73103">
        <ele>172</ele>
        <time>2018-06-20T09:38:33Z</time>
      </trkpt>
      <trkpt lat="45.92882" lon="4.73094">
        <ele>172</ele>
        <time>2018-06-20T09:38:34Z</time>
      </trkpt>
      <trkpt lat="45.92886" lon="4.73086">
        <ele>172</ele>
        <time>2018-06-20T09:38:35Z</time>
      </trkpt>
      <trkpt lat="45.92889" lon="4.73078">
        <ele>172</ele>
        <time>2018-06-20T09:38:36Z</time>
      </trkpt>
      <trkpt lat="45.92893" lon="4.73071">
        <ele>172</ele>
        <time>2018-06-20T09:38:37Z</time>
      </trkpt>
      <trkpt lat="45.92896" lon="4.73063">
        <ele>172</ele>
        <time>2018-06-20T09:38:38Z</time>
      </trkpt>
      <trkpt lat="45.92901" lon="4.73056">
        <ele>172</ele>
        <time>2018-06-20T09:38:39Z</time>
      </trkpt>
      <trkpt lat="45.92905" lon="4.7305">
        <ele>172</ele>
        <time>2018-06-20T09:38:40Z</time>
      </trkpt>
      <trkpt lat="45.92909" lon="4.73043">
        <ele>172</ele>
        <time>2018-06-20T09:38:41Z</time>
      </trkpt>
      <trkpt lat="45.92914" lon="4.73036">
        <ele>172</ele>
        <time>2018-06-20T09:38:42Z</time>
      </trkpt>
      <trkpt lat="45.92918" lon="4.7303">
        <ele>172</ele>
        <time>2018-06-20T09:38:43Z</time>
      </trkpt>
      <trkpt lat="45.92923" lon="4.73022">
        <ele>171</ele>
        <time>2018-06-20T09:38:44Z</time>
      </trkpt>
      <trkpt lat="45.92927" lon="4.73016">
        <ele>171</ele>
        <time>2018-06-20T09:38:45Z</time>
      </trkpt>
      <trkpt lat="45.92932" lon="4.7301">
        <ele>171</ele>
        <time>2018-06-20T09:38:46Z</time>
      </trkpt>
      <trkpt lat="45.92938" lon="4.73002">
        <ele>171</ele>
        <time>2018-06-20T09:38:47Z</time>
      </trkpt>
      <trkpt lat="45.92943" lon="4.72996">
        <ele>171</ele>
        <time>2018-06-20T09:38:48Z</time>
      </trkpt>
      <trkpt lat="45.92948" lon="4.72991">
        <ele>171</ele>
        <time>2018-06-20T09:38:49Z</time>
      </trkpt>
      <trkpt lat="45.92952" lon="4.72986">
        <ele>171</ele>
        <time>2018-06-20T09:38:50Z</time>
      </trkpt>
      <trkpt lat="45.92956" lon="4.72981">
        <ele>171</ele>
        <time>2018-06-20T09:38:51Z</time>
      </trkpt>
      <trkpt lat="45.92961" lon="4.72976">
        <ele>171</ele>
        <time>2018-06-20T09:38:52Z</time>
      </trkpt>
      <trkpt lat="45.92965" lon="4.72971">
        <ele>171</ele>
        <time>2018-06-20T09:38:53Z</time>
      </trkpt>
      <trkpt lat="45.9297" lon="4.72966">
        <ele>171</ele>
        <time>2018-06-20T09:38:54Z</time>
      </trkpt>
      <trkpt lat="45.92974" lon="4.7296">
        <ele>171</ele>
        <time>2018-06-20T09:38:55Z</time>
      </trkpt>
      <trkpt lat="45.92977" lon="4.72956">
        <ele>171</ele>
        <time>2018-06-20T09:38:56Z</time>
      </trkpt>
      <trkpt lat="45.92981" lon="4.72949">
        <ele>171</ele>
        <time>2018-06-20T09:38:57Z</time>
      </trkpt>
      <trkpt lat="45.92987" lon="4.72944">
        <ele>171</ele>
        <time>2018-06-20T09:38:58Z</time>
      </trkpt>
      <trkpt lat="45.92991" lon="4.72939">
        <ele>171</ele>
        <time>2018-06-20T09:38:59Z</time>
      </trkpt>
      <trkpt lat="45.92996" lon="4.72934">
        <ele>171</ele>
        <time>2018-06-20T09:39:00Z</time>
      </trkpt>
      <trkpt lat="45.93001" lon="4.72929">
        <ele>170</ele>
        <time>2018-06-20T09:39:01Z</time>
      </trkpt>
      <trkpt lat="45.93006" lon="4.72922">
        <ele>170</ele>
        <time>2018-06-20T09:39:02Z</time>
      </trkpt>
      <trkpt lat="45.93012" lon="4.72916">
        <ele>171</ele>
        <time>2018-06-20T09:39:03Z</time>
      </trkpt>
      <trkpt lat="45.93016" lon="4.72911">
        <ele>171</ele>
        <time>2018-06-20T09:39:04Z</time>
      </trkpt>
      <trkpt lat="45.93021" lon="4.72905">
        <ele>172</ele>
        <time>2018-06-20T09:39:05Z</time>
      </trkpt>
      <trkpt lat="45.93026" lon="4.72898">
        <ele>172</ele>
        <time>2018-06-20T09:39:06Z</time>
      </trkpt>
      <trkpt lat="45.93031" lon="4.72893">
        <ele>172</ele>
        <time>2018-06-20T09:39:07Z</time>
      </trkpt>
      <trkpt lat="45.93036" lon="4.72887">
        <ele>172</ele>
        <time>2018-06-20T09:39:08Z</time>
      </trkpt>
      <trkpt lat="45.93041" lon="4.72882">
        <ele>172</ele>
        <time>2018-06-20T09:39:09Z</time>
      </trkpt>
      <trkpt lat="45.93046" lon="4.72877">
        <ele>172</ele>
        <time>2018-06-20T09:39:10Z</time>
      </trkpt>
      <trkpt lat="45.93051" lon="4.72873">
        <ele>172</ele>
        <time>2018-06-20T09:39:11Z</time>
      </trkpt>
      <trkpt lat="45.93055" lon="4.72867">
        <ele>172</ele>
        <time>2018-06-20T09:39:12Z</time>
      </trkpt>
      <trkpt lat="45.93058" lon="4.72862">
        <ele>172</ele>
        <time>2018-06-20T09:39:13Z</time>
      </trkpt>
      <trkpt lat="45.93062" lon="4.72856">
        <ele>172</ele>
        <time>2018-06-20T09:39:14Z</time>
      </trkpt>
      <trkpt lat="45.93067" lon="4.72851">
        <ele>172</ele>
        <time>2018-06-20T09:39:15Z</time>
      </trkpt>
      <trkpt lat="45.93072" lon="4.72846">
        <ele>173</ele>
        <time>2018-06-20T09:39:16Z</time>
      </trkpt>
      <trkpt lat="45.93095" lon="4.72825">
        <ele>172</ele>
        <time>2018-06-20T09:39:21Z</time>
      </trkpt>
      <trkpt lat="45.93107" lon="4.72824">
        <ele>172</ele>
        <time>2018-06-20T09:39:22Z</time>
      </trkpt>
      <trkpt lat="45.93106" lon="4.72809">
        <ele>171</ele>
        <time>2018-06-20T09:39:23Z</time>
      </trkpt>
      <trkpt lat="45.9311" lon="4.72801">
        <ele>171</ele>
        <time>2018-06-20T09:39:24Z</time>
      </trkpt>
      <trkpt lat="45.93116" lon="4.72795">
        <ele>171</ele>
        <time>2018-06-20T09:39:25Z</time>
      </trkpt>
      <trkpt lat="45.93123" lon="4.72787">
        <ele>171</ele>
        <time>2018-06-20T09:39:26Z</time>
      </trkpt>
      <trkpt lat="45.93129" lon="4.72778">
        <ele>171</ele>
        <time>2018-06-20T09:39:28Z</time>
      </trkpt>
      <trkpt lat="45.93136" lon="4.72772">
        <ele>171</ele>
        <time>2018-06-20T09:39:29Z</time>
      </trkpt>
      <trkpt lat="45.93141" lon="4.72766">
        <ele>171</ele>
        <time>2018-06-20T09:39:30Z</time>
      </trkpt>
      <trkpt lat="45.93146" lon="4.72761">
        <ele>171</ele>
        <time>2018-06-20T09:39:31Z</time>
      </trkpt>
      <trkpt lat="45.93149" lon="4.72756">
        <ele>170</ele>
        <time>2018-06-20T09:39:32Z</time>
      </trkpt>
      <trkpt lat="45.93154" lon="4.72751">
        <ele>170</ele>
        <time>2018-06-20T09:39:33Z</time>
      </trkpt>
      <trkpt lat="45.93158" lon="4.72746">
        <ele>170</ele>
        <time>2018-06-20T09:39:34Z</time>
      </trkpt>
      <trkpt lat="45.93163" lon="4.7274">
        <ele>170</ele>
        <time>2018-06-20T09:39:35Z</time>
      </trkpt>
      <trkpt lat="45.93166" lon="4.72736">
        <ele>170</ele>
        <time>2018-06-20T09:39:36Z</time>
      </trkpt>
      <trkpt lat="45.93171" lon="4.72731">
        <ele>170</ele>
        <time>2018-06-20T09:39:37Z</time>
      </trkpt>
      <trkpt lat="45.93175" lon="4.72725">
        <ele>170</ele>
        <time>2018-06-20T09:39:38Z</time>
      </trkpt>
      <trkpt lat="45.9318" lon="4.72719">
        <ele>169</ele>
        <time>2018-06-20T09:39:39Z</time>
      </trkpt>
      <trkpt lat="45.93184" lon="4.72715">
        <ele>169</ele>
        <time>2018-06-20T09:39:40Z</time>
      </trkpt>
      <trkpt lat="45.93189" lon="4.7271">
        <ele>169</ele>
        <time>2018-06-20T09:39:41Z</time>
      </trkpt>
      <trkpt lat="45.93193" lon="4.72706">
        <ele>169</ele>
        <time>2018-06-20T09:39:42Z</time>
      </trkpt>
      <trkpt lat="45.93196" lon="4.72701">
        <ele>169</ele>
        <time>2018-06-20T09:39:43Z</time>
      </trkpt>
      <trkpt lat="45.93201" lon="4.72695">
        <ele>169</ele>
        <time>2018-06-20T09:39:44Z</time>
      </trkpt>
      <trkpt lat="45.93205" lon="4.72691">
        <ele>169</ele>
        <time>2018-06-20T09:39:45Z</time>
      </trkpt>
      <trkpt lat="45.93208" lon="4.72686">
        <ele>169</ele>
        <time>2018-06-20T09:39:46Z</time>
      </trkpt>
      <trkpt lat="45.93212" lon="4.7268">
        <ele>169</ele>
        <time>2018-06-20T09:39:47Z</time>
      </trkpt>
      <trkpt lat="45.93217" lon="4.72674">
        <ele>169</ele>
        <time>2018-06-20T09:39:48Z</time>
      </trkpt>
      <trkpt lat="45.93222" lon="4.72669">
        <ele>169</ele>
        <time>2018-06-20T09:39:49Z</time>
      </trkpt>
      <trkpt lat="45.93227" lon="4.72662">
        <ele>169</ele>
        <time>2018-06-20T09:39:50Z</time>
      </trkpt>
      <trkpt lat="45.93232" lon="4.72658">
        <ele>169</ele>
        <time>2018-06-20T09:39:51Z</time>
      </trkpt>
      <trkpt lat="45.93238" lon="4.72651">
        <ele>169</ele>
        <time>2018-06-20T09:39:52Z</time>
      </trkpt>
      <trkpt lat="45.93242" lon="4.72646">
        <ele>170</ele>
        <time>2018-06-20T09:39:53Z</time>
      </trkpt>
      <trkpt lat="45.93247" lon="4.7264">
        <ele>170</ele>
        <time>2018-06-20T09:39:54Z</time>
      </trkpt>
      <trkpt lat="45.93251" lon="4.72633">
        <ele>170</ele>
        <time>2018-06-20T09:39:55Z</time>
      </trkpt>
      <trkpt lat="45.93256" lon="4.72628">
        <ele>170</ele>
        <time>2018-06-20T09:39:56Z</time>
      </trkpt>
      <trkpt lat="45.93262" lon="4.72623">
        <ele>170</ele>
        <time>2018-06-20T09:39:57Z</time>
      </trkpt>
      <trkpt lat="45.93267" lon="4.72617">
        <ele>170</ele>
        <time>2018-06-20T09:39:58Z</time>
      </trkpt>
      <trkpt lat="45.93269" lon="4.72612">
        <ele>170</ele>
        <time>2018-06-20T09:39:59Z</time>
      </trkpt>
      <trkpt lat="45.93274" lon="4.72606">
        <ele>170</ele>
        <time>2018-06-20T09:40:00Z</time>
      </trkpt>
      <trkpt lat="45.93279" lon="4.72601">
        <ele>170</ele>
        <time>2018-06-20T09:40:01Z</time>
      </trkpt>
      <trkpt lat="45.93283" lon="4.72596">
        <ele>170</ele>
        <time>2018-06-20T09:40:02Z</time>
      </trkpt>
      <trkpt lat="45.93287" lon="4.7259">
        <ele>170</ele>
        <time>2018-06-20T09:40:03Z</time>
      </trkpt>
      <trkpt lat="45.93292" lon="4.72585">
        <ele>170</ele>
        <time>2018-06-20T09:40:04Z</time>
      </trkpt>
      <trkpt lat="45.93297" lon="4.7258">
        <ele>171</ele>
        <time>2018-06-20T09:40:05Z</time>
      </trkpt>
      <trkpt lat="45.93302" lon="4.72574">
        <ele>171</ele>
        <time>2018-06-20T09:40:06Z</time>
      </trkpt>
      <trkpt lat="45.93307" lon="4.72569">
        <ele>171</ele>
        <time>2018-06-20T09:40:07Z</time>
      </trkpt>
      <trkpt lat="45.93312" lon="4.72563">
        <ele>171</ele>
        <time>2018-06-20T09:40:08Z</time>
      </trkpt>
      <trkpt lat="45.93316" lon="4.72558">
        <ele>171</ele>
        <time>2018-06-20T09:40:09Z</time>
      </trkpt>
      <trkpt lat="45.93321" lon="4.72553">
        <ele>172</ele>
        <time>2018-06-20T09:40:10Z</time>
      </trkpt>
      <trkpt lat="45.93326" lon="4.72547">
        <ele>172</ele>
        <time>2018-06-20T09:40:11Z</time>
      </trkpt>
      <trkpt lat="45.93333" lon="4.72541">
        <ele>172</ele>
        <time>2018-06-20T09:40:12Z</time>
      </trkpt>
      <trkpt lat="45.93338" lon="4.72535">
        <ele>172</ele>
        <time>2018-06-20T09:40:13Z</time>
      </trkpt>
      <trkpt lat="45.93342" lon="4.7253">
        <ele>172</ele>
        <time>2018-06-20T09:40:14Z</time>
      </trkpt>
      <trkpt lat="45.93345" lon="4.72525">
        <ele>172</ele>
        <time>2018-06-20T09:40:15Z</time>
      </trkpt>
      <trkpt lat="45.93349" lon="4.7252">
        <ele>172</ele>
        <time>2018-06-20T09:40:16Z</time>
      </trkpt>
      <trkpt lat="45.93354" lon="4.72514">
        <ele>172</ele>
        <time>2018-06-20T09:40:17Z</time>
      </trkpt>
      <trkpt lat="45.93358" lon="4.7251">
        <ele>172</ele>
        <time>2018-06-20T09:40:18Z</time>
      </trkpt>
      <trkpt lat="45.93363" lon="4.72504">
        <ele>172</ele>
        <time>2018-06-20T09:40:19Z</time>
      </trkpt>
      <trkpt lat="45.93368" lon="4.725">
        <ele>173</ele>
        <time>2018-06-20T09:40:20Z</time>
      </trkpt>
      <trkpt lat="45.93373" lon="4.72494">
        <ele>173</ele>
        <time>2018-06-20T09:40:21Z</time>
      </trkpt>
      <trkpt lat="45.93377" lon="4.72489">
        <ele>173</ele>
        <time>2018-06-20T09:40:22Z</time>
      </trkpt>
      <trkpt lat="45.93382" lon="4.72484">
        <ele>173</ele>
        <time>2018-06-20T09:40:23Z</time>
      </trkpt>
      <trkpt lat="45.93385" lon="4.72479">
        <ele>173</ele>
        <time>2018-06-20T09:40:24Z</time>
      </trkpt>
      <trkpt lat="45.93389" lon="4.72474">
        <ele>173</ele>
        <time>2018-06-20T09:40:25Z</time>
      </trkpt>
      <trkpt lat="45.93395" lon="4.72465">
        <ele>173</ele>
        <time>2018-06-20T09:40:29Z</time>
      </trkpt>
      <trkpt lat="45.93396" lon="4.72464">
        <ele>173</ele>
        <time>2018-06-20T09:40:30Z</time>
      </trkpt>
      <trkpt lat="45.93396" lon="4.72463">
        <ele>173</ele>
        <time>2018-06-20T09:40:31Z</time>
      </trkpt>
      <trkpt lat="45.93396" lon="4.72463">
        <ele>173</ele>
        <time>2018-06-20T09:40:32Z</time>
      </trkpt>
      <trkpt lat="45.93396" lon="4.72463">
        <ele>173</ele>
        <time>2018-06-20T09:40:33Z</time>
      </trkpt>
      <trkpt lat="45.93398" lon="4.72452">
        <ele>173</ele>
        <time>2018-06-20T09:40:38Z</time>
      </trkpt>
      <trkpt lat="45.93399" lon="4.72448">
        <ele>173</ele>
        <time>2018-06-20T09:40:39Z</time>
      </trkpt>
      <trkpt lat="45.93402" lon="4.7244">
        <ele>173</ele>
        <time>2018-06-20T09:40:41Z</time>
      </trkpt>
      <trkpt lat="45.93407" lon="4.72429">
        <ele>173</ele>
        <time>2018-06-20T09:40:42Z</time>
      </trkpt>
      <trkpt lat="45.93409" lon="4.72424">
        <ele>174</ele>
        <time>2018-06-20T09:40:44Z</time>
      </trkpt>
      <trkpt lat="45.93414" lon="4.72418">
        <ele>174</ele>
        <time>2018-06-20T09:40:45Z</time>
      </trkpt>
      <trkpt lat="45.93423" lon="4.72413">
        <ele>174</ele>
        <time>2018-06-20T09:40:47Z</time>
      </trkpt>
      <trkpt lat="45.93427" lon="4.72411">
        <ele>174</ele>
        <time>2018-06-20T09:40:48Z</time>
      </trkpt>
      <trkpt lat="45.93432" lon="4.7241">
        <ele>174</ele>
        <time>2018-06-20T09:40:49Z</time>
      </trkpt>
      <trkpt lat="45.93437" lon="4.72406">
        <ele>174</ele>
        <time>2018-06-20T09:40:50Z</time>
      </trkpt>
      <trkpt lat="45.93442" lon="4.72403">
        <ele>173</ele>
        <time>2018-06-20T09:40:51Z</time>
      </trkpt>
      <trkpt lat="45.93446" lon="4.72399">
        <ele>173</ele>
        <time>2018-06-20T09:40:52Z</time>
      </trkpt>
      <trkpt lat="45.93452" lon="4.72396">
        <ele>173</ele>
        <time>2018-06-20T09:40:53Z</time>
      </trkpt>
      <trkpt lat="45.93456" lon="4.72392">
        <ele>173</ele>
        <time>2018-06-20T09:40:54Z</time>
      </trkpt>
      <trkpt lat="45.9346" lon="4.72386">
        <ele>173</ele>
        <time>2018-06-20T09:40:55Z</time>
      </trkpt>
      <trkpt lat="45.93465" lon="4.7238">
        <ele>173</ele>
        <time>2018-06-20T09:40:56Z</time>
      </trkpt>
      <trkpt lat="45.93469" lon="4.72375">
        <ele>173</ele>
        <time>2018-06-20T09:40:57Z</time>
      </trkpt>
      <trkpt lat="45.93473" lon="4.72371">
        <ele>173</ele>
        <time>2018-06-20T09:40:58Z</time>
      </trkpt>
      <trkpt lat="45.93477" lon="4.72366">
        <ele>173</ele>
        <time>2018-06-20T09:40:59Z</time>
      </trkpt>
      <trkpt lat="45.93481" lon="4.72359">
        <ele>173</ele>
        <time>2018-06-20T09:41:00Z</time>
      </trkpt>
      <trkpt lat="45.93485" lon="4.72354">
        <ele>173</ele>
        <time>2018-06-20T09:41:01Z</time>
      </trkpt>
      <trkpt lat="45.93489" lon="4.72349">
        <ele>173</ele>
        <time>2018-06-20T09:41:02Z</time>
      </trkpt>
      <trkpt lat="45.93493" lon="4.72342">
        <ele>173</ele>
        <time>2018-06-20T09:41:03Z</time>
      </trkpt>
      <trkpt lat="45.93496" lon="4.72336">
        <ele>173</ele>
        <time>2018-06-20T09:41:04Z</time>
      </trkpt>
      <trkpt lat="45.935" lon="4.72332">
        <ele>173</ele>
        <time>2018-06-20T09:41:05Z</time>
      </trkpt>
      <trkpt lat="45.93503" lon="4.72327">
        <ele>173</ele>
        <time>2018-06-20T09:41:06Z</time>
      </trkpt>
      <trkpt lat="45.93507" lon="4.72321">
        <ele>173</ele>
        <time>2018-06-20T09:41:07Z</time>
      </trkpt>
      <trkpt lat="45.9351" lon="4.72316">
        <ele>173</ele>
        <time>2018-06-20T09:41:08Z</time>
      </trkpt>
      <trkpt lat="45.93516" lon="4.72308">
        <ele>173</ele>
        <time>2018-06-20T09:41:09Z</time>
      </trkpt>
      <trkpt lat="45.93519" lon="4.72302">
        <ele>172</ele>
        <time>2018-06-20T09:41:10Z</time>
      </trkpt>
      <trkpt lat="45.93523" lon="4.72295">
        <ele>172</ele>
        <time>2018-06-20T09:41:11Z</time>
      </trkpt>
      <trkpt lat="45.93525" lon="4.72288">
        <ele>172</ele>
        <time>2018-06-20T09:41:12Z</time>
      </trkpt>
      <trkpt lat="45.93528" lon="4.72283">
        <ele>172</ele>
        <time>2018-06-20T09:41:13Z</time>
      </trkpt>
      <trkpt lat="45.9353" lon="4.72277">
        <ele>172</ele>
        <time>2018-06-20T09:41:14Z</time>
      </trkpt>
      <trkpt lat="45.93533" lon="4.72271">
        <ele>172</ele>
        <time>2018-06-20T09:41:15Z</time>
      </trkpt>
      <trkpt lat="45.93535" lon="4.72265">
        <ele>172</ele>
        <time>2018-06-20T09:41:16Z</time>
      </trkpt>
      <trkpt lat="45.93538" lon="4.72259">
        <ele>172</ele>
        <time>2018-06-20T09:41:17Z</time>
      </trkpt>
      <trkpt lat="45.9354" lon="4.72253">
        <ele>172</ele>
        <time>2018-06-20T09:41:18Z</time>
      </trkpt>
      <trkpt lat="45.93545" lon="4.72242">
        <ele>172</ele>
        <time>2018-06-20T09:41:20Z</time>
      </trkpt>
      <trkpt lat="45.93548" lon="4.72235">
        <ele>172</ele>
        <time>2018-06-20T09:41:21Z</time>
      </trkpt>
      <trkpt lat="45.93552" lon="4.72229">
        <ele>172</ele>
        <time>2018-06-20T09:41:22Z</time>
      </trkpt>
      <trkpt lat="45.93555" lon="4.72226">
        <ele>173</ele>
        <time>2018-06-20T09:41:23Z</time>
      </trkpt>
      <trkpt lat="45.9356" lon="4.72225">
        <ele>173</ele>
        <time>2018-06-20T09:41:24Z</time>
      </trkpt>
      <trkpt lat="45.93565" lon="4.72226">
        <ele>173</ele>
        <time>2018-06-20T09:41:25Z</time>
      </trkpt>
      <trkpt lat="45.93568" lon="4.7223">
        <ele>173</ele>
        <time>2018-06-20T09:41:26Z</time>
      </trkpt>
      <trkpt lat="45.93572" lon="4.72235">
        <ele>173</ele>
        <time>2018-06-20T09:41:27Z</time>
      </trkpt>
      <trkpt lat="45.93576" lon="4.7224">
        <ele>173</ele>
        <time>2018-06-20T09:41:28Z</time>
      </trkpt>
      <trkpt lat="45.93581" lon="4.72243">
        <ele>173</ele>
        <time>2018-06-20T09:41:29Z</time>
      </trkpt>
      <trkpt lat="45.93587" lon="4.72248">
        <ele>173</ele>
        <time>2018-06-20T09:41:30Z</time>
      </trkpt>
      <trkpt lat="45.93592" lon="4.72253">
        <ele>173</ele>
        <time>2018-06-20T09:41:31Z</time>
      </trkpt>
      <trkpt lat="45.93597" lon="4.72259">
        <ele>173</ele>
        <time>2018-06-20T09:41:32Z</time>
      </trkpt>
      <trkpt lat="45.93601" lon="4.72266">
        <ele>173</ele>
        <time>2018-06-20T09:41:33Z</time>
      </trkpt>
      <trkpt lat="45.93608" lon="4.72272">
        <ele>172</ele>
        <time>2018-06-20T09:41:34Z</time>
      </trkpt>
      <trkpt lat="45.93613" lon="4.72273">
        <ele>172</ele>
        <time>2018-06-20T09:41:35Z</time>
      </trkpt>
      <trkpt lat="45.9362" lon="4.72277">
        <ele>172</ele>
        <time>2018-06-20T09:41:36Z</time>
      </trkpt>
      <trkpt lat="45.93625" lon="4.72283">
        <ele>172</ele>
        <time>2018-06-20T09:41:37Z</time>
      </trkpt>
      <trkpt lat="45.9363" lon="4.72289">
        <ele>172</ele>
        <time>2018-06-20T09:41:39Z</time>
      </trkpt>
      <trkpt lat="45.93633" lon="4.72293">
        <ele>172</ele>
        <time>2018-06-20T09:41:40Z</time>
      </trkpt>
      <trkpt lat="45.93639" lon="4.72301">
        <ele>172</ele>
        <time>2018-06-20T09:41:42Z</time>
      </trkpt>
      <trkpt lat="45.93642" lon="4.72301">
        <ele>172</ele>
        <time>2018-06-20T09:41:43Z</time>
      </trkpt>
      <trkpt lat="45.93647" lon="4.72305">
        <ele>172</ele>
        <time>2018-06-20T09:41:44Z</time>
      </trkpt>
      <trkpt lat="45.93654" lon="4.7231">
        <ele>172</ele>
        <time>2018-06-20T09:41:45Z</time>
      </trkpt>
      <trkpt lat="45.93659" lon="4.72316">
        <ele>172</ele>
        <time>2018-06-20T09:41:46Z</time>
      </trkpt>
      <trkpt lat="45.93665" lon="4.72321">
        <ele>171</ele>
        <time>2018-06-20T09:41:47Z</time>
      </trkpt>
      <trkpt lat="45.93671" lon="4.72324">
        <ele>171</ele>
        <time>2018-06-20T09:41:48Z</time>
      </trkpt>
      <trkpt lat="45.93675" lon="4.72329">
        <ele>171</ele>
        <time>2018-06-20T09:41:49Z</time>
      </trkpt>
      <trkpt lat="45.93679" lon="4.72335">
        <ele>171</ele>
        <time>2018-06-20T09:41:50Z</time>
      </trkpt>
      <trkpt lat="45.93684" lon="4.72339">
        <ele>171</ele>
        <time>2018-06-20T09:41:51Z</time>
      </trkpt>
      <trkpt lat="45.93689" lon="4.72344">
        <ele>171</ele>
        <time>2018-06-20T09:41:52Z</time>
      </trkpt>
      <trkpt lat="45.93693" lon="4.72349">
        <ele>171</ele>
        <time>2018-06-20T09:41:53Z</time>
      </trkpt>
      <trkpt lat="45.93698" lon="4.72353">
        <ele>171</ele>
        <time>2018-06-20T09:41:54Z</time>
      </trkpt>
      <trkpt lat="45.93701" lon="4.72358">
        <ele>171</ele>
        <time>2018-06-20T09:41:55Z</time>
      </trkpt>
      <trkpt lat="45.93706" lon="4.72367">
        <ele>171</ele>
        <time>2018-06-20T09:41:57Z</time>
      </trkpt>
      <trkpt lat="45.9371" lon="4.72373">
        <ele>172</ele>
        <time>2018-06-20T09:41:58Z</time>
      </trkpt>
      <trkpt lat="45.93716" lon="4.72376">
        <ele>171</ele>
        <time>2018-06-20T09:41:59Z</time>
      </trkpt>
      <trkpt lat="45.9372" lon="4.7238">
        <ele>171</ele>
        <time>2018-06-20T09:42:00Z</time>
      </trkpt>
      <trkpt lat="45.93723" lon="4.72384">
        <ele>171</ele>
        <time>2018-06-20T09:42:01Z</time>
      </trkpt>
      <trkpt lat="45.93727" lon="4.72388">
        <ele>171</ele>
        <time>2018-06-20T09:42:02Z</time>
      </trkpt>
      <trkpt lat="45.9373" lon="4.72392">
        <ele>171</ele>
        <time>2018-06-20T09:42:03Z</time>
      </trkpt>
      <trkpt lat="45.93734" lon="4.72396">
        <ele>171</ele>
        <time>2018-06-20T09:42:04Z</time>
      </trkpt>
      <trkpt lat="45.93741" lon="4.72401">
        <ele>171</ele>
        <time>2018-06-20T09:42:06Z</time>
      </trkpt>
      <trkpt lat="45.93746" lon="4.72406">
        <ele>171</ele>
        <time>2018-06-20T09:42:07Z</time>
      </trkpt>
      <trkpt lat="45.9375" lon="4.72409">
        <ele>171</ele>
        <time>2018-06-20T09:42:08Z</time>
      </trkpt>
      <trkpt lat="45.93756" lon="4.72415">
        <ele>171</ele>
        <time>2018-06-20T09:42:09Z</time>
      </trkpt>
      <trkpt lat="45.93761" lon="4.7242">
        <ele>171</ele>
        <time>2018-06-20T09:42:10Z</time>
      </trkpt>
      <trkpt lat="45.93766" lon="4.72425">
        <ele>171</ele>
        <time>2018-06-20T09:42:11Z</time>
      </trkpt>
      <trkpt lat="45.93771" lon="4.72429">
        <ele>171</ele>
        <time>2018-06-20T09:42:12Z</time>
      </trkpt>
      <trkpt lat="45.93776" lon="4.72435">
        <ele>172</ele>
        <time>2018-06-20T09:42:13Z</time>
      </trkpt>
      <trkpt lat="45.93783" lon="4.72439">
        <ele>172</ele>
        <time>2018-06-20T09:42:14Z</time>
      </trkpt>
      <trkpt lat="45.93787" lon="4.72444">
        <ele>172</ele>
        <time>2018-06-20T09:42:15Z</time>
      </trkpt>
      <trkpt lat="45.93792" lon="4.72449">
        <ele>172</ele>
        <time>2018-06-20T09:42:16Z</time>
      </trkpt>
      <trkpt lat="45.93798" lon="4.72454">
        <ele>172</ele>
        <time>2018-06-20T09:42:17Z</time>
      </trkpt>
      <trkpt lat="45.93803" lon="4.72457">
        <ele>172</ele>
        <time>2018-06-20T09:42:18Z</time>
      </trkpt>
      <trkpt lat="45.93808" lon="4.72462">
        <ele>172</ele>
        <time>2018-06-20T09:42:19Z</time>
      </trkpt>
      <trkpt lat="45.93812" lon="4.72467">
        <ele>172</ele>
        <time>2018-06-20T09:42:20Z</time>
      </trkpt>
      <trkpt lat="45.93814" lon="4.72471">
        <ele>172</ele>
        <time>2018-06-20T09:42:21Z</time>
      </trkpt>
      <trkpt lat="45.9382" lon="4.72476">
        <ele>172</ele>
        <time>2018-06-20T09:42:22Z</time>
      </trkpt>
      <trkpt lat="45.93825" lon="4.72482">
        <ele>173</ele>
        <time>2018-06-20T09:42:23Z</time>
      </trkpt>
      <trkpt lat="45.93831" lon="4.72487">
        <ele>173</ele>
        <time>2018-06-20T09:42:24Z</time>
      </trkpt>
      <trkpt lat="45.93835" lon="4.72493">
        <ele>174</ele>
        <time>2018-06-20T09:42:25Z</time>
      </trkpt>
      <trkpt lat="45.93863" lon="4.72516">
        <ele>173</ele>
        <time>2018-06-20T09:42:32Z</time>
      </trkpt>
      <trkpt lat="45.93869" lon="4.72517">
        <ele>173</ele>
        <time>2018-06-20T09:42:34Z</time>
      </trkpt>
      <trkpt lat="45.93875" lon="4.72514">
        <ele>173</ele>
        <time>2018-06-20T09:42:35Z</time>
      </trkpt>
      <trkpt lat="45.93882" lon="4.72508">
        <ele>173</ele>
        <time>2018-06-20T09:42:36Z</time>
      </trkpt>
      <trkpt lat="45.93886" lon="4.72504">
        <ele>173</ele>
        <time>2018-06-20T09:42:37Z</time>
      </trkpt>
      <trkpt lat="45.93891" lon="4.72498">
        <ele>172</ele>
        <time>2018-06-20T09:42:38Z</time>
      </trkpt>
      <trkpt lat="45.93896" lon="4.72493">
        <ele>172</ele>
        <time>2018-06-20T09:42:39Z</time>
      </trkpt>
      <trkpt lat="45.93901" lon="4.72486">
        <ele>172</ele>
        <time>2018-06-20T09:42:40Z</time>
      </trkpt>
      <trkpt lat="45.93906" lon="4.7248">
        <ele>172</ele>
        <time>2018-06-20T09:42:41Z</time>
      </trkpt>
      <trkpt lat="45.93911" lon="4.72476">
        <ele>172</ele>
        <time>2018-06-20T09:42:42Z</time>
      </trkpt>
      <trkpt lat="45.93916" lon="4.72469">
        <ele>172</ele>
        <time>2018-06-20T09:42:43Z</time>
      </trkpt>
      <trkpt lat="45.93921" lon="4.72461">
        <ele>171</ele>
        <time>2018-06-20T09:42:44Z</time>
      </trkpt>
      <trkpt lat="45.93925" lon="4.72456">
        <ele>171</ele>
        <time>2018-06-20T09:42:45Z</time>
      </trkpt>
      <trkpt lat="45.93931" lon="4.72449">
        <ele>171</ele>
        <time>2018-06-20T09:42:46Z</time>
      </trkpt>
      <trkpt lat="45.93936" lon="4.72443">
        <ele>171</ele>
        <time>2018-06-20T09:42:47Z</time>
      </trkpt>
      <trkpt lat="45.9394" lon="4.72438">
        <ele>171</ele>
        <time>2018-06-20T09:42:48Z</time>
      </trkpt>
      <trkpt lat="45.93944" lon="4.72432">
        <ele>171</ele>
        <time>2018-06-20T09:42:49Z</time>
      </trkpt>
      <trkpt lat="45.93949" lon="4.72426">
        <ele>171</ele>
        <time>2018-06-20T09:42:50Z</time>
      </trkpt>
      <trkpt lat="45.93954" lon="4.7242">
        <ele>171</ele>
        <time>2018-06-20T09:42:51Z</time>
      </trkpt>
      <trkpt lat="45.93958" lon="4.72415">
        <ele>171</ele>
        <time>2018-06-20T09:42:52Z</time>
      </trkpt>
      <trkpt lat="45.93962" lon="4.7241">
        <ele>171</ele>
        <time>2018-06-20T09:42:53Z</time>
      </trkpt>
      <trkpt lat="45.93967" lon="4.72404">
        <ele>171</ele>
        <time>2018-06-20T09:42:54Z</time>
      </trkpt>
      <trkpt lat="45.93973" lon="4.72398">
        <ele>171</ele>
        <time>2018-06-20T09:42:55Z</time>
      </trkpt>
      <trkpt lat="45.93978" lon="4.72393">
        <ele>171</ele>
        <time>2018-06-20T09:42:56Z</time>
      </trkpt>
      <trkpt lat="45.93983" lon="4.72387">
        <ele>171</ele>
        <time>2018-06-20T09:42:57Z</time>
      </trkpt>
      <trkpt lat="45.93987" lon="4.72381">
        <ele>171</ele>
        <time>2018-06-20T09:42:58Z</time>
      </trkpt>
      <trkpt lat="45.93992" lon="4.72375">
        <ele>171</ele>
        <time>2018-06-20T09:42:59Z</time>
      </trkpt>
      <trkpt lat="45.93996" lon="4.7237">
        <ele>171</ele>
        <time>2018-06-20T09:43:00Z</time>
      </trkpt>
      <trkpt lat="45.94001" lon="4.72364">
        <ele>171</ele>
        <time>2018-06-20T09:43:01Z</time>
      </trkpt>
      <trkpt lat="45.94005" lon="4.72358">
        <ele>171</ele>
        <time>2018-06-20T09:43:02Z</time>
      </trkpt>
      <trkpt lat="45.9401" lon="4.72351">
        <ele>171</ele>
        <time>2018-06-20T09:43:03Z</time>
      </trkpt>
      <trkpt lat="45.94016" lon="4.72345">
        <ele>171</ele>
        <time>2018-06-20T09:43:04Z</time>
      </trkpt>
      <trkpt lat="45.9402" lon="4.72339">
        <ele>171</ele>
        <time>2018-06-20T09:43:05Z</time>
      </trkpt>
      <trkpt lat="45.94024" lon="4.72333">
        <ele>171</ele>
        <time>2018-06-20T09:43:06Z</time>
      </trkpt>
      <trkpt lat="45.94029" lon="4.72328">
        <ele>171</ele>
        <time>2018-06-20T09:43:07Z</time>
      </trkpt>
      <trkpt lat="45.94033" lon="4.72322">
        <ele>171</ele>
        <time>2018-06-20T09:43:08Z</time>
      </trkpt>
      <trkpt lat="45.94038" lon="4.72316">
        <ele>171</ele>
        <time>2018-06-20T09:43:09Z</time>
      </trkpt>
      <trkpt lat="45.94042" lon="4.7231">
        <ele>171</ele>
        <time>2018-06-20T09:43:10Z</time>
      </trkpt>
      <trkpt lat="45.94046" lon="4.72305">
        <ele>171</ele>
        <time>2018-06-20T09:43:11Z</time>
      </trkpt>
      <trkpt lat="45.9405" lon="4.723">
        <ele>171</ele>
        <time>2018-06-20T09:43:12Z</time>
      </trkpt>
      <trkpt lat="45.94053" lon="4.72294">
        <ele>171</ele>
        <time>2018-06-20T09:43:13Z</time>
      </trkpt>
      <trkpt lat="45.94057" lon="4.72291">
        <ele>171</ele>
        <time>2018-06-20T09:43:14Z</time>
      </trkpt>
      <trkpt lat="45.94062" lon="4.72287">
        <ele>171</ele>
        <time>2018-06-20T09:43:15Z</time>
      </trkpt>
      <trkpt lat="45.94067" lon="4.7228">
        <ele>171</ele>
        <time>2018-06-20T09:43:16Z</time>
      </trkpt>
      <trkpt lat="45.94072" lon="4.72276">
        <ele>171</ele>
        <time>2018-06-20T09:43:17Z</time>
      </trkpt>
      <trkpt lat="45.94078" lon="4.72272">
        <ele>171</ele>
        <time>2018-06-20T09:43:18Z</time>
      </trkpt>
      <trkpt lat="45.94081" lon="4.72271">
        <ele>171</ele>
        <time>2018-06-20T09:43:19Z</time>
      </trkpt>
      <trkpt lat="45.94087" lon="4.72267">
        <ele>171</ele>
        <time>2018-06-20T09:43:20Z</time>
      </trkpt>
      <trkpt lat="45.94091" lon="4.72265">
        <ele>171</ele>
        <time>2018-06-20T09:43:21Z</time>
      </trkpt>
      <trkpt lat="45.94097" lon="4.72265">
        <ele>171</ele>
        <time>2018-06-20T09:43:22Z</time>
      </trkpt>
      <trkpt lat="45.94102" lon="4.72265">
        <ele>171</ele>
        <time>2018-06-20T09:43:23Z</time>
      </trkpt>
      <trkpt lat="45.94108" lon="4.72267">
        <ele>171</ele>
        <time>2018-06-20T09:43:24Z</time>
      </trkpt>
      <trkpt lat="45.94112" lon="4.7227">
        <ele>171</ele>
        <time>2018-06-20T09:43:25Z</time>
      </trkpt>
      <trkpt lat="45.94116" lon="4.72272">
        <ele>171</ele>
        <time>2018-06-20T09:43:26Z</time>
      </trkpt>
      <trkpt lat="45.94121" lon="4.72273">
        <ele>171</ele>
        <time>2018-06-20T09:43:27Z</time>
      </trkpt>
      <trkpt lat="45.94126" lon="4.72276">
        <ele>171</ele>
        <time>2018-06-20T09:43:28Z</time>
      </trkpt>
      <trkpt lat="45.94131" lon="4.72279">
        <ele>171</ele>
        <time>2018-06-20T09:43:29Z</time>
      </trkpt>
      <trkpt lat="45.94137" lon="4.72282">
        <ele>171</ele>
        <time>2018-06-20T09:43:30Z</time>
      </trkpt>
      <trkpt lat="45.94141" lon="4.72286">
        <ele>171</ele>
        <time>2018-06-20T09:43:31Z</time>
      </trkpt>
      <trkpt lat="45.94147" lon="4.72286">
        <ele>171</ele>
        <time>2018-06-20T09:43:32Z</time>
      </trkpt>
      <trkpt lat="45.94153" lon="4.72288">
        <ele>171</ele>
        <time>2018-06-20T09:43:33Z</time>
      </trkpt>
      <trkpt lat="45.94159" lon="4.72289">
        <ele>171</ele>
        <time>2018-06-20T09:43:34Z</time>
      </trkpt>
      <trkpt lat="45.94163" lon="4.7229">
        <ele>171</ele>
        <time>2018-06-20T09:43:35Z</time>
      </trkpt>
      <trkpt lat="45.94168" lon="4.72291">
        <ele>171</ele>
        <time>2018-06-20T09:43:36Z</time>
      </trkpt>
      <trkpt lat="45.94173" lon="4.7229">
        <ele>171</ele>
        <time>2018-06-20T09:43:37Z</time>
      </trkpt>
      <trkpt lat="45.94177" lon="4.7229">
        <ele>171</ele>
        <time>2018-06-20T09:43:38Z</time>
      </trkpt>
      <trkpt lat="45.94183" lon="4.7229">
        <ele>171</ele>
        <time>2018-06-20T09:43:39Z</time>
      </trkpt>
      <trkpt lat="45.94188" lon="4.72291">
        <ele>171</ele>
        <time>2018-06-20T09:43:40Z</time>
      </trkpt>
      <trkpt lat="45.94192" lon="4.72293">
        <ele>171</ele>
        <time>2018-06-20T09:43:41Z</time>
      </trkpt>
      <trkpt lat="45.94198" lon="4.72292">
        <ele>171</ele>
        <time>2018-06-20T09:43:42Z</time>
      </trkpt>
      <trkpt lat="45.94202" lon="4.72292">
        <ele>171</ele>
        <time>2018-06-20T09:43:43Z</time>
      </trkpt>
      <trkpt lat="45.9421" lon="4.72289">
        <ele>171</ele>
        <time>2018-06-20T09:43:44Z</time>
      </trkpt>
      <trkpt lat="45.94216" lon="4.72288">
        <ele>171</ele>
        <time>2018-06-20T09:43:45Z</time>
      </trkpt>
      <trkpt lat="45.94222" lon="4.72287">
        <ele>171</ele>
        <time>2018-06-20T09:43:46Z</time>
      </trkpt>
      <trkpt lat="45.94229" lon="4.72285">
        <ele>171</ele>
        <time>2018-06-20T09:43:47Z</time>
      </trkpt>
      <trkpt lat="45.94237" lon="4.72284">
        <ele>171</ele>
        <time>2018-06-20T09:43:49Z</time>
      </trkpt>
      <trkpt lat="45.9424" lon="4.72283">
        <ele>171</ele>
        <time>2018-06-20T09:43:50Z</time>
      </trkpt>
      <trkpt lat="45.94248" lon="4.72281">
        <ele>171</ele>
        <time>2018-06-20T09:43:52Z</time>
      </trkpt>
      <trkpt lat="45.94253" lon="4.72278">
        <ele>171</ele>
        <time>2018-06-20T09:43:53Z</time>
      </trkpt>
      <trkpt lat="45.94257" lon="4.72276">
        <ele>171</ele>
        <time>2018-06-20T09:43:54Z</time>
      </trkpt>
      <trkpt lat="45.94262" lon="4.72275">
        <ele>171</ele>
        <time>2018-06-20T09:43:55Z</time>
      </trkpt>
      <trkpt lat="45.94269" lon="4.72274">
        <ele>171</ele>
        <time>2018-06-20T09:43:57Z</time>
      </trkpt>
      <trkpt lat="45.94272" lon="4.72279">
        <ele>171</ele>
        <time>2018-06-20T09:43:58Z</time>
      </trkpt>
      <trkpt lat="45.94277" lon="4.72287">
        <ele>171</ele>
        <time>2018-06-20T09:44:00Z</time>
      </trkpt>
      <trkpt lat="45.9428" lon="4.72293">
        <ele>171</ele>
        <time>2018-06-20T09:44:01Z</time>
      </trkpt>
      <trkpt lat="45.94282" lon="4.72299">
        <ele>171</ele>
        <time>2018-06-20T09:44:02Z</time>
      </trkpt>
      <trkpt lat="45.94285" lon="4.72305">
        <ele>171</ele>
        <time>2018-06-20T09:44:03Z</time>
      </trkpt>
      <trkpt lat="45.94289" lon="4.72311">
        <ele>171</ele>
        <time>2018-06-20T09:44:04Z</time>
      </trkpt>
      <trkpt lat="45.94291" lon="4.72318">
        <ele>171</ele>
        <time>2018-06-20T09:44:05Z</time>
      </trkpt>
      <trkpt lat="45.94294" lon="4.72324">
        <ele>171</ele>
        <time>2018-06-20T09:44:06Z</time>
      </trkpt>
      <trkpt lat="45.94299" lon="4.7233">
        <ele>171</ele>
        <time>2018-06-20T09:44:07Z</time>
      </trkpt>
      <trkpt lat="45.94301" lon="4.72336">
        <ele>172</ele>
        <time>2018-06-20T09:44:08Z</time>
      </trkpt>
      <trkpt lat="45.94305" lon="4.72344">
        <ele>172</ele>
        <time>2018-06-20T09:44:09Z</time>
      </trkpt>
      <trkpt lat="45.94308" lon="4.72351">
        <ele>172</ele>
        <time>2018-06-20T09:44:10Z</time>
      </trkpt>
      <trkpt lat="45.94312" lon="4.72357">
        <ele>172</ele>
        <time>2018-06-20T09:44:11Z</time>
      </trkpt>
      <trkpt lat="45.94317" lon="4.72365">
        <ele>172</ele>
        <time>2018-06-20T09:44:12Z</time>
      </trkpt>
      <trkpt lat="45.9432" lon="4.72372">
        <ele>172</ele>
        <time>2018-06-20T09:44:13Z</time>
      </trkpt>
      <trkpt lat="45.94324" lon="4.72379">
        <ele>172</ele>
        <time>2018-06-20T09:44:14Z</time>
      </trkpt>
      <trkpt lat="45.94328" lon="4.72388">
        <ele>172</ele>
        <time>2018-06-20T09:44:15Z</time>
      </trkpt>
      <trkpt lat="45.94332" lon="4.72396">
        <ele>172</ele>
        <time>2018-06-20T09:44:16Z</time>
      </trkpt>
      <trkpt lat="45.94335" lon="4.72404">
        <ele>173</ele>
        <time>2018-06-20T09:44:17Z</time>
      </trkpt>
      <trkpt lat="45.94338" lon="4.7241">
        <ele>173</ele>
        <time>2018-06-20T09:44:18Z</time>
      </trkpt>
      <trkpt lat="45.94341" lon="4.72417">
        <ele>173</ele>
        <time>2018-06-20T09:44:19Z</time>
      </trkpt>
      <trkpt lat="45.94344" lon="4.72424">
        <ele>173</ele>
        <time>2018-06-20T09:44:20Z</time>
      </trkpt>
      <trkpt lat="45.94347" lon="4.72432">
        <ele>173</ele>
        <time>2018-06-20T09:44:21Z</time>
      </trkpt>
      <trkpt lat="45.94349" lon="4.72439">
        <ele>173</ele>
        <time>2018-06-20T09:44:22Z</time>
      </trkpt>
      <trkpt lat="45.94352" lon="4.72446">
        <ele>173</ele>
        <time>2018-06-20T09:44:23Z</time>
      </trkpt>
      <trkpt lat="45.94356" lon="4.72453">
        <ele>173</ele>
        <time>2018-06-20T09:44:24Z</time>
      </trkpt>
      <trkpt lat="45.94358" lon="4.72458">
        <ele>173</ele>
        <time>2018-06-20T09:44:25Z</time>
      </trkpt>
      <trkpt lat="45.94361" lon="4.72465">
        <ele>173</ele>
        <time>2018-06-20T09:44:26Z</time>
      </trkpt>
      <trkpt lat="45.94366" lon="4.7247">
        <ele>173</ele>
        <time>2018-06-20T09:44:27Z</time>
      </trkpt>
      <trkpt lat="45.94371" lon="4.72475">
        <ele>173</ele>
        <time>2018-06-20T09:44:28Z</time>
      </trkpt>
      <trkpt lat="45.94375" lon="4.72482">
        <ele>173</ele>
        <time>2018-06-20T09:44:29Z</time>
      </trkpt>
      <trkpt lat="45.94378" lon="4.7249">
        <ele>173</ele>
        <time>2018-06-20T09:44:30Z</time>
      </trkpt>
      <trkpt lat="45.94382" lon="4.72498">
        <ele>173</ele>
        <time>2018-06-20T09:44:31Z</time>
      </trkpt>
      <trkpt lat="45.94384" lon="4.72506">
        <ele>174</ele>
        <time>2018-06-20T09:44:32Z</time>
      </trkpt>
      <trkpt lat="45.94385" lon="4.72514">
        <ele>174</ele>
        <time>2018-06-20T09:44:33Z</time>
      </trkpt>
      <trkpt lat="45.94386" lon="4.72521">
        <ele>174</ele>
        <time>2018-06-20T09:44:34Z</time>
      </trkpt>
      <trkpt lat="45.94387" lon="4.72529">
        <ele>174</ele>
        <time>2018-06-20T09:44:35Z</time>
      </trkpt>
      <trkpt lat="45.94388" lon="4.72536">
        <ele>174</ele>
        <time>2018-06-20T09:44:36Z</time>
      </trkpt>
      <trkpt lat="45.94388" lon="4.72543">
        <ele>173</ele>
        <time>2018-06-20T09:44:37Z</time>
      </trkpt>
      <trkpt lat="45.9439" lon="4.72551">
        <ele>173</ele>
        <time>2018-06-20T09:44:38Z</time>
      </trkpt>
      <trkpt lat="45.94391" lon="4.72557">
        <ele>173</ele>
        <time>2018-06-20T09:44:39Z</time>
      </trkpt>
      <trkpt lat="45.94392" lon="4.72565">
        <ele>173</ele>
        <time>2018-06-20T09:44:40Z</time>
      </trkpt>
      <trkpt lat="45.94394" lon="4.72572">
        <ele>173</ele>
        <time>2018-06-20T09:44:41Z</time>
      </trkpt>
      <trkpt lat="45.94396" lon="4.72579">
        <ele>173</ele>
        <time>2018-06-20T09:44:42Z</time>
      </trkpt>
      <trkpt lat="45.94396" lon="4.72587">
        <ele>173</ele>
        <time>2018-06-20T09:44:43Z</time>
      </trkpt>
      <trkpt lat="45.94397" lon="4.72594">
        <ele>173</ele>
        <time>2018-06-20T09:44:44Z</time>
      </trkpt>
      <trkpt lat="45.94398" lon="4.72602">
        <ele>173</ele>
        <time>2018-06-20T09:44:45Z</time>
      </trkpt>
      <trkpt lat="45.94399" lon="4.7261">
        <ele>173</ele>
        <time>2018-06-20T09:44:46Z</time>
      </trkpt>
      <trkpt lat="45.944" lon="4.72618">
        <ele>173</ele>
        <time>2018-06-20T09:44:47Z</time>
      </trkpt>
      <trkpt lat="45.944" lon="4.72627">
        <ele>174</ele>
        <time>2018-06-20T09:44:48Z</time>
      </trkpt>
      <trkpt lat="45.944" lon="4.72634">
        <ele>174</ele>
        <time>2018-06-20T09:44:49Z</time>
      </trkpt>
      <trkpt lat="45.94402" lon="4.72643">
        <ele>174</ele>
        <time>2018-06-20T09:44:50Z</time>
      </trkpt>
      <trkpt lat="45.94403" lon="4.72652">
        <ele>174</ele>
        <time>2018-06-20T09:44:51Z</time>
      </trkpt>
      <trkpt lat="45.94404" lon="4.72661">
        <ele>174</ele>
        <time>2018-06-20T09:44:52Z</time>
      </trkpt>
      <trkpt lat="45.94404" lon="4.72669">
        <ele>173</ele>
        <time>2018-06-20T09:44:53Z</time>
      </trkpt>
      <trkpt lat="45.94406" lon="4.72679">
        <ele>173</ele>
        <time>2018-06-20T09:44:54Z</time>
      </trkpt>
      <trkpt lat="45.94406" lon="4.72687">
        <ele>173</ele>
        <time>2018-06-20T09:44:55Z</time>
      </trkpt>
      <trkpt lat="45.94407" lon="4.72696">
        <ele>173</ele>
        <time>2018-06-20T09:44:56Z</time>
      </trkpt>
      <trkpt lat="45.94408" lon="4.72704">
        <ele>172</ele>
        <time>2018-06-20T09:44:57Z</time>
      </trkpt>
      <trkpt lat="45.94409" lon="4.72714">
        <ele>172</ele>
        <time>2018-06-20T09:44:58Z</time>
      </trkpt>
      <trkpt lat="45.9441" lon="4.72724">
        <ele>172</ele>
        <time>2018-06-20T09:44:59Z</time>
      </trkpt>
      <trkpt lat="45.94411" lon="4.72732">
        <ele>172</ele>
        <time>2018-06-20T09:45:00Z</time>
      </trkpt>
      <trkpt lat="45.94413" lon="4.7274">
        <ele>171</ele>
        <time>2018-06-20T09:45:01Z</time>
      </trkpt>
      <trkpt lat="45.94414" lon="4.72748">
        <ele>171</ele>
        <time>2018-06-20T09:45:02Z</time>
      </trkpt>
      <trkpt lat="45.94415" lon="4.72757">
        <ele>170</ele>
        <time>2018-06-20T09:45:03Z</time>
      </trkpt>
      <trkpt lat="45.94416" lon="4.72764">
        <ele>170</ele>
        <time>2018-06-20T09:45:04Z</time>
      </trkpt>
      <trkpt lat="45.94416" lon="4.72772">
        <ele>169</ele>
        <time>2018-06-20T09:45:05Z</time>
      </trkpt>
      <trkpt lat="45.94417" lon="4.7278">
        <ele>169</ele>
        <time>2018-06-20T09:45:06Z</time>
      </trkpt>
      <trkpt lat="45.94417" lon="4.72788">
        <ele>168</ele>
        <time>2018-06-20T09:45:07Z</time>
      </trkpt>
      <trkpt lat="45.94419" lon="4.72796">
        <ele>168</ele>
        <time>2018-06-20T09:45:08Z</time>
      </trkpt>
      <trkpt lat="45.94419" lon="4.72802">
        <ele>167</ele>
        <time>2018-06-20T09:45:09Z</time>
      </trkpt>
      <trkpt lat="45.9442" lon="4.72809">
        <ele>167</ele>
        <time>2018-06-20T09:45:10Z</time>
      </trkpt>
      <trkpt lat="45.94421" lon="4.72816">
        <ele>167</ele>
        <time>2018-06-20T09:45:11Z</time>
      </trkpt>
      <trkpt lat="45.94422" lon="4.72823">
        <ele>167</ele>
        <time>2018-06-20T09:45:12Z</time>
      </trkpt>
      <trkpt lat="45.94422" lon="4.7283">
        <ele>166</ele>
        <time>2018-06-20T09:45:13Z</time>
      </trkpt>
      <trkpt lat="45.94424" lon="4.72837">
        <ele>166</ele>
        <time>2018-06-20T09:45:14Z</time>
      </trkpt>
      <trkpt lat="45.94424" lon="4.72843">
        <ele>166</ele>
        <time>2018-06-20T09:45:15Z</time>
      </trkpt>
      <trkpt lat="45.94426" lon="4.72855">
        <ele>166</ele>
        <time>2018-06-20T09:45:17Z</time>
      </trkpt>
      <trkpt lat="45.94427" lon="4.72862">
        <ele>166</ele>
        <time>2018-06-20T09:45:18Z</time>
      </trkpt>
      <trkpt lat="45.94428" lon="4.72868">
        <ele>166</ele>
        <time>2018-06-20T09:45:19Z</time>
      </trkpt>
      <trkpt lat="45.94429" lon="4.72876">
        <ele>166</ele>
        <time>2018-06-20T09:45:20Z</time>
      </trkpt>
      <trkpt lat="45.94431" lon="4.72882">
        <ele>166</ele>
        <time>2018-06-20T09:45:21Z</time>
      </trkpt>
      <trkpt lat="45.94432" lon="4.72889">
        <ele>166</ele>
        <time>2018-06-20T09:45:22Z</time>
      </trkpt>
      <trkpt lat="45.94432" lon="4.72896">
        <ele>166</ele>
        <time>2018-06-20T09:45:23Z</time>
      </trkpt>
      <trkpt lat="45.94433" lon="4.72903">
        <ele>166</ele>
        <time>2018-06-20T09:45:24Z</time>
      </trkpt>
      <trkpt lat="45.94434" lon="4.7291">
        <ele>166</ele>
        <time>2018-06-20T09:45:25Z</time>
      </trkpt>
      <trkpt lat="45.94434" lon="4.72916">
        <ele>166</ele>
        <time>2018-06-20T09:45:26Z</time>
      </trkpt>
      <trkpt lat="45.94435" lon="4.72924">
        <ele>167</ele>
        <time>2018-06-20T09:45:27Z</time>
      </trkpt>
      <trkpt lat="45.94436" lon="4.7293">
        <ele>167</ele>
        <time>2018-06-20T09:45:28Z</time>
      </trkpt>
      <trkpt lat="45.94438" lon="4.72937">
        <ele>167</ele>
        <time>2018-06-20T09:45:29Z</time>
      </trkpt>
      <trkpt lat="45.94439" lon="4.72944">
        <ele>167</ele>
        <time>2018-06-20T09:45:30Z</time>
      </trkpt>
      <trkpt lat="45.94439" lon="4.72951">
        <ele>167</ele>
        <time>2018-06-20T09:45:31Z</time>
      </trkpt>
      <trkpt lat="45.94441" lon="4.72959">
        <ele>167</ele>
        <time>2018-06-20T09:45:32Z</time>
      </trkpt>
      <trkpt lat="45.94442" lon="4.72967">
        <ele>167</ele>
        <time>2018-06-20T09:45:33Z</time>
      </trkpt>
      <trkpt lat="45.94443" lon="4.72976">
        <ele>167</ele>
        <time>2018-06-20T09:45:34Z</time>
      </trkpt>
      <trkpt lat="45.94444" lon="4.72985">
        <ele>167</ele>
        <time>2018-06-20T09:45:35Z</time>
      </trkpt>
      <trkpt lat="45.94446" lon="4.72995">
        <ele>167</ele>
        <time>2018-06-20T09:45:36Z</time>
      </trkpt>
      <trkpt lat="45.94447" lon="4.73004">
        <ele>169</ele>
        <time>2018-06-20T09:45:37Z</time>
      </trkpt>
      <trkpt lat="45.94448" lon="4.73014">
        <ele>169</ele>
        <time>2018-06-20T09:45:38Z</time>
      </trkpt>
      <trkpt lat="45.94449" lon="4.73024">
        <ele>169</ele>
        <time>2018-06-20T09:45:39Z</time>
      </trkpt>
      <trkpt lat="45.9445" lon="4.73034">
        <ele>169</ele>
        <time>2018-06-20T09:45:40Z</time>
      </trkpt>
      <trkpt lat="45.94452" lon="4.73046">
        <ele>169</ele>
        <time>2018-06-20T09:45:41Z</time>
      </trkpt>
      <trkpt lat="45.94454" lon="4.73057">
        <ele>170</ele>
        <time>2018-06-20T09:45:42Z</time>
      </trkpt>
      <trkpt lat="45.94455" lon="4.73069">
        <ele>170</ele>
        <time>2018-06-20T09:45:43Z</time>
      </trkpt>
      <trkpt lat="45.94456" lon="4.73081">
        <ele>170</ele>
        <time>2018-06-20T09:45:44Z</time>
      </trkpt>
      <trkpt lat="45.94458" lon="4.73093">
        <ele>171</ele>
        <time>2018-06-20T09:45:45Z</time>
      </trkpt>
      <trkpt lat="45.94458" lon="4.73104">
        <ele>171</ele>
        <time>2018-06-20T09:45:46Z</time>
      </trkpt>
      <trkpt lat="45.94459" lon="4.73115">
        <ele>172</ele>
        <time>2018-06-20T09:45:47Z</time>
      </trkpt>
      <trkpt lat="45.94461" lon="4.73125">
        <ele>172</ele>
        <time>2018-06-20T09:45:48Z</time>
      </trkpt>
      <trkpt lat="45.94461" lon="4.73134">
        <ele>172</ele>
        <time>2018-06-20T09:45:49Z</time>
      </trkpt>
      <trkpt lat="45.94462" lon="4.73143">
        <ele>172</ele>
        <time>2018-06-20T09:45:50Z</time>
      </trkpt>
      <trkpt lat="45.94464" lon="4.73153">
        <ele>172</ele>
        <time>2018-06-20T09:45:51Z</time>
      </trkpt>
      <trkpt lat="45.94465" lon="4.73163">
        <ele>172</ele>
        <time>2018-06-20T09:45:52Z</time>
      </trkpt>
      <trkpt lat="45.94467" lon="4.73171">
        <ele>174</ele>
        <time>2018-06-20T09:45:53Z</time>
      </trkpt>
      <trkpt lat="45.94467" lon="4.73178">
        <ele>174</ele>
        <time>2018-06-20T09:45:54Z</time>
      </trkpt>
      <trkpt lat="45.94469" lon="4.73187">
        <ele>174</ele>
        <time>2018-06-20T09:45:55Z</time>
      </trkpt>
      <trkpt lat="45.94471" lon="4.73198">
        <ele>174</ele>
        <time>2018-06-20T09:45:56Z</time>
      </trkpt>
      <trkpt lat="45.94473" lon="4.73205">
        <ele>175</ele>
        <time>2018-06-20T09:45:57Z</time>
      </trkpt>
      <trkpt lat="45.94474" lon="4.73213">
        <ele>175</ele>
        <time>2018-06-20T09:45:58Z</time>
      </trkpt>
      <trkpt lat="45.94476" lon="4.73221">
        <ele>175</ele>
        <time>2018-06-20T09:45:59Z</time>
      </trkpt>
      <trkpt lat="45.94477" lon="4.7323">
        <ele>175</ele>
        <time>2018-06-20T09:46:00Z</time>
      </trkpt>
      <trkpt lat="45.94477" lon="4.73236">
        <ele>175</ele>
        <time>2018-06-20T09:46:01Z</time>
      </trkpt>
      <trkpt lat="45.9448" lon="4.73243">
        <ele>175</ele>
        <time>2018-06-20T09:46:02Z</time>
      </trkpt>
      <trkpt lat="45.9448" lon="4.7325">
        <ele>176</ele>
        <time>2018-06-20T09:46:03Z</time>
      </trkpt>
      <trkpt lat="45.9448" lon="4.73259">
        <ele>177</ele>
        <time>2018-06-20T09:46:04Z</time>
      </trkpt>
      <trkpt lat="45.94481" lon="4.73265">
        <ele>177</ele>
        <time>2018-06-20T09:46:05Z</time>
      </trkpt>
      <trkpt lat="45.94482" lon="4.73272">
        <ele>177</ele>
        <time>2018-06-20T09:46:06Z</time>
      </trkpt>
      <trkpt lat="45.94484" lon="4.73285">
        <ele>177</ele>
        <time>2018-06-20T09:46:08Z</time>
      </trkpt>
      <trkpt lat="45.94485" lon="4.73291">
        <ele>177</ele>
        <time>2018-06-20T09:46:09Z</time>
      </trkpt>
      <trkpt lat="45.94486" lon="4.73298">
        <ele>177</ele>
        <time>2018-06-20T09:46:10Z</time>
      </trkpt>
      <trkpt lat="45.94487" lon="4.73306">
        <ele>177</ele>
        <time>2018-06-20T09:46:11Z</time>
      </trkpt>
      <trkpt lat="45.94487" lon="4.73319">
        <ele>177</ele>
        <time>2018-06-20T09:46:13Z</time>
      </trkpt>
      <trkpt lat="45.94489" lon="4.73326">
        <ele>177</ele>
        <time>2018-06-20T09:46:14Z</time>
      </trkpt>
      <trkpt lat="45.9449" lon="4.73337">
        <ele>178</ele>
        <time>2018-06-20T09:46:16Z</time>
      </trkpt>
      <trkpt lat="45.94491" lon="4.73344">
        <ele>178</ele>
        <time>2018-06-20T09:46:17Z</time>
      </trkpt>
      <trkpt lat="45.94492" lon="4.73351">
        <ele>178</ele>
        <time>2018-06-20T09:46:18Z</time>
      </trkpt>
      <trkpt lat="45.94492" lon="4.73357">
        <ele>178</ele>
        <time>2018-06-20T09:46:19Z</time>
      </trkpt>
      <trkpt lat="45.94494" lon="4.73369">
        <ele>179</ele>
        <time>2018-06-20T09:46:21Z</time>
      </trkpt>
      <trkpt lat="45.94495" lon="4.73375">
        <ele>179</ele>
        <time>2018-06-20T09:46:22Z</time>
      </trkpt>
      <trkpt lat="45.94495" lon="4.73381">
        <ele>179</ele>
        <time>2018-06-20T09:46:23Z</time>
      </trkpt>
      <trkpt lat="45.94496" lon="4.73388">
        <ele>179</ele>
        <time>2018-06-20T09:46:24Z</time>
      </trkpt>
      <trkpt lat="45.94497" lon="4.73395">
        <ele>179</ele>
        <time>2018-06-20T09:46:25Z</time>
      </trkpt>
      <trkpt lat="45.94496" lon="4.73403">
        <ele>180</ele>
        <time>2018-06-20T09:46:26Z</time>
      </trkpt>
      <trkpt lat="45.94497" lon="4.73415">
        <ele>180</ele>
        <time>2018-06-20T09:46:28Z</time>
      </trkpt>
      <trkpt lat="45.94497" lon="4.73422">
        <ele>180</ele>
        <time>2018-06-20T09:46:29Z</time>
      </trkpt>
      <trkpt lat="45.94496" lon="4.73428">
        <ele>181</ele>
        <time>2018-06-20T09:46:30Z</time>
      </trkpt>
      <trkpt lat="45.94496" lon="4.73435">
        <ele>181</ele>
        <time>2018-06-20T09:46:31Z</time>
      </trkpt>
      <trkpt lat="45.94496" lon="4.73448">
        <ele>182</ele>
        <time>2018-06-20T09:46:33Z</time>
      </trkpt>
      <trkpt lat="45.94497" lon="4.73453">
        <ele>182</ele>
        <time>2018-06-20T09:46:34Z</time>
      </trkpt>
      <trkpt lat="45.94497" lon="4.73465">
        <ele>182</ele>
        <time>2018-06-20T09:46:36Z</time>
      </trkpt>
      <trkpt lat="45.94497" lon="4.7347">
        <ele>182</ele>
        <time>2018-06-20T09:46:37Z</time>
      </trkpt>
      <trkpt lat="45.94497" lon="4.73476">
        <ele>182</ele>
        <time>2018-06-20T09:46:38Z</time>
      </trkpt>
      <trkpt lat="45.94499" lon="4.73485">
        <ele>183</ele>
        <time>2018-06-20T09:46:39Z</time>
      </trkpt>
      <trkpt lat="45.94499" lon="4.73497">
        <ele>183</ele>
        <time>2018-06-20T09:46:41Z</time>
      </trkpt>
      <trkpt lat="45.945" lon="4.73503">
        <ele>183</ele>
        <time>2018-06-20T09:46:42Z</time>
      </trkpt>
      <trkpt lat="45.94499" lon="4.73515">
        <ele>184</ele>
        <time>2018-06-20T09:46:44Z</time>
      </trkpt>
      <trkpt lat="45.94499" lon="4.73522">
        <ele>184</ele>
        <time>2018-06-20T09:46:45Z</time>
      </trkpt>
      <trkpt lat="45.94498" lon="4.73533">
        <ele>184</ele>
        <time>2018-06-20T09:46:47Z</time>
      </trkpt>
      <trkpt lat="45.94499" lon="4.73539">
        <ele>184</ele>
        <time>2018-06-20T09:46:48Z</time>
      </trkpt>
      <trkpt lat="45.94499" lon="4.73552">
        <ele>185</ele>
        <time>2018-06-20T09:46:50Z</time>
      </trkpt>
      <trkpt lat="45.94499" lon="4.73559">
        <ele>185</ele>
        <time>2018-06-20T09:46:51Z</time>
      </trkpt>
      <trkpt lat="45.94499" lon="4.73572">
        <ele>185</ele>
        <time>2018-06-20T09:46:53Z</time>
      </trkpt>
      <trkpt lat="45.94499" lon="4.73578">
        <ele>185</ele>
        <time>2018-06-20T09:46:54Z</time>
      </trkpt>
      <trkpt lat="45.94498" lon="4.73589">
        <ele>185</ele>
        <time>2018-06-20T09:46:56Z</time>
      </trkpt>
      <trkpt lat="45.94497" lon="4.73597">
        <ele>185</ele>
        <time>2018-06-20T09:46:57Z</time>
      </trkpt>
      <trkpt lat="45.94496" lon="4.73604">
        <ele>186</ele>
        <time>2018-06-20T09:46:58Z</time>
      </trkpt>
      <trkpt lat="45.94495" lon="4.73611">
        <ele>186</ele>
        <time>2018-06-20T09:46:59Z</time>
      </trkpt>
      <trkpt lat="45.94495" lon="4.73617">
        <ele>186</ele>
        <time>2018-06-20T09:47:00Z</time>
      </trkpt>
      <trkpt lat="45.94494" lon="4.73624">
        <ele>186</ele>
        <time>2018-06-20T09:47:01Z</time>
      </trkpt>
      <trkpt lat="45.94494" lon="4.73632">
        <ele>186</ele>
        <time>2018-06-20T09:47:02Z</time>
      </trkpt>
      <trkpt lat="45.94493" lon="4.73639">
        <ele>186</ele>
        <time>2018-06-20T09:47:03Z</time>
      </trkpt>
      <trkpt lat="45.94492" lon="4.73648">
        <ele>186</ele>
        <time>2018-06-20T09:47:04Z</time>
      </trkpt>
      <trkpt lat="45.9449" lon="4.73654">
        <ele>185</ele>
        <time>2018-06-20T09:47:05Z</time>
      </trkpt>
      <trkpt lat="45.94489" lon="4.73662">
        <ele>185</ele>
        <time>2018-06-20T09:47:06Z</time>
      </trkpt>
      <trkpt lat="45.94488" lon="4.73669">
        <ele>185</ele>
        <time>2018-06-20T09:47:07Z</time>
      </trkpt>
      <trkpt lat="45.94487" lon="4.73678">
        <ele>186</ele>
        <time>2018-06-20T09:47:08Z</time>
      </trkpt>
      <trkpt lat="45.94487" lon="4.73686">
        <ele>186</ele>
        <time>2018-06-20T09:47:09Z</time>
      </trkpt>
      <trkpt lat="45.94486" lon="4.73691">
        <ele>186</ele>
        <time>2018-06-20T09:47:10Z</time>
      </trkpt>
      <trkpt lat="45.94485" lon="4.73699">
        <ele>186</ele>
        <time>2018-06-20T09:47:11Z</time>
      </trkpt>
      <trkpt lat="45.94484" lon="4.73705">
        <ele>186</ele>
        <time>2018-06-20T09:47:12Z</time>
      </trkpt>
      <trkpt lat="45.94484" lon="4.73715">
        <ele>186</ele>
        <time>2018-06-20T09:47:13Z</time>
      </trkpt>
      <trkpt lat="45.94483" lon="4.73724">
        <ele>186</ele>
        <time>2018-06-20T09:47:14Z</time>
      </trkpt>
      <trkpt lat="45.94481" lon="4.7373">
        <ele>186</ele>
        <time>2018-06-20T09:47:15Z</time>
      </trkpt>
      <trkpt lat="45.9448" lon="4.73737">
        <ele>186</ele>
        <time>2018-06-20T09:47:16Z</time>
      </trkpt>
      <trkpt lat="45.94479" lon="4.73744">
        <ele>186</ele>
        <time>2018-06-20T09:47:17Z</time>
      </trkpt>
      <trkpt lat="45.94477" lon="4.73751">
        <ele>186</ele>
        <time>2018-06-20T09:47:18Z</time>
      </trkpt>
      <trkpt lat="45.94475" lon="4.73757">
        <ele>186</ele>
        <time>2018-06-20T09:47:19Z</time>
      </trkpt>
      <trkpt lat="45.94472" lon="4.73763">
        <ele>186</ele>
        <time>2018-06-20T09:47:20Z</time>
      </trkpt>
      <trkpt lat="45.94469" lon="4.73768">
        <ele>186</ele>
        <time>2018-06-20T09:47:21Z</time>
      </trkpt>
      <trkpt lat="45.94465" lon="4.73773">
        <ele>186</ele>
        <time>2018-06-20T09:47:22Z</time>
      </trkpt>
      <trkpt lat="45.94462" lon="4.7378">
        <ele>186</ele>
        <time>2018-06-20T09:47:23Z</time>
      </trkpt>
      <trkpt lat="45.9446" lon="4.73787">
        <ele>186</ele>
        <time>2018-06-20T09:47:24Z</time>
      </trkpt>
      <trkpt lat="45.94458" lon="4.73794">
        <ele>185</ele>
        <time>2018-06-20T09:47:25Z</time>
      </trkpt>
      <trkpt lat="45.94456" lon="4.73802">
        <ele>185</ele>
        <time>2018-06-20T09:47:26Z</time>
      </trkpt>
      <trkpt lat="45.94456" lon="4.7381">
        <ele>185</ele>
        <time>2018-06-20T09:47:27Z</time>
      </trkpt>
      <trkpt lat="45.94456" lon="4.7382">
        <ele>185</ele>
        <time>2018-06-20T09:47:28Z</time>
      </trkpt>
      <trkpt lat="45.94457" lon="4.73829">
        <ele>185</ele>
        <time>2018-06-20T09:47:29Z</time>
      </trkpt>
      <trkpt lat="45.94456" lon="4.73838">
        <ele>184</ele>
        <time>2018-06-20T09:47:30Z</time>
      </trkpt>
      <trkpt lat="45.94455" lon="4.73847">
        <ele>184</ele>
        <time>2018-06-20T09:47:31Z</time>
      </trkpt>
      <trkpt lat="45.94454" lon="4.73857">
        <ele>184</ele>
        <time>2018-06-20T09:47:32Z</time>
      </trkpt>
      <trkpt lat="45.94453" lon="4.73867">
        <ele>184</ele>
        <time>2018-06-20T09:47:33Z</time>
      </trkpt>
      <trkpt lat="45.94451" lon="4.73877">
        <ele>183</ele>
        <time>2018-06-20T09:47:34Z</time>
      </trkpt>
      <trkpt lat="45.94449" lon="4.73887">
        <ele>183</ele>
        <time>2018-06-20T09:47:35Z</time>
      </trkpt>
      <trkpt lat="45.94447" lon="4.73897">
        <ele>183</ele>
        <time>2018-06-20T09:47:36Z</time>
      </trkpt>
      <trkpt lat="45.94445" lon="4.73906">
        <ele>183</ele>
        <time>2018-06-20T09:47:37Z</time>
      </trkpt>
      <trkpt lat="45.94442" lon="4.73917">
        <ele>183</ele>
        <time>2018-06-20T09:47:38Z</time>
      </trkpt>
      <trkpt lat="45.9444" lon="4.73927">
        <ele>181</ele>
        <time>2018-06-20T09:47:39Z</time>
      </trkpt>
      <trkpt lat="45.94437" lon="4.73939">
        <ele>181</ele>
        <time>2018-06-20T09:47:40Z</time>
      </trkpt>
      <trkpt lat="45.94435" lon="4.7395">
        <ele>181</ele>
        <time>2018-06-20T09:47:41Z</time>
      </trkpt>
      <trkpt lat="45.94432" lon="4.73962">
        <ele>180</ele>
        <time>2018-06-20T09:47:42Z</time>
      </trkpt>
      <trkpt lat="45.9443" lon="4.73974">
        <ele>180</ele>
        <time>2018-06-20T09:47:43Z</time>
      </trkpt>
      <trkpt lat="45.94428" lon="4.73986">
        <ele>180</ele>
        <time>2018-06-20T09:47:44Z</time>
      </trkpt>
      <trkpt lat="45.94426" lon="4.73997">
        <ele>179</ele>
        <time>2018-06-20T09:47:45Z</time>
      </trkpt>
      <trkpt lat="45.94423" lon="4.74008">
        <ele>178</ele>
        <time>2018-06-20T09:47:46Z</time>
      </trkpt>
      <trkpt lat="45.94421" lon="4.74019">
        <ele>179</ele>
        <time>2018-06-20T09:47:47Z</time>
      </trkpt>
      <trkpt lat="45.9442" lon="4.74033">
        <ele>179</ele>
        <time>2018-06-20T09:47:48Z</time>
      </trkpt>
      <trkpt lat="45.94419" lon="4.74046">
        <ele>179</ele>
        <time>2018-06-20T09:47:49Z</time>
      </trkpt>
      <trkpt lat="45.94417" lon="4.74057">
        <ele>178</ele>
        <time>2018-06-20T09:47:50Z</time>
      </trkpt>
      <trkpt lat="45.94414" lon="4.74068">
        <ele>177</ele>
        <time>2018-06-20T09:47:51Z</time>
      </trkpt>
      <trkpt lat="45.9441" lon="4.7408">
        <ele>177</ele>
        <time>2018-06-20T09:47:52Z</time>
      </trkpt>
      <trkpt lat="45.94409" lon="4.74092">
        <ele>176</ele>
        <time>2018-06-20T09:47:53Z</time>
      </trkpt>
      <trkpt lat="45.94408" lon="4.74107">
        <ele>175</ele>
        <time>2018-06-20T09:47:54Z</time>
      </trkpt>
      <trkpt lat="45.94406" lon="4.74117">
        <ele>174</ele>
        <time>2018-06-20T09:47:55Z</time>
      </trkpt>
      <trkpt lat="45.94404" lon="4.7413">
        <ele>174</ele>
        <time>2018-06-20T09:47:56Z</time>
      </trkpt>
      <trkpt lat="45.94401" lon="4.74142">
        <ele>174</ele>
        <time>2018-06-20T09:47:57Z</time>
      </trkpt>
      <trkpt lat="45.94398" lon="4.74155">
        <ele>173</ele>
        <time>2018-06-20T09:47:58Z</time>
      </trkpt>
      <trkpt lat="45.94396" lon="4.74169">
        <ele>172</ele>
        <time>2018-06-20T09:47:59Z</time>
      </trkpt>
      <trkpt lat="45.94394" lon="4.74181">
        <ele>172</ele>
        <time>2018-06-20T09:48:00Z</time>
      </trkpt>
      <trkpt lat="45.94392" lon="4.74194">
        <ele>171</ele>
        <time>2018-06-20T09:48:01Z</time>
      </trkpt>
      <trkpt lat="45.9439" lon="4.74206">
        <ele>171</ele>
        <time>2018-06-20T09:48:02Z</time>
      </trkpt>
      <trkpt lat="45.94387" lon="4.74217">
        <ele>171</ele>
        <time>2018-06-20T09:48:03Z</time>
      </trkpt>
      <trkpt lat="45.94385" lon="4.74229">
        <ele>171</ele>
        <time>2018-06-20T09:48:04Z</time>
      </trkpt>
      <trkpt lat="45.94384" lon="4.74241">
        <ele>171</ele>
        <time>2018-06-20T09:48:05Z</time>
      </trkpt>
      <trkpt lat="45.94382" lon="4.74252">
        <ele>170</ele>
        <time>2018-06-20T09:48:06Z</time>
      </trkpt>
      <trkpt lat="45.94382" lon="4.74265">
        <ele>170</ele>
        <time>2018-06-20T09:48:07Z</time>
      </trkpt>
      <trkpt lat="45.94381" lon="4.74277">
        <ele>170</ele>
        <time>2018-06-20T09:48:08Z</time>
      </trkpt>
      <trkpt lat="45.94379" lon="4.74287">
        <ele>170</ele>
        <time>2018-06-20T09:48:09Z</time>
      </trkpt>
      <trkpt lat="45.94377" lon="4.74296">
        <ele>170</ele>
        <time>2018-06-20T09:48:10Z</time>
      </trkpt>
      <trkpt lat="45.94375" lon="4.74305">
        <ele>170</ele>
        <time>2018-06-20T09:48:11Z</time>
      </trkpt>
      <trkpt lat="45.94374" lon="4.74315">
        <ele>170</ele>
        <time>2018-06-20T09:48:12Z</time>
      </trkpt>
      <trkpt lat="45.94373" lon="4.74325">
        <ele>170</ele>
        <time>2018-06-20T09:48:13Z</time>
      </trkpt>
      <trkpt lat="45.94372" lon="4.74335">
        <ele>170</ele>
        <time>2018-06-20T09:48:14Z</time>
      </trkpt>
      <trkpt lat="45.94371" lon="4.74345">
        <ele>170</ele>
        <time>2018-06-20T09:48:15Z</time>
      </trkpt>
      <trkpt lat="45.9437" lon="4.74355">
        <ele>170</ele>
        <time>2018-06-20T09:48:16Z</time>
      </trkpt>
      <trkpt lat="45.94369" lon="4.74364">
        <ele>170</ele>
        <time>2018-06-20T09:48:17Z</time>
      </trkpt>
      <trkpt lat="45.94368" lon="4.74372">
        <ele>170</ele>
        <time>2018-06-20T09:48:18Z</time>
      </trkpt>
      <trkpt lat="45.94366" lon="4.74381">
        <ele>170</ele>
        <time>2018-06-20T09:48:19Z</time>
      </trkpt>
      <trkpt lat="45.94366" lon="4.74388">
        <ele>170</ele>
        <time>2018-06-20T09:48:20Z</time>
      </trkpt>
      <trkpt lat="45.94365" lon="4.74397">
        <ele>170</ele>
        <time>2018-06-20T09:48:21Z</time>
      </trkpt>
      <trkpt lat="45.94365" lon="4.74405">
        <ele>170</ele>
        <time>2018-06-20T09:48:22Z</time>
      </trkpt>
      <trkpt lat="45.94364" lon="4.74413">
        <ele>170</ele>
        <time>2018-06-20T09:48:23Z</time>
      </trkpt>
      <trkpt lat="45.94363" lon="4.74422">
        <ele>170</ele>
        <time>2018-06-20T09:48:24Z</time>
      </trkpt>
      <trkpt lat="45.94362" lon="4.7443">
        <ele>170</ele>
        <time>2018-06-20T09:48:25Z</time>
      </trkpt>
      <trkpt lat="45.94361" lon="4.74438">
        <ele>170</ele>
        <time>2018-06-20T09:48:26Z</time>
      </trkpt>
      <trkpt lat="45.94361" lon="4.74448">
        <ele>170</ele>
        <time>2018-06-20T09:48:27Z</time>
      </trkpt>
      <trkpt lat="45.9436" lon="4.74457">
        <ele>170</ele>
        <time>2018-06-20T09:48:28Z</time>
      </trkpt>
      <trkpt lat="45.94359" lon="4.74465">
        <ele>170</ele>
        <time>2018-06-20T09:48:29Z</time>
      </trkpt>
      <trkpt lat="45.94359" lon="4.74474">
        <ele>170</ele>
        <time>2018-06-20T09:48:30Z</time>
      </trkpt>
      <trkpt lat="45.94358" lon="4.74481">
        <ele>170</ele>
        <time>2018-06-20T09:48:31Z</time>
      </trkpt>
      <trkpt lat="45.94358" lon="4.74488">
        <ele>170</ele>
        <time>2018-06-20T09:48:32Z</time>
      </trkpt>
      <trkpt lat="45.94356" lon="4.74496">
        <ele>170</ele>
        <time>2018-06-20T09:48:33Z</time>
      </trkpt>
      <trkpt lat="45.94355" lon="4.74504">
        <ele>170</ele>
        <time>2018-06-20T09:48:34Z</time>
      </trkpt>
      <trkpt lat="45.94355" lon="4.74512">
        <ele>170</ele>
        <time>2018-06-20T09:48:35Z</time>
      </trkpt>
      <trkpt lat="45.94354" lon="4.74518">
        <ele>171</ele>
        <time>2018-06-20T09:48:36Z</time>
      </trkpt>
      <trkpt lat="45.94354" lon="4.74527">
        <ele>171</ele>
        <time>2018-06-20T09:48:37Z</time>
      </trkpt>
      <trkpt lat="45.94353" lon="4.74535">
        <ele>171</ele>
        <time>2018-06-20T09:48:38Z</time>
      </trkpt>
      <trkpt lat="45.94353" lon="4.74543">
        <ele>171</ele>
        <time>2018-06-20T09:48:39Z</time>
      </trkpt>
      <trkpt lat="45.94353" lon="4.74551">
        <ele>171</ele>
        <time>2018-06-20T09:48:40Z</time>
      </trkpt>
      <trkpt lat="45.94351" lon="4.74558">
        <ele>171</ele>
        <time>2018-06-20T09:48:41Z</time>
      </trkpt>
      <trkpt lat="45.94351" lon="4.74566">
        <ele>171</ele>
        <time>2018-06-20T09:48:42Z</time>
      </trkpt>
      <trkpt lat="45.9435" lon="4.74574">
        <ele>171</ele>
        <time>2018-06-20T09:48:43Z</time>
      </trkpt>
      <trkpt lat="45.94349" lon="4.74582">
        <ele>171</ele>
        <time>2018-06-20T09:48:44Z</time>
      </trkpt>
      <trkpt lat="45.94348" lon="4.7459">
        <ele>171</ele>
        <time>2018-06-20T09:48:45Z</time>
      </trkpt>
      <trkpt lat="45.94348" lon="4.74597">
        <ele>171</ele>
        <time>2018-06-20T09:48:46Z</time>
      </trkpt>
      <trkpt lat="45.94348" lon="4.74606">
        <ele>171</ele>
        <time>2018-06-20T09:48:47Z</time>
      </trkpt>
      <trkpt lat="45.94347" lon="4.74615">
        <ele>171</ele>
        <time>2018-06-20T09:48:48Z</time>
      </trkpt>
      <trkpt lat="45.94347" lon="4.74625">
        <ele>171</ele>
        <time>2018-06-20T09:48:49Z</time>
      </trkpt>
      <trkpt lat="45.94344" lon="4.74634">
        <ele>171</ele>
        <time>2018-06-20T09:48:50Z</time>
      </trkpt>
      <trkpt lat="45.94345" lon="4.74642">
        <ele>171</ele>
        <time>2018-06-20T09:48:51Z</time>
      </trkpt>
      <trkpt lat="45.94344" lon="4.7465">
        <ele>172</ele>
        <time>2018-06-20T09:48:52Z</time>
      </trkpt>
      <trkpt lat="45.94343" lon="4.74658">
        <ele>172</ele>
        <time>2018-06-20T09:48:53Z</time>
      </trkpt>
      <trkpt lat="45.94342" lon="4.74665">
        <ele>172</ele>
        <time>2018-06-20T09:48:54Z</time>
      </trkpt>
      <trkpt lat="45.94342" lon="4.74674">
        <ele>172</ele>
        <time>2018-06-20T09:48:55Z</time>
      </trkpt>
      <trkpt lat="45.94341" lon="4.74683">
        <ele>172</ele>
        <time>2018-06-20T09:48:56Z</time>
      </trkpt>
      <trkpt lat="45.9434" lon="4.74691">
        <ele>172</ele>
        <time>2018-06-20T09:48:57Z</time>
      </trkpt>
      <trkpt lat="45.94338" lon="4.74699">
        <ele>172</ele>
        <time>2018-06-20T09:48:58Z</time>
      </trkpt>
      <trkpt lat="45.94337" lon="4.74709">
        <ele>171</ele>
        <time>2018-06-20T09:48:59Z</time>
      </trkpt>
      <trkpt lat="45.94336" lon="4.74717">
        <ele>171</ele>
        <time>2018-06-20T09:49:00Z</time>
      </trkpt>
      <trkpt lat="45.94335" lon="4.74726">
        <ele>171</ele>
        <time>2018-06-20T09:49:01Z</time>
      </trkpt>
      <trkpt lat="45.94333" lon="4.74735">
        <ele>171</ele>
        <time>2018-06-20T09:49:02Z</time>
      </trkpt>
      <trkpt lat="45.94331" lon="4.74743">
        <ele>171</ele>
        <time>2018-06-20T09:49:03Z</time>
      </trkpt>
      <trkpt lat="45.94329" lon="4.74752">
        <ele>171</ele>
        <time>2018-06-20T09:49:04Z</time>
      </trkpt>
      <trkpt lat="45.94327" lon="4.7476">
        <ele>171</ele>
        <time>2018-06-20T09:49:05Z</time>
      </trkpt>
      <trkpt lat="45.94325" lon="4.74768">
        <ele>171</ele>
        <time>2018-06-20T09:49:06Z</time>
      </trkpt>
      <trkpt lat="45.94324" lon="4.74777">
        <ele>171</ele>
        <time>2018-06-20T09:49:07Z</time>
      </trkpt>
      <trkpt lat="45.94322" lon="4.74786">
        <ele>172</ele>
        <time>2018-06-20T09:49:08Z</time>
      </trkpt>
      <trkpt lat="45.9432" lon="4.74795">
        <ele>172</ele>
        <time>2018-06-20T09:49:09Z</time>
      </trkpt>
      <trkpt lat="45.94318" lon="4.74804">
        <ele>172</ele>
        <time>2018-06-20T09:49:10Z</time>
      </trkpt>
      <trkpt lat="45.94315" lon="4.74813">
        <ele>172</ele>
        <time>2018-06-20T09:49:11Z</time>
      </trkpt>
      <trkpt lat="45.94313" lon="4.74822">
        <ele>172</ele>
        <time>2018-06-20T09:49:12Z</time>
      </trkpt>
      <trkpt lat="45.94311" lon="4.74832">
        <ele>172</ele>
        <time>2018-06-20T09:49:13Z</time>
      </trkpt>
      <trkpt lat="45.94309" lon="4.74841">
        <ele>173</ele>
        <time>2018-06-20T09:49:14Z</time>
      </trkpt>
      <trkpt lat="45.94307" lon="4.7485">
        <ele>174</ele>
        <time>2018-06-20T09:49:15Z</time>
      </trkpt>
      <trkpt lat="45.94305" lon="4.74859">
        <ele>174</ele>
        <time>2018-06-20T09:49:16Z</time>
      </trkpt>
      <trkpt lat="45.94302" lon="4.74867">
        <ele>174</ele>
        <time>2018-06-20T09:49:17Z</time>
      </trkpt>
      <trkpt lat="45.943" lon="4.74876">
        <ele>174</ele>
        <time>2018-06-20T09:49:18Z</time>
      </trkpt>
      <trkpt lat="45.94297" lon="4.74884">
        <ele>174</ele>
        <time>2018-06-20T09:49:19Z</time>
      </trkpt>
      <trkpt lat="45.94294" lon="4.74893">
        <ele>174</ele>
        <time>2018-06-20T09:49:20Z</time>
      </trkpt>
      <trkpt lat="45.94292" lon="4.74902">
        <ele>174</ele>
        <time>2018-06-20T09:49:21Z</time>
      </trkpt>
      <trkpt lat="45.9429" lon="4.74912">
        <ele>174</ele>
        <time>2018-06-20T09:49:22Z</time>
      </trkpt>
      <trkpt lat="45.94288" lon="4.74921">
        <ele>175</ele>
        <time>2018-06-20T09:49:23Z</time>
      </trkpt>
      <trkpt lat="45.94286" lon="4.74929">
        <ele>175</ele>
        <time>2018-06-20T09:49:24Z</time>
      </trkpt>
      <trkpt lat="45.94284" lon="4.74937">
        <ele>175</ele>
        <time>2018-06-20T09:49:25Z</time>
      </trkpt>
      <trkpt lat="45.94281" lon="4.74944">
        <ele>175</ele>
        <time>2018-06-20T09:49:26Z</time>
      </trkpt>
      <trkpt lat="45.94278" lon="4.74952">
        <ele>175</ele>
        <time>2018-06-20T09:49:27Z</time>
      </trkpt>
      <trkpt lat="45.94276" lon="4.74961">
        <ele>175</ele>
        <time>2018-06-20T09:49:28Z</time>
      </trkpt>
      <trkpt lat="45.94274" lon="4.74969">
        <ele>175</ele>
        <time>2018-06-20T09:49:29Z</time>
      </trkpt>
      <trkpt lat="45.94271" lon="4.74977">
        <ele>175</ele>
        <time>2018-06-20T09:49:30Z</time>
      </trkpt>
      <trkpt lat="45.94269" lon="4.74984">
        <ele>175</ele>
        <time>2018-06-20T09:49:31Z</time>
      </trkpt>
      <trkpt lat="45.94267" lon="4.74993">
        <ele>175</ele>
        <time>2018-06-20T09:49:32Z</time>
      </trkpt>
      <trkpt lat="45.94265" lon="4.75001">
        <ele>174</ele>
        <time>2018-06-20T09:49:33Z</time>
      </trkpt>
      <trkpt lat="45.94263" lon="4.75008">
        <ele>174</ele>
        <time>2018-06-20T09:49:34Z</time>
      </trkpt>
      <trkpt lat="45.94261" lon="4.75016">
        <ele>174</ele>
        <time>2018-06-20T09:49:35Z</time>
      </trkpt>
      <trkpt lat="45.94258" lon="4.75023">
        <ele>174</ele>
        <time>2018-06-20T09:49:36Z</time>
      </trkpt>
      <trkpt lat="45.94256" lon="4.7503">
        <ele>174</ele>
        <time>2018-06-20T09:49:37Z</time>
      </trkpt>
      <trkpt lat="45.94254" lon="4.75035">
        <ele>174</ele>
        <time>2018-06-20T09:49:38Z</time>
      </trkpt>
      <trkpt lat="45.94252" lon="4.75042">
        <ele>174</ele>
        <time>2018-06-20T09:49:39Z</time>
      </trkpt>
      <trkpt lat="45.94251" lon="4.75049">
        <ele>174</ele>
        <time>2018-06-20T09:49:40Z</time>
      </trkpt>
      <trkpt lat="45.94249" lon="4.75057">
        <ele>172</ele>
        <time>2018-06-20T09:49:41Z</time>
      </trkpt>
      <trkpt lat="45.94247" lon="4.75064">
        <ele>172</ele>
        <time>2018-06-20T09:49:42Z</time>
      </trkpt>
      <trkpt lat="45.94245" lon="4.75071">
        <ele>173</ele>
        <time>2018-06-20T09:49:43Z</time>
      </trkpt>
      <trkpt lat="45.94242" lon="4.7508">
        <ele>173</ele>
        <time>2018-06-20T09:49:44Z</time>
      </trkpt>
      <trkpt lat="45.9424" lon="4.75087">
        <ele>172</ele>
        <time>2018-06-20T09:49:45Z</time>
      </trkpt>
      <trkpt lat="45.94238" lon="4.75095">
        <ele>172</ele>
        <time>2018-06-20T09:49:46Z</time>
      </trkpt>
      <trkpt lat="45.94236" lon="4.75103">
        <ele>172</ele>
        <time>2018-06-20T09:49:47Z</time>
      </trkpt>
      <trkpt lat="45.94235" lon="4.75112">
        <ele>172</ele>
        <time>2018-06-20T09:49:48Z</time>
      </trkpt>
      <trkpt lat="45.94233" lon="4.7512">
        <ele>171</ele>
        <time>2018-06-20T09:49:49Z</time>
      </trkpt>
      <trkpt lat="45.94231" lon="4.75129">
        <ele>171</ele>
        <time>2018-06-20T09:49:50Z</time>
      </trkpt>
      <trkpt lat="45.94229" lon="4.75137">
        <ele>171</ele>
        <time>2018-06-20T09:49:51Z</time>
      </trkpt>
      <trkpt lat="45.94227" lon="4.75146">
        <ele>171</ele>
        <time>2018-06-20T09:49:52Z</time>
      </trkpt>
      <trkpt lat="45.94224" lon="4.75154">
        <ele>171</ele>
        <time>2018-06-20T09:49:53Z</time>
      </trkpt>
      <trkpt lat="45.94222" lon="4.75163">
        <ele>171</ele>
        <time>2018-06-20T09:49:54Z</time>
      </trkpt>
      <trkpt lat="45.9422" lon="4.75171">
        <ele>171</ele>
        <time>2018-06-20T09:49:55Z</time>
      </trkpt>
      <trkpt lat="45.94219" lon="4.75181">
        <ele>171</ele>
        <time>2018-06-20T09:49:56Z</time>
      </trkpt>
      <trkpt lat="45.94216" lon="4.7519">
        <ele>171</ele>
        <time>2018-06-20T09:49:57Z</time>
      </trkpt>
      <trkpt lat="45.94214" lon="4.75199">
        <ele>171</ele>
        <time>2018-06-20T09:49:58Z</time>
      </trkpt>
      <trkpt lat="45.94212" lon="4.75207">
        <ele>171</ele>
        <time>2018-06-20T09:49:59Z</time>
      </trkpt>
      <trkpt lat="45.94211" lon="4.75216">
        <ele>171</ele>
        <time>2018-06-20T09:50:00Z</time>
      </trkpt>
      <trkpt lat="45.94209" lon="4.75223">
        <ele>171</ele>
        <time>2018-06-20T09:50:01Z</time>
      </trkpt>
      <trkpt lat="45.94208" lon="4.75232">
        <ele>171</ele>
        <time>2018-06-20T09:50:02Z</time>
      </trkpt>
      <trkpt lat="45.94206" lon="4.7524">
        <ele>171</ele>
        <time>2018-06-20T09:50:03Z</time>
      </trkpt>
      <trkpt lat="45.94204" lon="4.75248">
        <ele>171</ele>
        <time>2018-06-20T09:50:04Z</time>
      </trkpt>
      <trkpt lat="45.94203" lon="4.75257">
        <ele>171</ele>
        <time>2018-06-20T09:50:05Z</time>
      </trkpt>
      <trkpt lat="45.94201" lon="4.75267">
        <ele>171</ele>
        <time>2018-06-20T09:50:06Z</time>
      </trkpt>
      <trkpt lat="45.94199" lon="4.75276">
        <ele>171</ele>
        <time>2018-06-20T09:50:07Z</time>
      </trkpt>
      <trkpt lat="45.94198" lon="4.75285">
        <ele>171</ele>
        <time>2018-06-20T09:50:08Z</time>
      </trkpt>
      <trkpt lat="45.94197" lon="4.75294">
        <ele>171</ele>
        <time>2018-06-20T09:50:09Z</time>
      </trkpt>
      <trkpt lat="45.94195" lon="4.75303">
        <ele>171</ele>
        <time>2018-06-20T09:50:10Z</time>
      </trkpt>
      <trkpt lat="45.94194" lon="4.75312">
        <ele>171</ele>
        <time>2018-06-20T09:50:11Z</time>
      </trkpt>
      <trkpt lat="45.94194" lon="4.75322">
        <ele>171</ele>
        <time>2018-06-20T09:50:12Z</time>
      </trkpt>
      <trkpt lat="45.94193" lon="4.7533">
        <ele>171</ele>
        <time>2018-06-20T09:50:13Z</time>
      </trkpt>
      <trkpt lat="45.94191" lon="4.75339">
        <ele>171</ele>
        <time>2018-06-20T09:50:14Z</time>
      </trkpt>
      <trkpt lat="45.94188" lon="4.75346">
        <ele>171</ele>
        <time>2018-06-20T09:50:15Z</time>
      </trkpt>
      <trkpt lat="45.94186" lon="4.75353">
        <ele>171</ele>
        <time>2018-06-20T09:50:16Z</time>
      </trkpt>
      <trkpt lat="45.94183" lon="4.7536">
        <ele>171</ele>
        <time>2018-06-20T09:50:17Z</time>
      </trkpt>
      <trkpt lat="45.94181" lon="4.75367">
        <ele>171</ele>
        <time>2018-06-20T09:50:18Z</time>
      </trkpt>
      <trkpt lat="45.94181" lon="4.75375">
        <ele>171</ele>
        <time>2018-06-20T09:50:19Z</time>
      </trkpt>
      <trkpt lat="45.9418" lon="4.75383">
        <ele>171</ele>
        <time>2018-06-20T09:50:20Z</time>
      </trkpt>
      <trkpt lat="45.94178" lon="4.75391">
        <ele>171</ele>
        <time>2018-06-20T09:50:21Z</time>
      </trkpt>
      <trkpt lat="45.94178" lon="4.754">
        <ele>171</ele>
        <time>2018-06-20T09:50:22Z</time>
      </trkpt>
      <trkpt lat="45.94177" lon="4.75408">
        <ele>170</ele>
        <time>2018-06-20T09:50:23Z</time>
      </trkpt>
      <trkpt lat="45.94176" lon="4.75416">
        <ele>170</ele>
        <time>2018-06-20T09:50:24Z</time>
      </trkpt>
      <trkpt lat="45.94174" lon="4.75423">
        <ele>171</ele>
        <time>2018-06-20T09:50:25Z</time>
      </trkpt>
      <trkpt lat="45.94172" lon="4.7543">
        <ele>171</ele>
        <time>2018-06-20T09:50:26Z</time>
      </trkpt>
      <trkpt lat="45.94169" lon="4.75435">
        <ele>171</ele>
        <time>2018-06-20T09:50:27Z</time>
      </trkpt>
      <trkpt lat="45.94169" lon="4.75442">
        <ele>171</ele>
        <time>2018-06-20T09:50:28Z</time>
      </trkpt>
      <trkpt lat="45.9417" lon="4.7545">
        <ele>171</ele>
        <time>2018-06-20T09:50:29Z</time>
      </trkpt>
      <trkpt lat="45.94172" lon="4.75457">
        <ele>172</ele>
        <time>2018-06-20T09:50:30Z</time>
      </trkpt>
      <trkpt lat="45.94173" lon="4.75466">
        <ele>172</ele>
        <time>2018-06-20T09:50:31Z</time>
      </trkpt>
      <trkpt lat="45.94173" lon="4.75474">
        <ele>172</ele>
        <time>2018-06-20T09:50:32Z</time>
      </trkpt>
      <trkpt lat="45.94172" lon="4.75483">
        <ele>172</ele>
        <time>2018-06-20T09:50:33Z</time>
      </trkpt>
      <trkpt lat="45.94172" lon="4.75491">
        <ele>173</ele>
        <time>2018-06-20T09:50:34Z</time>
      </trkpt>
      <trkpt lat="45.94172" lon="4.755">
        <ele>173</ele>
        <time>2018-06-20T09:50:35Z</time>
      </trkpt>
      <trkpt lat="45.94171" lon="4.75508">
        <ele>173</ele>
        <time>2018-06-20T09:50:36Z</time>
      </trkpt>
      <trkpt lat="45.94171" lon="4.75517">
        <ele>173</ele>
        <time>2018-06-20T09:50:37Z</time>
      </trkpt>
      <trkpt lat="45.94172" lon="4.75525">
        <ele>173</ele>
        <time>2018-06-20T09:50:38Z</time>
      </trkpt>
      <trkpt lat="45.94172" lon="4.75535">
        <ele>173</ele>
        <time>2018-06-20T09:50:39Z</time>
      </trkpt>
      <trkpt lat="45.94171" lon="4.75542">
        <ele>173</ele>
        <time>2018-06-20T09:50:40Z</time>
      </trkpt>
      <trkpt lat="45.94171" lon="4.75551">
        <ele>173</ele>
        <time>2018-06-20T09:50:41Z</time>
      </trkpt>
      <trkpt lat="45.94169" lon="4.75559">
        <ele>173</ele>
        <time>2018-06-20T09:50:42Z</time>
      </trkpt>
      <trkpt lat="45.94169" lon="4.75568">
        <ele>173</ele>
        <time>2018-06-20T09:50:43Z</time>
      </trkpt>
      <trkpt lat="45.94168" lon="4.75577">
        <ele>173</ele>
        <time>2018-06-20T09:50:44Z</time>
      </trkpt>
      <trkpt lat="45.94168" lon="4.75586">
        <ele>173</ele>
        <time>2018-06-20T09:50:45Z</time>
      </trkpt>
      <trkpt lat="45.94167" lon="4.75593">
        <ele>173</ele>
        <time>2018-06-20T09:50:46Z</time>
      </trkpt>
      <trkpt lat="45.94167" lon="4.75602">
        <ele>173</ele>
        <time>2018-06-20T09:50:47Z</time>
      </trkpt>
      <trkpt lat="45.94167" lon="4.75611">
        <ele>173</ele>
        <time>2018-06-20T09:50:48Z</time>
      </trkpt>
      <trkpt lat="45.94166" lon="4.75619">
        <ele>172</ele>
        <time>2018-06-20T09:50:49Z</time>
      </trkpt>
      <trkpt lat="45.94167" lon="4.75627">
        <ele>172</ele>
        <time>2018-06-20T09:50:50Z</time>
      </trkpt>
      <trkpt lat="45.94166" lon="4.75635">
        <ele>172</ele>
        <time>2018-06-20T09:50:51Z</time>
      </trkpt>
      <trkpt lat="45.94164" lon="4.75643">
        <ele>172</ele>
        <time>2018-06-20T09:50:52Z</time>
      </trkpt>
      <trkpt lat="45.94164" lon="4.75651">
        <ele>173</ele>
        <time>2018-06-20T09:50:53Z</time>
      </trkpt>
      <trkpt lat="45.94163" lon="4.7566">
        <ele>173</ele>
        <time>2018-06-20T09:50:54Z</time>
      </trkpt>
      <trkpt lat="45.94163" lon="4.75668">
        <ele>173</ele>
        <time>2018-06-20T09:50:55Z</time>
      </trkpt>
      <trkpt lat="45.94161" lon="4.75676">
        <ele>173</ele>
        <time>2018-06-20T09:50:56Z</time>
      </trkpt>
      <trkpt lat="45.94162" lon="4.75683">
        <ele>173</ele>
        <time>2018-06-20T09:50:57Z</time>
      </trkpt>
      <trkpt lat="45.94163" lon="4.7569">
        <ele>173</ele>
        <time>2018-06-20T09:50:58Z</time>
      </trkpt>
      <trkpt lat="45.94164" lon="4.75699">
        <ele>173</ele>
        <time>2018-06-20T09:50:59Z</time>
      </trkpt>
      <trkpt lat="45.94164" lon="4.75708">
        <ele>173</ele>
        <time>2018-06-20T09:51:00Z</time>
      </trkpt>
      <trkpt lat="45.94165" lon="4.75717">
        <ele>173</ele>
        <time>2018-06-20T09:51:01Z</time>
      </trkpt>
      <trkpt lat="45.94164" lon="4.75725">
        <ele>173</ele>
        <time>2018-06-20T09:51:02Z</time>
      </trkpt>
      <trkpt lat="45.94165" lon="4.75735">
        <ele>173</ele>
        <time>2018-06-20T09:51:03Z</time>
      </trkpt>
      <trkpt lat="45.94165" lon="4.75744">
        <ele>174</ele>
        <time>2018-06-20T09:51:04Z</time>
      </trkpt>
      <trkpt lat="45.94165" lon="4.75752">
        <ele>174</ele>
        <time>2018-06-20T09:51:05Z</time>
      </trkpt>
      <trkpt lat="45.94166" lon="4.75761">
        <ele>174</ele>
        <time>2018-06-20T09:51:06Z</time>
      </trkpt>
      <trkpt lat="45.94166" lon="4.75769">
        <ele>174</ele>
        <time>2018-06-20T09:51:07Z</time>
      </trkpt>
      <trkpt lat="45.94166" lon="4.75779">
        <ele>173</ele>
        <time>2018-06-20T09:51:08Z</time>
      </trkpt>
      <trkpt lat="45.94167" lon="4.75786">
        <ele>174</ele>
        <time>2018-06-20T09:51:09Z</time>
      </trkpt>
      <trkpt lat="45.94169" lon="4.75795">
        <ele>174</ele>
        <time>2018-06-20T09:51:10Z</time>
      </trkpt>
      <trkpt lat="45.94167" lon="4.75803">
        <ele>174</ele>
        <time>2018-06-20T09:51:11Z</time>
      </trkpt>
      <trkpt lat="45.94167" lon="4.7581">
        <ele>173</ele>
        <time>2018-06-20T09:51:12Z</time>
      </trkpt>
      <trkpt lat="45.94168" lon="4.75818">
        <ele>174</ele>
        <time>2018-06-20T09:51:13Z</time>
      </trkpt>
      <trkpt lat="45.94168" lon="4.75826">
        <ele>174</ele>
        <time>2018-06-20T09:51:14Z</time>
      </trkpt>
      <trkpt lat="45.94168" lon="4.75835">
        <ele>174</ele>
        <time>2018-06-20T09:51:15Z</time>
      </trkpt>
      <trkpt lat="45.94168" lon="4.75842">
        <ele>174</ele>
        <time>2018-06-20T09:51:16Z</time>
      </trkpt>
      <trkpt lat="45.94168" lon="4.75849">
        <ele>174</ele>
        <time>2018-06-20T09:51:17Z</time>
      </trkpt>
      <trkpt lat="45.94169" lon="4.75856">
        <ele>174</ele>
        <time>2018-06-20T09:51:18Z</time>
      </trkpt>
      <trkpt lat="45.94169" lon="4.75863">
        <ele>175</ele>
        <time>2018-06-20T09:51:19Z</time>
      </trkpt>
      <trkpt lat="45.94168" lon="4.7587">
        <ele>175</ele>
        <time>2018-06-20T09:51:20Z</time>
      </trkpt>
      <trkpt lat="45.94169" lon="4.75878">
        <ele>175</ele>
        <time>2018-06-20T09:51:21Z</time>
      </trkpt>
      <trkpt lat="45.94169" lon="4.75887">
        <ele>175</ele>
        <time>2018-06-20T09:51:22Z</time>
      </trkpt>
      <trkpt lat="45.94168" lon="4.75895">
        <ele>175</ele>
        <time>2018-06-20T09:51:23Z</time>
      </trkpt>
      <trkpt lat="45.94169" lon="4.75901">
        <ele>175</ele>
        <time>2018-06-20T09:51:24Z</time>
      </trkpt>
      <trkpt lat="45.94169" lon="4.75907">
        <ele>175</ele>
        <time>2018-06-20T09:51:25Z</time>
      </trkpt>
      <trkpt lat="45.94171" lon="4.75914">
        <ele>175</ele>
        <time>2018-06-20T09:51:26Z</time>
      </trkpt>
      <trkpt lat="45.9417" lon="4.75922">
        <ele>175</ele>
        <time>2018-06-20T09:51:27Z</time>
      </trkpt>
      <trkpt lat="45.94171" lon="4.75928">
        <ele>176</ele>
        <time>2018-06-20T09:51:28Z</time>
      </trkpt>
      <trkpt lat="45.94171" lon="4.75936">
        <ele>176</ele>
        <time>2018-06-20T09:51:29Z</time>
      </trkpt>
      <trkpt lat="45.94171" lon="4.75943">
        <ele>176</ele>
        <time>2018-06-20T09:51:30Z</time>
      </trkpt>
      <trkpt lat="45.94171" lon="4.7595">
        <ele>177</ele>
        <time>2018-06-20T09:51:31Z</time>
      </trkpt>
      <trkpt lat="45.94171" lon="4.75958">
        <ele>177</ele>
        <time>2018-06-20T09:51:32Z</time>
      </trkpt>
      <trkpt lat="45.94172" lon="4.75965">
        <ele>177</ele>
        <time>2018-06-20T09:51:33Z</time>
      </trkpt>
      <trkpt lat="45.94172" lon="4.75973">
        <ele>177</ele>
        <time>2018-06-20T09:51:34Z</time>
      </trkpt>
      <trkpt lat="45.94173" lon="4.75981">
        <ele>178</ele>
        <time>2018-06-20T09:51:35Z</time>
      </trkpt>
      <trkpt lat="45.94175" lon="4.75989">
        <ele>178</ele>
        <time>2018-06-20T09:51:36Z</time>
      </trkpt>
      <trkpt lat="45.94174" lon="4.75995">
        <ele>178</ele>
        <time>2018-06-20T09:51:37Z</time>
      </trkpt>
      <trkpt lat="45.94173" lon="4.76002">
        <ele>178</ele>
        <time>2018-06-20T09:51:38Z</time>
      </trkpt>
      <trkpt lat="45.94173" lon="4.76011">
        <ele>179</ele>
        <time>2018-06-20T09:51:39Z</time>
      </trkpt>
      <trkpt lat="45.94173" lon="4.76019">
        <ele>179</ele>
        <time>2018-06-20T09:51:40Z</time>
      </trkpt>
      <trkpt lat="45.94171" lon="4.76025">
        <ele>179</ele>
        <time>2018-06-20T09:51:41Z</time>
      </trkpt>
      <trkpt lat="45.94173" lon="4.76034">
        <ele>179</ele>
        <time>2018-06-20T09:51:42Z</time>
      </trkpt>
      <trkpt lat="45.94174" lon="4.76042">
        <ele>179</ele>
        <time>2018-06-20T09:51:43Z</time>
      </trkpt>
      <trkpt lat="45.94175" lon="4.76051">
        <ele>179</ele>
        <time>2018-06-20T09:51:44Z</time>
      </trkpt>
      <trkpt lat="45.94176" lon="4.76061">
        <ele>179</ele>
        <time>2018-06-20T09:51:45Z</time>
      </trkpt>
      <trkpt lat="45.94177" lon="4.7607">
        <ele>179</ele>
        <time>2018-06-20T09:51:46Z</time>
      </trkpt>
      <trkpt lat="45.94175" lon="4.76079">
        <ele>179</ele>
        <time>2018-06-20T09:51:47Z</time>
      </trkpt>
      <trkpt lat="45.94176" lon="4.76088">
        <ele>179</ele>
        <time>2018-06-20T09:51:48Z</time>
      </trkpt>
      <trkpt lat="45.94175" lon="4.76097">
        <ele>179</ele>
        <time>2018-06-20T09:51:49Z</time>
      </trkpt>
      <trkpt lat="45.94175" lon="4.76107">
        <ele>180</ele>
        <time>2018-06-20T09:51:50Z</time>
      </trkpt>
      <trkpt lat="45.94174" lon="4.76115">
        <ele>180</ele>
        <time>2018-06-20T09:51:51Z</time>
      </trkpt>
      <trkpt lat="45.94175" lon="4.76123">
        <ele>180</ele>
        <time>2018-06-20T09:51:52Z</time>
      </trkpt>
      <trkpt lat="45.94175" lon="4.76129">
        <ele>180</ele>
        <time>2018-06-20T09:51:53Z</time>
      </trkpt>
      <trkpt lat="45.94177" lon="4.76136">
        <ele>180</ele>
        <time>2018-06-20T09:51:54Z</time>
      </trkpt>
      <trkpt lat="45.94177" lon="4.76144">
        <ele>181</ele>
        <time>2018-06-20T09:51:55Z</time>
      </trkpt>
      <trkpt lat="45.94178" lon="4.76151">
        <ele>180</ele>
        <time>2018-06-20T09:51:56Z</time>
      </trkpt>
      <trkpt lat="45.94176" lon="4.76158">
        <ele>180</ele>
        <time>2018-06-20T09:51:57Z</time>
      </trkpt>
      <trkpt lat="45.94176" lon="4.76165">
        <ele>180</ele>
        <time>2018-06-20T09:51:58Z</time>
      </trkpt>
      <trkpt lat="45.94176" lon="4.76171">
        <ele>181</ele>
        <time>2018-06-20T09:51:59Z</time>
      </trkpt>
      <trkpt lat="45.94175" lon="4.76184">
        <ele>182</ele>
        <time>2018-06-20T09:52:01Z</time>
      </trkpt>
      <trkpt lat="45.94173" lon="4.76191">
        <ele>182</ele>
        <time>2018-06-20T09:52:02Z</time>
      </trkpt>
      <trkpt lat="45.94173" lon="4.76199">
        <ele>182</ele>
        <time>2018-06-20T09:52:03Z</time>
      </trkpt>
      <trkpt lat="45.94172" lon="4.76205">
        <ele>182</ele>
        <time>2018-06-20T09:52:04Z</time>
      </trkpt>
      <trkpt lat="45.94172" lon="4.76217">
        <ele>182</ele>
        <time>2018-06-20T09:52:06Z</time>
      </trkpt>
      <trkpt lat="45.94169" lon="4.76224">
        <ele>182</ele>
        <time>2018-06-20T09:52:07Z</time>
      </trkpt>
      <trkpt lat="45.94168" lon="4.76236">
        <ele>182</ele>
        <time>2018-06-20T09:52:09Z</time>
      </trkpt>
      <trkpt lat="45.94166" lon="4.76243">
        <ele>180</ele>
        <time>2018-06-20T09:52:10Z</time>
      </trkpt>
      <trkpt lat="45.94162" lon="4.7625">
        <ele>180</ele>
        <time>2018-06-20T09:52:12Z</time>
      </trkpt>
      <trkpt lat="45.94157" lon="4.76253">
        <ele>180</ele>
        <time>2018-06-20T09:52:13Z</time>
      </trkpt>
      <trkpt lat="45.94152" lon="4.76253">
        <ele>179</ele>
        <time>2018-06-20T09:52:14Z</time>
      </trkpt>
      <trkpt lat="45.94146" lon="4.76253">
        <ele>179</ele>
        <time>2018-06-20T09:52:15Z</time>
      </trkpt>
      <trkpt lat="45.94137" lon="4.76252">
        <ele>178</ele>
        <time>2018-06-20T09:52:17Z</time>
      </trkpt>
      <trkpt lat="45.94132" lon="4.76252">
        <ele>178</ele>
        <time>2018-06-20T09:52:18Z</time>
      </trkpt>
      <trkpt lat="45.94127" lon="4.76253">
        <ele>177</ele>
        <time>2018-06-20T09:52:19Z</time>
      </trkpt>
      <trkpt lat="45.94121" lon="4.76254">
        <ele>177</ele>
        <time>2018-06-20T09:52:20Z</time>
      </trkpt>
      <trkpt lat="45.94115" lon="4.76256">
        <ele>177</ele>
        <time>2018-06-20T09:52:21Z</time>
      </trkpt>
      <trkpt lat="45.9411" lon="4.76256">
        <ele>177</ele>
        <time>2018-06-20T09:52:22Z</time>
      </trkpt>
      <trkpt lat="45.94104" lon="4.76258">
        <ele>176</ele>
        <time>2018-06-20T09:52:23Z</time>
      </trkpt>
      <trkpt lat="45.94097" lon="4.76262">
        <ele>176</ele>
        <time>2018-06-20T09:52:24Z</time>
      </trkpt>
      <trkpt lat="45.9409" lon="4.76262">
        <ele>176</ele>
        <time>2018-06-20T09:52:25Z</time>
      </trkpt>
      <trkpt lat="45.94084" lon="4.76264">
        <ele>176</ele>
        <time>2018-06-20T09:52:26Z</time>
      </trkpt>
      <trkpt lat="45.94079" lon="4.76266">
        <ele>173</ele>
        <time>2018-06-20T09:52:27Z</time>
      </trkpt>
      <trkpt lat="45.94074" lon="4.76269">
        <ele>173</ele>
        <time>2018-06-20T09:52:28Z</time>
      </trkpt>
      <trkpt lat="45.94069" lon="4.76276">
        <ele>172</ele>
        <time>2018-06-20T09:52:29Z</time>
      </trkpt>
      <trkpt lat="45.94066" lon="4.76282">
        <ele>172</ele>
        <time>2018-06-20T09:52:30Z</time>
      </trkpt>
      <trkpt lat="45.94062" lon="4.76287">
        <ele>171</ele>
        <time>2018-06-20T09:52:31Z</time>
      </trkpt>
      <trkpt lat="45.94058" lon="4.76293">
        <ele>171</ele>
        <time>2018-06-20T09:52:32Z</time>
      </trkpt>
      <trkpt lat="45.94053" lon="4.76298">
        <ele>171</ele>
        <time>2018-06-20T09:52:33Z</time>
      </trkpt>
      <trkpt lat="45.94049" lon="4.76303">
        <ele>171</ele>
        <time>2018-06-20T09:52:34Z</time>
      </trkpt>
      <trkpt lat="45.94045" lon="4.76307">
        <ele>171</ele>
        <time>2018-06-20T09:52:36Z</time>
      </trkpt>
      <trkpt lat="45.94039" lon="4.76308">
        <ele>170</ele>
        <time>2018-06-20T09:52:37Z</time>
      </trkpt>
      <trkpt lat="45.94031" lon="4.76302">
        <ele>170</ele>
        <time>2018-06-20T09:52:39Z</time>
      </trkpt>
      <trkpt lat="45.94028" lon="4.76301">
        <ele>170</ele>
        <time>2018-06-20T09:52:40Z</time>
      </trkpt>
      <trkpt lat="45.9402" lon="4.76294">
        <ele>170</ele>
        <time>2018-06-20T09:52:42Z</time>
      </trkpt>
      <trkpt lat="45.94017" lon="4.76291">
        <ele>170</ele>
        <time>2018-06-20T09:52:43Z</time>
      </trkpt>
      <trkpt lat="45.94009" lon="4.76288">
        <ele>170</ele>
        <time>2018-06-20T09:52:45Z</time>
      </trkpt>
      <trkpt lat="45.94005" lon="4.76287">
        <ele>170</ele>
        <time>2018-06-20T09:52:46Z</time>
      </trkpt>
      <trkpt lat="45.93997" lon="4.76283">
        <ele>168</ele>
        <time>2018-06-20T09:52:48Z</time>
      </trkpt>
      <trkpt lat="45.93992" lon="4.76282">
        <ele>168</ele>
        <time>2018-06-20T09:52:49Z</time>
      </trkpt>
      <trkpt lat="45.93983" lon="4.76282">
        <ele>168</ele>
        <time>2018-06-20T09:52:51Z</time>
      </trkpt>
      <trkpt lat="45.93979" lon="4.76282">
        <ele>168</ele>
        <time>2018-06-20T09:52:52Z</time>
      </trkpt>
      <trkpt lat="45.9397" lon="4.7628">
        <ele>168</ele>
        <time>2018-06-20T09:52:54Z</time>
      </trkpt>
      <trkpt lat="45.93966" lon="4.76279">
        <ele>168</ele>
        <time>2018-06-20T09:52:55Z</time>
      </trkpt>
      <trkpt lat="45.93957" lon="4.76279">
        <ele>168</ele>
        <time>2018-06-20T09:52:57Z</time>
      </trkpt>
      <trkpt lat="45.93952" lon="4.76279">
        <ele>168</ele>
        <time>2018-06-20T09:52:58Z</time>
      </trkpt>
      <trkpt lat="45.93944" lon="4.76279">
        <ele>168</ele>
        <time>2018-06-20T09:53:00Z</time>
      </trkpt>
      <trkpt lat="45.93937" lon="4.76278">
        <ele>168</ele>
        <time>2018-06-20T09:53:01Z</time>
      </trkpt>
      <trkpt lat="45.93932" lon="4.76275">
        <ele>168</ele>
        <time>2018-06-20T09:53:02Z</time>
      </trkpt>
      <trkpt lat="45.93927" lon="4.76274">
        <ele>167</ele>
        <time>2018-06-20T09:53:03Z</time>
      </trkpt>
      <trkpt lat="45.93921" lon="4.76274">
        <ele>167</ele>
        <time>2018-06-20T09:53:04Z</time>
      </trkpt>
      <trkpt lat="45.93917" lon="4.76273">
        <ele>167</ele>
        <time>2018-06-20T09:53:05Z</time>
      </trkpt>
      <trkpt lat="45.93912" lon="4.76272">
        <ele>167</ele>
        <time>2018-06-20T09:53:06Z</time>
      </trkpt>
      <trkpt lat="45.93907" lon="4.76272">
        <ele>167</ele>
        <time>2018-06-20T09:53:07Z</time>
      </trkpt>
      <trkpt lat="45.93902" lon="4.76272">
        <ele>167</ele>
        <time>2018-06-20T09:53:08Z</time>
      </trkpt>
      <trkpt lat="45.93897" lon="4.76272">
        <ele>167</ele>
        <time>2018-06-20T09:53:09Z</time>
      </trkpt>
      <trkpt lat="45.93892" lon="4.76272">
        <ele>167</ele>
        <time>2018-06-20T09:53:10Z</time>
      </trkpt>
      <trkpt lat="45.93887" lon="4.76272">
        <ele>167</ele>
        <time>2018-06-20T09:53:11Z</time>
      </trkpt>
      <trkpt lat="45.93882" lon="4.76272">
        <ele>167</ele>
        <time>2018-06-20T09:53:12Z</time>
      </trkpt>
      <trkpt lat="45.93877" lon="4.76273">
        <ele>167</ele>
        <time>2018-06-20T09:53:13Z</time>
      </trkpt>
      <trkpt lat="45.93871" lon="4.76274">
        <ele>168</ele>
        <time>2018-06-20T09:53:14Z</time>
      </trkpt>
      <trkpt lat="45.93867" lon="4.76274">
        <ele>168</ele>
        <time>2018-06-20T09:53:15Z</time>
      </trkpt>
      <trkpt lat="45.93862" lon="4.76275">
        <ele>168</ele>
        <time>2018-06-20T09:53:16Z</time>
      </trkpt>
      <trkpt lat="45.93858" lon="4.76277">
        <ele>168</ele>
        <time>2018-06-20T09:53:17Z</time>
      </trkpt>
      <trkpt lat="45.93852" lon="4.76279">
        <ele>168</ele>
        <time>2018-06-20T09:53:18Z</time>
      </trkpt>
      <trkpt lat="45.93848" lon="4.7628">
        <ele>168</ele>
        <time>2018-06-20T09:53:19Z</time>
      </trkpt>
      <trkpt lat="45.93843" lon="4.76282">
        <ele>168</ele>
        <time>2018-06-20T09:53:20Z</time>
      </trkpt>
      <trkpt lat="45.93838" lon="4.76282">
        <ele>168</ele>
        <time>2018-06-20T09:53:21Z</time>
      </trkpt>
      <trkpt lat="45.93833" lon="4.76283">
        <ele>168</ele>
        <time>2018-06-20T09:53:22Z</time>
      </trkpt>
      <trkpt lat="45.93829" lon="4.76284">
        <ele>168</ele>
        <time>2018-06-20T09:53:23Z</time>
      </trkpt>
      <trkpt lat="45.93821" lon="4.76286">
        <ele>168</ele>
        <time>2018-06-20T09:53:25Z</time>
      </trkpt>
      <trkpt lat="45.93817" lon="4.76288">
        <ele>168</ele>
        <time>2018-06-20T09:53:26Z</time>
      </trkpt>
      <trkpt lat="45.9381" lon="4.76292">
        <ele>168</ele>
        <time>2018-06-20T09:53:28Z</time>
      </trkpt>
      <trkpt lat="45.93806" lon="4.76293">
        <ele>168</ele>
        <time>2018-06-20T09:53:29Z</time>
      </trkpt>
      <trkpt lat="45.93807" lon="4.76304">
        <ele>168</ele>
        <time>2018-06-20T09:53:35Z</time>
      </trkpt>
      <trkpt lat="45.93808" lon="4.76306">
        <ele>168</ele>
        <time>2018-06-20T09:53:36Z</time>
      </trkpt>
      <trkpt lat="45.93817" lon="4.76306">
        <ele>168</ele>
        <time>2018-06-20T09:53:40Z</time>
      </trkpt>
      <trkpt lat="45.93819" lon="4.76304">
        <ele>168</ele>
        <time>2018-06-20T09:53:41Z</time>
      </trkpt>
      <trkpt lat="45.93825" lon="4.76296">
        <ele>168</ele>
        <time>2018-06-20T09:53:42Z</time>
      </trkpt>
      <trkpt lat="45.93829" lon="4.76293">
        <ele>168</ele>
        <time>2018-06-20T09:53:43Z</time>
      </trkpt>
      <trkpt lat="45.93833" lon="4.76291">
        <ele>168</ele>
        <time>2018-06-20T09:53:44Z</time>
      </trkpt>
      <trkpt lat="45.93838" lon="4.76289">
        <ele>168</ele>
        <time>2018-06-20T09:53:45Z</time>
      </trkpt>
      <trkpt lat="45.93843" lon="4.76287">
        <ele>168</ele>
        <time>2018-06-20T09:53:46Z</time>
      </trkpt>
      <trkpt lat="45.93848" lon="4.76283">
        <ele>168</ele>
        <time>2018-06-20T09:53:47Z</time>
      </trkpt>
      <trkpt lat="45.93853" lon="4.7628">
        <ele>168</ele>
        <time>2018-06-20T09:53:48Z</time>
      </trkpt>
      <trkpt lat="45.93859" lon="4.76279">
        <ele>168</ele>
        <time>2018-06-20T09:53:49Z</time>
      </trkpt>
      <trkpt lat="45.93863" lon="4.76277">
        <ele>168</ele>
        <time>2018-06-20T09:53:50Z</time>
      </trkpt>
      <trkpt lat="45.93868" lon="4.76276">
        <ele>168</ele>
        <time>2018-06-20T09:53:51Z</time>
      </trkpt>
      <trkpt lat="45.93874" lon="4.76275">
        <ele>168</ele>
        <time>2018-06-20T09:53:52Z</time>
      </trkpt>
      <trkpt lat="45.93879" lon="4.76274">
        <ele>167</ele>
        <time>2018-06-20T09:53:53Z</time>
      </trkpt>
      <trkpt lat="45.93885" lon="4.76275">
        <ele>167</ele>
        <time>2018-06-20T09:53:54Z</time>
      </trkpt>
      <trkpt lat="45.9389" lon="4.76275">
        <ele>167</ele>
        <time>2018-06-20T09:53:55Z</time>
      </trkpt>
      <trkpt lat="45.93896" lon="4.76276">
        <ele>167</ele>
        <time>2018-06-20T09:53:56Z</time>
      </trkpt>
      <trkpt lat="45.93902" lon="4.76276">
        <ele>167</ele>
        <time>2018-06-20T09:53:57Z</time>
      </trkpt>
      <trkpt lat="45.93908" lon="4.76277">
        <ele>167</ele>
        <time>2018-06-20T09:53:58Z</time>
      </trkpt>
      <trkpt lat="45.93914" lon="4.76277">
        <ele>167</ele>
        <time>2018-06-20T09:53:59Z</time>
      </trkpt>
      <trkpt lat="45.9392" lon="4.76277">
        <ele>167</ele>
        <time>2018-06-20T09:54:00Z</time>
      </trkpt>
      <trkpt lat="45.93926" lon="4.76278">
        <ele>167</ele>
        <time>2018-06-20T09:54:01Z</time>
      </trkpt>
      <trkpt lat="45.93931" lon="4.76279">
        <ele>168</ele>
        <time>2018-06-20T09:54:02Z</time>
      </trkpt>
      <trkpt lat="45.93937" lon="4.76279">
        <ele>168</ele>
        <time>2018-06-20T09:54:03Z</time>
      </trkpt>
      <trkpt lat="45.93942" lon="4.7628">
        <ele>168</ele>
        <time>2018-06-20T09:54:04Z</time>
      </trkpt>
      <trkpt lat="45.93947" lon="4.7628">
        <ele>168</ele>
        <time>2018-06-20T09:54:05Z</time>
      </trkpt>
      <trkpt lat="45.93953" lon="4.76281">
        <ele>168</ele>
        <time>2018-06-20T09:54:06Z</time>
      </trkpt>
      <trkpt lat="45.93957" lon="4.76281">
        <ele>168</ele>
        <time>2018-06-20T09:54:07Z</time>
      </trkpt>
      <trkpt lat="45.93963" lon="4.76282">
        <ele>168</ele>
        <time>2018-06-20T09:54:08Z</time>
      </trkpt>
      <trkpt lat="45.93968" lon="4.76283">
        <ele>168</ele>
        <time>2018-06-20T09:54:09Z</time>
      </trkpt>
      <trkpt lat="45.93973" lon="4.76283">
        <ele>168</ele>
        <time>2018-06-20T09:54:10Z</time>
      </trkpt>
      <trkpt lat="45.9398" lon="4.76283">
        <ele>168</ele>
        <time>2018-06-20T09:54:11Z</time>
      </trkpt>
      <trkpt lat="45.93986" lon="4.76284">
        <ele>168</ele>
        <time>2018-06-20T09:54:12Z</time>
      </trkpt>
      <trkpt lat="45.93993" lon="4.76285">
        <ele>168</ele>
        <time>2018-06-20T09:54:13Z</time>
      </trkpt>
      <trkpt lat="45.93999" lon="4.76286">
        <ele>168</ele>
        <time>2018-06-20T09:54:14Z</time>
      </trkpt>
      <trkpt lat="45.94004" lon="4.76288">
        <ele>170</ele>
        <time>2018-06-20T09:54:15Z</time>
      </trkpt>
      <trkpt lat="45.94009" lon="4.76289">
        <ele>170</ele>
        <time>2018-06-20T09:54:16Z</time>
      </trkpt>
      <trkpt lat="45.94014" lon="4.76291">
        <ele>170</ele>
        <time>2018-06-20T09:54:17Z</time>
      </trkpt>
      <trkpt lat="45.94018" lon="4.76293">
        <ele>170</ele>
        <time>2018-06-20T09:54:18Z</time>
      </trkpt>
      <trkpt lat="45.94022" lon="4.76297">
        <ele>170</ele>
        <time>2018-06-20T09:54:19Z</time>
      </trkpt>
      <trkpt lat="45.94027" lon="4.76299">
        <ele>170</ele>
        <time>2018-06-20T09:54:20Z</time>
      </trkpt>
      <trkpt lat="45.9403" lon="4.76303">
        <ele>170</ele>
        <time>2018-06-20T09:54:21Z</time>
      </trkpt>
      <trkpt lat="45.94033" lon="4.76309">
        <ele>170</ele>
        <time>2018-06-20T09:54:22Z</time>
      </trkpt>
      <trkpt lat="45.94036" lon="4.76313">
        <ele>170</ele>
        <time>2018-06-20T09:54:23Z</time>
      </trkpt>
      <trkpt lat="45.94042" lon="4.76322">
        <ele>170</ele>
        <time>2018-06-20T09:54:25Z</time>
      </trkpt>
      <trkpt lat="45.94043" lon="4.76329">
        <ele>170</ele>
        <time>2018-06-20T09:54:26Z</time>
      </trkpt>
      <trkpt lat="45.94043" lon="4.76341">
        <ele>170</ele>
        <time>2018-06-20T09:54:28Z</time>
      </trkpt>
      <trkpt lat="45.94041" lon="4.76347">
        <ele>170</ele>
        <time>2018-06-20T09:54:29Z</time>
      </trkpt>
      <trkpt lat="45.94038" lon="4.76353">
        <ele>170</ele>
        <time>2018-06-20T09:54:30Z</time>
      </trkpt>
      <trkpt lat="45.94036" lon="4.7636">
        <ele>170</ele>
        <time>2018-06-20T09:54:31Z</time>
      </trkpt>
      <trkpt lat="45.94032" lon="4.76367">
        <ele>170</ele>
        <time>2018-06-20T09:54:32Z</time>
      </trkpt>
      <trkpt lat="45.94028" lon="4.76373">
        <ele>170</ele>
        <time>2018-06-20T09:54:33Z</time>
      </trkpt>
      <trkpt lat="45.94023" lon="4.76377">
        <ele>170</ele>
        <time>2018-06-20T09:54:34Z</time>
      </trkpt>
      <trkpt lat="45.9402" lon="4.76382">
        <ele>170</ele>
        <time>2018-06-20T09:54:35Z</time>
      </trkpt>
      <trkpt lat="45.94015" lon="4.76387">
        <ele>169</ele>
        <time>2018-06-20T09:54:36Z</time>
      </trkpt>
      <trkpt lat="45.94011" lon="4.76391">
        <ele>169</ele>
        <time>2018-06-20T09:54:37Z</time>
      </trkpt>
      <trkpt lat="45.94008" lon="4.76395">
        <ele>169</ele>
        <time>2018-06-20T09:54:38Z</time>
      </trkpt>
      <trkpt lat="45.94003" lon="4.76402">
        <ele>169</ele>
        <time>2018-06-20T09:54:39Z</time>
      </trkpt>
      <trkpt lat="45.94" lon="4.76407">
        <ele>168</ele>
        <time>2018-06-20T09:54:40Z</time>
      </trkpt>
      <trkpt lat="45.93996" lon="4.76413">
        <ele>168</ele>
        <time>2018-06-20T09:54:41Z</time>
      </trkpt>
      <trkpt lat="45.93993" lon="4.76421">
        <ele>169</ele>
        <time>2018-06-20T09:54:42Z</time>
      </trkpt>
      <trkpt lat="45.93992" lon="4.76429">
        <ele>169</ele>
        <time>2018-06-20T09:54:43Z</time>
      </trkpt>
      <trkpt lat="45.93991" lon="4.76435">
        <ele>169</ele>
        <time>2018-06-20T09:54:44Z</time>
      </trkpt>
      <trkpt lat="45.9399" lon="4.76443">
        <ele>169</ele>
        <time>2018-06-20T09:54:45Z</time>
      </trkpt>
      <trkpt lat="45.93991" lon="4.76451">
        <ele>170</ele>
        <time>2018-06-20T09:54:46Z</time>
      </trkpt>
      <trkpt lat="45.93991" lon="4.76459">
        <ele>170</ele>
        <time>2018-06-20T09:54:47Z</time>
      </trkpt>
      <trkpt lat="45.9399" lon="4.76465">
        <ele>170</ele>
        <time>2018-06-20T09:54:48Z</time>
      </trkpt>
      <trkpt lat="45.9399" lon="4.76475">
        <ele>170</ele>
        <time>2018-06-20T09:54:49Z</time>
      </trkpt>
      <trkpt lat="45.93991" lon="4.76483">
        <ele>170</ele>
        <time>2018-06-20T09:54:50Z</time>
      </trkpt>
      <trkpt lat="45.93989" lon="4.76493">
        <ele>171</ele>
        <time>2018-06-20T09:54:51Z</time>
      </trkpt>
      <trkpt lat="45.9399" lon="4.765">
        <ele>171</ele>
        <time>2018-06-20T09:54:52Z</time>
      </trkpt>
      <trkpt lat="45.93989" lon="4.76508">
        <ele>171</ele>
        <time>2018-06-20T09:54:53Z</time>
      </trkpt>
      <trkpt lat="45.93989" lon="4.76515">
        <ele>171</ele>
        <time>2018-06-20T09:54:54Z</time>
      </trkpt>
      <trkpt lat="45.93989" lon="4.76523">
        <ele>171</ele>
        <time>2018-06-20T09:54:55Z</time>
      </trkpt>
      <trkpt lat="45.93988" lon="4.76532">
        <ele>171</ele>
        <time>2018-06-20T09:54:56Z</time>
      </trkpt>
      <trkpt lat="45.93988" lon="4.76539">
        <ele>171</ele>
        <time>2018-06-20T09:54:57Z</time>
      </trkpt>
      <trkpt lat="45.93988" lon="4.76547">
        <ele>172</ele>
        <time>2018-06-20T09:54:58Z</time>
      </trkpt>
      <trkpt lat="45.93989" lon="4.76555">
        <ele>172</ele>
        <time>2018-06-20T09:54:59Z</time>
      </trkpt>
      <trkpt lat="45.9399" lon="4.76561">
        <ele>172</ele>
        <time>2018-06-20T09:55:00Z</time>
      </trkpt>
      <trkpt lat="45.93991" lon="4.76568">
        <ele>172</ele>
        <time>2018-06-20T09:55:01Z</time>
      </trkpt>
      <trkpt lat="45.93993" lon="4.76575">
        <ele>172</ele>
        <time>2018-06-20T09:55:02Z</time>
      </trkpt>
      <trkpt lat="45.93994" lon="4.76581">
        <ele>172</ele>
        <time>2018-06-20T09:55:03Z</time>
      </trkpt>
      <trkpt lat="45.93995" lon="4.76587">
        <ele>172</ele>
        <time>2018-06-20T09:55:04Z</time>
      </trkpt>
      <trkpt lat="45.93996" lon="4.76594">
        <ele>172</ele>
        <time>2018-06-20T09:55:05Z</time>
      </trkpt>
      <trkpt lat="45.93997" lon="4.76601">
        <ele>172</ele>
        <time>2018-06-20T09:55:06Z</time>
      </trkpt>
      <trkpt lat="45.94" lon="4.76606">
        <ele>172</ele>
        <time>2018-06-20T09:55:07Z</time>
      </trkpt>
      <trkpt lat="45.94002" lon="4.76613">
        <ele>172</ele>
        <time>2018-06-20T09:55:08Z</time>
      </trkpt>
      <trkpt lat="45.94004" lon="4.76619">
        <ele>172</ele>
        <time>2018-06-20T09:55:09Z</time>
      </trkpt>
      <trkpt lat="45.94007" lon="4.76626">
        <ele>172</ele>
        <time>2018-06-20T09:55:10Z</time>
      </trkpt>
      <trkpt lat="45.94009" lon="4.76633">
        <ele>172</ele>
        <time>2018-06-20T09:55:11Z</time>
      </trkpt>
      <trkpt lat="45.9401" lon="4.7664">
        <ele>172</ele>
        <time>2018-06-20T09:55:12Z</time>
      </trkpt>
      <trkpt lat="45.94012" lon="4.76647">
        <ele>172</ele>
        <time>2018-06-20T09:55:13Z</time>
      </trkpt>
      <trkpt lat="45.94014" lon="4.76655">
        <ele>172</ele>
        <time>2018-06-20T09:55:14Z</time>
      </trkpt>
      <trkpt lat="45.94016" lon="4.76662">
        <ele>172</ele>
        <time>2018-06-20T09:55:15Z</time>
      </trkpt>
      <trkpt lat="45.94016" lon="4.7667">
        <ele>172</ele>
        <time>2018-06-20T09:55:16Z</time>
      </trkpt>
      <trkpt lat="45.94015" lon="4.76676">
        <ele>173</ele>
        <time>2018-06-20T09:55:17Z</time>
      </trkpt>
      <trkpt lat="45.94015" lon="4.76679">
        <ele>173</ele>
        <time>2018-06-20T09:55:18Z</time>
      </trkpt>
      <trkpt lat="45.94014" lon="4.76689">
        <ele>173</ele>
        <time>2018-06-20T09:55:19Z</time>
      </trkpt>
      <trkpt lat="45.94013" lon="4.76696">
        <ele>173</ele>
        <time>2018-06-20T09:55:20Z</time>
      </trkpt>
      <trkpt lat="45.94011" lon="4.76702">
        <ele>173</ele>
        <time>2018-06-20T09:55:21Z</time>
      </trkpt>
      <trkpt lat="45.94011" lon="4.7671">
        <ele>173</ele>
        <time>2018-06-20T09:55:22Z</time>
      </trkpt>
      <trkpt lat="45.94007" lon="4.76715">
        <ele>173</ele>
        <time>2018-06-20T09:55:23Z</time>
      </trkpt>
      <trkpt lat="45.94006" lon="4.76724">
        <ele>173</ele>
        <time>2018-06-20T09:55:24Z</time>
      </trkpt>
      <trkpt lat="45.94005" lon="4.76732">
        <ele>173</ele>
        <time>2018-06-20T09:55:25Z</time>
      </trkpt>
      <trkpt lat="45.94004" lon="4.7674">
        <ele>173</ele>
        <time>2018-06-20T09:55:26Z</time>
      </trkpt>
      <trkpt lat="45.94001" lon="4.76748">
        <ele>173</ele>
        <time>2018-06-20T09:55:27Z</time>
      </trkpt>
      <trkpt lat="45.93999" lon="4.76756">
        <ele>173</ele>
        <time>2018-06-20T09:55:28Z</time>
      </trkpt>
      <trkpt lat="45.93997" lon="4.76764">
        <ele>173</ele>
        <time>2018-06-20T09:55:29Z</time>
      </trkpt>
      <trkpt lat="45.93995" lon="4.76773">
        <ele>172</ele>
        <time>2018-06-20T09:55:30Z</time>
      </trkpt>
      <trkpt lat="45.93994" lon="4.76782">
        <ele>172</ele>
        <time>2018-06-20T09:55:31Z</time>
      </trkpt>
      <trkpt lat="45.93993" lon="4.76791">
        <ele>172</ele>
        <time>2018-06-20T09:55:32Z</time>
      </trkpt>
      <trkpt lat="45.93992" lon="4.76797">
        <ele>172</ele>
        <time>2018-06-20T09:55:33Z</time>
      </trkpt>
      <trkpt lat="45.93994" lon="4.76807">
        <ele>172</ele>
        <time>2018-06-20T09:55:34Z</time>
      </trkpt>
      <trkpt lat="45.93994" lon="4.76815">
        <ele>172</ele>
        <time>2018-06-20T09:55:35Z</time>
      </trkpt>
      <trkpt lat="45.93995" lon="4.76825">
        <ele>171</ele>
        <time>2018-06-20T09:55:36Z</time>
      </trkpt>
      <trkpt lat="45.93998" lon="4.76834">
        <ele>171</ele>
        <time>2018-06-20T09:55:37Z</time>
      </trkpt>
      <trkpt lat="45.94" lon="4.7684">
        <ele>171</ele>
        <time>2018-06-20T09:55:38Z</time>
      </trkpt>
      <trkpt lat="45.94003" lon="4.76848">
        <ele>172</ele>
        <time>2018-06-20T09:55:39Z</time>
      </trkpt>
      <trkpt lat="45.94005" lon="4.76855">
        <ele>172</ele>
        <time>2018-06-20T09:55:40Z</time>
      </trkpt>
      <trkpt lat="45.94009" lon="4.76861">
        <ele>172</ele>
        <time>2018-06-20T09:55:41Z</time>
      </trkpt>
      <trkpt lat="45.94014" lon="4.76869">
        <ele>172</ele>
        <time>2018-06-20T09:55:42Z</time>
      </trkpt>
      <trkpt lat="45.94017" lon="4.76875">
        <ele>173</ele>
        <time>2018-06-20T09:55:43Z</time>
      </trkpt>
      <trkpt lat="45.9402" lon="4.76881">
        <ele>173</ele>
        <time>2018-06-20T09:55:44Z</time>
      </trkpt>
      <trkpt lat="45.94023" lon="4.76887">
        <ele>173</ele>
        <time>2018-06-20T09:55:45Z</time>
      </trkpt>
      <trkpt lat="45.94026" lon="4.76894">
        <ele>173</ele>
        <time>2018-06-20T09:55:46Z</time>
      </trkpt>
      <trkpt lat="45.94027" lon="4.76901">
        <ele>173</ele>
        <time>2018-06-20T09:55:47Z</time>
      </trkpt>
      <trkpt lat="45.94029" lon="4.76907">
        <ele>173</ele>
        <time>2018-06-20T09:55:48Z</time>
      </trkpt>
      <trkpt lat="45.9403" lon="4.76913">
        <ele>173</ele>
        <time>2018-06-20T09:55:49Z</time>
      </trkpt>
      <trkpt lat="45.94033" lon="4.76921">
        <ele>173</ele>
        <time>2018-06-20T09:55:50Z</time>
      </trkpt>
      <trkpt lat="45.94034" lon="4.76927">
        <ele>173</ele>
        <time>2018-06-20T09:55:51Z</time>
      </trkpt>
      <trkpt lat="45.94035" lon="4.7694">
        <ele>174</ele>
        <time>2018-06-20T09:55:53Z</time>
      </trkpt>
      <trkpt lat="45.94036" lon="4.76942">
        <ele>174</ele>
        <time>2018-06-20T09:55:54Z</time>
      </trkpt>
      <trkpt lat="45.94041" lon="4.76952">
        <ele>174</ele>
        <time>2018-06-20T09:55:59Z</time>
      </trkpt>
      <trkpt lat="45.94041" lon="4.76955">
        <ele>174</ele>
        <time>2018-06-20T09:56:00Z</time>
      </trkpt>
      <trkpt lat="45.9404" lon="4.76964">
        <ele>174</ele>
        <time>2018-06-20T09:56:03Z</time>
      </trkpt>
      <trkpt lat="45.94039" lon="4.76975">
        <ele>174</ele>
        <time>2018-06-20T09:56:04Z</time>
      </trkpt>
      <trkpt lat="45.9404" lon="4.76986">
        <ele>174</ele>
        <time>2018-06-20T09:56:06Z</time>
      </trkpt>
      <trkpt lat="45.94042" lon="4.76992">
        <ele>174</ele>
        <time>2018-06-20T09:56:07Z</time>
      </trkpt>
      <trkpt lat="45.94044" lon="4.77004">
        <ele>174</ele>
        <time>2018-06-20T09:56:09Z</time>
      </trkpt>
      <trkpt lat="45.94044" lon="4.77012">
        <ele>174</ele>
        <time>2018-06-20T09:56:10Z</time>
      </trkpt>
      <trkpt lat="45.94043" lon="4.77019">
        <ele>174</ele>
        <time>2018-06-20T09:56:11Z</time>
      </trkpt>
      <trkpt lat="45.94043" lon="4.77026">
        <ele>174</ele>
        <time>2018-06-20T09:56:12Z</time>
      </trkpt>
      <trkpt lat="45.94042" lon="4.77033">
        <ele>174</ele>
        <time>2018-06-20T09:56:13Z</time>
      </trkpt>
      <trkpt lat="45.94041" lon="4.7704">
        <ele>174</ele>
        <time>2018-06-20T09:56:14Z</time>
      </trkpt>
      <trkpt lat="45.9404" lon="4.77053">
        <ele>174</ele>
        <time>2018-06-20T09:56:16Z</time>
      </trkpt>
      <trkpt lat="45.9404" lon="4.77058">
        <ele>174</ele>
        <time>2018-06-20T09:56:17Z</time>
      </trkpt>
      <trkpt lat="45.9404" lon="4.7707">
        <ele>174</ele>
        <time>2018-06-20T09:56:19Z</time>
      </trkpt>
      <trkpt lat="45.94039" lon="4.77077">
        <ele>174</ele>
        <time>2018-06-20T09:56:20Z</time>
      </trkpt>
      <trkpt lat="45.94039" lon="4.77086">
        <ele>175</ele>
        <time>2018-06-20T09:56:21Z</time>
      </trkpt>
      <trkpt lat="45.94039" lon="4.77093">
        <ele>175</ele>
        <time>2018-06-20T09:56:22Z</time>
      </trkpt>
      <trkpt lat="45.94038" lon="4.77101">
        <ele>175</ele>
        <time>2018-06-20T09:56:23Z</time>
      </trkpt>
      <trkpt lat="45.94037" lon="4.77109">
        <ele>175</ele>
        <time>2018-06-20T09:56:24Z</time>
      </trkpt>
      <trkpt lat="45.94036" lon="4.77117">
        <ele>175</ele>
        <time>2018-06-20T09:56:25Z</time>
      </trkpt>
      <trkpt lat="45.94034" lon="4.77125">
        <ele>175</ele>
        <time>2018-06-20T09:56:26Z</time>
      </trkpt>
      <trkpt lat="45.94034" lon="4.77133">
        <ele>175</ele>
        <time>2018-06-20T09:56:27Z</time>
      </trkpt>
      <trkpt lat="45.94034" lon="4.77141">
        <ele>174</ele>
        <time>2018-06-20T09:56:28Z</time>
      </trkpt>
      <trkpt lat="45.94032" lon="4.77149">
        <ele>174</ele>
        <time>2018-06-20T09:56:29Z</time>
      </trkpt>
      <trkpt lat="45.9403" lon="4.77156">
        <ele>174</ele>
        <time>2018-06-20T09:56:30Z</time>
      </trkpt>
      <trkpt lat="45.9403" lon="4.77164">
        <ele>174</ele>
        <time>2018-06-20T09:56:31Z</time>
      </trkpt>
      <trkpt lat="45.94028" lon="4.77171">
        <ele>174</ele>
        <time>2018-06-20T09:56:32Z</time>
      </trkpt>
      <trkpt lat="45.94026" lon="4.77179">
        <ele>174</ele>
        <time>2018-06-20T09:56:33Z</time>
      </trkpt>
      <trkpt lat="45.94025" lon="4.77186">
        <ele>174</ele>
        <time>2018-06-20T09:56:34Z</time>
      </trkpt>
      <trkpt lat="45.94023" lon="4.77194">
        <ele>174</ele>
        <time>2018-06-20T09:56:35Z</time>
      </trkpt>
      <trkpt lat="45.94022" lon="4.77203">
        <ele>174</ele>
        <time>2018-06-20T09:56:36Z</time>
      </trkpt>
      <trkpt lat="45.9402" lon="4.77211">
        <ele>174</ele>
        <time>2018-06-20T09:56:37Z</time>
      </trkpt>
      <trkpt lat="45.94019" lon="4.77218">
        <ele>174</ele>
        <time>2018-06-20T09:56:38Z</time>
      </trkpt>
      <trkpt lat="45.94018" lon="4.77226">
        <ele>174</ele>
        <time>2018-06-20T09:56:39Z</time>
      </trkpt>
      <trkpt lat="45.94017" lon="4.77233">
        <ele>173</ele>
        <time>2018-06-20T09:56:40Z</time>
      </trkpt>
      <trkpt lat="45.94017" lon="4.7724">
        <ele>173</ele>
        <time>2018-06-20T09:56:41Z</time>
      </trkpt>
      <trkpt lat="45.94017" lon="4.77247">
        <ele>173</ele>
        <time>2018-06-20T09:56:42Z</time>
      </trkpt>
      <trkpt lat="45.94017" lon="4.77254">
        <ele>174</ele>
        <time>2018-06-20T09:56:43Z</time>
      </trkpt>
      <trkpt lat="45.94015" lon="4.7726">
        <ele>174</ele>
        <time>2018-06-20T09:56:44Z</time>
      </trkpt>
      <trkpt lat="45.94015" lon="4.77268">
        <ele>174</ele>
        <time>2018-06-20T09:56:45Z</time>
      </trkpt>
      <trkpt lat="45.94015" lon="4.77276">
        <ele>175</ele>
        <time>2018-06-20T09:56:46Z</time>
      </trkpt>
      <trkpt lat="45.94015" lon="4.77286">
        <ele>175</ele>
        <time>2018-06-20T09:56:47Z</time>
      </trkpt>
      <trkpt lat="45.94015" lon="4.77294">
        <ele>175</ele>
        <time>2018-06-20T09:56:48Z</time>
      </trkpt>
      <trkpt lat="45.94014" lon="4.77302">
        <ele>175</ele>
        <time>2018-06-20T09:56:49Z</time>
      </trkpt>
      <trkpt lat="45.94013" lon="4.77309">
        <ele>175</ele>
        <time>2018-06-20T09:56:50Z</time>
      </trkpt>
      <trkpt lat="45.94013" lon="4.77318">
        <ele>175</ele>
        <time>2018-06-20T09:56:51Z</time>
      </trkpt>
      <trkpt lat="45.94013" lon="4.77326">
        <ele>174</ele>
        <time>2018-06-20T09:56:52Z</time>
      </trkpt>
      <trkpt lat="45.94012" lon="4.77335">
        <ele>176</ele>
        <time>2018-06-20T09:56:53Z</time>
      </trkpt>
      <trkpt lat="45.94012" lon="4.77345">
        <ele>176</ele>
        <time>2018-06-20T09:56:54Z</time>
      </trkpt>
      <trkpt lat="45.94011" lon="4.77352">
        <ele>177</ele>
        <time>2018-06-20T09:56:55Z</time>
      </trkpt>
      <trkpt lat="45.9401" lon="4.77363">
        <ele>178</ele>
        <time>2018-06-20T09:56:56Z</time>
      </trkpt>
      <trkpt lat="45.9401" lon="4.77373">
        <ele>179</ele>
        <time>2018-06-20T09:56:57Z</time>
      </trkpt>
      <trkpt lat="45.94008" lon="4.77382">
        <ele>179</ele>
        <time>2018-06-20T09:56:58Z</time>
      </trkpt>
      <trkpt lat="45.94007" lon="4.77392">
        <ele>179</ele>
        <time>2018-06-20T09:56:59Z</time>
      </trkpt>
      <trkpt lat="45.94007" lon="4.77401">
        <ele>179</ele>
        <time>2018-06-20T09:57:00Z</time>
      </trkpt>
      <trkpt lat="45.94006" lon="4.77409">
        <ele>178</ele>
        <time>2018-06-20T09:57:01Z</time>
      </trkpt>
      <trkpt lat="45.94005" lon="4.77418">
        <ele>178</ele>
        <time>2018-06-20T09:57:02Z</time>
      </trkpt>
      <trkpt lat="45.94004" lon="4.77427">
        <ele>180</ele>
        <time>2018-06-20T09:57:03Z</time>
      </trkpt>
      <trkpt lat="45.94003" lon="4.77435">
        <ele>182</ele>
        <time>2018-06-20T09:57:04Z</time>
      </trkpt>
      <trkpt lat="45.94003" lon="4.77444">
        <ele>183</ele>
        <time>2018-06-20T09:57:05Z</time>
      </trkpt>
      <trkpt lat="45.94001" lon="4.77452">
        <ele>184</ele>
        <time>2018-06-20T09:57:06Z</time>
      </trkpt>
      <trkpt lat="45.94" lon="4.77461">
        <ele>175</ele>
        <time>2018-06-20T09:57:07Z</time>
      </trkpt>
      <trkpt lat="45.93998" lon="4.7747">
        <ele>176</ele>
        <time>2018-06-20T09:57:08Z</time>
      </trkpt>
      <trkpt lat="45.93997" lon="4.77478">
        <ele>177</ele>
        <time>2018-06-20T09:57:09Z</time>
      </trkpt>
      <trkpt lat="45.93996" lon="4.77487">
        <ele>179</ele>
        <time>2018-06-20T09:57:10Z</time>
      </trkpt>
      <trkpt lat="45.93996" lon="4.77496">
        <ele>181</ele>
        <time>2018-06-20T09:57:11Z</time>
      </trkpt>
      <trkpt lat="45.93994" lon="4.77505">
        <ele>181</ele>
        <time>2018-06-20T09:57:12Z</time>
      </trkpt>
      <trkpt lat="45.93993" lon="4.77513">
        <ele>180</ele>
        <time>2018-06-20T09:57:13Z</time>
      </trkpt>
      <trkpt lat="45.93992" lon="4.77522">
        <ele>179</ele>
        <time>2018-06-20T09:57:14Z</time>
      </trkpt>
      <trkpt lat="45.9399" lon="4.7753">
        <ele>179</ele>
        <time>2018-06-20T09:57:15Z</time>
      </trkpt>
      <trkpt lat="45.93988" lon="4.77538">
        <ele>178</ele>
        <time>2018-06-20T09:57:16Z</time>
      </trkpt>
      <trkpt lat="45.93987" lon="4.77546">
        <ele>179</ele>
        <time>2018-06-20T09:57:17Z</time>
      </trkpt>
      <trkpt lat="45.93985" lon="4.77555">
        <ele>179</ele>
        <time>2018-06-20T09:57:18Z</time>
      </trkpt>
      <trkpt lat="45.93983" lon="4.77564">
        <ele>180</ele>
        <time>2018-06-20T09:57:19Z</time>
      </trkpt>
      <trkpt lat="45.93982" lon="4.77572">
        <ele>180</ele>
        <time>2018-06-20T09:57:20Z</time>
      </trkpt>
      <trkpt lat="45.93982" lon="4.7758">
        <ele>181</ele>
        <time>2018-06-20T09:57:21Z</time>
      </trkpt>
      <trkpt lat="45.9398" lon="4.77589">
        <ele>181</ele>
        <time>2018-06-20T09:57:22Z</time>
      </trkpt>
      <trkpt lat="45.93978" lon="4.77596">
        <ele>180</ele>
        <time>2018-06-20T09:57:23Z</time>
      </trkpt>
      <trkpt lat="45.93977" lon="4.77603">
        <ele>180</ele>
        <time>2018-06-20T09:57:24Z</time>
      </trkpt>
      <trkpt lat="45.93975" lon="4.77611">
        <ele>179</ele>
        <time>2018-06-20T09:57:25Z</time>
      </trkpt>
      <trkpt lat="45.93973" lon="4.77618">
        <ele>179</ele>
        <time>2018-06-20T09:57:26Z</time>
      </trkpt>
      <trkpt lat="45.93972" lon="4.77625">
        <ele>179</ele>
        <time>2018-06-20T09:57:27Z</time>
      </trkpt>
      <trkpt lat="45.9397" lon="4.77632">
        <ele>179</ele>
        <time>2018-06-20T09:57:28Z</time>
      </trkpt>
      <trkpt lat="45.93968" lon="4.77639">
        <ele>179</ele>
        <time>2018-06-20T09:57:29Z</time>
      </trkpt>
      <trkpt lat="45.93966" lon="4.77646">
        <ele>178</ele>
        <time>2018-06-20T09:57:30Z</time>
      </trkpt>
      <trkpt lat="45.93964" lon="4.77654">
        <ele>178</ele>
        <time>2018-06-20T09:57:31Z</time>
      </trkpt>
      <trkpt lat="45.93963" lon="4.77663">
        <ele>178</ele>
        <time>2018-06-20T09:57:32Z</time>
      </trkpt>
      <trkpt lat="45.9396" lon="4.7767">
        <ele>178</ele>
        <time>2018-06-20T09:57:33Z</time>
      </trkpt>
      <trkpt lat="45.93958" lon="4.77679">
        <ele>178</ele>
        <time>2018-06-20T09:57:34Z</time>
      </trkpt>
      <trkpt lat="45.93956" lon="4.77687">
        <ele>177</ele>
        <time>2018-06-20T09:57:35Z</time>
      </trkpt>
      <trkpt lat="45.93954" lon="4.77695">
        <ele>177</ele>
        <time>2018-06-20T09:57:36Z</time>
      </trkpt>
      <trkpt lat="45.93952" lon="4.77703">
        <ele>177</ele>
        <time>2018-06-20T09:57:37Z</time>
      </trkpt>
      <trkpt lat="45.93949" lon="4.77711">
        <ele>177</ele>
        <time>2018-06-20T09:57:38Z</time>
      </trkpt>
      <trkpt lat="45.93946" lon="4.77719">
        <ele>176</ele>
        <time>2018-06-20T09:57:39Z</time>
      </trkpt>
      <trkpt lat="45.93943" lon="4.77727">
        <ele>175</ele>
        <time>2018-06-20T09:57:40Z</time>
      </trkpt>
      <trkpt lat="45.93939" lon="4.77735">
        <ele>174</ele>
        <time>2018-06-20T09:57:41Z</time>
      </trkpt>
      <trkpt lat="45.93936" lon="4.77742">
        <ele>173</ele>
        <time>2018-06-20T09:57:42Z</time>
      </trkpt>
      <trkpt lat="45.93934" lon="4.77748">
        <ele>172</ele>
        <time>2018-06-20T09:57:43Z</time>
      </trkpt>
      <trkpt lat="45.9393" lon="4.77755">
        <ele>173</ele>
        <time>2018-06-20T09:57:44Z</time>
      </trkpt>
      <trkpt lat="45.93928" lon="4.77762">
        <ele>174</ele>
        <time>2018-06-20T09:57:45Z</time>
      </trkpt>
      <trkpt lat="45.93925" lon="4.77769">
        <ele>175</ele>
        <time>2018-06-20T09:57:46Z</time>
      </trkpt>
      <trkpt lat="45.93921" lon="4.77777">
        <ele>176</ele>
        <time>2018-06-20T09:57:47Z</time>
      </trkpt>
      <trkpt lat="45.93919" lon="4.77783">
        <ele>178</ele>
        <time>2018-06-20T09:57:48Z</time>
      </trkpt>
      <trkpt lat="45.93916" lon="4.7779">
        <ele>170</ele>
        <time>2018-06-20T09:57:49Z</time>
      </trkpt>
      <trkpt lat="45.93913" lon="4.77798">
        <ele>171</ele>
        <time>2018-06-20T09:57:50Z</time>
      </trkpt>
      <trkpt lat="45.9391" lon="4.77805">
        <ele>172</ele>
        <time>2018-06-20T09:57:51Z</time>
      </trkpt>
      <trkpt lat="45.93908" lon="4.77813">
        <ele>173</ele>
        <time>2018-06-20T09:57:52Z</time>
      </trkpt>
      <trkpt lat="45.93906" lon="4.7782">
        <ele>173</ele>
        <time>2018-06-20T09:57:53Z</time>
      </trkpt>
      <trkpt lat="45.93903" lon="4.77828">
        <ele>174</ele>
        <time>2018-06-20T09:57:54Z</time>
      </trkpt>
      <trkpt lat="45.93902" lon="4.77835">
        <ele>176</ele>
        <time>2018-06-20T09:57:55Z</time>
      </trkpt>
      <trkpt lat="45.939" lon="4.77843">
        <ele>176</ele>
        <time>2018-06-20T09:57:56Z</time>
      </trkpt>
      <trkpt lat="45.93898" lon="4.7785">
        <ele>175</ele>
        <time>2018-06-20T09:57:57Z</time>
      </trkpt>
      <trkpt lat="45.93895" lon="4.77858">
        <ele>175</ele>
        <time>2018-06-20T09:57:58Z</time>
      </trkpt>
      <trkpt lat="45.93892" lon="4.77866">
        <ele>175</ele>
        <time>2018-06-20T09:57:59Z</time>
      </trkpt>
      <trkpt lat="45.9389" lon="4.77873">
        <ele>175</ele>
        <time>2018-06-20T09:58:00Z</time>
      </trkpt>
      <trkpt lat="45.93889" lon="4.7788">
        <ele>175</ele>
        <time>2018-06-20T09:58:01Z</time>
      </trkpt>
      <trkpt lat="45.93886" lon="4.77887">
        <ele>175</ele>
        <time>2018-06-20T09:58:02Z</time>
      </trkpt>
      <trkpt lat="45.93884" lon="4.77893">
        <ele>175</ele>
        <time>2018-06-20T09:58:03Z</time>
      </trkpt>
      <trkpt lat="45.93882" lon="4.779">
        <ele>175</ele>
        <time>2018-06-20T09:58:04Z</time>
      </trkpt>
      <trkpt lat="45.93881" lon="4.77906">
        <ele>175</ele>
        <time>2018-06-20T09:58:05Z</time>
      </trkpt>
      <trkpt lat="45.9388" lon="4.77914">
        <ele>175</ele>
        <time>2018-06-20T09:58:06Z</time>
      </trkpt>
      <trkpt lat="45.93878" lon="4.77927">
        <ele>178</ele>
        <time>2018-06-20T09:58:08Z</time>
      </trkpt>
      <trkpt lat="45.93875" lon="4.77933">
        <ele>178</ele>
        <time>2018-06-20T09:58:09Z</time>
      </trkpt>
      <trkpt lat="45.93873" lon="4.77946">
        <ele>178</ele>
        <time>2018-06-20T09:58:11Z</time>
      </trkpt>
      <trkpt lat="45.9387" lon="4.77953">
        <ele>178</ele>
        <time>2018-06-20T09:58:12Z</time>
      </trkpt>
      <trkpt lat="45.93866" lon="4.77965">
        <ele>178</ele>
        <time>2018-06-20T09:58:14Z</time>
      </trkpt>
      <trkpt lat="45.93865" lon="4.7797">
        <ele>179</ele>
        <time>2018-06-20T09:58:15Z</time>
      </trkpt>
      <trkpt lat="45.93862" lon="4.77981">
        <ele>179</ele>
        <time>2018-06-20T09:58:17Z</time>
      </trkpt>
      <trkpt lat="45.93861" lon="4.77986">
        <ele>179</ele>
        <time>2018-06-20T09:58:18Z</time>
      </trkpt>
      <trkpt lat="45.93857" lon="4.77989">
        <ele>179</ele>
        <time>2018-06-20T09:58:20Z</time>
      </trkpt>
      <trkpt lat="45.93851" lon="4.77993">
        <ele>179</ele>
        <time>2018-06-20T09:58:21Z</time>
      </trkpt>
      <trkpt lat="45.93845" lon="4.77999">
        <ele>179</ele>
        <time>2018-06-20T09:58:23Z</time>
      </trkpt>
      <trkpt lat="45.93842" lon="4.78004">
        <ele>181</ele>
        <time>2018-06-20T09:58:24Z</time>
      </trkpt>
      <trkpt lat="45.9384" lon="4.78011">
        <ele>181</ele>
        <time>2018-06-20T09:58:25Z</time>
      </trkpt>
      <trkpt lat="45.93838" lon="4.78018">
        <ele>181</ele>
        <time>2018-06-20T09:58:26Z</time>
      </trkpt>
      <trkpt lat="45.93841" lon="4.78024">
        <ele>182</ele>
        <time>2018-06-20T09:58:27Z</time>
      </trkpt>
      <trkpt lat="45.93844" lon="4.78031">
        <ele>182</ele>
        <time>2018-06-20T09:58:28Z</time>
      </trkpt>
      <trkpt lat="45.93846" lon="4.78038">
        <ele>182</ele>
        <time>2018-06-20T09:58:29Z</time>
      </trkpt>
      <trkpt lat="45.93847" lon="4.78046">
        <ele>183</ele>
        <time>2018-06-20T09:58:30Z</time>
      </trkpt>
      <trkpt lat="45.93847" lon="4.78053">
        <ele>182</ele>
        <time>2018-06-20T09:58:31Z</time>
      </trkpt>
      <trkpt lat="45.93846" lon="4.78061">
        <ele>182</ele>
        <time>2018-06-20T09:58:32Z</time>
      </trkpt>
      <trkpt lat="45.93844" lon="4.78067">
        <ele>182</ele>
        <time>2018-06-20T09:58:33Z</time>
      </trkpt>
      <trkpt lat="45.93843" lon="4.78074">
        <ele>182</ele>
        <time>2018-06-20T09:58:34Z</time>
      </trkpt>
      <trkpt lat="45.9384" lon="4.78085">
        <ele>182</ele>
        <time>2018-06-20T09:58:36Z</time>
      </trkpt>
      <trkpt lat="45.93839" lon="4.78091">
        <ele>182</ele>
        <time>2018-06-20T09:58:37Z</time>
      </trkpt>
      <trkpt lat="45.93838" lon="4.78098">
        <ele>183</ele>
        <time>2018-06-20T09:58:38Z</time>
      </trkpt>
      <trkpt lat="45.93836" lon="4.78104">
        <ele>183</ele>
        <time>2018-06-20T09:58:39Z</time>
      </trkpt>
      <trkpt lat="45.93835" lon="4.78112">
        <ele>184</ele>
        <time>2018-06-20T09:58:40Z</time>
      </trkpt>
      <trkpt lat="45.93832" lon="4.78119">
        <ele>180</ele>
        <time>2018-06-20T09:58:41Z</time>
      </trkpt>
      <trkpt lat="45.93831" lon="4.78125">
        <ele>180</ele>
        <time>2018-06-20T09:58:42Z</time>
      </trkpt>
      <trkpt lat="45.93829" lon="4.78132">
        <ele>180</ele>
        <time>2018-06-20T09:58:43Z</time>
      </trkpt>
      <trkpt lat="45.93827" lon="4.78138">
        <ele>180</ele>
        <time>2018-06-20T09:58:44Z</time>
      </trkpt>
      <trkpt lat="45.93824" lon="4.78147">
        <ele>180</ele>
        <time>2018-06-20T09:58:45Z</time>
      </trkpt>
      <trkpt lat="45.93823" lon="4.78153">
        <ele>180</ele>
        <time>2018-06-20T09:58:46Z</time>
      </trkpt>
      <trkpt lat="45.93822" lon="4.7816">
        <ele>181</ele>
        <time>2018-06-20T09:58:47Z</time>
      </trkpt>
      <trkpt lat="45.9382" lon="4.78167">
        <ele>181</ele>
        <time>2018-06-20T09:58:48Z</time>
      </trkpt>
      <trkpt lat="45.93818" lon="4.78173">
        <ele>182</ele>
        <time>2018-06-20T09:58:49Z</time>
      </trkpt>
      <trkpt lat="45.93816" lon="4.78179">
        <ele>182</ele>
        <time>2018-06-20T09:58:50Z</time>
      </trkpt>
      <trkpt lat="45.93814" lon="4.78185">
        <ele>182</ele>
        <time>2018-06-20T09:58:51Z</time>
      </trkpt>
      <trkpt lat="45.93812" lon="4.78191">
        <ele>182</ele>
        <time>2018-06-20T09:58:52Z</time>
      </trkpt>
      <trkpt lat="45.9381" lon="4.78198">
        <ele>182</ele>
        <time>2018-06-20T09:58:53Z</time>
      </trkpt>
      <trkpt lat="45.93809" lon="4.7821">
        <ele>182</ele>
        <time>2018-06-20T09:58:55Z</time>
      </trkpt>
      <trkpt lat="45.93807" lon="4.78215">
        <ele>182</ele>
        <time>2018-06-20T09:58:56Z</time>
      </trkpt>
      <trkpt lat="45.93804" lon="4.78223">
        <ele>182</ele>
        <time>2018-06-20T09:58:58Z</time>
      </trkpt>
      <trkpt lat="45.938" lon="4.78231">
        <ele>182</ele>
        <time>2018-06-20T09:58:59Z</time>
      </trkpt>
      <trkpt lat="45.93795" lon="4.78241">
        <ele>182</ele>
        <time>2018-06-20T09:59:01Z</time>
      </trkpt>
      <trkpt lat="45.93792" lon="4.78246">
        <ele>182</ele>
        <time>2018-06-20T09:59:02Z</time>
      </trkpt>
      <trkpt lat="45.9379" lon="4.78253">
        <ele>183</ele>
        <time>2018-06-20T09:59:03Z</time>
      </trkpt>
      <trkpt lat="45.93789" lon="4.7826">
        <ele>183</ele>
        <time>2018-06-20T09:59:04Z</time>
      </trkpt>
      <trkpt lat="45.93789" lon="4.78267">
        <ele>183</ele>
        <time>2018-06-20T09:59:05Z</time>
      </trkpt>
      <trkpt lat="45.93787" lon="4.78273">
        <ele>183</ele>
        <time>2018-06-20T09:59:06Z</time>
      </trkpt>
      <trkpt lat="45.93785" lon="4.7828">
        <ele>183</ele>
        <time>2018-06-20T09:59:07Z</time>
      </trkpt>
      <trkpt lat="45.93784" lon="4.78287">
        <ele>183</ele>
        <time>2018-06-20T09:59:08Z</time>
      </trkpt>
      <trkpt lat="45.93782" lon="4.78294">
        <ele>183</ele>
        <time>2018-06-20T09:59:09Z</time>
      </trkpt>
      <trkpt lat="45.9378" lon="4.78301">
        <ele>183</ele>
        <time>2018-06-20T09:59:10Z</time>
      </trkpt>
      <trkpt lat="45.93778" lon="4.78309">
        <ele>183</ele>
        <time>2018-06-20T09:59:11Z</time>
      </trkpt>
      <trkpt lat="45.93776" lon="4.78316">
        <ele>183</ele>
        <time>2018-06-20T09:59:12Z</time>
      </trkpt>
      <trkpt lat="45.93774" lon="4.78324">
        <ele>183</ele>
        <time>2018-06-20T09:59:13Z</time>
      </trkpt>
      <trkpt lat="45.93773" lon="4.78331">
        <ele>183</ele>
        <time>2018-06-20T09:59:14Z</time>
      </trkpt>
      <trkpt lat="45.9377" lon="4.78342">
        <ele>183</ele>
        <time>2018-06-20T09:59:17Z</time>
      </trkpt>
      <trkpt lat="45.93769" lon="4.78345">
        <ele>183</ele>
        <time>2018-06-20T09:59:18Z</time>
      </trkpt>
      <trkpt lat="45.93768" lon="4.78347">
        <ele>183</ele>
        <time>2018-06-20T09:59:19Z</time>
      </trkpt>
      <trkpt lat="45.93768" lon="4.78349">
        <ele>183</ele>
        <time>2018-06-20T09:59:20Z</time>
      </trkpt>
      <trkpt lat="45.93767" lon="4.7835">
        <ele>183</ele>
        <time>2018-06-20T09:59:21Z</time>
      </trkpt>
      <trkpt lat="45.93763" lon="4.7836">
        <ele>183</ele>
        <time>2018-06-20T09:59:37Z</time>
      </trkpt>
      <trkpt lat="45.93762" lon="4.78363">
        <ele>183</ele>
        <time>2018-06-20T09:59:38Z</time>
      </trkpt>
      <trkpt lat="45.93762" lon="4.78367">
        <ele>183</ele>
        <time>2018-06-20T09:59:39Z</time>
      </trkpt>
      <trkpt lat="45.93759" lon="4.78377">
        <ele>183</ele>
        <time>2018-06-20T09:59:40Z</time>
      </trkpt>
      <trkpt lat="45.93758" lon="4.78383">
        <ele>183</ele>
        <time>2018-06-20T09:59:41Z</time>
      </trkpt>
      <trkpt lat="45.93756" lon="4.78391">
        <ele>183</ele>
        <time>2018-06-20T09:59:42Z</time>
      </trkpt>
      <trkpt lat="45.93754" lon="4.78398">
        <ele>183</ele>
        <time>2018-06-20T09:59:43Z</time>
      </trkpt>
      <trkpt lat="45.93753" lon="4.78405">
        <ele>182</ele>
        <time>2018-06-20T09:59:44Z</time>
      </trkpt>
      <trkpt lat="45.93751" lon="4.78412">
        <ele>182</ele>
        <time>2018-06-20T09:59:45Z</time>
      </trkpt>
      <trkpt lat="45.9375" lon="4.7842">
        <ele>181</ele>
        <time>2018-06-20T09:59:46Z</time>
      </trkpt>
      <trkpt lat="45.93749" lon="4.78429">
        <ele>180</ele>
        <time>2018-06-20T09:59:47Z</time>
      </trkpt>
      <trkpt lat="45.93747" lon="4.78437">
        <ele>180</ele>
        <time>2018-06-20T09:59:48Z</time>
      </trkpt>
      <trkpt lat="45.93746" lon="4.78443">
        <ele>180</ele>
        <time>2018-06-20T09:59:49Z</time>
      </trkpt>
      <trkpt lat="45.93744" lon="4.78451">
        <ele>180</ele>
        <time>2018-06-20T09:59:50Z</time>
      </trkpt>
      <trkpt lat="45.93741" lon="4.78459">
        <ele>180</ele>
        <time>2018-06-20T09:59:51Z</time>
      </trkpt>
      <trkpt lat="45.93739" lon="4.78466">
        <ele>180</ele>
        <time>2018-06-20T09:59:52Z</time>
      </trkpt>
      <trkpt lat="45.93737" lon="4.78474">
        <ele>180</ele>
        <time>2018-06-20T09:59:53Z</time>
      </trkpt>
      <trkpt lat="45.93735" lon="4.78482">
        <ele>180</ele>
        <time>2018-06-20T09:59:54Z</time>
      </trkpt>
      <trkpt lat="45.93733" lon="4.78488">
        <ele>180</ele>
        <time>2018-06-20T09:59:55Z</time>
      </trkpt>
      <trkpt lat="45.9373" lon="4.78498">
        <ele>180</ele>
        <time>2018-06-20T09:59:56Z</time>
      </trkpt>
      <trkpt lat="45.93728" lon="4.7851">
        <ele>179</ele>
        <time>2018-06-20T09:59:57Z</time>
      </trkpt>
      <trkpt lat="45.93725" lon="4.78518">
        <ele>179</ele>
        <time>2018-06-20T09:59:58Z</time>
      </trkpt>
      <trkpt lat="45.93721" lon="4.78528">
        <ele>178</ele>
        <time>2018-06-20T09:59:59Z</time>
      </trkpt>
      <trkpt lat="45.9372" lon="4.78536">
        <ele>178</ele>
        <time>2018-06-20T10:00:00Z</time>
      </trkpt>
      <trkpt lat="45.93718" lon="4.78547">
        <ele>178</ele>
        <time>2018-06-20T10:00:01Z</time>
      </trkpt>
      <trkpt lat="45.93716" lon="4.78556">
        <ele>178</ele>
        <time>2018-06-20T10:00:02Z</time>
      </trkpt>
      <trkpt lat="45.93714" lon="4.78567">
        <ele>178</ele>
        <time>2018-06-20T10:00:03Z</time>
      </trkpt>
      <trkpt lat="45.93711" lon="4.78577">
        <ele>177</ele>
        <time>2018-06-20T10:00:04Z</time>
      </trkpt>
      <trkpt lat="45.93709" lon="4.78586">
        <ele>176</ele>
        <time>2018-06-20T10:00:05Z</time>
      </trkpt>
      <trkpt lat="45.93708" lon="4.78596">
        <ele>176</ele>
        <time>2018-06-20T10:00:06Z</time>
      </trkpt>
      <trkpt lat="45.93705" lon="4.78603">
        <ele>176</ele>
        <time>2018-06-20T10:00:07Z</time>
      </trkpt>
      <trkpt lat="45.93702" lon="4.78611">
        <ele>176</ele>
        <time>2018-06-20T10:00:08Z</time>
      </trkpt>
      <trkpt lat="45.93699" lon="4.78619">
        <ele>176</ele>
        <time>2018-06-20T10:00:09Z</time>
      </trkpt>
      <trkpt lat="45.93696" lon="4.78629">
        <ele>176</ele>
        <time>2018-06-20T10:00:10Z</time>
      </trkpt>
      <trkpt lat="45.93693" lon="4.78638">
        <ele>176</ele>
        <time>2018-06-20T10:00:11Z</time>
      </trkpt>
      <trkpt lat="45.9369" lon="4.78648">
        <ele>176</ele>
        <time>2018-06-20T10:00:12Z</time>
      </trkpt>
      <trkpt lat="45.93686" lon="4.78655">
        <ele>175</ele>
        <time>2018-06-20T10:00:13Z</time>
      </trkpt>
      <trkpt lat="45.93683" lon="4.78662">
        <ele>175</ele>
        <time>2018-06-20T10:00:14Z</time>
      </trkpt>
      <trkpt lat="45.93679" lon="4.78672">
        <ele>175</ele>
        <time>2018-06-20T10:00:15Z</time>
      </trkpt>
      <trkpt lat="45.93675" lon="4.78681">
        <ele>175</ele>
        <time>2018-06-20T10:00:16Z</time>
      </trkpt>
      <trkpt lat="45.93671" lon="4.78689">
        <ele>175</ele>
        <time>2018-06-20T10:00:17Z</time>
      </trkpt>
      <trkpt lat="45.93668" lon="4.78698">
        <ele>175</ele>
        <time>2018-06-20T10:00:18Z</time>
      </trkpt>
      <trkpt lat="45.93664" lon="4.78706">
        <ele>173</ele>
        <time>2018-06-20T10:00:19Z</time>
      </trkpt>
      <trkpt lat="45.93659" lon="4.78714">
        <ele>173</ele>
        <time>2018-06-20T10:00:20Z</time>
      </trkpt>
      <trkpt lat="45.93656" lon="4.78721">
        <ele>173</ele>
        <time>2018-06-20T10:00:21Z</time>
      </trkpt>
      <trkpt lat="45.93652" lon="4.78729">
        <ele>174</ele>
        <time>2018-06-20T10:00:22Z</time>
      </trkpt>
      <trkpt lat="45.93649" lon="4.78737">
        <ele>174</ele>
        <time>2018-06-20T10:00:23Z</time>
      </trkpt>
      <trkpt lat="45.93646" lon="4.78745">
        <ele>174</ele>
        <time>2018-06-20T10:00:24Z</time>
      </trkpt>
      <trkpt lat="45.93644" lon="4.78754">
        <ele>174</ele>
        <time>2018-06-20T10:00:25Z</time>
      </trkpt>
      <trkpt lat="45.93641" lon="4.7876">
        <ele>174</ele>
        <time>2018-06-20T10:00:26Z</time>
      </trkpt>
      <trkpt lat="45.93637" lon="4.78768">
        <ele>174</ele>
        <time>2018-06-20T10:00:27Z</time>
      </trkpt>
      <trkpt lat="45.93635" lon="4.78774">
        <ele>174</ele>
        <time>2018-06-20T10:00:28Z</time>
      </trkpt>
      <trkpt lat="45.93632" lon="4.78783">
        <ele>174</ele>
        <time>2018-06-20T10:00:29Z</time>
      </trkpt>
      <trkpt lat="45.93628" lon="4.78791">
        <ele>174</ele>
        <time>2018-06-20T10:00:30Z</time>
      </trkpt>
      <trkpt lat="45.93624" lon="4.78798">
        <ele>174</ele>
        <time>2018-06-20T10:00:31Z</time>
      </trkpt>
      <trkpt lat="45.9362" lon="4.78806">
        <ele>174</ele>
        <time>2018-06-20T10:00:32Z</time>
      </trkpt>
      <trkpt lat="45.93617" lon="4.78814">
        <ele>173</ele>
        <time>2018-06-20T10:00:33Z</time>
      </trkpt>
      <trkpt lat="45.93613" lon="4.78821">
        <ele>173</ele>
        <time>2018-06-20T10:00:34Z</time>
      </trkpt>
      <trkpt lat="45.9361" lon="4.7883">
        <ele>173</ele>
        <time>2018-06-20T10:00:35Z</time>
      </trkpt>
      <trkpt lat="45.93607" lon="4.78835">
        <ele>174</ele>
        <time>2018-06-20T10:00:36Z</time>
      </trkpt>
      <trkpt lat="45.93603" lon="4.78843">
        <ele>174</ele>
        <time>2018-06-20T10:00:37Z</time>
      </trkpt>
      <trkpt lat="45.93599" lon="4.7885">
        <ele>174</ele>
        <time>2018-06-20T10:00:38Z</time>
      </trkpt>
      <trkpt lat="45.93595" lon="4.78857">
        <ele>174</ele>
        <time>2018-06-20T10:00:39Z</time>
      </trkpt>
      <trkpt lat="45.93592" lon="4.78865">
        <ele>174</ele>
        <time>2018-06-20T10:00:40Z</time>
      </trkpt>
      <trkpt lat="45.93589" lon="4.78875">
        <ele>173</ele>
        <time>2018-06-20T10:00:41Z</time>
      </trkpt>
      <trkpt lat="45.93586" lon="4.78882">
        <ele>173</ele>
        <time>2018-06-20T10:00:42Z</time>
      </trkpt>
      <trkpt lat="45.93583" lon="4.78889">
        <ele>172</ele>
        <time>2018-06-20T10:00:43Z</time>
      </trkpt>
      <trkpt lat="45.9358" lon="4.78894">
        <ele>172</ele>
        <time>2018-06-20T10:00:44Z</time>
      </trkpt>
      <trkpt lat="45.93577" lon="4.78902">
        <ele>172</ele>
        <time>2018-06-20T10:00:45Z</time>
      </trkpt>
      <trkpt lat="45.93574" lon="4.7891">
        <ele>172</ele>
        <time>2018-06-20T10:00:46Z</time>
      </trkpt>
      <trkpt lat="45.93571" lon="4.78917">
        <ele>172</ele>
        <time>2018-06-20T10:00:47Z</time>
      </trkpt>
      <trkpt lat="45.93567" lon="4.78924">
        <ele>172</ele>
        <time>2018-06-20T10:00:48Z</time>
      </trkpt>
      <trkpt lat="45.93565" lon="4.78929">
        <ele>172</ele>
        <time>2018-06-20T10:00:49Z</time>
      </trkpt>
      <trkpt lat="45.93562" lon="4.78935">
        <ele>172</ele>
        <time>2018-06-20T10:00:50Z</time>
      </trkpt>
      <trkpt lat="45.93558" lon="4.78941">
        <ele>172</ele>
        <time>2018-06-20T10:00:51Z</time>
      </trkpt>
      <trkpt lat="45.93555" lon="4.78946">
        <ele>172</ele>
        <time>2018-06-20T10:00:52Z</time>
      </trkpt>
      <trkpt lat="45.93551" lon="4.7895">
        <ele>172</ele>
        <time>2018-06-20T10:00:53Z</time>
      </trkpt>
      <trkpt lat="45.93545" lon="4.78955">
        <ele>172</ele>
        <time>2018-06-20T10:00:54Z</time>
      </trkpt>
      <trkpt lat="45.9354" lon="4.78958">
        <ele>172</ele>
        <time>2018-06-20T10:00:55Z</time>
      </trkpt>
      <trkpt lat="45.93536" lon="4.78962">
        <ele>172</ele>
        <time>2018-06-20T10:00:56Z</time>
      </trkpt>
      <trkpt lat="45.93532" lon="4.78967">
        <ele>172</ele>
        <time>2018-06-20T10:00:57Z</time>
      </trkpt>
      <trkpt lat="45.9353" lon="4.78974">
        <ele>172</ele>
        <time>2018-06-20T10:00:58Z</time>
      </trkpt>
      <trkpt lat="45.9353" lon="4.7898">
        <ele>172</ele>
        <time>2018-06-20T10:00:59Z</time>
      </trkpt>
      <trkpt lat="45.93531" lon="4.78987">
        <ele>172</ele>
        <time>2018-06-20T10:01:00Z</time>
      </trkpt>
      <trkpt lat="45.9353" lon="4.78996">
        <ele>172</ele>
        <time>2018-06-20T10:01:01Z</time>
      </trkpt>
      <trkpt lat="45.93529" lon="4.79004">
        <ele>172</ele>
        <time>2018-06-20T10:01:02Z</time>
      </trkpt>
      <trkpt lat="45.93528" lon="4.79013">
        <ele>173</ele>
        <time>2018-06-20T10:01:03Z</time>
      </trkpt>
      <trkpt lat="45.93525" lon="4.79021">
        <ele>173</ele>
        <time>2018-06-20T10:01:04Z</time>
      </trkpt>
      <trkpt lat="45.93521" lon="4.79028">
        <ele>173</ele>
        <time>2018-06-20T10:01:05Z</time>
      </trkpt>
      <trkpt lat="45.93519" lon="4.79036">
        <ele>173</ele>
        <time>2018-06-20T10:01:06Z</time>
      </trkpt>
      <trkpt lat="45.93514" lon="4.79043">
        <ele>173</ele>
        <time>2018-06-20T10:01:07Z</time>
      </trkpt>
      <trkpt lat="45.9351" lon="4.7905">
        <ele>173</ele>
        <time>2018-06-20T10:01:08Z</time>
      </trkpt>
      <trkpt lat="45.93507" lon="4.79057">
        <ele>173</ele>
        <time>2018-06-20T10:01:09Z</time>
      </trkpt>
      <trkpt lat="45.93504" lon="4.79066">
        <ele>173</ele>
        <time>2018-06-20T10:01:10Z</time>
      </trkpt>
      <trkpt lat="45.93501" lon="4.79073">
        <ele>173</ele>
        <time>2018-06-20T10:01:11Z</time>
      </trkpt>
      <trkpt lat="45.93498" lon="4.79079">
        <ele>173</ele>
        <time>2018-06-20T10:01:12Z</time>
      </trkpt>
      <trkpt lat="45.93495" lon="4.79087">
        <ele>173</ele>
        <time>2018-06-20T10:01:13Z</time>
      </trkpt>
      <trkpt lat="45.93493" lon="4.79093">
        <ele>173</ele>
        <time>2018-06-20T10:01:14Z</time>
      </trkpt>
      <trkpt lat="45.93489" lon="4.791">
        <ele>172</ele>
        <time>2018-06-20T10:01:15Z</time>
      </trkpt>
      <trkpt lat="45.93488" lon="4.79107">
        <ele>172</ele>
        <time>2018-06-20T10:01:16Z</time>
      </trkpt>
      <trkpt lat="45.93484" lon="4.79114">
        <ele>172</ele>
        <time>2018-06-20T10:01:17Z</time>
      </trkpt>
      <trkpt lat="45.93481" lon="4.79121">
        <ele>172</ele>
        <time>2018-06-20T10:01:18Z</time>
      </trkpt>
      <trkpt lat="45.93478" lon="4.79128">
        <ele>172</ele>
        <time>2018-06-20T10:01:19Z</time>
      </trkpt>
      <trkpt lat="45.93476" lon="4.79137">
        <ele>172</ele>
        <time>2018-06-20T10:01:20Z</time>
      </trkpt>
      <trkpt lat="45.93473" lon="4.79146">
        <ele>172</ele>
        <time>2018-06-20T10:01:21Z</time>
      </trkpt>
      <trkpt lat="45.9347" lon="4.79154">
        <ele>172</ele>
        <time>2018-06-20T10:01:22Z</time>
      </trkpt>
      <trkpt lat="45.93467" lon="4.79162">
        <ele>172</ele>
        <time>2018-06-20T10:01:23Z</time>
      </trkpt>
      <trkpt lat="45.93465" lon="4.7917">
        <ele>172</ele>
        <time>2018-06-20T10:01:24Z</time>
      </trkpt>
      <trkpt lat="45.93462" lon="4.79178">
        <ele>172</ele>
        <time>2018-06-20T10:01:25Z</time>
      </trkpt>
      <trkpt lat="45.93458" lon="4.79185">
        <ele>172</ele>
        <time>2018-06-20T10:01:26Z</time>
      </trkpt>
      <trkpt lat="45.93456" lon="4.79193">
        <ele>172</ele>
        <time>2018-06-20T10:01:27Z</time>
      </trkpt>
      <trkpt lat="45.93454" lon="4.792">
        <ele>172</ele>
        <time>2018-06-20T10:01:28Z</time>
      </trkpt>
      <trkpt lat="45.93451" lon="4.79207">
        <ele>172</ele>
        <time>2018-06-20T10:01:29Z</time>
      </trkpt>
      <trkpt lat="45.93448" lon="4.79216">
        <ele>172</ele>
        <time>2018-06-20T10:01:30Z</time>
      </trkpt>
      <trkpt lat="45.93447" lon="4.79226">
        <ele>172</ele>
        <time>2018-06-20T10:01:31Z</time>
      </trkpt>
      <trkpt lat="45.93444" lon="4.79234">
        <ele>172</ele>
        <time>2018-06-20T10:01:32Z</time>
      </trkpt>
      <trkpt lat="45.93441" lon="4.79243">
        <ele>172</ele>
        <time>2018-06-20T10:01:33Z</time>
      </trkpt>
      <trkpt lat="45.93439" lon="4.7925">
        <ele>172</ele>
        <time>2018-06-20T10:01:34Z</time>
      </trkpt>
      <trkpt lat="45.93436" lon="4.79259">
        <ele>172</ele>
        <time>2018-06-20T10:01:35Z</time>
      </trkpt>
      <trkpt lat="45.93434" lon="4.79266">
        <ele>172</ele>
        <time>2018-06-20T10:01:36Z</time>
      </trkpt>
      <trkpt lat="45.93431" lon="4.79273">
        <ele>172</ele>
        <time>2018-06-20T10:01:37Z</time>
      </trkpt>
      <trkpt lat="45.93429" lon="4.7928">
        <ele>172</ele>
        <time>2018-06-20T10:01:38Z</time>
      </trkpt>
      <trkpt lat="45.93426" lon="4.79288">
        <ele>172</ele>
        <time>2018-06-20T10:01:39Z</time>
      </trkpt>
      <trkpt lat="45.93424" lon="4.79294">
        <ele>172</ele>
        <time>2018-06-20T10:01:40Z</time>
      </trkpt>
      <trkpt lat="45.93422" lon="4.79302">
        <ele>172</ele>
        <time>2018-06-20T10:01:41Z</time>
      </trkpt>
      <trkpt lat="45.93419" lon="4.79309">
        <ele>172</ele>
        <time>2018-06-20T10:01:42Z</time>
      </trkpt>
      <trkpt lat="45.93417" lon="4.79318">
        <ele>172</ele>
        <time>2018-06-20T10:01:43Z</time>
      </trkpt>
      <trkpt lat="45.93414" lon="4.79324">
        <ele>172</ele>
        <time>2018-06-20T10:01:44Z</time>
      </trkpt>
      <trkpt lat="45.93412" lon="4.79331">
        <ele>172</ele>
        <time>2018-06-20T10:01:45Z</time>
      </trkpt>
      <trkpt lat="45.93409" lon="4.79339">
        <ele>172</ele>
        <time>2018-06-20T10:01:46Z</time>
      </trkpt>
      <trkpt lat="45.93406" lon="4.79347">
        <ele>172</ele>
        <time>2018-06-20T10:01:47Z</time>
      </trkpt>
      <trkpt lat="45.93403" lon="4.79354">
        <ele>172</ele>
        <time>2018-06-20T10:01:48Z</time>
      </trkpt>
      <trkpt lat="45.93401" lon="4.79362">
        <ele>172</ele>
        <time>2018-06-20T10:01:49Z</time>
      </trkpt>
      <trkpt lat="45.93397" lon="4.79371">
        <ele>172</ele>
        <time>2018-06-20T10:01:50Z</time>
      </trkpt>
      <trkpt lat="45.93394" lon="4.79379">
        <ele>172</ele>
        <time>2018-06-20T10:01:51Z</time>
      </trkpt>
      <trkpt lat="45.93392" lon="4.79387">
        <ele>172</ele>
        <time>2018-06-20T10:01:52Z</time>
      </trkpt>
      <trkpt lat="45.93389" lon="4.79395">
        <ele>172</ele>
        <time>2018-06-20T10:01:53Z</time>
      </trkpt>
      <trkpt lat="45.93386" lon="4.79403">
        <ele>172</ele>
        <time>2018-06-20T10:01:54Z</time>
      </trkpt>
      <trkpt lat="45.93382" lon="4.79411">
        <ele>172</ele>
        <time>2018-06-20T10:01:55Z</time>
      </trkpt>
      <trkpt lat="45.9338" lon="4.79419">
        <ele>174</ele>
        <time>2018-06-20T10:01:56Z</time>
      </trkpt>
      <trkpt lat="45.93377" lon="4.79427">
        <ele>174</ele>
        <time>2018-06-20T10:01:57Z</time>
      </trkpt>
      <trkpt lat="45.93375" lon="4.79433">
        <ele>174</ele>
        <time>2018-06-20T10:01:58Z</time>
      </trkpt>
      <trkpt lat="45.93372" lon="4.79441">
        <ele>175</ele>
        <time>2018-06-20T10:01:59Z</time>
      </trkpt>
      <trkpt lat="45.9337" lon="4.79446">
        <ele>175</ele>
        <time>2018-06-20T10:02:00Z</time>
      </trkpt>
      <trkpt lat="45.93367" lon="4.79453">
        <ele>175</ele>
        <time>2018-06-20T10:02:01Z</time>
      </trkpt>
      <trkpt lat="45.93365" lon="4.79462">
        <ele>175</ele>
        <time>2018-06-20T10:02:02Z</time>
      </trkpt>
      <trkpt lat="45.93363" lon="4.79469">
        <ele>175</ele>
        <time>2018-06-20T10:02:03Z</time>
      </trkpt>
      <trkpt lat="45.93361" lon="4.79476">
        <ele>175</ele>
        <time>2018-06-20T10:02:04Z</time>
      </trkpt>
      <trkpt lat="45.9336" lon="4.79484">
        <ele>175</ele>
        <time>2018-06-20T10:02:05Z</time>
      </trkpt>
      <trkpt lat="45.93357" lon="4.79491">
        <ele>176</ele>
        <time>2018-06-20T10:02:06Z</time>
      </trkpt>
      <trkpt lat="45.93355" lon="4.79498">
        <ele>176</ele>
        <time>2018-06-20T10:02:07Z</time>
      </trkpt>
      <trkpt lat="45.93353" lon="4.79504">
        <ele>177</ele>
        <time>2018-06-20T10:02:08Z</time>
      </trkpt>
      <trkpt lat="45.9335" lon="4.7951">
        <ele>177</ele>
        <time>2018-06-20T10:02:09Z</time>
      </trkpt>
      <trkpt lat="45.93348" lon="4.79519">
        <ele>177</ele>
        <time>2018-06-20T10:02:10Z</time>
      </trkpt>
      <trkpt lat="45.93346" lon="4.79525">
        <ele>177</ele>
        <time>2018-06-20T10:02:11Z</time>
      </trkpt>
      <trkpt lat="45.93343" lon="4.79532">
        <ele>177</ele>
        <time>2018-06-20T10:02:12Z</time>
      </trkpt>
      <trkpt lat="45.93342" lon="4.7954">
        <ele>177</ele>
        <time>2018-06-20T10:02:13Z</time>
      </trkpt>
      <trkpt lat="45.9334" lon="4.79546">
        <ele>177</ele>
        <time>2018-06-20T10:02:14Z</time>
      </trkpt>
      <trkpt lat="45.93337" lon="4.79552">
        <ele>177</ele>
        <time>2018-06-20T10:02:15Z</time>
      </trkpt>
      <trkpt lat="45.93335" lon="4.79558">
        <ele>177</ele>
        <time>2018-06-20T10:02:16Z</time>
      </trkpt>
      <trkpt lat="45.93331" lon="4.79564">
        <ele>176</ele>
        <time>2018-06-20T10:02:17Z</time>
      </trkpt>
      <trkpt lat="45.93329" lon="4.79571">
        <ele>176</ele>
        <time>2018-06-20T10:02:18Z</time>
      </trkpt>
      <trkpt lat="45.93326" lon="4.7958">
        <ele>176</ele>
        <time>2018-06-20T10:02:19Z</time>
      </trkpt>
      <trkpt lat="45.93322" lon="4.7959">
        <ele>177</ele>
        <time>2018-06-20T10:02:21Z</time>
      </trkpt>
      <trkpt lat="45.93319" lon="4.79597">
        <ele>177</ele>
        <time>2018-06-20T10:02:22Z</time>
      </trkpt>
      <trkpt lat="45.93316" lon="4.79604">
        <ele>177</ele>
        <time>2018-06-20T10:02:23Z</time>
      </trkpt>
      <trkpt lat="45.93314" lon="4.7961">
        <ele>176</ele>
        <time>2018-06-20T10:02:24Z</time>
      </trkpt>
      <trkpt lat="45.93312" lon="4.79617">
        <ele>176</ele>
        <time>2018-06-20T10:02:25Z</time>
      </trkpt>
      <trkpt lat="45.9331" lon="4.79623">
        <ele>176</ele>
        <time>2018-06-20T10:02:26Z</time>
      </trkpt>
      <trkpt lat="45.93307" lon="4.79635">
        <ele>177</ele>
        <time>2018-06-20T10:02:28Z</time>
      </trkpt>
      <trkpt lat="45.93305" lon="4.79643">
        <ele>177</ele>
        <time>2018-06-20T10:02:29Z</time>
      </trkpt>
      <trkpt lat="45.93303" lon="4.79651">
        <ele>177</ele>
        <time>2018-06-20T10:02:30Z</time>
      </trkpt>
      <trkpt lat="45.933" lon="4.79659">
        <ele>177</ele>
        <time>2018-06-20T10:02:31Z</time>
      </trkpt>
      <trkpt lat="45.93297" lon="4.79667">
        <ele>177</ele>
        <time>2018-06-20T10:02:32Z</time>
      </trkpt>
      <trkpt lat="45.93294" lon="4.79675">
        <ele>177</ele>
        <time>2018-06-20T10:02:33Z</time>
      </trkpt>
      <trkpt lat="45.93291" lon="4.79683">
        <ele>177</ele>
        <time>2018-06-20T10:02:34Z</time>
      </trkpt>
      <trkpt lat="45.93289" lon="4.79691">
        <ele>177</ele>
        <time>2018-06-20T10:02:35Z</time>
      </trkpt>
      <trkpt lat="45.93287" lon="4.79698">
        <ele>177</ele>
        <time>2018-06-20T10:02:36Z</time>
      </trkpt>
      <trkpt lat="45.93284" lon="4.79706">
        <ele>177</ele>
        <time>2018-06-20T10:02:37Z</time>
      </trkpt>
      <trkpt lat="45.93282" lon="4.79713">
        <ele>177</ele>
        <time>2018-06-20T10:02:38Z</time>
      </trkpt>
      <trkpt lat="45.93279" lon="4.79721">
        <ele>177</ele>
        <time>2018-06-20T10:02:39Z</time>
      </trkpt>
      <trkpt lat="45.93277" lon="4.79728">
        <ele>177</ele>
        <time>2018-06-20T10:02:40Z</time>
      </trkpt>
      <trkpt lat="45.93275" lon="4.79736">
        <ele>177</ele>
        <time>2018-06-20T10:02:41Z</time>
      </trkpt>
      <trkpt lat="45.93271" lon="4.79743">
        <ele>177</ele>
        <time>2018-06-20T10:02:42Z</time>
      </trkpt>
      <trkpt lat="45.93269" lon="4.79751">
        <ele>176</ele>
        <time>2018-06-20T10:02:43Z</time>
      </trkpt>
      <trkpt lat="45.93266" lon="4.79759">
        <ele>176</ele>
        <time>2018-06-20T10:02:44Z</time>
      </trkpt>
      <trkpt lat="45.93263" lon="4.79768">
        <ele>176</ele>
        <time>2018-06-20T10:02:45Z</time>
      </trkpt>
      <trkpt lat="45.93259" lon="4.79776">
        <ele>175</ele>
        <time>2018-06-20T10:02:46Z</time>
      </trkpt>
      <trkpt lat="45.93256" lon="4.79785">
        <ele>175</ele>
        <time>2018-06-20T10:02:47Z</time>
      </trkpt>
      <trkpt lat="45.93252" lon="4.79795">
        <ele>175</ele>
        <time>2018-06-20T10:02:48Z</time>
      </trkpt>
      <trkpt lat="45.9325" lon="4.79805">
        <ele>175</ele>
        <time>2018-06-20T10:02:49Z</time>
      </trkpt>
      <trkpt lat="45.93247" lon="4.79813">
        <ele>174</ele>
        <time>2018-06-20T10:02:50Z</time>
      </trkpt>
      <trkpt lat="45.93244" lon="4.79823">
        <ele>174</ele>
        <time>2018-06-20T10:02:51Z</time>
      </trkpt>
      <trkpt lat="45.93241" lon="4.79832">
        <ele>174</ele>
        <time>2018-06-20T10:02:52Z</time>
      </trkpt>
      <trkpt lat="45.93238" lon="4.79842">
        <ele>173</ele>
        <time>2018-06-20T10:02:53Z</time>
      </trkpt>
      <trkpt lat="45.93235" lon="4.7985">
        <ele>173</ele>
        <time>2018-06-20T10:02:54Z</time>
      </trkpt>
      <trkpt lat="45.93233" lon="4.79859">
        <ele>172</ele>
        <time>2018-06-20T10:02:55Z</time>
      </trkpt>
      <trkpt lat="45.93228" lon="4.79868">
        <ele>172</ele>
        <time>2018-06-20T10:02:56Z</time>
      </trkpt>
      <trkpt lat="45.93225" lon="4.79875">
        <ele>172</ele>
        <time>2018-06-20T10:02:57Z</time>
      </trkpt>
      <trkpt lat="45.93221" lon="4.79883">
        <ele>172</ele>
        <time>2018-06-20T10:02:58Z</time>
      </trkpt>
      <trkpt lat="45.93218" lon="4.79891">
        <ele>172</ele>
        <time>2018-06-20T10:02:59Z</time>
      </trkpt>
      <trkpt lat="45.93214" lon="4.79899">
        <ele>172</ele>
        <time>2018-06-20T10:03:00Z</time>
      </trkpt>
      <trkpt lat="45.93211" lon="4.79905">
        <ele>172</ele>
        <time>2018-06-20T10:03:01Z</time>
      </trkpt>
      <trkpt lat="45.93208" lon="4.79914">
        <ele>171</ele>
        <time>2018-06-20T10:03:02Z</time>
      </trkpt>
      <trkpt lat="45.93203" lon="4.7992">
        <ele>171</ele>
        <time>2018-06-20T10:03:03Z</time>
      </trkpt>
      <trkpt lat="45.93199" lon="4.79927">
        <ele>171</ele>
        <time>2018-06-20T10:03:04Z</time>
      </trkpt>
      <trkpt lat="45.93194" lon="4.79935">
        <ele>170</ele>
        <time>2018-06-20T10:03:05Z</time>
      </trkpt>
      <trkpt lat="45.93191" lon="4.79943">
        <ele>170</ele>
        <time>2018-06-20T10:03:06Z</time>
      </trkpt>
      <trkpt lat="45.93187" lon="4.7995">
        <ele>170</ele>
        <time>2018-06-20T10:03:07Z</time>
      </trkpt>
      <trkpt lat="45.93184" lon="4.79957">
        <ele>170</ele>
        <time>2018-06-20T10:03:08Z</time>
      </trkpt>
      <trkpt lat="45.93181" lon="4.79964">
        <ele>170</ele>
        <time>2018-06-20T10:03:09Z</time>
      </trkpt>
      <trkpt lat="45.93179" lon="4.79973">
        <ele>170</ele>
        <time>2018-06-20T10:03:10Z</time>
      </trkpt>
      <trkpt lat="45.93177" lon="4.79981">
        <ele>170</ele>
        <time>2018-06-20T10:03:11Z</time>
      </trkpt>
      <trkpt lat="45.93176" lon="4.79989">
        <ele>170</ele>
        <time>2018-06-20T10:03:12Z</time>
      </trkpt>
      <trkpt lat="45.93174" lon="4.79998">
        <ele>169</ele>
        <time>2018-06-20T10:03:13Z</time>
      </trkpt>
      <trkpt lat="45.93172" lon="4.80005">
        <ele>169</ele>
        <time>2018-06-20T10:03:14Z</time>
      </trkpt>
      <trkpt lat="45.93171" lon="4.80013">
        <ele>170</ele>
        <time>2018-06-20T10:03:15Z</time>
      </trkpt>
      <trkpt lat="45.93168" lon="4.80021">
        <ele>170</ele>
        <time>2018-06-20T10:03:16Z</time>
      </trkpt>
      <trkpt lat="45.93166" lon="4.80028">
        <ele>169</ele>
        <time>2018-06-20T10:03:17Z</time>
      </trkpt>
      <trkpt lat="45.93164" lon="4.80037">
        <ele>169</ele>
        <time>2018-06-20T10:03:18Z</time>
      </trkpt>
      <trkpt lat="45.93163" lon="4.80045">
        <ele>169</ele>
        <time>2018-06-20T10:03:19Z</time>
      </trkpt>
      <trkpt lat="45.93163" lon="4.80054">
        <ele>169</ele>
        <time>2018-06-20T10:03:20Z</time>
      </trkpt>
      <trkpt lat="45.93161" lon="4.80062">
        <ele>170</ele>
        <time>2018-06-20T10:03:21Z</time>
      </trkpt>
      <trkpt lat="45.9316" lon="4.80071">
        <ele>170</ele>
        <time>2018-06-20T10:03:22Z</time>
      </trkpt>
      <trkpt lat="45.93158" lon="4.80078">
        <ele>170</ele>
        <time>2018-06-20T10:03:23Z</time>
      </trkpt>
      <trkpt lat="45.93156" lon="4.80085">
        <ele>170</ele>
        <time>2018-06-20T10:03:24Z</time>
      </trkpt>
      <trkpt lat="45.93154" lon="4.80092">
        <ele>170</ele>
        <time>2018-06-20T10:03:25Z</time>
      </trkpt>
      <trkpt lat="45.93152" lon="4.80099">
        <ele>170</ele>
        <time>2018-06-20T10:03:26Z</time>
      </trkpt>
      <trkpt lat="45.93149" lon="4.80105">
        <ele>169</ele>
        <time>2018-06-20T10:03:27Z</time>
      </trkpt>
      <trkpt lat="45.93145" lon="4.80115">
        <ele>169</ele>
        <time>2018-06-20T10:03:31Z</time>
      </trkpt>
      <trkpt lat="45.93144" lon="4.80117">
        <ele>169</ele>
        <time>2018-06-20T10:03:32Z</time>
      </trkpt>
      <trkpt lat="45.93144" lon="4.80118">
        <ele>169</ele>
        <time>2018-06-20T10:04:08Z</time>
      </trkpt>
      <trkpt lat="45.93143" lon="4.80118">
        <ele>169</ele>
        <time>2018-06-20T10:04:09Z</time>
      </trkpt>
      <trkpt lat="45.93144" lon="4.80117">
        <ele>169</ele>
        <time>2018-06-20T10:04:13Z</time>
      </trkpt>
      <trkpt lat="45.93144" lon="4.80117">
        <ele>169</ele>
        <time>2018-06-20T10:04:14Z</time>
      </trkpt>
      <trkpt lat="45.93142" lon="4.80129">
        <ele>169</ele>
        <time>2018-06-20T10:04:20Z</time>
      </trkpt>
      <trkpt lat="45.93141" lon="4.80133">
        <ele>169</ele>
        <time>2018-06-20T10:04:21Z</time>
      </trkpt>
      <trkpt lat="45.93138" lon="4.80144">
        <ele>169</ele>
        <time>2018-06-20T10:04:24Z</time>
      </trkpt>
      <trkpt lat="45.93136" lon="4.80148">
        <ele>169</ele>
        <time>2018-06-20T10:04:25Z</time>
      </trkpt>
      <trkpt lat="45.93134" lon="4.80156">
        <ele>169</ele>
        <time>2018-06-20T10:04:27Z</time>
      </trkpt>
      <trkpt lat="45.9313" lon="4.80167">
        <ele>169</ele>
        <time>2018-06-20T10:04:28Z</time>
      </trkpt>
      <trkpt lat="45.93127" lon="4.80179">
        <ele>169</ele>
        <time>2018-06-20T10:04:30Z</time>
      </trkpt>
      <trkpt lat="45.93125" lon="4.80187">
        <ele>169</ele>
        <time>2018-06-20T10:04:31Z</time>
      </trkpt>
      <trkpt lat="45.93123" lon="4.80192">
        <ele>169</ele>
        <time>2018-06-20T10:04:32Z</time>
      </trkpt>
      <trkpt lat="45.93121" lon="4.80198">
        <ele>169</ele>
        <time>2018-06-20T10:04:33Z</time>
      </trkpt>
      <trkpt lat="45.93119" lon="4.80204">
        <ele>169</ele>
        <time>2018-06-20T10:04:34Z</time>
      </trkpt>
      <trkpt lat="45.93117" lon="4.80211">
        <ele>169</ele>
        <time>2018-06-20T10:04:35Z</time>
      </trkpt>
      <trkpt lat="45.93115" lon="4.80217">
        <ele>169</ele>
        <time>2018-06-20T10:04:36Z</time>
      </trkpt>
      <trkpt lat="45.93111" lon="4.80223">
        <ele>169</ele>
        <time>2018-06-20T10:04:37Z</time>
      </trkpt>
      <trkpt lat="45.93109" lon="4.80232">
        <ele>169</ele>
        <time>2018-06-20T10:04:38Z</time>
      </trkpt>
      <trkpt lat="45.93106" lon="4.80241">
        <ele>169</ele>
        <time>2018-06-20T10:04:39Z</time>
      </trkpt>
      <trkpt lat="45.93103" lon="4.80248">
        <ele>169</ele>
        <time>2018-06-20T10:04:40Z</time>
      </trkpt>
      <trkpt lat="45.93101" lon="4.80256">
        <ele>169</ele>
        <time>2018-06-20T10:04:41Z</time>
      </trkpt>
      <trkpt lat="45.93099" lon="4.80263">
        <ele>169</ele>
        <time>2018-06-20T10:04:42Z</time>
      </trkpt>
      <trkpt lat="45.93096" lon="4.80271">
        <ele>169</ele>
        <time>2018-06-20T10:04:43Z</time>
      </trkpt>
      <trkpt lat="45.93094" lon="4.80278">
        <ele>169</ele>
        <time>2018-06-20T10:04:44Z</time>
      </trkpt>
      <trkpt lat="45.93091" lon="4.80285">
        <ele>169</ele>
        <time>2018-06-20T10:04:45Z</time>
      </trkpt>
      <trkpt lat="45.93089" lon="4.80293">
        <ele>169</ele>
        <time>2018-06-20T10:04:46Z</time>
      </trkpt>
      <trkpt lat="45.93086" lon="4.803">
        <ele>169</ele>
        <time>2018-06-20T10:04:47Z</time>
      </trkpt>
      <trkpt lat="45.93084" lon="4.80307">
        <ele>169</ele>
        <time>2018-06-20T10:04:48Z</time>
      </trkpt>
      <trkpt lat="45.93081" lon="4.80315">
        <ele>169</ele>
        <time>2018-06-20T10:04:49Z</time>
      </trkpt>
      <trkpt lat="45.93078" lon="4.80323">
        <ele>169</ele>
        <time>2018-06-20T10:04:50Z</time>
      </trkpt>
      <trkpt lat="45.93076" lon="4.80331">
        <ele>169</ele>
        <time>2018-06-20T10:04:51Z</time>
      </trkpt>
      <trkpt lat="45.93074" lon="4.80338">
        <ele>169</ele>
        <time>2018-06-20T10:04:52Z</time>
      </trkpt>
      <trkpt lat="45.93071" lon="4.80345">
        <ele>169</ele>
        <time>2018-06-20T10:04:53Z</time>
      </trkpt>
      <trkpt lat="45.93069" lon="4.80352">
        <ele>170</ele>
        <time>2018-06-20T10:04:54Z</time>
      </trkpt>
      <trkpt lat="45.93066" lon="4.8036">
        <ele>170</ele>
        <time>2018-06-20T10:04:55Z</time>
      </trkpt>
      <trkpt lat="45.93065" lon="4.80366">
        <ele>170</ele>
        <time>2018-06-20T10:04:56Z</time>
      </trkpt>
      <trkpt lat="45.93062" lon="4.80372">
        <ele>170</ele>
        <time>2018-06-20T10:04:57Z</time>
      </trkpt>
      <trkpt lat="45.93059" lon="4.80379">
        <ele>170</ele>
        <time>2018-06-20T10:04:58Z</time>
      </trkpt>
      <trkpt lat="45.93057" lon="4.80387">
        <ele>170</ele>
        <time>2018-06-20T10:04:59Z</time>
      </trkpt>
      <trkpt lat="45.93055" lon="4.80394">
        <ele>170</ele>
        <time>2018-06-20T10:05:00Z</time>
      </trkpt>
      <trkpt lat="45.93053" lon="4.804">
        <ele>170</ele>
        <time>2018-06-20T10:05:01Z</time>
      </trkpt>
      <trkpt lat="45.93051" lon="4.80407">
        <ele>170</ele>
        <time>2018-06-20T10:05:02Z</time>
      </trkpt>
      <trkpt lat="45.93048" lon="4.80415">
        <ele>170</ele>
        <time>2018-06-20T10:05:03Z</time>
      </trkpt>
      <trkpt lat="45.93046" lon="4.80421">
        <ele>171</ele>
        <time>2018-06-20T10:05:04Z</time>
      </trkpt>
      <trkpt lat="45.93043" lon="4.80428">
        <ele>171</ele>
        <time>2018-06-20T10:05:05Z</time>
      </trkpt>
      <trkpt lat="45.9304" lon="4.80436">
        <ele>171</ele>
        <time>2018-06-20T10:05:06Z</time>
      </trkpt>
      <trkpt lat="45.93037" lon="4.80443">
        <ele>171</ele>
        <time>2018-06-20T10:05:07Z</time>
      </trkpt>
      <trkpt lat="45.93035" lon="4.80451">
        <ele>171</ele>
        <time>2018-06-20T10:05:08Z</time>
      </trkpt>
      <trkpt lat="45.93032" lon="4.80459">
        <ele>171</ele>
        <time>2018-06-20T10:05:09Z</time>
      </trkpt>
      <trkpt lat="45.9303" lon="4.80467">
        <ele>171</ele>
        <time>2018-06-20T10:05:10Z</time>
      </trkpt>
      <trkpt lat="45.93027" lon="4.80474">
        <ele>171</ele>
        <time>2018-06-20T10:05:11Z</time>
      </trkpt>
      <trkpt lat="45.93025" lon="4.80482">
        <ele>171</ele>
        <time>2018-06-20T10:05:12Z</time>
      </trkpt>
      <trkpt lat="45.93023" lon="4.8049">
        <ele>171</ele>
        <time>2018-06-20T10:05:13Z</time>
      </trkpt>
      <trkpt lat="45.9302" lon="4.80497">
        <ele>171</ele>
        <time>2018-06-20T10:05:14Z</time>
      </trkpt>
      <trkpt lat="45.93018" lon="4.80505">
        <ele>171</ele>
        <time>2018-06-20T10:05:15Z</time>
      </trkpt>
      <trkpt lat="45.93015" lon="4.80511">
        <ele>171</ele>
        <time>2018-06-20T10:05:16Z</time>
      </trkpt>
      <trkpt lat="45.93013" lon="4.80521">
        <ele>171</ele>
        <time>2018-06-20T10:05:17Z</time>
      </trkpt>
      <trkpt lat="45.9301" lon="4.80528">
        <ele>172</ele>
        <time>2018-06-20T10:05:18Z</time>
      </trkpt>
      <trkpt lat="45.93008" lon="4.80535">
        <ele>172</ele>
        <time>2018-06-20T10:05:19Z</time>
      </trkpt>
      <trkpt lat="45.93005" lon="4.80543">
        <ele>172</ele>
        <time>2018-06-20T10:05:20Z</time>
      </trkpt>
      <trkpt lat="45.93003" lon="4.8055">
        <ele>172</ele>
        <time>2018-06-20T10:05:21Z</time>
      </trkpt>
      <trkpt lat="45.93" lon="4.80558">
        <ele>172</ele>
        <time>2018-06-20T10:05:22Z</time>
      </trkpt>
      <trkpt lat="45.92997" lon="4.80567">
        <ele>172</ele>
        <time>2018-06-20T10:05:23Z</time>
      </trkpt>
      <trkpt lat="45.92995" lon="4.80575">
        <ele>172</ele>
        <time>2018-06-20T10:05:24Z</time>
      </trkpt>
      <trkpt lat="45.92992" lon="4.80583">
        <ele>172</ele>
        <time>2018-06-20T10:05:25Z</time>
      </trkpt>
      <trkpt lat="45.9299" lon="4.80591">
        <ele>172</ele>
        <time>2018-06-20T10:05:26Z</time>
      </trkpt>
      <trkpt lat="45.92987" lon="4.80599">
        <ele>172</ele>
        <time>2018-06-20T10:05:27Z</time>
      </trkpt>
      <trkpt lat="45.92984" lon="4.80608">
        <ele>172</ele>
        <time>2018-06-20T10:05:28Z</time>
      </trkpt>
      <trkpt lat="45.92981" lon="4.80616">
        <ele>172</ele>
        <time>2018-06-20T10:05:29Z</time>
      </trkpt>
      <trkpt lat="45.92979" lon="4.80624">
        <ele>172</ele>
        <time>2018-06-20T10:05:30Z</time>
      </trkpt>
      <trkpt lat="45.92976" lon="4.80633">
        <ele>172</ele>
        <time>2018-06-20T10:05:31Z</time>
      </trkpt>
      <trkpt lat="45.92973" lon="4.80641">
        <ele>172</ele>
        <time>2018-06-20T10:05:32Z</time>
      </trkpt>
      <trkpt lat="45.92971" lon="4.80648">
        <ele>172</ele>
        <time>2018-06-20T10:05:33Z</time>
      </trkpt>
      <trkpt lat="45.92968" lon="4.80655">
        <ele>172</ele>
        <time>2018-06-20T10:05:34Z</time>
      </trkpt>
      <trkpt lat="45.92966" lon="4.80663">
        <ele>172</ele>
        <time>2018-06-20T10:05:35Z</time>
      </trkpt>
      <trkpt lat="45.92964" lon="4.80672">
        <ele>172</ele>
        <time>2018-06-20T10:05:36Z</time>
      </trkpt>
      <trkpt lat="45.92961" lon="4.80678">
        <ele>172</ele>
        <time>2018-06-20T10:05:37Z</time>
      </trkpt>
      <trkpt lat="45.92958" lon="4.80687">
        <ele>172</ele>
        <time>2018-06-20T10:05:38Z</time>
      </trkpt>
      <trkpt lat="45.92955" lon="4.80691">
        <ele>172</ele>
        <time>2018-06-20T10:05:39Z</time>
      </trkpt>
      <trkpt lat="45.92952" lon="4.80699">
        <ele>172</ele>
        <time>2018-06-20T10:05:40Z</time>
      </trkpt>
      <trkpt lat="45.92949" lon="4.80706">
        <ele>172</ele>
        <time>2018-06-20T10:05:41Z</time>
      </trkpt>
      <trkpt lat="45.92947" lon="4.80714">
        <ele>172</ele>
        <time>2018-06-20T10:05:42Z</time>
      </trkpt>
      <trkpt lat="45.92945" lon="4.80721">
        <ele>172</ele>
        <time>2018-06-20T10:05:43Z</time>
      </trkpt>
      <trkpt lat="45.92942" lon="4.80729">
        <ele>172</ele>
        <time>2018-06-20T10:05:44Z</time>
      </trkpt>
      <trkpt lat="45.92939" lon="4.80737">
        <ele>172</ele>
        <time>2018-06-20T10:05:45Z</time>
      </trkpt>
      <trkpt lat="45.92937" lon="4.80745">
        <ele>172</ele>
        <time>2018-06-20T10:05:46Z</time>
      </trkpt>
      <trkpt lat="45.92934" lon="4.80753">
        <ele>172</ele>
        <time>2018-06-20T10:05:47Z</time>
      </trkpt>
      <trkpt lat="45.92931" lon="4.80761">
        <ele>172</ele>
        <time>2018-06-20T10:05:48Z</time>
      </trkpt>
      <trkpt lat="45.92929" lon="4.80768">
        <ele>172</ele>
        <time>2018-06-20T10:05:49Z</time>
      </trkpt>
      <trkpt lat="45.92926" lon="4.80775">
        <ele>172</ele>
        <time>2018-06-20T10:05:50Z</time>
      </trkpt>
      <trkpt lat="45.92924" lon="4.80783">
        <ele>172</ele>
        <time>2018-06-20T10:05:51Z</time>
      </trkpt>
      <trkpt lat="45.92922" lon="4.80789">
        <ele>172</ele>
        <time>2018-06-20T10:05:52Z</time>
      </trkpt>
      <trkpt lat="45.9292" lon="4.80796">
        <ele>172</ele>
        <time>2018-06-20T10:05:53Z</time>
      </trkpt>
      <trkpt lat="45.92917" lon="4.80802">
        <ele>172</ele>
        <time>2018-06-20T10:05:54Z</time>
      </trkpt>
      <trkpt lat="45.92914" lon="4.80808">
        <ele>171</ele>
        <time>2018-06-20T10:05:55Z</time>
      </trkpt>
      <trkpt lat="45.92912" lon="4.80815">
        <ele>171</ele>
        <time>2018-06-20T10:05:56Z</time>
      </trkpt>
      <trkpt lat="45.92909" lon="4.80821">
        <ele>171</ele>
        <time>2018-06-20T10:05:57Z</time>
      </trkpt>
      <trkpt lat="45.92907" lon="4.8083">
        <ele>172</ele>
        <time>2018-06-20T10:05:58Z</time>
      </trkpt>
      <trkpt lat="45.92904" lon="4.80837">
        <ele>171</ele>
        <time>2018-06-20T10:05:59Z</time>
      </trkpt>
      <trkpt lat="45.92902" lon="4.80845">
        <ele>171</ele>
        <time>2018-06-20T10:06:00Z</time>
      </trkpt>
      <trkpt lat="45.929" lon="4.80854">
        <ele>171</ele>
        <time>2018-06-20T10:06:01Z</time>
      </trkpt>
      <trkpt lat="45.92897" lon="4.80864">
        <ele>171</ele>
        <time>2018-06-20T10:06:02Z</time>
      </trkpt>
      <trkpt lat="45.92894" lon="4.80872">
        <ele>171</ele>
        <time>2018-06-20T10:06:03Z</time>
      </trkpt>
      <trkpt lat="45.92892" lon="4.8088">
        <ele>171</ele>
        <time>2018-06-20T10:06:04Z</time>
      </trkpt>
      <trkpt lat="45.92889" lon="4.80889">
        <ele>170</ele>
        <time>2018-06-20T10:06:05Z</time>
      </trkpt>
      <trkpt lat="45.92885" lon="4.80898">
        <ele>170</ele>
        <time>2018-06-20T10:06:06Z</time>
      </trkpt>
      <trkpt lat="45.92882" lon="4.80908">
        <ele>170</ele>
        <time>2018-06-20T10:06:07Z</time>
      </trkpt>
      <trkpt lat="45.92878" lon="4.80916">
        <ele>170</ele>
        <time>2018-06-20T10:06:08Z</time>
      </trkpt>
      <trkpt lat="45.92874" lon="4.80926">
        <ele>170</ele>
        <time>2018-06-20T10:06:09Z</time>
      </trkpt>
      <trkpt lat="45.92871" lon="4.80935">
        <ele>170</ele>
        <time>2018-06-20T10:06:10Z</time>
      </trkpt>
      <trkpt lat="45.92868" lon="4.80945">
        <ele>170</ele>
        <time>2018-06-20T10:06:11Z</time>
      </trkpt>
      <trkpt lat="45.92865" lon="4.80956">
        <ele>169</ele>
        <time>2018-06-20T10:06:12Z</time>
      </trkpt>
      <trkpt lat="45.92862" lon="4.80964">
        <ele>169</ele>
        <time>2018-06-20T10:06:13Z</time>
      </trkpt>
      <trkpt lat="45.92858" lon="4.80974">
        <ele>169</ele>
        <time>2018-06-20T10:06:14Z</time>
      </trkpt>
      <trkpt lat="45.92854" lon="4.80983">
        <ele>169</ele>
        <time>2018-06-20T10:06:15Z</time>
      </trkpt>
      <trkpt lat="45.92851" lon="4.80994">
        <ele>169</ele>
        <time>2018-06-20T10:06:16Z</time>
      </trkpt>
      <trkpt lat="45.92849" lon="4.81001">
        <ele>169</ele>
        <time>2018-06-20T10:06:17Z</time>
      </trkpt>
      <trkpt lat="45.92845" lon="4.81011">
        <ele>169</ele>
        <time>2018-06-20T10:06:18Z</time>
      </trkpt>
      <trkpt lat="45.92842" lon="4.81018">
        <ele>169</ele>
        <time>2018-06-20T10:06:19Z</time>
      </trkpt>
      <trkpt lat="45.92838" lon="4.81026">
        <ele>169</ele>
        <time>2018-06-20T10:06:20Z</time>
      </trkpt>
      <trkpt lat="45.92834" lon="4.81034">
        <ele>169</ele>
        <time>2018-06-20T10:06:21Z</time>
      </trkpt>
      <trkpt lat="45.92831" lon="4.81043">
        <ele>169</ele>
        <time>2018-06-20T10:06:22Z</time>
      </trkpt>
      <trkpt lat="45.92827" lon="4.81052">
        <ele>169</ele>
        <time>2018-06-20T10:06:23Z</time>
      </trkpt>
      <trkpt lat="45.92822" lon="4.8106">
        <ele>169</ele>
        <time>2018-06-20T10:06:24Z</time>
      </trkpt>
      <trkpt lat="45.92817" lon="4.81067">
        <ele>169</ele>
        <time>2018-06-20T10:06:25Z</time>
      </trkpt>
      <trkpt lat="45.92813" lon="4.81075">
        <ele>169</ele>
        <time>2018-06-20T10:06:26Z</time>
      </trkpt>
      <trkpt lat="45.92809" lon="4.81082">
        <ele>169</ele>
        <time>2018-06-20T10:06:27Z</time>
      </trkpt>
      <trkpt lat="45.92806" lon="4.81089">
        <ele>170</ele>
        <time>2018-06-20T10:06:28Z</time>
      </trkpt>
      <trkpt lat="45.92802" lon="4.81096">
        <ele>170</ele>
        <time>2018-06-20T10:06:29Z</time>
      </trkpt>
      <trkpt lat="45.92798" lon="4.81102">
        <ele>170</ele>
        <time>2018-06-20T10:06:30Z</time>
      </trkpt>
      <trkpt lat="45.92793" lon="4.81109">
        <ele>170</ele>
        <time>2018-06-20T10:06:31Z</time>
      </trkpt>
      <trkpt lat="45.92789" lon="4.81115">
        <ele>170</ele>
        <time>2018-06-20T10:06:32Z</time>
      </trkpt>
      <trkpt lat="45.92784" lon="4.81121">
        <ele>170</ele>
        <time>2018-06-20T10:06:33Z</time>
      </trkpt>
      <trkpt lat="45.9278" lon="4.81127">
        <ele>170</ele>
        <time>2018-06-20T10:06:34Z</time>
      </trkpt>
      <trkpt lat="45.92775" lon="4.81132">
        <ele>170</ele>
        <time>2018-06-20T10:06:35Z</time>
      </trkpt>
      <trkpt lat="45.92769" lon="4.81133">
        <ele>170</ele>
        <time>2018-06-20T10:06:36Z</time>
      </trkpt>
      <trkpt lat="45.92763" lon="4.81132">
        <ele>170</ele>
        <time>2018-06-20T10:06:37Z</time>
      </trkpt>
      <trkpt lat="45.92758" lon="4.81133">
        <ele>170</ele>
        <time>2018-06-20T10:06:38Z</time>
      </trkpt>
      <trkpt lat="45.92753" lon="4.81136">
        <ele>170</ele>
        <time>2018-06-20T10:06:39Z</time>
      </trkpt>
      <trkpt lat="45.92749" lon="4.81142">
        <ele>170</ele>
        <time>2018-06-20T10:06:40Z</time>
      </trkpt>
      <trkpt lat="45.92745" lon="4.81146">
        <ele>170</ele>
        <time>2018-06-20T10:06:41Z</time>
      </trkpt>
      <trkpt lat="45.9274" lon="4.81151">
        <ele>170</ele>
        <time>2018-06-20T10:06:42Z</time>
      </trkpt>
      <trkpt lat="45.92735" lon="4.81154">
        <ele>170</ele>
        <time>2018-06-20T10:06:43Z</time>
      </trkpt>
      <trkpt lat="45.92729" lon="4.81157">
        <ele>170</ele>
        <time>2018-06-20T10:06:44Z</time>
      </trkpt>
      <trkpt lat="45.92723" lon="4.81158">
        <ele>170</ele>
        <time>2018-06-20T10:06:45Z</time>
      </trkpt>
      <trkpt lat="45.92716" lon="4.81161">
        <ele>170</ele>
        <time>2018-06-20T10:06:46Z</time>
      </trkpt>
      <trkpt lat="45.9271" lon="4.81162">
        <ele>170</ele>
        <time>2018-06-20T10:06:47Z</time>
      </trkpt>
      <trkpt lat="45.92704" lon="4.81162">
        <ele>171</ele>
        <time>2018-06-20T10:06:48Z</time>
      </trkpt>
      <trkpt lat="45.92698" lon="4.81163">
        <ele>171</ele>
        <time>2018-06-20T10:06:49Z</time>
      </trkpt>
      <trkpt lat="45.92692" lon="4.81165">
        <ele>171</ele>
        <time>2018-06-20T10:06:50Z</time>
      </trkpt>
      <trkpt lat="45.92687" lon="4.81167">
        <ele>171</ele>
        <time>2018-06-20T10:06:51Z</time>
      </trkpt>
      <trkpt lat="45.92681" lon="4.81168">
        <ele>171</ele>
        <time>2018-06-20T10:06:52Z</time>
      </trkpt>
      <trkpt lat="45.92675" lon="4.81169">
        <ele>171</ele>
        <time>2018-06-20T10:06:53Z</time>
      </trkpt>
      <trkpt lat="45.9267" lon="4.81169">
        <ele>171</ele>
        <time>2018-06-20T10:06:54Z</time>
      </trkpt>
      <trkpt lat="45.92665" lon="4.81169">
        <ele>171</ele>
        <time>2018-06-20T10:06:55Z</time>
      </trkpt>
      <trkpt lat="45.92659" lon="4.8117">
        <ele>171</ele>
        <time>2018-06-20T10:06:56Z</time>
      </trkpt>
      <trkpt lat="45.92654" lon="4.81171">
        <ele>171</ele>
        <time>2018-06-20T10:06:57Z</time>
      </trkpt>
      <trkpt lat="45.92647" lon="4.81172">
        <ele>171</ele>
        <time>2018-06-20T10:06:58Z</time>
      </trkpt>
      <trkpt lat="45.92641" lon="4.81173">
        <ele>171</ele>
        <time>2018-06-20T10:06:59Z</time>
      </trkpt>
      <trkpt lat="45.92635" lon="4.81174">
        <ele>171</ele>
        <time>2018-06-20T10:07:00Z</time>
      </trkpt>
      <trkpt lat="45.92628" lon="4.81175">
        <ele>171</ele>
        <time>2018-06-20T10:07:01Z</time>
      </trkpt>
      <trkpt lat="45.92622" lon="4.81176">
        <ele>170</ele>
        <time>2018-06-20T10:07:02Z</time>
      </trkpt>
      <trkpt lat="45.92615" lon="4.81176">
        <ele>170</ele>
        <time>2018-06-20T10:07:03Z</time>
      </trkpt>
      <trkpt lat="45.92608" lon="4.81177">
        <ele>170</ele>
        <time>2018-06-20T10:07:04Z</time>
      </trkpt>
      <trkpt lat="45.92601" lon="4.81177">
        <ele>170</ele>
        <time>2018-06-20T10:07:05Z</time>
      </trkpt>
      <trkpt lat="45.92595" lon="4.81178">
        <ele>170</ele>
        <time>2018-06-20T10:07:06Z</time>
      </trkpt>
      <trkpt lat="45.92587" lon="4.81179">
        <ele>170</ele>
        <time>2018-06-20T10:07:07Z</time>
      </trkpt>
      <trkpt lat="45.9258" lon="4.8118">
        <ele>170</ele>
        <time>2018-06-20T10:07:08Z</time>
      </trkpt>
      <trkpt lat="45.92574" lon="4.8118">
        <ele>170</ele>
        <time>2018-06-20T10:07:09Z</time>
      </trkpt>
      <trkpt lat="45.92567" lon="4.81181">
        <ele>170</ele>
        <time>2018-06-20T10:07:10Z</time>
      </trkpt>
      <trkpt lat="45.92561" lon="4.81181">
        <ele>170</ele>
        <time>2018-06-20T10:07:11Z</time>
      </trkpt>
      <trkpt lat="45.92555" lon="4.81181">
        <ele>170</ele>
        <time>2018-06-20T10:07:12Z</time>
      </trkpt>
      <trkpt lat="45.92549" lon="4.81181">
        <ele>170</ele>
        <time>2018-06-20T10:07:13Z</time>
      </trkpt>
      <trkpt lat="45.92543" lon="4.81183">
        <ele>170</ele>
        <time>2018-06-20T10:07:14Z</time>
      </trkpt>
      <trkpt lat="45.92537" lon="4.81183">
        <ele>171</ele>
        <time>2018-06-20T10:07:15Z</time>
      </trkpt>
      <trkpt lat="45.92531" lon="4.81183">
        <ele>171</ele>
        <time>2018-06-20T10:07:16Z</time>
      </trkpt>
      <trkpt lat="45.92525" lon="4.81183">
        <ele>171</ele>
        <time>2018-06-20T10:07:17Z</time>
      </trkpt>
      <trkpt lat="45.9252" lon="4.81183">
        <ele>171</ele>
        <time>2018-06-20T10:07:18Z</time>
      </trkpt>
      <trkpt lat="45.92514" lon="4.81184">
        <ele>171</ele>
        <time>2018-06-20T10:07:19Z</time>
      </trkpt>
      <trkpt lat="45.92508" lon="4.81183">
        <ele>171</ele>
        <time>2018-06-20T10:07:20Z</time>
      </trkpt>
      <trkpt lat="45.92502" lon="4.81184">
        <ele>171</ele>
        <time>2018-06-20T10:07:21Z</time>
      </trkpt>
      <trkpt lat="45.92496" lon="4.81184">
        <ele>171</ele>
        <time>2018-06-20T10:07:22Z</time>
      </trkpt>
      <trkpt lat="45.92491" lon="4.81184">
        <ele>171</ele>
        <time>2018-06-20T10:07:23Z</time>
      </trkpt>
      <trkpt lat="45.92484" lon="4.81185">
        <ele>171</ele>
        <time>2018-06-20T10:07:24Z</time>
      </trkpt>
      <trkpt lat="45.92478" lon="4.81185">
        <ele>171</ele>
        <time>2018-06-20T10:07:25Z</time>
      </trkpt>
      <trkpt lat="45.92472" lon="4.81186">
        <ele>171</ele>
        <time>2018-06-20T10:07:26Z</time>
      </trkpt>
      <trkpt lat="45.92465" lon="4.81187">
        <ele>171</ele>
        <time>2018-06-20T10:07:27Z</time>
      </trkpt>
      <trkpt lat="45.92458" lon="4.81187">
        <ele>171</ele>
        <time>2018-06-20T10:07:28Z</time>
      </trkpt>
      <trkpt lat="45.92452" lon="4.81189">
        <ele>171</ele>
        <time>2018-06-20T10:07:29Z</time>
      </trkpt>
      <trkpt lat="45.92445" lon="4.81188">
        <ele>171</ele>
        <time>2018-06-20T10:07:30Z</time>
      </trkpt>
      <trkpt lat="45.92438" lon="4.81189">
        <ele>171</ele>
        <time>2018-06-20T10:07:31Z</time>
      </trkpt>
      <trkpt lat="45.92432" lon="4.8119">
        <ele>171</ele>
        <time>2018-06-20T10:07:32Z</time>
      </trkpt>
      <trkpt lat="45.92425" lon="4.8119">
        <ele>171</ele>
        <time>2018-06-20T10:07:33Z</time>
      </trkpt>
      <trkpt lat="45.92419" lon="4.81192">
        <ele>171</ele>
        <time>2018-06-20T10:07:34Z</time>
      </trkpt>
      <trkpt lat="45.92412" lon="4.81194">
        <ele>170</ele>
        <time>2018-06-20T10:07:35Z</time>
      </trkpt>
      <trkpt lat="45.92407" lon="4.81196">
        <ele>170</ele>
        <time>2018-06-20T10:07:36Z</time>
      </trkpt>
      <trkpt lat="45.92402" lon="4.81198">
        <ele>170</ele>
        <time>2018-06-20T10:07:37Z</time>
      </trkpt>
      <trkpt lat="45.92396" lon="4.812">
        <ele>170</ele>
        <time>2018-06-20T10:07:38Z</time>
      </trkpt>
      <trkpt lat="45.92391" lon="4.81203">
        <ele>170</ele>
        <time>2018-06-20T10:07:39Z</time>
      </trkpt>
      <trkpt lat="45.92386" lon="4.81207">
        <ele>170</ele>
        <time>2018-06-20T10:07:40Z</time>
      </trkpt>
      <trkpt lat="45.9238" lon="4.81211">
        <ele>170</ele>
        <time>2018-06-20T10:07:41Z</time>
      </trkpt>
      <trkpt lat="45.92374" lon="4.81215">
        <ele>170</ele>
        <time>2018-06-20T10:07:42Z</time>
      </trkpt>
      <trkpt lat="45.92369" lon="4.81219">
        <ele>170</ele>
        <time>2018-06-20T10:07:43Z</time>
      </trkpt>
      <trkpt lat="45.92363" lon="4.81223">
        <ele>170</ele>
        <time>2018-06-20T10:07:44Z</time>
      </trkpt>
      <trkpt lat="45.92357" lon="4.81226">
        <ele>170</ele>
        <time>2018-06-20T10:07:45Z</time>
      </trkpt>
      <trkpt lat="45.92351" lon="4.8123">
        <ele>169</ele>
        <time>2018-06-20T10:07:46Z</time>
      </trkpt>
      <trkpt lat="45.92345" lon="4.81233">
        <ele>169</ele>
        <time>2018-06-20T10:07:47Z</time>
      </trkpt>
      <trkpt lat="45.92339" lon="4.81236">
        <ele>169</ele>
        <time>2018-06-20T10:07:48Z</time>
      </trkpt>
      <trkpt lat="45.92335" lon="4.81241">
        <ele>169</ele>
        <time>2018-06-20T10:07:49Z</time>
      </trkpt>
      <trkpt lat="45.92328" lon="4.81245">
        <ele>169</ele>
        <time>2018-06-20T10:07:50Z</time>
      </trkpt>
      <trkpt lat="45.92322" lon="4.81249">
        <ele>169</ele>
        <time>2018-06-20T10:07:51Z</time>
      </trkpt>
      <trkpt lat="45.92316" lon="4.8125">
        <ele>170</ele>
        <time>2018-06-20T10:07:52Z</time>
      </trkpt>
      <trkpt lat="45.92309" lon="4.81256">
        <ele>170</ele>
        <time>2018-06-20T10:07:53Z</time>
      </trkpt>
      <trkpt lat="45.92302" lon="4.8126">
        <ele>170</ele>
        <time>2018-06-20T10:07:54Z</time>
      </trkpt>
      <trkpt lat="45.92296" lon="4.81266">
        <ele>170</ele>
        <time>2018-06-20T10:07:55Z</time>
      </trkpt>
      <trkpt lat="45.92291" lon="4.8127">
        <ele>170</ele>
        <time>2018-06-20T10:07:56Z</time>
      </trkpt>
      <trkpt lat="45.92286" lon="4.81274">
        <ele>170</ele>
        <time>2018-06-20T10:07:57Z</time>
      </trkpt>
      <trkpt lat="45.9228" lon="4.81277">
        <ele>170</ele>
        <time>2018-06-20T10:07:58Z</time>
      </trkpt>
      <trkpt lat="45.92276" lon="4.81281">
        <ele>170</ele>
        <time>2018-06-20T10:07:59Z</time>
      </trkpt>
      <trkpt lat="45.9227" lon="4.81284">
        <ele>170</ele>
        <time>2018-06-20T10:08:00Z</time>
      </trkpt>
      <trkpt lat="45.92265" lon="4.81287">
        <ele>170</ele>
        <time>2018-06-20T10:08:01Z</time>
      </trkpt>
      <trkpt lat="45.92259" lon="4.81291">
        <ele>171</ele>
        <time>2018-06-20T10:08:02Z</time>
      </trkpt>
      <trkpt lat="45.92252" lon="4.81293">
        <ele>171</ele>
        <time>2018-06-20T10:08:03Z</time>
      </trkpt>
      <trkpt lat="45.92248" lon="4.81297">
        <ele>171</ele>
        <time>2018-06-20T10:08:04Z</time>
      </trkpt>
      <trkpt lat="45.92244" lon="4.81301">
        <ele>171</ele>
        <time>2018-06-20T10:08:05Z</time>
      </trkpt>
      <trkpt lat="45.92238" lon="4.81303">
        <ele>171</ele>
        <time>2018-06-20T10:08:06Z</time>
      </trkpt>
      <trkpt lat="45.92233" lon="4.81308">
        <ele>171</ele>
        <time>2018-06-20T10:08:07Z</time>
      </trkpt>
      <trkpt lat="45.92227" lon="4.81313">
        <ele>171</ele>
        <time>2018-06-20T10:08:08Z</time>
      </trkpt>
      <trkpt lat="45.92223" lon="4.81317">
        <ele>171</ele>
        <time>2018-06-20T10:08:09Z</time>
      </trkpt>
      <trkpt lat="45.92218" lon="4.8132">
        <ele>171</ele>
        <time>2018-06-20T10:08:10Z</time>
      </trkpt>
      <trkpt lat="45.92214" lon="4.81324">
        <ele>171</ele>
        <time>2018-06-20T10:08:11Z</time>
      </trkpt>
      <trkpt lat="45.92209" lon="4.8133">
        <ele>171</ele>
        <time>2018-06-20T10:08:12Z</time>
      </trkpt>
      <trkpt lat="45.92203" lon="4.81334">
        <ele>170</ele>
        <time>2018-06-20T10:08:13Z</time>
      </trkpt>
      <trkpt lat="45.92199" lon="4.81338">
        <ele>170</ele>
        <time>2018-06-20T10:08:14Z</time>
      </trkpt>
      <trkpt lat="45.92195" lon="4.81341">
        <ele>170</ele>
        <time>2018-06-20T10:08:15Z</time>
      </trkpt>
      <trkpt lat="45.9219" lon="4.81342">
        <ele>170</ele>
        <time>2018-06-20T10:08:16Z</time>
      </trkpt>
      <trkpt lat="45.92186" lon="4.81343">
        <ele>170</ele>
        <time>2018-06-20T10:08:17Z</time>
      </trkpt>
      <trkpt lat="45.92179" lon="4.81345">
        <ele>170</ele>
        <time>2018-06-20T10:08:18Z</time>
      </trkpt>
      <trkpt lat="45.92174" lon="4.81348">
        <ele>170</ele>
        <time>2018-06-20T10:08:19Z</time>
      </trkpt>
      <trkpt lat="45.92169" lon="4.81352">
        <ele>170</ele>
        <time>2018-06-20T10:08:20Z</time>
      </trkpt>
      <trkpt lat="45.92165" lon="4.81357">
        <ele>170</ele>
        <time>2018-06-20T10:08:21Z</time>
      </trkpt>
      <trkpt lat="45.92159" lon="4.81363">
        <ele>170</ele>
        <time>2018-06-20T10:08:22Z</time>
      </trkpt>
      <trkpt lat="45.92154" lon="4.81367">
        <ele>170</ele>
        <time>2018-06-20T10:08:23Z</time>
      </trkpt>
      <trkpt lat="45.92147" lon="4.81368">
        <ele>170</ele>
        <time>2018-06-20T10:08:24Z</time>
      </trkpt>
      <trkpt lat="45.92141" lon="4.8137">
        <ele>170</ele>
        <time>2018-06-20T10:08:25Z</time>
      </trkpt>
      <trkpt lat="45.92135" lon="4.81371">
        <ele>170</ele>
        <time>2018-06-20T10:08:26Z</time>
      </trkpt>
      <trkpt lat="45.92129" lon="4.81373">
        <ele>170</ele>
        <time>2018-06-20T10:08:27Z</time>
      </trkpt>
      <trkpt lat="45.92122" lon="4.81376">
        <ele>170</ele>
        <time>2018-06-20T10:08:28Z</time>
      </trkpt>
      <trkpt lat="45.92116" lon="4.81378">
        <ele>170</ele>
        <time>2018-06-20T10:08:29Z</time>
      </trkpt>
      <trkpt lat="45.92111" lon="4.81381">
        <ele>170</ele>
        <time>2018-06-20T10:08:30Z</time>
      </trkpt>
      <trkpt lat="45.92106" lon="4.81383">
        <ele>170</ele>
        <time>2018-06-20T10:08:31Z</time>
      </trkpt>
      <trkpt lat="45.92099" lon="4.81387">
        <ele>170</ele>
        <time>2018-06-20T10:08:32Z</time>
      </trkpt>
      <trkpt lat="45.92094" lon="4.8139">
        <ele>170</ele>
        <time>2018-06-20T10:08:33Z</time>
      </trkpt>
      <trkpt lat="45.92087" lon="4.81393">
        <ele>170</ele>
        <time>2018-06-20T10:08:34Z</time>
      </trkpt>
      <trkpt lat="45.92083" lon="4.81394">
        <ele>169</ele>
        <time>2018-06-20T10:08:35Z</time>
      </trkpt>
      <trkpt lat="45.92077" lon="4.81397">
        <ele>169</ele>
        <time>2018-06-20T10:08:36Z</time>
      </trkpt>
      <trkpt lat="45.92071" lon="4.814">
        <ele>169</ele>
        <time>2018-06-20T10:08:37Z</time>
      </trkpt>
      <trkpt lat="45.92065" lon="4.81405">
        <ele>169</ele>
        <time>2018-06-20T10:08:38Z</time>
      </trkpt>
      <trkpt lat="45.92062" lon="4.81408">
        <ele>169</ele>
        <time>2018-06-20T10:08:39Z</time>
      </trkpt>
      <trkpt lat="45.92056" lon="4.8141">
        <ele>169</ele>
        <time>2018-06-20T10:08:40Z</time>
      </trkpt>
      <trkpt lat="45.92051" lon="4.81415">
        <ele>169</ele>
        <time>2018-06-20T10:08:41Z</time>
      </trkpt>
      <trkpt lat="45.92046" lon="4.81418">
        <ele>170</ele>
        <time>2018-06-20T10:08:42Z</time>
      </trkpt>
      <trkpt lat="45.92041" lon="4.8142">
        <ele>170</ele>
        <time>2018-06-20T10:08:43Z</time>
      </trkpt>
      <trkpt lat="45.92035" lon="4.81424">
        <ele>170</ele>
        <time>2018-06-20T10:08:44Z</time>
      </trkpt>
      <trkpt lat="45.92028" lon="4.81428">
        <ele>170</ele>
        <time>2018-06-20T10:08:45Z</time>
      </trkpt>
      <trkpt lat="45.92023" lon="4.81432">
        <ele>170</ele>
        <time>2018-06-20T10:08:46Z</time>
      </trkpt>
      <trkpt lat="45.92016" lon="4.81435">
        <ele>170</ele>
        <time>2018-06-20T10:08:47Z</time>
      </trkpt>
      <trkpt lat="45.9201" lon="4.81438">
        <ele>170</ele>
        <time>2018-06-20T10:08:48Z</time>
      </trkpt>
      <trkpt lat="45.92004" lon="4.81441">
        <ele>170</ele>
        <time>2018-06-20T10:08:49Z</time>
      </trkpt>
      <trkpt lat="45.91998" lon="4.81444">
        <ele>170</ele>
        <time>2018-06-20T10:08:50Z</time>
      </trkpt>
      <trkpt lat="45.91994" lon="4.81446">
        <ele>170</ele>
        <time>2018-06-20T10:08:51Z</time>
      </trkpt>
      <trkpt lat="45.91988" lon="4.81449">
        <ele>170</ele>
        <time>2018-06-20T10:08:52Z</time>
      </trkpt>
      <trkpt lat="45.91981" lon="4.81452">
        <ele>170</ele>
        <time>2018-06-20T10:08:53Z</time>
      </trkpt>
      <trkpt lat="45.91975" lon="4.81454">
        <ele>170</ele>
        <time>2018-06-20T10:08:54Z</time>
      </trkpt>
      <trkpt lat="45.91969" lon="4.81456">
        <ele>170</ele>
        <time>2018-06-20T10:08:55Z</time>
      </trkpt>
      <trkpt lat="45.91963" lon="4.81458">
        <ele>170</ele>
        <time>2018-06-20T10:08:56Z</time>
      </trkpt>
      <trkpt lat="45.91957" lon="4.81461">
        <ele>170</ele>
        <time>2018-06-20T10:08:57Z</time>
      </trkpt>
      <trkpt lat="45.91951" lon="4.81462">
        <ele>170</ele>
        <time>2018-06-20T10:08:58Z</time>
      </trkpt>
      <trkpt lat="45.91946" lon="4.81463">
        <ele>170</ele>
        <time>2018-06-20T10:08:59Z</time>
      </trkpt>
      <trkpt lat="45.91938" lon="4.81466">
        <ele>170</ele>
        <time>2018-06-20T10:09:00Z</time>
      </trkpt>
      <trkpt lat="45.91931" lon="4.81469">
        <ele>170</ele>
        <time>2018-06-20T10:09:01Z</time>
      </trkpt>
      <trkpt lat="45.91924" lon="4.81471">
        <ele>170</ele>
        <time>2018-06-20T10:09:02Z</time>
      </trkpt>
      <trkpt lat="45.91918" lon="4.81474">
        <ele>170</ele>
        <time>2018-06-20T10:09:03Z</time>
      </trkpt>
      <trkpt lat="45.9191" lon="4.81477">
        <ele>169</ele>
        <time>2018-06-20T10:09:04Z</time>
      </trkpt>
      <trkpt lat="45.91904" lon="4.81479">
        <ele>169</ele>
        <time>2018-06-20T10:09:05Z</time>
      </trkpt>
      <trkpt lat="45.91897" lon="4.81481">
        <ele>169</ele>
        <time>2018-06-20T10:09:06Z</time>
      </trkpt>
      <trkpt lat="45.91892" lon="4.81485">
        <ele>169</ele>
        <time>2018-06-20T10:09:07Z</time>
      </trkpt>
      <trkpt lat="45.91885" lon="4.81486">
        <ele>169</ele>
        <time>2018-06-20T10:09:08Z</time>
      </trkpt>
      <trkpt lat="45.91879" lon="4.81489">
        <ele>169</ele>
        <time>2018-06-20T10:09:09Z</time>
      </trkpt>
      <trkpt lat="45.91872" lon="4.81491">
        <ele>169</ele>
        <time>2018-06-20T10:09:10Z</time>
      </trkpt>
      <trkpt lat="45.91866" lon="4.81493">
        <ele>169</ele>
        <time>2018-06-20T10:09:11Z</time>
      </trkpt>
      <trkpt lat="45.91859" lon="4.81496">
        <ele>169</ele>
        <time>2018-06-20T10:09:12Z</time>
      </trkpt>
      <trkpt lat="45.91852" lon="4.81499">
        <ele>168</ele>
        <time>2018-06-20T10:09:13Z</time>
      </trkpt>
      <trkpt lat="45.91846" lon="4.81502">
        <ele>168</ele>
        <time>2018-06-20T10:09:14Z</time>
      </trkpt>
      <trkpt lat="45.91841" lon="4.81505">
        <ele>168</ele>
        <time>2018-06-20T10:09:15Z</time>
      </trkpt>
      <trkpt lat="45.91835" lon="4.81507">
        <ele>168</ele>
        <time>2018-06-20T10:09:16Z</time>
      </trkpt>
      <trkpt lat="45.91829" lon="4.8151">
        <ele>168</ele>
        <time>2018-06-20T10:09:17Z</time>
      </trkpt>
      <trkpt lat="45.91823" lon="4.81512">
        <ele>168</ele>
        <time>2018-06-20T10:09:18Z</time>
      </trkpt>
      <trkpt lat="45.91818" lon="4.81514">
        <ele>168</ele>
        <time>2018-06-20T10:09:19Z</time>
      </trkpt>
      <trkpt lat="45.91813" lon="4.81516">
        <ele>168</ele>
        <time>2018-06-20T10:09:20Z</time>
      </trkpt>
      <trkpt lat="45.91808" lon="4.81518">
        <ele>168</ele>
        <time>2018-06-20T10:09:21Z</time>
      </trkpt>
      <trkpt lat="45.91803" lon="4.8152">
        <ele>168</ele>
        <time>2018-06-20T10:09:22Z</time>
      </trkpt>
      <trkpt lat="45.91797" lon="4.81523">
        <ele>168</ele>
        <time>2018-06-20T10:09:23Z</time>
      </trkpt>
      <trkpt lat="45.91791" lon="4.81525">
        <ele>169</ele>
        <time>2018-06-20T10:09:24Z</time>
      </trkpt>
      <trkpt lat="45.91785" lon="4.81526">
        <ele>169</ele>
        <time>2018-06-20T10:09:25Z</time>
      </trkpt>
      <trkpt lat="45.91778" lon="4.81528">
        <ele>169</ele>
        <time>2018-06-20T10:09:26Z</time>
      </trkpt>
      <trkpt lat="45.91772" lon="4.81529">
        <ele>169</ele>
        <time>2018-06-20T10:09:27Z</time>
      </trkpt>
      <trkpt lat="45.91765" lon="4.81532">
        <ele>169</ele>
        <time>2018-06-20T10:09:28Z</time>
      </trkpt>
      <trkpt lat="45.91759" lon="4.81533">
        <ele>169</ele>
        <time>2018-06-20T10:09:29Z</time>
      </trkpt>
      <trkpt lat="45.91754" lon="4.81535">
        <ele>169</ele>
        <time>2018-06-20T10:09:30Z</time>
      </trkpt>
      <trkpt lat="45.91749" lon="4.81536">
        <ele>169</ele>
        <time>2018-06-20T10:09:31Z</time>
      </trkpt>
      <trkpt lat="45.91744" lon="4.81539">
        <ele>169</ele>
        <time>2018-06-20T10:09:32Z</time>
      </trkpt>
      <trkpt lat="45.91739" lon="4.81539">
        <ele>169</ele>
        <time>2018-06-20T10:09:33Z</time>
      </trkpt>
      <trkpt lat="45.91733" lon="4.81542">
        <ele>169</ele>
        <time>2018-06-20T10:09:34Z</time>
      </trkpt>
      <trkpt lat="45.91727" lon="4.81542">
        <ele>169</ele>
        <time>2018-06-20T10:09:35Z</time>
      </trkpt>
      <trkpt lat="45.9172" lon="4.81545">
        <ele>169</ele>
        <time>2018-06-20T10:09:36Z</time>
      </trkpt>
      <trkpt lat="45.91714" lon="4.81548">
        <ele>169</ele>
        <time>2018-06-20T10:09:37Z</time>
      </trkpt>
      <trkpt lat="45.91708" lon="4.81549">
        <ele>169</ele>
        <time>2018-06-20T10:09:38Z</time>
      </trkpt>
      <trkpt lat="45.91703" lon="4.8155">
        <ele>169</ele>
        <time>2018-06-20T10:09:39Z</time>
      </trkpt>
      <trkpt lat="45.91697" lon="4.81553">
        <ele>169</ele>
        <time>2018-06-20T10:09:40Z</time>
      </trkpt>
      <trkpt lat="45.91691" lon="4.81554">
        <ele>169</ele>
        <time>2018-06-20T10:09:41Z</time>
      </trkpt>
      <trkpt lat="45.91685" lon="4.81556">
        <ele>169</ele>
        <time>2018-06-20T10:09:42Z</time>
      </trkpt>
      <trkpt lat="45.91679" lon="4.81557">
        <ele>170</ele>
        <time>2018-06-20T10:09:43Z</time>
      </trkpt>
      <trkpt lat="45.91673" lon="4.81559">
        <ele>170</ele>
        <time>2018-06-20T10:09:44Z</time>
      </trkpt>
      <trkpt lat="45.91668" lon="4.81559">
        <ele>170</ele>
        <time>2018-06-20T10:09:45Z</time>
      </trkpt>
      <trkpt lat="45.91663" lon="4.8156">
        <ele>170</ele>
        <time>2018-06-20T10:09:46Z</time>
      </trkpt>
      <trkpt lat="45.91657" lon="4.8156">
        <ele>170</ele>
        <time>2018-06-20T10:09:47Z</time>
      </trkpt>
      <trkpt lat="45.91651" lon="4.81563">
        <ele>170</ele>
        <time>2018-06-20T10:09:48Z</time>
      </trkpt>
      <trkpt lat="45.91646" lon="4.81563">
        <ele>170</ele>
        <time>2018-06-20T10:09:49Z</time>
      </trkpt>
      <trkpt lat="45.91641" lon="4.81563">
        <ele>170</ele>
        <time>2018-06-20T10:09:50Z</time>
      </trkpt>
      <trkpt lat="45.91635" lon="4.81564">
        <ele>170</ele>
        <time>2018-06-20T10:09:51Z</time>
      </trkpt>
      <trkpt lat="45.91628" lon="4.81566">
        <ele>170</ele>
        <time>2018-06-20T10:09:52Z</time>
      </trkpt>
      <trkpt lat="45.91621" lon="4.81567">
        <ele>170</ele>
        <time>2018-06-20T10:09:53Z</time>
      </trkpt>
      <trkpt lat="45.91616" lon="4.81569">
        <ele>170</ele>
        <time>2018-06-20T10:09:54Z</time>
      </trkpt>
      <trkpt lat="45.91612" lon="4.81568">
        <ele>170</ele>
        <time>2018-06-20T10:09:55Z</time>
      </trkpt>
      <trkpt lat="45.91607" lon="4.8157">
        <ele>170</ele>
        <time>2018-06-20T10:09:56Z</time>
      </trkpt>
      <trkpt lat="45.91601" lon="4.81571">
        <ele>170</ele>
        <time>2018-06-20T10:09:57Z</time>
      </trkpt>
      <trkpt lat="45.91595" lon="4.81573">
        <ele>170</ele>
        <time>2018-06-20T10:09:58Z</time>
      </trkpt>
      <trkpt lat="45.91589" lon="4.81574">
        <ele>170</ele>
        <time>2018-06-20T10:09:59Z</time>
      </trkpt>
      <trkpt lat="45.91582" lon="4.81575">
        <ele>170</ele>
        <time>2018-06-20T10:10:00Z</time>
      </trkpt>
      <trkpt lat="45.91576" lon="4.81577">
        <ele>170</ele>
        <time>2018-06-20T10:10:01Z</time>
      </trkpt>
      <trkpt lat="45.9157" lon="4.81579">
        <ele>170</ele>
        <time>2018-06-20T10:10:02Z</time>
      </trkpt>
      <trkpt lat="45.91566" lon="4.8158">
        <ele>170</ele>
        <time>2018-06-20T10:10:03Z</time>
      </trkpt>
      <trkpt lat="45.91559" lon="4.81581">
        <ele>170</ele>
        <time>2018-06-20T10:10:04Z</time>
      </trkpt>
      <trkpt lat="45.91553" lon="4.81582">
        <ele>169</ele>
        <time>2018-06-20T10:10:05Z</time>
      </trkpt>
      <trkpt lat="45.91548" lon="4.81583">
        <ele>169</ele>
        <time>2018-06-20T10:10:06Z</time>
      </trkpt>
      <trkpt lat="45.91541" lon="4.81584">
        <ele>170</ele>
        <time>2018-06-20T10:10:07Z</time>
      </trkpt>
      <trkpt lat="45.91534" lon="4.81585">
        <ele>170</ele>
        <time>2018-06-20T10:10:08Z</time>
      </trkpt>
      <trkpt lat="45.9153" lon="4.81585">
        <ele>170</ele>
        <time>2018-06-20T10:10:09Z</time>
      </trkpt>
      <trkpt lat="45.91522" lon="4.81585">
        <ele>170</ele>
        <time>2018-06-20T10:10:10Z</time>
      </trkpt>
      <trkpt lat="45.91516" lon="4.81587">
        <ele>170</ele>
        <time>2018-06-20T10:10:11Z</time>
      </trkpt>
      <trkpt lat="45.91509" lon="4.81588">
        <ele>169</ele>
        <time>2018-06-20T10:10:12Z</time>
      </trkpt>
      <trkpt lat="45.91504" lon="4.81589">
        <ele>169</ele>
        <time>2018-06-20T10:10:13Z</time>
      </trkpt>
      <trkpt lat="45.91497" lon="4.81591">
        <ele>169</ele>
        <time>2018-06-20T10:10:14Z</time>
      </trkpt>
      <trkpt lat="45.91491" lon="4.81592">
        <ele>169</ele>
        <time>2018-06-20T10:10:15Z</time>
      </trkpt>
      <trkpt lat="45.91485" lon="4.81593">
        <ele>169</ele>
        <time>2018-06-20T10:10:16Z</time>
      </trkpt>
      <trkpt lat="45.9148" lon="4.81594">
        <ele>169</ele>
        <time>2018-06-20T10:10:17Z</time>
      </trkpt>
      <trkpt lat="45.91475" lon="4.81594">
        <ele>169</ele>
        <time>2018-06-20T10:10:18Z</time>
      </trkpt>
      <trkpt lat="45.91468" lon="4.81596">
        <ele>170</ele>
        <time>2018-06-20T10:10:19Z</time>
      </trkpt>
      <trkpt lat="45.91463" lon="4.81596">
        <ele>170</ele>
        <time>2018-06-20T10:10:20Z</time>
      </trkpt>
      <trkpt lat="45.91456" lon="4.81597">
        <ele>170</ele>
        <time>2018-06-20T10:10:21Z</time>
      </trkpt>
      <trkpt lat="45.9145" lon="4.81598">
        <ele>170</ele>
        <time>2018-06-20T10:10:22Z</time>
      </trkpt>
      <trkpt lat="45.91444" lon="4.81598">
        <ele>169</ele>
        <time>2018-06-20T10:10:23Z</time>
      </trkpt>
      <trkpt lat="45.91437" lon="4.81599">
        <ele>169</ele>
        <time>2018-06-20T10:10:24Z</time>
      </trkpt>
      <trkpt lat="45.91432" lon="4.81598">
        <ele>169</ele>
        <time>2018-06-20T10:10:25Z</time>
      </trkpt>
      <trkpt lat="45.91425" lon="4.81599">
        <ele>169</ele>
        <time>2018-06-20T10:10:26Z</time>
      </trkpt>
      <trkpt lat="45.91418" lon="4.81601">
        <ele>169</ele>
        <time>2018-06-20T10:10:27Z</time>
      </trkpt>
      <trkpt lat="45.91412" lon="4.81601">
        <ele>169</ele>
        <time>2018-06-20T10:10:28Z</time>
      </trkpt>
      <trkpt lat="45.91407" lon="4.81601">
        <ele>169</ele>
        <time>2018-06-20T10:10:29Z</time>
      </trkpt>
      <trkpt lat="45.91401" lon="4.81602">
        <ele>169</ele>
        <time>2018-06-20T10:10:30Z</time>
      </trkpt>
      <trkpt lat="45.91395" lon="4.81603">
        <ele>170</ele>
        <time>2018-06-20T10:10:31Z</time>
      </trkpt>
      <trkpt lat="45.91389" lon="4.81604">
        <ele>170</ele>
        <time>2018-06-20T10:10:32Z</time>
      </trkpt>
      <trkpt lat="45.91382" lon="4.81605">
        <ele>170</ele>
        <time>2018-06-20T10:10:33Z</time>
      </trkpt>
      <trkpt lat="45.91377" lon="4.81606">
        <ele>170</ele>
        <time>2018-06-20T10:10:34Z</time>
      </trkpt>
      <trkpt lat="45.91372" lon="4.81607">
        <ele>170</ele>
        <time>2018-06-20T10:10:35Z</time>
      </trkpt>
      <trkpt lat="45.91366" lon="4.81607">
        <ele>170</ele>
        <time>2018-06-20T10:10:36Z</time>
      </trkpt>
      <trkpt lat="45.9136" lon="4.81608">
        <ele>170</ele>
        <time>2018-06-20T10:10:37Z</time>
      </trkpt>
      <trkpt lat="45.91355" lon="4.81609">
        <ele>170</ele>
        <time>2018-06-20T10:10:38Z</time>
      </trkpt>
      <trkpt lat="45.91349" lon="4.8161">
        <ele>170</ele>
        <time>2018-06-20T10:10:39Z</time>
      </trkpt>
      <trkpt lat="45.91343" lon="4.8161">
        <ele>170</ele>
        <time>2018-06-20T10:10:40Z</time>
      </trkpt>
      <trkpt lat="45.91336" lon="4.81609">
        <ele>170</ele>
        <time>2018-06-20T10:10:41Z</time>
      </trkpt>
      <trkpt lat="45.9133" lon="4.8161">
        <ele>170</ele>
        <time>2018-06-20T10:10:42Z</time>
      </trkpt>
      <trkpt lat="45.91323" lon="4.81611">
        <ele>170</ele>
        <time>2018-06-20T10:10:43Z</time>
      </trkpt>
      <trkpt lat="45.91318" lon="4.8161">
        <ele>170</ele>
        <time>2018-06-20T10:10:44Z</time>
      </trkpt>
      <trkpt lat="45.91313" lon="4.81609">
        <ele>170</ele>
        <time>2018-06-20T10:10:45Z</time>
      </trkpt>
      <trkpt lat="45.91307" lon="4.8161">
        <ele>170</ele>
        <time>2018-06-20T10:10:46Z</time>
      </trkpt>
      <trkpt lat="45.91301" lon="4.8161">
        <ele>170</ele>
        <time>2018-06-20T10:10:47Z</time>
      </trkpt>
      <trkpt lat="45.91296" lon="4.81609">
        <ele>170</ele>
        <time>2018-06-20T10:10:48Z</time>
      </trkpt>
      <trkpt lat="45.91291" lon="4.81611">
        <ele>170</ele>
        <time>2018-06-20T10:10:49Z</time>
      </trkpt>
      <trkpt lat="45.91285" lon="4.8161">
        <ele>170</ele>
        <time>2018-06-20T10:10:50Z</time>
      </trkpt>
      <trkpt lat="45.91279" lon="4.8161">
        <ele>170</ele>
        <time>2018-06-20T10:10:51Z</time>
      </trkpt>
      <trkpt lat="45.91274" lon="4.81609">
        <ele>170</ele>
        <time>2018-06-20T10:10:52Z</time>
      </trkpt>
      <trkpt lat="45.91267" lon="4.81609">
        <ele>170</ele>
        <time>2018-06-20T10:10:53Z</time>
      </trkpt>
      <trkpt lat="45.91261" lon="4.81609">
        <ele>170</ele>
        <time>2018-06-20T10:10:54Z</time>
      </trkpt>
      <trkpt lat="45.91255" lon="4.81608">
        <ele>170</ele>
        <time>2018-06-20T10:10:55Z</time>
      </trkpt>
      <trkpt lat="45.91248" lon="4.81608">
        <ele>170</ele>
        <time>2018-06-20T10:10:56Z</time>
      </trkpt>
      <trkpt lat="45.91242" lon="4.81608">
        <ele>170</ele>
        <time>2018-06-20T10:10:57Z</time>
      </trkpt>
      <trkpt lat="45.91236" lon="4.81608">
        <ele>170</ele>
        <time>2018-06-20T10:10:58Z</time>
      </trkpt>
      <trkpt lat="45.9123" lon="4.81608">
        <ele>170</ele>
        <time>2018-06-20T10:10:59Z</time>
      </trkpt>
      <trkpt lat="45.91223" lon="4.81609">
        <ele>170</ele>
        <time>2018-06-20T10:11:00Z</time>
      </trkpt>
      <trkpt lat="45.91217" lon="4.81608">
        <ele>170</ele>
        <time>2018-06-20T10:11:01Z</time>
      </trkpt>
      <trkpt lat="45.91211" lon="4.81608">
        <ele>170</ele>
        <time>2018-06-20T10:11:02Z</time>
      </trkpt>
      <trkpt lat="45.91206" lon="4.81607">
        <ele>170</ele>
        <time>2018-06-20T10:11:03Z</time>
      </trkpt>
      <trkpt lat="45.912" lon="4.81606">
        <ele>170</ele>
        <time>2018-06-20T10:11:04Z</time>
      </trkpt>
      <trkpt lat="45.91195" lon="4.81606">
        <ele>170</ele>
        <time>2018-06-20T10:11:05Z</time>
      </trkpt>
      <trkpt lat="45.91188" lon="4.81607">
        <ele>170</ele>
        <time>2018-06-20T10:11:06Z</time>
      </trkpt>
      <trkpt lat="45.91183" lon="4.81606">
        <ele>170</ele>
        <time>2018-06-20T10:11:07Z</time>
      </trkpt>
      <trkpt lat="45.91177" lon="4.81607">
        <ele>170</ele>
        <time>2018-06-20T10:11:08Z</time>
      </trkpt>
      <trkpt lat="45.91171" lon="4.81606">
        <ele>170</ele>
        <time>2018-06-20T10:11:09Z</time>
      </trkpt>
      <trkpt lat="45.91165" lon="4.81606">
        <ele>170</ele>
        <time>2018-06-20T10:11:10Z</time>
      </trkpt>
      <trkpt lat="45.9116" lon="4.81605">
        <ele>170</ele>
        <time>2018-06-20T10:11:11Z</time>
      </trkpt>
      <trkpt lat="45.91154" lon="4.81606">
        <ele>170</ele>
        <time>2018-06-20T10:11:12Z</time>
      </trkpt>
      <trkpt lat="45.91147" lon="4.81606">
        <ele>170</ele>
        <time>2018-06-20T10:11:13Z</time>
      </trkpt>
      <trkpt lat="45.91141" lon="4.81606">
        <ele>170</ele>
        <time>2018-06-20T10:11:14Z</time>
      </trkpt>
      <trkpt lat="45.91134" lon="4.81605">
        <ele>170</ele>
        <time>2018-06-20T10:11:15Z</time>
      </trkpt>
      <trkpt lat="45.91127" lon="4.81605">
        <ele>170</ele>
        <time>2018-06-20T10:11:16Z</time>
      </trkpt>
      <trkpt lat="45.91121" lon="4.81606">
        <ele>170</ele>
        <time>2018-06-20T10:11:17Z</time>
      </trkpt>
      <trkpt lat="45.91114" lon="4.81605">
        <ele>170</ele>
        <time>2018-06-20T10:11:18Z</time>
      </trkpt>
      <trkpt lat="45.91107" lon="4.81605">
        <ele>170</ele>
        <time>2018-06-20T10:11:19Z</time>
      </trkpt>
      <trkpt lat="45.91101" lon="4.81605">
        <ele>169</ele>
        <time>2018-06-20T10:11:20Z</time>
      </trkpt>
      <trkpt lat="45.91093" lon="4.81604">
        <ele>169</ele>
        <time>2018-06-20T10:11:21Z</time>
      </trkpt>
      <trkpt lat="45.91087" lon="4.81604">
        <ele>169</ele>
        <time>2018-06-20T10:11:22Z</time>
      </trkpt>
      <trkpt lat="45.91081" lon="4.81603">
        <ele>169</ele>
        <time>2018-06-20T10:11:23Z</time>
      </trkpt>
      <trkpt lat="45.91075" lon="4.81603">
        <ele>169</ele>
        <time>2018-06-20T10:11:24Z</time>
      </trkpt>
      <trkpt lat="45.91068" lon="4.81603">
        <ele>169</ele>
        <time>2018-06-20T10:11:25Z</time>
      </trkpt>
      <trkpt lat="45.91062" lon="4.81603">
        <ele>169</ele>
        <time>2018-06-20T10:11:26Z</time>
      </trkpt>
      <trkpt lat="45.91056" lon="4.81602">
        <ele>169</ele>
        <time>2018-06-20T10:11:27Z</time>
      </trkpt>
      <trkpt lat="45.91051" lon="4.81602">
        <ele>169</ele>
        <time>2018-06-20T10:11:28Z</time>
      </trkpt>
      <trkpt lat="45.91045" lon="4.81601">
        <ele>169</ele>
        <time>2018-06-20T10:11:29Z</time>
      </trkpt>
      <trkpt lat="45.9104" lon="4.81601">
        <ele>169</ele>
        <time>2018-06-20T10:11:30Z</time>
      </trkpt>
      <trkpt lat="45.91034" lon="4.816">
        <ele>169</ele>
        <time>2018-06-20T10:11:31Z</time>
      </trkpt>
      <trkpt lat="45.91029" lon="4.81598">
        <ele>169</ele>
        <time>2018-06-20T10:11:32Z</time>
      </trkpt>
      <trkpt lat="45.91023" lon="4.81596">
        <ele>169</ele>
        <time>2018-06-20T10:11:33Z</time>
      </trkpt>
      <trkpt lat="45.91018" lon="4.81595">
        <ele>169</ele>
        <time>2018-06-20T10:11:34Z</time>
      </trkpt>
      <trkpt lat="45.91012" lon="4.81594">
        <ele>169</ele>
        <time>2018-06-20T10:11:35Z</time>
      </trkpt>
      <trkpt lat="45.91006" lon="4.81592">
        <ele>169</ele>
        <time>2018-06-20T10:11:36Z</time>
      </trkpt>
      <trkpt lat="45.91001" lon="4.81592">
        <ele>169</ele>
        <time>2018-06-20T10:11:37Z</time>
      </trkpt>
      <trkpt lat="45.90995" lon="4.81592">
        <ele>169</ele>
        <time>2018-06-20T10:11:38Z</time>
      </trkpt>
      <trkpt lat="45.9099" lon="4.81591">
        <ele>169</ele>
        <time>2018-06-20T10:11:39Z</time>
      </trkpt>
      <trkpt lat="45.90984" lon="4.8159">
        <ele>169</ele>
        <time>2018-06-20T10:11:40Z</time>
      </trkpt>
      <trkpt lat="45.90979" lon="4.81589">
        <ele>169</ele>
        <time>2018-06-20T10:11:41Z</time>
      </trkpt>
      <trkpt lat="45.90973" lon="4.81588">
        <ele>169</ele>
        <time>2018-06-20T10:11:42Z</time>
      </trkpt>
      <trkpt lat="45.90968" lon="4.81586">
        <ele>169</ele>
        <time>2018-06-20T10:11:43Z</time>
      </trkpt>
      <trkpt lat="45.90963" lon="4.81587">
        <ele>169</ele>
        <time>2018-06-20T10:11:44Z</time>
      </trkpt>
      <trkpt lat="45.90957" lon="4.81586">
        <ele>169</ele>
        <time>2018-06-20T10:11:45Z</time>
      </trkpt>
      <trkpt lat="45.90952" lon="4.81584">
        <ele>169</ele>
        <time>2018-06-20T10:11:46Z</time>
      </trkpt>
      <trkpt lat="45.90946" lon="4.81583">
        <ele>169</ele>
        <time>2018-06-20T10:11:47Z</time>
      </trkpt>
      <trkpt lat="45.9094" lon="4.81582">
        <ele>170</ele>
        <time>2018-06-20T10:11:48Z</time>
      </trkpt>
      <trkpt lat="45.90935" lon="4.81581">
        <ele>170</ele>
        <time>2018-06-20T10:11:49Z</time>
      </trkpt>
      <trkpt lat="45.90929" lon="4.8158">
        <ele>170</ele>
        <time>2018-06-20T10:11:50Z</time>
      </trkpt>
      <trkpt lat="45.90924" lon="4.81579">
        <ele>170</ele>
        <time>2018-06-20T10:11:51Z</time>
      </trkpt>
      <trkpt lat="45.90917" lon="4.81578">
        <ele>170</ele>
        <time>2018-06-20T10:11:52Z</time>
      </trkpt>
      <trkpt lat="45.90912" lon="4.81576">
        <ele>170</ele>
        <time>2018-06-20T10:11:53Z</time>
      </trkpt>
      <trkpt lat="45.90905" lon="4.81575">
        <ele>170</ele>
        <time>2018-06-20T10:11:54Z</time>
      </trkpt>
      <trkpt lat="45.909" lon="4.81575">
        <ele>170</ele>
        <time>2018-06-20T10:11:55Z</time>
      </trkpt>
      <trkpt lat="45.90895" lon="4.81574">
        <ele>170</ele>
        <time>2018-06-20T10:11:56Z</time>
      </trkpt>
      <trkpt lat="45.9089" lon="4.81572">
        <ele>170</ele>
        <time>2018-06-20T10:11:57Z</time>
      </trkpt>
      <trkpt lat="45.90884" lon="4.8157">
        <ele>170</ele>
        <time>2018-06-20T10:11:58Z</time>
      </trkpt>
      <trkpt lat="45.90878" lon="4.81572">
        <ele>171</ele>
        <time>2018-06-20T10:11:59Z</time>
      </trkpt>
      <trkpt lat="45.90873" lon="4.81571">
        <ele>171</ele>
        <time>2018-06-20T10:12:00Z</time>
      </trkpt>
      <trkpt lat="45.90867" lon="4.81572">
        <ele>171</ele>
        <time>2018-06-20T10:12:01Z</time>
      </trkpt>
      <trkpt lat="45.90861" lon="4.81571">
        <ele>171</ele>
        <time>2018-06-20T10:12:02Z</time>
      </trkpt>
      <trkpt lat="45.90856" lon="4.81571">
        <ele>171</ele>
        <time>2018-06-20T10:12:03Z</time>
      </trkpt>
      <trkpt lat="45.9085" lon="4.81571">
        <ele>171</ele>
        <time>2018-06-20T10:12:04Z</time>
      </trkpt>
      <trkpt lat="45.90845" lon="4.81571">
        <ele>172</ele>
        <time>2018-06-20T10:12:05Z</time>
      </trkpt>
      <trkpt lat="45.90838" lon="4.81572">
        <ele>172</ele>
        <time>2018-06-20T10:12:06Z</time>
      </trkpt>
      <trkpt lat="45.90833" lon="4.81572">
        <ele>173</ele>
        <time>2018-06-20T10:12:07Z</time>
      </trkpt>
      <trkpt lat="45.90825" lon="4.81573">
        <ele>173</ele>
        <time>2018-06-20T10:12:09Z</time>
      </trkpt>
      <trkpt lat="45.90819" lon="4.81573">
        <ele>172</ele>
        <time>2018-06-20T10:12:10Z</time>
      </trkpt>
      <trkpt lat="45.90814" lon="4.81574">
        <ele>172</ele>
        <time>2018-06-20T10:12:11Z</time>
      </trkpt>
      <trkpt lat="45.9081" lon="4.81575">
        <ele>172</ele>
        <time>2018-06-20T10:12:12Z</time>
      </trkpt>
      <trkpt lat="45.90805" lon="4.81574">
        <ele>172</ele>
        <time>2018-06-20T10:12:13Z</time>
      </trkpt>
      <trkpt lat="45.908" lon="4.81573">
        <ele>172</ele>
        <time>2018-06-20T10:12:14Z</time>
      </trkpt>
      <trkpt lat="45.90795" lon="4.81573">
        <ele>172</ele>
        <time>2018-06-20T10:12:15Z</time>
      </trkpt>
      <trkpt lat="45.90789" lon="4.81572">
        <ele>173</ele>
        <time>2018-06-20T10:12:16Z</time>
      </trkpt>
      <trkpt lat="45.90784" lon="4.81572">
        <ele>173</ele>
        <time>2018-06-20T10:12:17Z</time>
      </trkpt>
      <trkpt lat="45.90779" lon="4.81572">
        <ele>173</ele>
        <time>2018-06-20T10:12:18Z</time>
      </trkpt>
      <trkpt lat="45.90772" lon="4.81573">
        <ele>173</ele>
        <time>2018-06-20T10:12:19Z</time>
      </trkpt>
      <trkpt lat="45.90766" lon="4.81572">
        <ele>173</ele>
        <time>2018-06-20T10:12:20Z</time>
      </trkpt>
      <trkpt lat="45.90758" lon="4.81573">
        <ele>173</ele>
        <time>2018-06-20T10:12:22Z</time>
      </trkpt>
      <trkpt lat="45.90752" lon="4.81574">
        <ele>173</ele>
        <time>2018-06-20T10:12:23Z</time>
      </trkpt>
      <trkpt lat="45.90745" lon="4.81572">
        <ele>174</ele>
        <time>2018-06-20T10:12:25Z</time>
      </trkpt>
      <trkpt lat="45.90741" lon="4.81573">
        <ele>174</ele>
        <time>2018-06-20T10:12:26Z</time>
      </trkpt>
      <trkpt lat="45.90733" lon="4.81573">
        <ele>175</ele>
        <time>2018-06-20T10:12:28Z</time>
      </trkpt>
      <trkpt lat="45.90729" lon="4.81573">
        <ele>175</ele>
        <time>2018-06-20T10:12:29Z</time>
      </trkpt>
      <trkpt lat="45.90724" lon="4.81573">
        <ele>175</ele>
        <time>2018-06-20T10:12:30Z</time>
      </trkpt>
      <trkpt lat="45.9072" lon="4.81573">
        <ele>175</ele>
        <time>2018-06-20T10:12:31Z</time>
      </trkpt>
      <trkpt lat="45.90712" lon="4.81575">
        <ele>175</ele>
        <time>2018-06-20T10:12:34Z</time>
      </trkpt>
      <trkpt lat="45.9071" lon="4.81575">
        <ele>175</ele>
        <time>2018-06-20T10:12:35Z</time>
      </trkpt>
      <trkpt lat="45.90701" lon="4.81575">
        <ele>176</ele>
        <time>2018-06-20T10:12:37Z</time>
      </trkpt>
      <trkpt lat="45.90699" lon="4.81575">
        <ele>176</ele>
        <time>2018-06-20T10:12:38Z</time>
      </trkpt>
      <trkpt lat="45.90691" lon="4.81575">
        <ele>176</ele>
        <time>2018-06-20T10:12:40Z</time>
      </trkpt>
      <trkpt lat="45.9069" lon="4.81575">
        <ele>176</ele>
        <time>2018-06-20T10:12:41Z</time>
      </trkpt>
      <trkpt lat="45.90683" lon="4.81576">
        <ele>177</ele>
        <time>2018-06-20T10:12:44Z</time>
      </trkpt>
      <trkpt lat="45.9068" lon="4.81576">
        <ele>177</ele>
        <time>2018-06-20T10:12:45Z</time>
      </trkpt>
      <trkpt lat="45.90674" lon="4.81576">
        <ele>178</ele>
        <time>2018-06-20T10:12:47Z</time>
      </trkpt>
      <trkpt lat="45.90671" lon="4.81576">
        <ele>178</ele>
        <time>2018-06-20T10:12:48Z</time>
      </trkpt>
      <trkpt lat="45.90664" lon="4.81576">
        <ele>179</ele>
        <time>2018-06-20T10:12:50Z</time>
      </trkpt>
      <trkpt lat="45.90655" lon="4.81577">
        <ele>179</ele>
        <time>2018-06-20T10:12:51Z</time>
      </trkpt>
      <trkpt lat="45.90647" lon="4.81577">
        <ele>179</ele>
        <time>2018-06-20T10:12:55Z</time>
      </trkpt>
      <trkpt lat="45.90639" lon="4.81577">
        <ele>179</ele>
        <time>2018-06-20T10:12:56Z</time>
      </trkpt>
      <trkpt lat="45.9063" lon="4.81578">
        <ele>179</ele>
        <time>2018-06-20T10:13:00Z</time>
      </trkpt>
      <trkpt lat="45.90627" lon="4.81578">
        <ele>179</ele>
        <time>2018-06-20T10:13:01Z</time>
      </trkpt>
      <trkpt lat="45.90624" lon="4.81578">
        <ele>180</ele>
        <time>2018-06-20T10:13:02Z</time>
      </trkpt>
      <trkpt lat="45.90615" lon="4.81578">
        <ele>180</ele>
        <time>2018-06-20T10:13:03Z</time>
      </trkpt>
      <trkpt lat="45.90608" lon="4.81578">
        <ele>180</ele>
        <time>2018-06-20T10:13:06Z</time>
      </trkpt>
      <trkpt lat="45.90606" lon="4.81578">
        <ele>180</ele>
        <time>2018-06-20T10:13:07Z</time>
      </trkpt>
      <trkpt lat="45.90597" lon="4.81579">
        <ele>181</ele>
        <time>2018-06-20T10:13:10Z</time>
      </trkpt>
      <trkpt lat="45.90595" lon="4.81579">
        <ele>181</ele>
        <time>2018-06-20T10:13:11Z</time>
      </trkpt>
      <trkpt lat="45.90585" lon="4.81581">
        <ele>182</ele>
        <time>2018-06-20T10:13:12Z</time>
      </trkpt>
      <trkpt lat="45.90578" lon="4.81581">
        <ele>182</ele>
        <time>2018-06-20T10:13:15Z</time>
      </trkpt>
      <trkpt lat="45.90572" lon="4.81581">
        <ele>182</ele>
        <time>2018-06-20T10:13:16Z</time>
      </trkpt>
      <trkpt lat="45.90564" lon="4.81583">
        <ele>182</ele>
        <time>2018-06-20T10:13:18Z</time>
      </trkpt>
      <trkpt lat="45.90558" lon="4.81583">
        <ele>181</ele>
        <time>2018-06-20T10:13:19Z</time>
      </trkpt>
      <trkpt lat="45.90552" lon="4.81586">
        <ele>182</ele>
        <time>2018-06-20T10:13:21Z</time>
      </trkpt>
      <trkpt lat="45.90547" lon="4.81587">
        <ele>182</ele>
        <time>2018-06-20T10:13:22Z</time>
      </trkpt>
      <trkpt lat="45.90542" lon="4.81587">
        <ele>182</ele>
        <time>2018-06-20T10:13:23Z</time>
      </trkpt>
      <trkpt lat="45.90538" lon="4.81585">
        <ele>182</ele>
        <time>2018-06-20T10:13:24Z</time>
      </trkpt>
      <trkpt lat="45.9053" lon="4.81586">
        <ele>182</ele>
        <time>2018-06-20T10:13:26Z</time>
      </trkpt>
      <trkpt lat="45.90524" lon="4.81586">
        <ele>182</ele>
        <time>2018-06-20T10:13:27Z</time>
      </trkpt>
      <trkpt lat="45.90517" lon="4.81585">
        <ele>182</ele>
        <time>2018-06-20T10:13:29Z</time>
      </trkpt>
      <trkpt lat="45.90514" lon="4.81586">
        <ele>182</ele>
        <time>2018-06-20T10:13:30Z</time>
      </trkpt>
      <trkpt lat="45.90508" lon="4.81586">
        <ele>181</ele>
        <time>2018-06-20T10:13:31Z</time>
      </trkpt>
      <trkpt lat="45.90504" lon="4.81587">
        <ele>181</ele>
        <time>2018-06-20T10:13:32Z</time>
      </trkpt>
      <trkpt lat="45.90499" lon="4.81588">
        <ele>181</ele>
        <time>2018-06-20T10:13:33Z</time>
      </trkpt>
      <trkpt lat="45.90494" lon="4.81589">
        <ele>181</ele>
        <time>2018-06-20T10:13:34Z</time>
      </trkpt>
      <trkpt lat="45.90489" lon="4.81589">
        <ele>181</ele>
        <time>2018-06-20T10:13:35Z</time>
      </trkpt>
      <trkpt lat="45.90484" lon="4.81586">
        <ele>182</ele>
        <time>2018-06-20T10:13:36Z</time>
      </trkpt>
      <trkpt lat="45.9048" lon="4.81586">
        <ele>182</ele>
        <time>2018-06-20T10:13:37Z</time>
      </trkpt>
      <trkpt lat="45.90475" lon="4.81586">
        <ele>182</ele>
        <time>2018-06-20T10:13:38Z</time>
      </trkpt>
      <trkpt lat="45.90467" lon="4.81586">
        <ele>182</ele>
        <time>2018-06-20T10:13:40Z</time>
      </trkpt>
      <trkpt lat="45.90462" lon="4.81586">
        <ele>182</ele>
        <time>2018-06-20T10:13:41Z</time>
      </trkpt>
      <trkpt lat="45.90454" lon="4.81587">
        <ele>182</ele>
        <time>2018-06-20T10:13:43Z</time>
      </trkpt>
      <trkpt lat="45.90449" lon="4.81587">
        <ele>182</ele>
        <time>2018-06-20T10:13:44Z</time>
      </trkpt>
      <trkpt lat="45.90446" lon="4.81586">
        <ele>182</ele>
        <time>2018-06-20T10:13:46Z</time>
      </trkpt>
      <trkpt lat="45.90439" lon="4.81586">
        <ele>182</ele>
        <time>2018-06-20T10:13:47Z</time>
      </trkpt>
      <trkpt lat="45.90435" lon="4.81589">
        <ele>182</ele>
        <time>2018-06-20T10:13:49Z</time>
      </trkpt>
      <trkpt lat="45.90429" lon="4.81592">
        <ele>182</ele>
        <time>2018-06-20T10:13:50Z</time>
      </trkpt>
      <trkpt lat="45.90425" lon="4.81593">
        <ele>182</ele>
        <time>2018-06-20T10:13:51Z</time>
      </trkpt>
      <trkpt lat="45.9042" lon="4.81595">
        <ele>182</ele>
        <time>2018-06-20T10:13:52Z</time>
      </trkpt>
      <trkpt lat="45.90415" lon="4.81596">
        <ele>182</ele>
        <time>2018-06-20T10:13:53Z</time>
      </trkpt>
      <trkpt lat="45.90409" lon="4.81596">
        <ele>182</ele>
        <time>2018-06-20T10:13:54Z</time>
      </trkpt>
      <trkpt lat="45.904" lon="4.81598">
        <ele>182</ele>
        <time>2018-06-20T10:13:56Z</time>
      </trkpt>
      <trkpt lat="45.90396" lon="4.81601">
        <ele>182</ele>
        <time>2018-06-20T10:13:57Z</time>
      </trkpt>
      <trkpt lat="45.9039" lon="4.81601">
        <ele>182</ele>
        <time>2018-06-20T10:13:58Z</time>
      </trkpt>
      <trkpt lat="45.90384" lon="4.81603">
        <ele>182</ele>
        <time>2018-06-20T10:13:59Z</time>
      </trkpt>
      <trkpt lat="45.90379" lon="4.81605">
        <ele>182</ele>
        <time>2018-06-20T10:14:00Z</time>
      </trkpt>
      <trkpt lat="45.90373" lon="4.81606">
        <ele>182</ele>
        <time>2018-06-20T10:14:01Z</time>
      </trkpt>
      <trkpt lat="45.90369" lon="4.81605">
        <ele>182</ele>
        <time>2018-06-20T10:14:02Z</time>
      </trkpt>
      <trkpt lat="45.90364" lon="4.81606">
        <ele>182</ele>
        <time>2018-06-20T10:14:03Z</time>
      </trkpt>
      <trkpt lat="45.90356" lon="4.81609">
        <ele>182</ele>
        <time>2018-06-20T10:14:05Z</time>
      </trkpt>
      <trkpt lat="45.90351" lon="4.81611">
        <ele>182</ele>
        <time>2018-06-20T10:14:06Z</time>
      </trkpt>
      <trkpt lat="45.90347" lon="4.81611">
        <ele>182</ele>
        <time>2018-06-20T10:14:07Z</time>
      </trkpt>
      <trkpt lat="45.90342" lon="4.81612">
        <ele>182</ele>
        <time>2018-06-20T10:14:08Z</time>
      </trkpt>
      <trkpt lat="45.90337" lon="4.81612">
        <ele>182</ele>
        <time>2018-06-20T10:14:09Z</time>
      </trkpt>
      <trkpt lat="45.90332" lon="4.81611">
        <ele>182</ele>
        <time>2018-06-20T10:14:10Z</time>
      </trkpt>
      <trkpt lat="45.90324" lon="4.81614">
        <ele>182</ele>
        <time>2018-06-20T10:14:12Z</time>
      </trkpt>
      <trkpt lat="45.90319" lon="4.81614">
        <ele>182</ele>
        <time>2018-06-20T10:14:13Z</time>
      </trkpt>
      <trkpt lat="45.90311" lon="4.81617">
        <ele>182</ele>
        <time>2018-06-20T10:14:15Z</time>
      </trkpt>
      <trkpt lat="45.90306" lon="4.81617">
        <ele>182</ele>
        <time>2018-06-20T10:14:16Z</time>
      </trkpt>
      <trkpt lat="45.90297" lon="4.81615">
        <ele>182</ele>
        <time>2018-06-20T10:14:18Z</time>
      </trkpt>
      <trkpt lat="45.90292" lon="4.81611">
        <ele>182</ele>
        <time>2018-06-20T10:14:19Z</time>
      </trkpt>
      <trkpt lat="45.90287" lon="4.81611">
        <ele>182</ele>
        <time>2018-06-20T10:14:20Z</time>
      </trkpt>
      <trkpt lat="45.90282" lon="4.81612">
        <ele>182</ele>
        <time>2018-06-20T10:14:21Z</time>
      </trkpt>
      <trkpt lat="45.90277" lon="4.81614">
        <ele>181</ele>
        <time>2018-06-20T10:14:22Z</time>
      </trkpt>
      <trkpt lat="45.9027" lon="4.81617">
        <ele>181</ele>
        <time>2018-06-20T10:14:23Z</time>
      </trkpt>
      <trkpt lat="45.90265" lon="4.81619">
        <ele>181</ele>
        <time>2018-06-20T10:14:24Z</time>
      </trkpt>
      <trkpt lat="45.9026" lon="4.81621">
        <ele>181</ele>
        <time>2018-06-20T10:14:25Z</time>
      </trkpt>
      <trkpt lat="45.90254" lon="4.81623">
        <ele>181</ele>
        <time>2018-06-20T10:14:26Z</time>
      </trkpt>
      <trkpt lat="45.90249" lon="4.81624">
        <ele>180</ele>
        <time>2018-06-20T10:14:27Z</time>
      </trkpt>
      <trkpt lat="45.90243" lon="4.81625">
        <ele>180</ele>
        <time>2018-06-20T10:14:28Z</time>
      </trkpt>
      <trkpt lat="45.90237" lon="4.81626">
        <ele>180</ele>
        <time>2018-06-20T10:14:29Z</time>
      </trkpt>
      <trkpt lat="45.90231" lon="4.81626">
        <ele>180</ele>
        <time>2018-06-20T10:14:30Z</time>
      </trkpt>
      <trkpt lat="45.90225" lon="4.81627">
        <ele>180</ele>
        <time>2018-06-20T10:14:31Z</time>
      </trkpt>
      <trkpt lat="45.90219" lon="4.81628">
        <ele>180</ele>
        <time>2018-06-20T10:14:32Z</time>
      </trkpt>
      <trkpt lat="45.90164" lon="4.81636">
        <ele>179</ele>
        <time>2018-06-20T10:14:41Z</time>
      </trkpt>
      <trkpt lat="45.90158" lon="4.81634">
        <ele>179</ele>
        <time>2018-06-20T10:14:42Z</time>
      </trkpt>
      <trkpt lat="45.90155" lon="4.81632">
        <ele>179</ele>
        <time>2018-06-20T10:14:43Z</time>
      </trkpt>
      <trkpt lat="45.90148" lon="4.81633">
        <ele>179</ele>
        <time>2018-06-20T10:14:44Z</time>
      </trkpt>
      <trkpt lat="45.9014" lon="4.81633">
        <ele>179</ele>
        <time>2018-06-20T10:14:45Z</time>
      </trkpt>
      <trkpt lat="45.90132" lon="4.81634">
        <ele>179</ele>
        <time>2018-06-20T10:14:46Z</time>
      </trkpt>
      <trkpt lat="45.90127" lon="4.81632">
        <ele>179</ele>
        <time>2018-06-20T10:14:47Z</time>
      </trkpt>
      <trkpt lat="45.9012" lon="4.81634">
        <ele>179</ele>
        <time>2018-06-20T10:14:48Z</time>
      </trkpt>
      <trkpt lat="45.90114" lon="4.81636">
        <ele>179</ele>
        <time>2018-06-20T10:14:49Z</time>
      </trkpt>
      <trkpt lat="45.90108" lon="4.81637">
        <ele>179</ele>
        <time>2018-06-20T10:14:50Z</time>
      </trkpt>
      <trkpt lat="45.90102" lon="4.81638">
        <ele>179</ele>
        <time>2018-06-20T10:14:51Z</time>
      </trkpt>
      <trkpt lat="45.90096" lon="4.81639">
        <ele>179</ele>
        <time>2018-06-20T10:14:52Z</time>
      </trkpt>
      <trkpt lat="45.90092" lon="4.81643">
        <ele>179</ele>
        <time>2018-06-20T10:14:53Z</time>
      </trkpt>
      <trkpt lat="45.90086" lon="4.81643">
        <ele>179</ele>
        <time>2018-06-20T10:14:54Z</time>
      </trkpt>
      <trkpt lat="45.9008" lon="4.81648">
        <ele>178</ele>
        <time>2018-06-20T10:14:55Z</time>
      </trkpt>
      <trkpt lat="45.90072" lon="4.81649">
        <ele>178</ele>
        <time>2018-06-20T10:14:57Z</time>
      </trkpt>
      <trkpt lat="45.90065" lon="4.81653">
        <ele>178</ele>
        <time>2018-06-20T10:14:58Z</time>
      </trkpt>
      <trkpt lat="45.90059" lon="4.81656">
        <ele>177</ele>
        <time>2018-06-20T10:14:59Z</time>
      </trkpt>
      <trkpt lat="45.90051" lon="4.81658">
        <ele>177</ele>
        <time>2018-06-20T10:15:00Z</time>
      </trkpt>
      <trkpt lat="45.90043" lon="4.81662">
        <ele>177</ele>
        <time>2018-06-20T10:15:01Z</time>
      </trkpt>
      <trkpt lat="45.90039" lon="4.8166">
        <ele>177</ele>
        <time>2018-06-20T10:15:02Z</time>
      </trkpt>
      <trkpt lat="45.90036" lon="4.81664">
        <ele>177</ele>
        <time>2018-06-20T10:15:03Z</time>
      </trkpt>
      <trkpt lat="45.90028" lon="4.81669">
        <ele>177</ele>
        <time>2018-06-20T10:15:04Z</time>
      </trkpt>
      <trkpt lat="45.9002" lon="4.81671">
        <ele>177</ele>
        <time>2018-06-20T10:15:05Z</time>
      </trkpt>
      <trkpt lat="45.90016" lon="4.81672">
        <ele>177</ele>
        <time>2018-06-20T10:15:06Z</time>
      </trkpt>
      <trkpt lat="45.90009" lon="4.81677">
        <ele>177</ele>
        <time>2018-06-20T10:15:07Z</time>
      </trkpt>
      <trkpt lat="45.90002" lon="4.81681">
        <ele>177</ele>
        <time>2018-06-20T10:15:08Z</time>
      </trkpt>
      <trkpt lat="45.89996" lon="4.81684">
        <ele>176</ele>
        <time>2018-06-20T10:15:09Z</time>
      </trkpt>
      <trkpt lat="45.89992" lon="4.81688">
        <ele>176</ele>
        <time>2018-06-20T10:15:10Z</time>
      </trkpt>
      <trkpt lat="45.89987" lon="4.81692">
        <ele>176</ele>
        <time>2018-06-20T10:15:11Z</time>
      </trkpt>
      <trkpt lat="45.89981" lon="4.81696">
        <ele>176</ele>
        <time>2018-06-20T10:15:12Z</time>
      </trkpt>
      <trkpt lat="45.89975" lon="4.81699">
        <ele>176</ele>
        <time>2018-06-20T10:15:13Z</time>
      </trkpt>
      <trkpt lat="45.89969" lon="4.81704">
        <ele>176</ele>
        <time>2018-06-20T10:15:14Z</time>
      </trkpt>
      <trkpt lat="45.89964" lon="4.81707">
        <ele>176</ele>
        <time>2018-06-20T10:15:15Z</time>
      </trkpt>
      <trkpt lat="45.89958" lon="4.81709">
        <ele>176</ele>
        <time>2018-06-20T10:15:16Z</time>
      </trkpt>
      <trkpt lat="45.89952" lon="4.81711">
        <ele>176</ele>
        <time>2018-06-20T10:15:17Z</time>
      </trkpt>
      <trkpt lat="45.89948" lon="4.81711">
        <ele>176</ele>
        <time>2018-06-20T10:15:18Z</time>
      </trkpt>
      <trkpt lat="45.89942" lon="4.81711">
        <ele>176</ele>
        <time>2018-06-20T10:15:19Z</time>
      </trkpt>
      <trkpt lat="45.89936" lon="4.8171">
        <ele>176</ele>
        <time>2018-06-20T10:15:20Z</time>
      </trkpt>
      <trkpt lat="45.8993" lon="4.8171">
        <ele>176</ele>
        <time>2018-06-20T10:15:21Z</time>
      </trkpt>
      <trkpt lat="45.89925" lon="4.81711">
        <ele>176</ele>
        <time>2018-06-20T10:15:22Z</time>
      </trkpt>
      <trkpt lat="45.8992" lon="4.81715">
        <ele>176</ele>
        <time>2018-06-20T10:15:23Z</time>
      </trkpt>
      <trkpt lat="45.89913" lon="4.81722">
        <ele>176</ele>
        <time>2018-06-20T10:15:24Z</time>
      </trkpt>
      <trkpt lat="45.89909" lon="4.8173">
        <ele>176</ele>
        <time>2018-06-20T10:15:25Z</time>
      </trkpt>
      <trkpt lat="45.89906" lon="4.81738">
        <ele>176</ele>
        <time>2018-06-20T10:15:26Z</time>
      </trkpt>
      <trkpt lat="45.89904" lon="4.81745">
        <ele>176</ele>
        <time>2018-06-20T10:15:27Z</time>
      </trkpt>
      <trkpt lat="45.899" lon="4.81753">
        <ele>176</ele>
        <time>2018-06-20T10:15:28Z</time>
      </trkpt>
      <trkpt lat="45.89896" lon="4.8176">
        <ele>176</ele>
        <time>2018-06-20T10:15:29Z</time>
      </trkpt>
      <trkpt lat="45.89891" lon="4.81766">
        <ele>176</ele>
        <time>2018-06-20T10:15:30Z</time>
      </trkpt>
      <trkpt lat="45.89887" lon="4.8177">
        <ele>176</ele>
        <time>2018-06-20T10:15:31Z</time>
      </trkpt>
      <trkpt lat="45.89883" lon="4.81773">
        <ele>176</ele>
        <time>2018-06-20T10:15:32Z</time>
      </trkpt>
      <trkpt lat="45.89878" lon="4.81779">
        <ele>176</ele>
        <time>2018-06-20T10:15:33Z</time>
      </trkpt>
      <trkpt lat="45.89872" lon="4.81784">
        <ele>175</ele>
        <time>2018-06-20T10:15:34Z</time>
      </trkpt>
      <trkpt lat="45.89866" lon="4.81791">
        <ele>175</ele>
        <time>2018-06-20T10:15:35Z</time>
      </trkpt>
      <trkpt lat="45.8986" lon="4.81795">
        <ele>175</ele>
        <time>2018-06-20T10:15:36Z</time>
      </trkpt>
      <trkpt lat="45.89855" lon="4.818">
        <ele>175</ele>
        <time>2018-06-20T10:15:37Z</time>
      </trkpt>
      <trkpt lat="45.8985" lon="4.81806">
        <ele>175</ele>
        <time>2018-06-20T10:15:38Z</time>
      </trkpt>
      <trkpt lat="45.89845" lon="4.81811">
        <ele>175</ele>
        <time>2018-06-20T10:15:39Z</time>
      </trkpt>
      <trkpt lat="45.8984" lon="4.81816">
        <ele>175</ele>
        <time>2018-06-20T10:15:40Z</time>
      </trkpt>
      <trkpt lat="45.89838" lon="4.81821">
        <ele>175</ele>
        <time>2018-06-20T10:15:41Z</time>
      </trkpt>
      <trkpt lat="45.89834" lon="4.81828">
        <ele>174</ele>
        <time>2018-06-20T10:15:42Z</time>
      </trkpt>
      <trkpt lat="45.8983" lon="4.81832">
        <ele>174</ele>
        <time>2018-06-20T10:15:43Z</time>
      </trkpt>
      <trkpt lat="45.89826" lon="4.81837">
        <ele>174</ele>
        <time>2018-06-20T10:15:44Z</time>
      </trkpt>
      <trkpt lat="45.89821" lon="4.81842">
        <ele>174</ele>
        <time>2018-06-20T10:15:45Z</time>
      </trkpt>
      <trkpt lat="45.89817" lon="4.81847">
        <ele>174</ele>
        <time>2018-06-20T10:15:46Z</time>
      </trkpt>
      <trkpt lat="45.89813" lon="4.81852">
        <ele>174</ele>
        <time>2018-06-20T10:15:47Z</time>
      </trkpt>
      <trkpt lat="45.89808" lon="4.81857">
        <ele>174</ele>
        <time>2018-06-20T10:15:48Z</time>
      </trkpt>
      <trkpt lat="45.89803" lon="4.81861">
        <ele>174</ele>
        <time>2018-06-20T10:15:49Z</time>
      </trkpt>
      <trkpt lat="45.89797" lon="4.81867">
        <ele>174</ele>
        <time>2018-06-20T10:15:50Z</time>
      </trkpt>
      <trkpt lat="45.89793" lon="4.81871">
        <ele>174</ele>
        <time>2018-06-20T10:15:51Z</time>
      </trkpt>
      <trkpt lat="45.89788" lon="4.81875">
        <ele>174</ele>
        <time>2018-06-20T10:15:52Z</time>
      </trkpt>
      <trkpt lat="45.89782" lon="4.81879">
        <ele>174</ele>
        <time>2018-06-20T10:15:53Z</time>
      </trkpt>
      <trkpt lat="45.89776" lon="4.81885">
        <ele>174</ele>
        <time>2018-06-20T10:15:54Z</time>
      </trkpt>
      <trkpt lat="45.89771" lon="4.81889">
        <ele>174</ele>
        <time>2018-06-20T10:15:55Z</time>
      </trkpt>
      <trkpt lat="45.89766" lon="4.81894">
        <ele>174</ele>
        <time>2018-06-20T10:15:56Z</time>
      </trkpt>
      <trkpt lat="45.89762" lon="4.819">
        <ele>174</ele>
        <time>2018-06-20T10:15:57Z</time>
      </trkpt>
      <trkpt lat="45.89755" lon="4.81904">
        <ele>174</ele>
        <time>2018-06-20T10:15:58Z</time>
      </trkpt>
      <trkpt lat="45.89749" lon="4.8191">
        <ele>174</ele>
        <time>2018-06-20T10:15:59Z</time>
      </trkpt>
      <trkpt lat="45.89743" lon="4.81914">
        <ele>174</ele>
        <time>2018-06-20T10:16:00Z</time>
      </trkpt>
      <trkpt lat="45.89739" lon="4.81917">
        <ele>174</ele>
        <time>2018-06-20T10:16:01Z</time>
      </trkpt>
      <trkpt lat="45.89733" lon="4.81923">
        <ele>174</ele>
        <time>2018-06-20T10:16:02Z</time>
      </trkpt>
      <trkpt lat="45.89728" lon="4.81927">
        <ele>173</ele>
        <time>2018-06-20T10:16:03Z</time>
      </trkpt>
      <trkpt lat="45.89721" lon="4.81932">
        <ele>173</ele>
        <time>2018-06-20T10:16:04Z</time>
      </trkpt>
      <trkpt lat="45.89717" lon="4.81936">
        <ele>173</ele>
        <time>2018-06-20T10:16:05Z</time>
      </trkpt>
      <trkpt lat="45.89712" lon="4.8194">
        <ele>173</ele>
        <time>2018-06-20T10:16:06Z</time>
      </trkpt>
      <trkpt lat="45.89708" lon="4.81943">
        <ele>173</ele>
        <time>2018-06-20T10:16:07Z</time>
      </trkpt>
      <trkpt lat="45.89702" lon="4.81949">
        <ele>173</ele>
        <time>2018-06-20T10:16:08Z</time>
      </trkpt>
      <trkpt lat="45.89698" lon="4.81951">
        <ele>173</ele>
        <time>2018-06-20T10:16:09Z</time>
      </trkpt>
      <trkpt lat="45.89693" lon="4.81956">
        <ele>173</ele>
        <time>2018-06-20T10:16:10Z</time>
      </trkpt>
      <trkpt lat="45.89689" lon="4.8196">
        <ele>173</ele>
        <time>2018-06-20T10:16:11Z</time>
      </trkpt>
      <trkpt lat="45.89685" lon="4.81964">
        <ele>173</ele>
        <time>2018-06-20T10:16:12Z</time>
      </trkpt>
      <trkpt lat="45.8968" lon="4.81967">
        <ele>173</ele>
        <time>2018-06-20T10:16:13Z</time>
      </trkpt>
      <trkpt lat="45.89674" lon="4.81973">
        <ele>173</ele>
        <time>2018-06-20T10:16:14Z</time>
      </trkpt>
      <trkpt lat="45.89669" lon="4.81977">
        <ele>173</ele>
        <time>2018-06-20T10:16:15Z</time>
      </trkpt>
      <trkpt lat="45.89664" lon="4.81982">
        <ele>173</ele>
        <time>2018-06-20T10:16:16Z</time>
      </trkpt>
      <trkpt lat="45.89659" lon="4.81988">
        <ele>173</ele>
        <time>2018-06-20T10:16:17Z</time>
      </trkpt>
      <trkpt lat="45.89654" lon="4.81993">
        <ele>173</ele>
        <time>2018-06-20T10:16:18Z</time>
      </trkpt>
      <trkpt lat="45.89648" lon="4.81998">
        <ele>173</ele>
        <time>2018-06-20T10:16:19Z</time>
      </trkpt>
      <trkpt lat="45.89643" lon="4.82004">
        <ele>173</ele>
        <time>2018-06-20T10:16:20Z</time>
      </trkpt>
      <trkpt lat="45.89638" lon="4.82008">
        <ele>173</ele>
        <time>2018-06-20T10:16:21Z</time>
      </trkpt>
      <trkpt lat="45.89634" lon="4.82012">
        <ele>173</ele>
        <time>2018-06-20T10:16:22Z</time>
      </trkpt>
      <trkpt lat="45.89629" lon="4.82016">
        <ele>173</ele>
        <time>2018-06-20T10:16:23Z</time>
      </trkpt>
      <trkpt lat="45.89624" lon="4.82018">
        <ele>173</ele>
        <time>2018-06-20T10:16:24Z</time>
      </trkpt>
      <trkpt lat="45.8962" lon="4.82022">
        <ele>173</ele>
        <time>2018-06-20T10:16:25Z</time>
      </trkpt>
      <trkpt lat="45.89615" lon="4.82025">
        <ele>173</ele>
        <time>2018-06-20T10:16:26Z</time>
      </trkpt>
      <trkpt lat="45.8961" lon="4.82028">
        <ele>173</ele>
        <time>2018-06-20T10:16:27Z</time>
      </trkpt>
      <trkpt lat="45.89605" lon="4.8203">
        <ele>173</ele>
        <time>2018-06-20T10:16:28Z</time>
      </trkpt>
      <trkpt lat="45.89599" lon="4.82034">
        <ele>173</ele>
        <time>2018-06-20T10:16:29Z</time>
      </trkpt>
      <trkpt lat="45.89593" lon="4.82039">
        <ele>173</ele>
        <time>2018-06-20T10:16:30Z</time>
      </trkpt>
      <trkpt lat="45.89588" lon="4.82042">
        <ele>173</ele>
        <time>2018-06-20T10:16:31Z</time>
      </trkpt>
      <trkpt lat="45.89582" lon="4.82046">
        <ele>172</ele>
        <time>2018-06-20T10:16:32Z</time>
      </trkpt>
      <trkpt lat="45.89577" lon="4.82049">
        <ele>172</ele>
        <time>2018-06-20T10:16:33Z</time>
      </trkpt>
      <trkpt lat="45.8957" lon="4.82052">
        <ele>172</ele>
        <time>2018-06-20T10:16:34Z</time>
      </trkpt>
      <trkpt lat="45.89565" lon="4.82055">
        <ele>172</ele>
        <time>2018-06-20T10:16:35Z</time>
      </trkpt>
      <trkpt lat="45.89559" lon="4.82059">
        <ele>172</ele>
        <time>2018-06-20T10:16:36Z</time>
      </trkpt>
      <trkpt lat="45.89554" lon="4.82062">
        <ele>172</ele>
        <time>2018-06-20T10:16:37Z</time>
      </trkpt>
      <trkpt lat="45.89547" lon="4.82065">
        <ele>172</ele>
        <time>2018-06-20T10:16:38Z</time>
      </trkpt>
      <trkpt lat="45.89542" lon="4.82067">
        <ele>172</ele>
        <time>2018-06-20T10:16:39Z</time>
      </trkpt>
      <trkpt lat="45.89536" lon="4.82066">
        <ele>172</ele>
        <time>2018-06-20T10:16:40Z</time>
      </trkpt>
      <trkpt lat="45.8953" lon="4.82067">
        <ele>172</ele>
        <time>2018-06-20T10:16:41Z</time>
      </trkpt>
      <trkpt lat="45.89523" lon="4.82068">
        <ele>172</ele>
        <time>2018-06-20T10:16:42Z</time>
      </trkpt>
      <trkpt lat="45.89518" lon="4.82072">
        <ele>172</ele>
        <time>2018-06-20T10:16:43Z</time>
      </trkpt>
      <trkpt lat="45.89514" lon="4.82077">
        <ele>172</ele>
        <time>2018-06-20T10:16:44Z</time>
      </trkpt>
      <trkpt lat="45.89511" lon="4.82084">
        <ele>172</ele>
        <time>2018-06-20T10:16:45Z</time>
      </trkpt>
      <trkpt lat="45.89509" lon="4.82092">
        <ele>172</ele>
        <time>2018-06-20T10:16:46Z</time>
      </trkpt>
      <trkpt lat="45.89507" lon="4.821">
        <ele>172</ele>
        <time>2018-06-20T10:16:47Z</time>
      </trkpt>
      <trkpt lat="45.89505" lon="4.82108">
        <ele>172</ele>
        <time>2018-06-20T10:16:48Z</time>
      </trkpt>
      <trkpt lat="45.89503" lon="4.82115">
        <ele>172</ele>
        <time>2018-06-20T10:16:49Z</time>
      </trkpt>
      <trkpt lat="45.895" lon="4.8212">
        <ele>172</ele>
        <time>2018-06-20T10:16:50Z</time>
      </trkpt>
      <trkpt lat="45.89497" lon="4.82129">
        <ele>172</ele>
        <time>2018-06-20T10:16:51Z</time>
      </trkpt>
      <trkpt lat="45.89492" lon="4.82133">
        <ele>172</ele>
        <time>2018-06-20T10:16:52Z</time>
      </trkpt>
      <trkpt lat="45.89488" lon="4.82138">
        <ele>172</ele>
        <time>2018-06-20T10:16:53Z</time>
      </trkpt>
      <trkpt lat="45.89483" lon="4.82144">
        <ele>171</ele>
        <time>2018-06-20T10:16:54Z</time>
      </trkpt>
      <trkpt lat="45.89479" lon="4.8215">
        <ele>171</ele>
        <time>2018-06-20T10:16:55Z</time>
      </trkpt>
      <trkpt lat="45.89472" lon="4.82153">
        <ele>171</ele>
        <time>2018-06-20T10:16:56Z</time>
      </trkpt>
      <trkpt lat="45.89468" lon="4.82159">
        <ele>171</ele>
        <time>2018-06-20T10:16:57Z</time>
      </trkpt>
      <trkpt lat="45.89463" lon="4.82165">
        <ele>171</ele>
        <time>2018-06-20T10:16:58Z</time>
      </trkpt>
      <trkpt lat="45.89458" lon="4.82171">
        <ele>171</ele>
        <time>2018-06-20T10:16:59Z</time>
      </trkpt>
      <trkpt lat="45.89453" lon="4.82175">
        <ele>171</ele>
        <time>2018-06-20T10:17:00Z</time>
      </trkpt>
      <trkpt lat="45.89448" lon="4.8218">
        <ele>171</ele>
        <time>2018-06-20T10:17:01Z</time>
      </trkpt>
      <trkpt lat="45.89443" lon="4.82186">
        <ele>171</ele>
        <time>2018-06-20T10:17:02Z</time>
      </trkpt>
      <trkpt lat="45.89439" lon="4.82193">
        <ele>171</ele>
        <time>2018-06-20T10:17:03Z</time>
      </trkpt>
      <trkpt lat="45.89435" lon="4.82199">
        <ele>171</ele>
        <time>2018-06-20T10:17:04Z</time>
      </trkpt>
      <trkpt lat="45.89431" lon="4.82204">
        <ele>171</ele>
        <time>2018-06-20T10:17:05Z</time>
      </trkpt>
      <trkpt lat="45.89426" lon="4.82208">
        <ele>171</ele>
        <time>2018-06-20T10:17:06Z</time>
      </trkpt>
      <trkpt lat="45.89421" lon="4.82213">
        <ele>171</ele>
        <time>2018-06-20T10:17:07Z</time>
      </trkpt>
      <trkpt lat="45.89417" lon="4.82219">
        <ele>171</ele>
        <time>2018-06-20T10:17:08Z</time>
      </trkpt>
      <trkpt lat="45.89412" lon="4.82225">
        <ele>171</ele>
        <time>2018-06-20T10:17:09Z</time>
      </trkpt>
      <trkpt lat="45.89407" lon="4.8223">
        <ele>171</ele>
        <time>2018-06-20T10:17:10Z</time>
      </trkpt>
      <trkpt lat="45.89401" lon="4.82237">
        <ele>171</ele>
        <time>2018-06-20T10:17:11Z</time>
      </trkpt>
      <trkpt lat="45.89397" lon="4.82243">
        <ele>171</ele>
        <time>2018-06-20T10:17:12Z</time>
      </trkpt>
      <trkpt lat="45.89392" lon="4.82249">
        <ele>171</ele>
        <time>2018-06-20T10:17:13Z</time>
      </trkpt>
      <trkpt lat="45.89386" lon="4.82255">
        <ele>172</ele>
        <time>2018-06-20T10:17:14Z</time>
      </trkpt>
      <trkpt lat="45.89381" lon="4.8226">
        <ele>172</ele>
        <time>2018-06-20T10:17:15Z</time>
      </trkpt>
      <trkpt lat="45.89377" lon="4.82266">
        <ele>172</ele>
        <time>2018-06-20T10:17:16Z</time>
      </trkpt>
      <trkpt lat="45.89372" lon="4.82272">
        <ele>172</ele>
        <time>2018-06-20T10:17:17Z</time>
      </trkpt>
      <trkpt lat="45.89368" lon="4.82277">
        <ele>172</ele>
        <time>2018-06-20T10:17:18Z</time>
      </trkpt>
      <trkpt lat="45.89364" lon="4.82282">
        <ele>172</ele>
        <time>2018-06-20T10:17:19Z</time>
      </trkpt>
      <trkpt lat="45.8936" lon="4.82287">
        <ele>172</ele>
        <time>2018-06-20T10:17:20Z</time>
      </trkpt>
      <trkpt lat="45.89356" lon="4.82292">
        <ele>172</ele>
        <time>2018-06-20T10:17:21Z</time>
      </trkpt>
      <trkpt lat="45.89353" lon="4.82299">
        <ele>172</ele>
        <time>2018-06-20T10:17:22Z</time>
      </trkpt>
      <trkpt lat="45.89348" lon="4.82303">
        <ele>172</ele>
        <time>2018-06-20T10:17:23Z</time>
      </trkpt>
      <trkpt lat="45.89345" lon="4.82308">
        <ele>172</ele>
        <time>2018-06-20T10:17:24Z</time>
      </trkpt>
      <trkpt lat="45.89341" lon="4.82313">
        <ele>172</ele>
        <time>2018-06-20T10:17:25Z</time>
      </trkpt>
      <trkpt lat="45.89336" lon="4.82319">
        <ele>172</ele>
        <time>2018-06-20T10:17:26Z</time>
      </trkpt>
      <trkpt lat="45.89332" lon="4.82325">
        <ele>172</ele>
        <time>2018-06-20T10:17:27Z</time>
      </trkpt>
      <trkpt lat="45.89327" lon="4.82331">
        <ele>172</ele>
        <time>2018-06-20T10:17:28Z</time>
      </trkpt>
      <trkpt lat="45.89324" lon="4.82338">
        <ele>172</ele>
        <time>2018-06-20T10:17:29Z</time>
      </trkpt>
      <trkpt lat="45.89319" lon="4.82344">
        <ele>173</ele>
        <time>2018-06-20T10:17:30Z</time>
      </trkpt>
      <trkpt lat="45.89314" lon="4.82349">
        <ele>173</ele>
        <time>2018-06-20T10:17:31Z</time>
      </trkpt>
      <trkpt lat="45.89311" lon="4.82353">
        <ele>173</ele>
        <time>2018-06-20T10:17:32Z</time>
      </trkpt>
      <trkpt lat="45.89306" lon="4.82359">
        <ele>173</ele>
        <time>2018-06-20T10:17:33Z</time>
      </trkpt>
      <trkpt lat="45.89302" lon="4.82364">
        <ele>173</ele>
        <time>2018-06-20T10:17:34Z</time>
      </trkpt>
      <trkpt lat="45.89297" lon="4.8237">
        <ele>173</ele>
        <time>2018-06-20T10:17:35Z</time>
      </trkpt>
      <trkpt lat="45.89292" lon="4.82374">
        <ele>173</ele>
        <time>2018-06-20T10:17:36Z</time>
      </trkpt>
      <trkpt lat="45.89288" lon="4.82382">
        <ele>173</ele>
        <time>2018-06-20T10:17:37Z</time>
      </trkpt>
      <trkpt lat="45.89285" lon="4.82385">
        <ele>173</ele>
        <time>2018-06-20T10:17:38Z</time>
      </trkpt>
      <trkpt lat="45.89282" lon="4.82391">
        <ele>173</ele>
        <time>2018-06-20T10:17:39Z</time>
      </trkpt>
      <trkpt lat="45.89277" lon="4.82395">
        <ele>173</ele>
        <time>2018-06-20T10:17:40Z</time>
      </trkpt>
      <trkpt lat="45.89272" lon="4.82399">
        <ele>173</ele>
        <time>2018-06-20T10:17:41Z</time>
      </trkpt>
      <trkpt lat="45.89267" lon="4.82404">
        <ele>173</ele>
        <time>2018-06-20T10:17:42Z</time>
      </trkpt>
      <trkpt lat="45.89261" lon="4.8241">
        <ele>173</ele>
        <time>2018-06-20T10:17:43Z</time>
      </trkpt>
      <trkpt lat="45.89255" lon="4.82412">
        <ele>173</ele>
        <time>2018-06-20T10:17:44Z</time>
      </trkpt>
      <trkpt lat="45.8925" lon="4.82418">
        <ele>173</ele>
        <time>2018-06-20T10:17:45Z</time>
      </trkpt>
      <trkpt lat="45.89246" lon="4.8242">
        <ele>173</ele>
        <time>2018-06-20T10:17:46Z</time>
      </trkpt>
      <trkpt lat="45.8924" lon="4.82424">
        <ele>173</ele>
        <time>2018-06-20T10:17:47Z</time>
      </trkpt>
      <trkpt lat="45.89236" lon="4.82429">
        <ele>173</ele>
        <time>2018-06-20T10:17:48Z</time>
      </trkpt>
      <trkpt lat="45.8923" lon="4.82433">
        <ele>173</ele>
        <time>2018-06-20T10:17:49Z</time>
      </trkpt>
      <trkpt lat="45.89223" lon="4.82437">
        <ele>173</ele>
        <time>2018-06-20T10:17:50Z</time>
      </trkpt>
      <trkpt lat="45.89219" lon="4.8244">
        <ele>173</ele>
        <time>2018-06-20T10:17:51Z</time>
      </trkpt>
      <trkpt lat="45.89213" lon="4.82443">
        <ele>173</ele>
        <time>2018-06-20T10:17:52Z</time>
      </trkpt>
      <trkpt lat="45.8921" lon="4.82444">
        <ele>173</ele>
        <time>2018-06-20T10:17:53Z</time>
      </trkpt>
      <trkpt lat="45.89204" lon="4.82447">
        <ele>172</ele>
        <time>2018-06-20T10:17:54Z</time>
      </trkpt>
      <trkpt lat="45.89198" lon="4.82449">
        <ele>172</ele>
        <time>2018-06-20T10:17:55Z</time>
      </trkpt>
      <trkpt lat="45.89192" lon="4.82454">
        <ele>172</ele>
        <time>2018-06-20T10:17:56Z</time>
      </trkpt>
      <trkpt lat="45.89187" lon="4.82457">
        <ele>172</ele>
        <time>2018-06-20T10:17:57Z</time>
      </trkpt>
      <trkpt lat="45.89183" lon="4.82461">
        <ele>172</ele>
        <time>2018-06-20T10:17:58Z</time>
      </trkpt>
      <trkpt lat="45.89178" lon="4.82464">
        <ele>172</ele>
        <time>2018-06-20T10:17:59Z</time>
      </trkpt>
      <trkpt lat="45.89174" lon="4.82465">
        <ele>172</ele>
        <time>2018-06-20T10:18:00Z</time>
      </trkpt>
      <trkpt lat="45.89169" lon="4.82468">
        <ele>172</ele>
        <time>2018-06-20T10:18:01Z</time>
      </trkpt>
      <trkpt lat="45.89164" lon="4.8247">
        <ele>172</ele>
        <time>2018-06-20T10:18:02Z</time>
      </trkpt>
      <trkpt lat="45.89158" lon="4.82474">
        <ele>172</ele>
        <time>2018-06-20T10:18:03Z</time>
      </trkpt>
      <trkpt lat="45.89154" lon="4.82478">
        <ele>172</ele>
        <time>2018-06-20T10:18:04Z</time>
      </trkpt>
      <trkpt lat="45.89149" lon="4.82481">
        <ele>172</ele>
        <time>2018-06-20T10:18:05Z</time>
      </trkpt>
      <trkpt lat="45.89144" lon="4.82485">
        <ele>172</ele>
        <time>2018-06-20T10:18:06Z</time>
      </trkpt>
      <trkpt lat="45.89138" lon="4.82489">
        <ele>172</ele>
        <time>2018-06-20T10:18:07Z</time>
      </trkpt>
      <trkpt lat="45.89134" lon="4.82494">
        <ele>172</ele>
        <time>2018-06-20T10:18:08Z</time>
      </trkpt>
      <trkpt lat="45.89129" lon="4.82499">
        <ele>172</ele>
        <time>2018-06-20T10:18:09Z</time>
      </trkpt>
      <trkpt lat="45.89124" lon="4.82503">
        <ele>173</ele>
        <time>2018-06-20T10:18:10Z</time>
      </trkpt>
      <trkpt lat="45.89119" lon="4.82508">
        <ele>173</ele>
        <time>2018-06-20T10:18:11Z</time>
      </trkpt>
      <trkpt lat="45.89114" lon="4.82511">
        <ele>173</ele>
        <time>2018-06-20T10:18:12Z</time>
      </trkpt>
      <trkpt lat="45.89107" lon="4.82511">
        <ele>173</ele>
        <time>2018-06-20T10:18:13Z</time>
      </trkpt>
      <trkpt lat="45.89102" lon="4.82511">
        <ele>173</ele>
        <time>2018-06-20T10:18:14Z</time>
      </trkpt>
      <trkpt lat="45.89094" lon="4.82509">
        <ele>173</ele>
        <time>2018-06-20T10:18:16Z</time>
      </trkpt>
      <trkpt lat="45.89089" lon="4.82511">
        <ele>173</ele>
        <time>2018-06-20T10:18:17Z</time>
      </trkpt>
      <trkpt lat="45.89081" lon="4.82517">
        <ele>173</ele>
        <time>2018-06-20T10:18:19Z</time>
      </trkpt>
      <trkpt lat="45.8908" lon="4.82518">
        <ele>173</ele>
        <time>2018-06-20T10:18:20Z</time>
      </trkpt>
      <trkpt lat="45.89076" lon="4.82521">
        <ele>173</ele>
        <time>2018-06-20T10:18:22Z</time>
      </trkpt>
      <trkpt lat="45.89068" lon="4.82527">
        <ele>173</ele>
        <time>2018-06-20T10:18:23Z</time>
      </trkpt>
      <trkpt lat="45.89062" lon="4.82535">
        <ele>173</ele>
        <time>2018-06-20T10:18:30Z</time>
      </trkpt>
      <trkpt lat="45.89062" lon="4.82538">
        <ele>173</ele>
        <time>2018-06-20T10:18:31Z</time>
      </trkpt>
      <trkpt lat="45.89062" lon="4.82543">
        <ele>174</ele>
        <time>2018-06-20T10:18:32Z</time>
      </trkpt>
      <trkpt lat="45.89061" lon="4.82554">
        <ele>174</ele>
        <time>2018-06-20T10:18:33Z</time>
      </trkpt>
      <trkpt lat="45.89057" lon="4.82565">
        <ele>174</ele>
        <time>2018-06-20T10:18:35Z</time>
      </trkpt>
      <trkpt lat="45.89055" lon="4.8257">
        <ele>174</ele>
        <time>2018-06-20T10:18:36Z</time>
      </trkpt>
      <trkpt lat="45.89049" lon="4.82579">
        <ele>174</ele>
        <time>2018-06-20T10:18:38Z</time>
      </trkpt>
      <trkpt lat="45.89046" lon="4.82584">
        <ele>174</ele>
        <time>2018-06-20T10:18:39Z</time>
      </trkpt>
      <trkpt lat="45.89043" lon="4.8259">
        <ele>174</ele>
        <time>2018-06-20T10:18:40Z</time>
      </trkpt>
      <trkpt lat="45.89039" lon="4.82596">
        <ele>174</ele>
        <time>2018-06-20T10:18:41Z</time>
      </trkpt>
      <trkpt lat="45.89034" lon="4.82607">
        <ele>174</ele>
        <time>2018-06-20T10:18:43Z</time>
      </trkpt>
      <trkpt lat="45.89032" lon="4.82611">
        <ele>174</ele>
        <time>2018-06-20T10:18:44Z</time>
      </trkpt>
      <trkpt lat="45.89028" lon="4.82617">
        <ele>174</ele>
        <time>2018-06-20T10:18:45Z</time>
      </trkpt>
      <trkpt lat="45.89026" lon="4.82623">
        <ele>174</ele>
        <time>2018-06-20T10:18:46Z</time>
      </trkpt>
      <trkpt lat="45.89023" lon="4.8263">
        <ele>174</ele>
        <time>2018-06-20T10:18:47Z</time>
      </trkpt>
      <trkpt lat="45.89021" lon="4.82636">
        <ele>174</ele>
        <time>2018-06-20T10:18:48Z</time>
      </trkpt>
      <trkpt lat="45.89018" lon="4.82643">
        <ele>174</ele>
        <time>2018-06-20T10:18:49Z</time>
      </trkpt>
      <trkpt lat="45.89014" lon="4.82652">
        <ele>173</ele>
        <time>2018-06-20T10:18:50Z</time>
      </trkpt>
      <trkpt lat="45.89011" lon="4.82658">
        <ele>173</ele>
        <time>2018-06-20T10:18:51Z</time>
      </trkpt>
      <trkpt lat="45.89008" lon="4.82664">
        <ele>173</ele>
        <time>2018-06-20T10:18:52Z</time>
      </trkpt>
      <trkpt lat="45.89002" lon="4.82673">
        <ele>173</ele>
        <time>2018-06-20T10:18:54Z</time>
      </trkpt>
      <trkpt lat="45.88999" lon="4.82679">
        <ele>173</ele>
        <time>2018-06-20T10:18:55Z</time>
      </trkpt>
      <trkpt lat="45.88997" lon="4.82686">
        <ele>173</ele>
        <time>2018-06-20T10:18:56Z</time>
      </trkpt>
      <trkpt lat="45.88993" lon="4.82692">
        <ele>173</ele>
        <time>2018-06-20T10:18:57Z</time>
      </trkpt>
      <trkpt lat="45.8899" lon="4.82698">
        <ele>173</ele>
        <time>2018-06-20T10:18:58Z</time>
      </trkpt>
      <trkpt lat="45.88987" lon="4.82705">
        <ele>173</ele>
        <time>2018-06-20T10:18:59Z</time>
      </trkpt>
      <trkpt lat="45.88983" lon="4.82712">
        <ele>173</ele>
        <time>2018-06-20T10:19:00Z</time>
      </trkpt>
      <trkpt lat="45.88979" lon="4.82717">
        <ele>173</ele>
        <time>2018-06-20T10:19:01Z</time>
      </trkpt>
      <trkpt lat="45.88978" lon="4.82719">
        <ele>173</ele>
        <time>2018-06-20T10:19:02Z</time>
      </trkpt>
      <trkpt lat="45.88972" lon="4.82728">
        <ele>173</ele>
        <time>2018-06-20T10:19:03Z</time>
      </trkpt>
      <trkpt lat="45.88968" lon="4.82735">
        <ele>172</ele>
        <time>2018-06-20T10:19:04Z</time>
      </trkpt>
      <trkpt lat="45.88964" lon="4.8274">
        <ele>172</ele>
        <time>2018-06-20T10:19:05Z</time>
      </trkpt>
      <trkpt lat="45.88959" lon="4.82748">
        <ele>172</ele>
        <time>2018-06-20T10:19:06Z</time>
      </trkpt>
      <trkpt lat="45.88954" lon="4.82754">
        <ele>172</ele>
        <time>2018-06-20T10:19:07Z</time>
      </trkpt>
      <trkpt lat="45.8895" lon="4.8276">
        <ele>172</ele>
        <time>2018-06-20T10:19:08Z</time>
      </trkpt>
      <trkpt lat="45.88946" lon="4.82766">
        <ele>172</ele>
        <time>2018-06-20T10:19:09Z</time>
      </trkpt>
      <trkpt lat="45.8894" lon="4.82772">
        <ele>172</ele>
        <time>2018-06-20T10:19:10Z</time>
      </trkpt>
      <trkpt lat="45.88936" lon="4.82777">
        <ele>172</ele>
        <time>2018-06-20T10:19:11Z</time>
      </trkpt>
      <trkpt lat="45.88931" lon="4.82783">
        <ele>172</ele>
        <time>2018-06-20T10:19:12Z</time>
      </trkpt>
      <trkpt lat="45.88926" lon="4.82789">
        <ele>172</ele>
        <time>2018-06-20T10:19:13Z</time>
      </trkpt>
      <trkpt lat="45.88921" lon="4.82796">
        <ele>172</ele>
        <time>2018-06-20T10:19:14Z</time>
      </trkpt>
      <trkpt lat="45.88916" lon="4.82802">
        <ele>171</ele>
        <time>2018-06-20T10:19:15Z</time>
      </trkpt>
      <trkpt lat="45.88911" lon="4.82809">
        <ele>172</ele>
        <time>2018-06-20T10:19:16Z</time>
      </trkpt>
      <trkpt lat="45.88905" lon="4.82816">
        <ele>172</ele>
        <time>2018-06-20T10:19:17Z</time>
      </trkpt>
      <trkpt lat="45.88902" lon="4.82822">
        <ele>172</ele>
        <time>2018-06-20T10:19:18Z</time>
      </trkpt>
      <trkpt lat="45.88897" lon="4.82829">
        <ele>172</ele>
        <time>2018-06-20T10:19:19Z</time>
      </trkpt>
      <trkpt lat="45.88891" lon="4.82834">
        <ele>172</ele>
        <time>2018-06-20T10:19:20Z</time>
      </trkpt>
      <trkpt lat="45.88887" lon="4.8284">
        <ele>172</ele>
        <time>2018-06-20T10:19:21Z</time>
      </trkpt>
      <trkpt lat="45.88883" lon="4.82844">
        <ele>172</ele>
        <time>2018-06-20T10:19:22Z</time>
      </trkpt>
      <trkpt lat="45.88878" lon="4.8285">
        <ele>172</ele>
        <time>2018-06-20T10:19:23Z</time>
      </trkpt>
      <trkpt lat="45.88873" lon="4.82856">
        <ele>172</ele>
        <time>2018-06-20T10:19:24Z</time>
      </trkpt>
      <trkpt lat="45.88869" lon="4.82863">
        <ele>172</ele>
        <time>2018-06-20T10:19:25Z</time>
      </trkpt>
      <trkpt lat="45.88865" lon="4.82867">
        <ele>172</ele>
        <time>2018-06-20T10:19:26Z</time>
      </trkpt>
      <trkpt lat="45.88861" lon="4.82873">
        <ele>172</ele>
        <time>2018-06-20T10:19:27Z</time>
      </trkpt>
      <trkpt lat="45.88856" lon="4.82879">
        <ele>172</ele>
        <time>2018-06-20T10:19:28Z</time>
      </trkpt>
      <trkpt lat="45.88852" lon="4.82885">
        <ele>172</ele>
        <time>2018-06-20T10:19:29Z</time>
      </trkpt>
      <trkpt lat="45.88847" lon="4.82891">
        <ele>172</ele>
        <time>2018-06-20T10:19:30Z</time>
      </trkpt>
      <trkpt lat="45.88842" lon="4.82897">
        <ele>172</ele>
        <time>2018-06-20T10:19:31Z</time>
      </trkpt>
      <trkpt lat="45.88838" lon="4.82901">
        <ele>172</ele>
        <time>2018-06-20T10:19:32Z</time>
      </trkpt>
      <trkpt lat="45.88833" lon="4.82907">
        <ele>172</ele>
        <time>2018-06-20T10:19:33Z</time>
      </trkpt>
      <trkpt lat="45.88831" lon="4.82912">
        <ele>172</ele>
        <time>2018-06-20T10:19:34Z</time>
      </trkpt>
      <trkpt lat="45.88825" lon="4.82916">
        <ele>172</ele>
        <time>2018-06-20T10:19:35Z</time>
      </trkpt>
      <trkpt lat="45.8882" lon="4.82922">
        <ele>172</ele>
        <time>2018-06-20T10:19:36Z</time>
      </trkpt>
      <trkpt lat="45.88816" lon="4.82928">
        <ele>172</ele>
        <time>2018-06-20T10:19:37Z</time>
      </trkpt>
      <trkpt lat="45.88811" lon="4.82934">
        <ele>172</ele>
        <time>2018-06-20T10:19:38Z</time>
      </trkpt>
      <trkpt lat="45.88806" lon="4.82939">
        <ele>172</ele>
        <time>2018-06-20T10:19:39Z</time>
      </trkpt>
      <trkpt lat="45.888" lon="4.82945">
        <ele>172</ele>
        <time>2018-06-20T10:19:40Z</time>
      </trkpt>
      <trkpt lat="45.88796" lon="4.8295">
        <ele>172</ele>
        <time>2018-06-20T10:19:41Z</time>
      </trkpt>
      <trkpt lat="45.88792" lon="4.82956">
        <ele>172</ele>
        <time>2018-06-20T10:19:42Z</time>
      </trkpt>
      <trkpt lat="45.88788" lon="4.82963">
        <ele>172</ele>
        <time>2018-06-20T10:19:43Z</time>
      </trkpt>
      <trkpt lat="45.88784" lon="4.82967">
        <ele>172</ele>
        <time>2018-06-20T10:19:44Z</time>
      </trkpt>
      <trkpt lat="45.88779" lon="4.82973">
        <ele>172</ele>
        <time>2018-06-20T10:19:45Z</time>
      </trkpt>
      <trkpt lat="45.88775" lon="4.82978">
        <ele>172</ele>
        <time>2018-06-20T10:19:46Z</time>
      </trkpt>
      <trkpt lat="45.88771" lon="4.82983">
        <ele>172</ele>
        <time>2018-06-20T10:19:47Z</time>
      </trkpt>
      <trkpt lat="45.88768" lon="4.82989">
        <ele>172</ele>
        <time>2018-06-20T10:19:48Z</time>
      </trkpt>
      <trkpt lat="45.88764" lon="4.82994">
        <ele>172</ele>
        <time>2018-06-20T10:19:49Z</time>
      </trkpt>
      <trkpt lat="45.88757" lon="4.83001">
        <ele>172</ele>
        <time>2018-06-20T10:19:51Z</time>
      </trkpt>
      <trkpt lat="45.88754" lon="4.83005">
        <ele>172</ele>
        <time>2018-06-20T10:19:52Z</time>
      </trkpt>
      <trkpt lat="45.8875" lon="4.83009">
        <ele>172</ele>
        <time>2018-06-20T10:19:53Z</time>
      </trkpt>
      <trkpt lat="45.88746" lon="4.83015">
        <ele>173</ele>
        <time>2018-06-20T10:19:54Z</time>
      </trkpt>
      <trkpt lat="45.88742" lon="4.83019">
        <ele>173</ele>
        <time>2018-06-20T10:19:55Z</time>
      </trkpt>
      <trkpt lat="45.88738" lon="4.83024">
        <ele>173</ele>
        <time>2018-06-20T10:19:56Z</time>
      </trkpt>
      <trkpt lat="45.88734" lon="4.8303">
        <ele>173</ele>
        <time>2018-06-20T10:19:57Z</time>
      </trkpt>
      <trkpt lat="45.88731" lon="4.83037">
        <ele>173</ele>
        <time>2018-06-20T10:19:58Z</time>
      </trkpt>
      <trkpt lat="45.88727" lon="4.83043">
        <ele>173</ele>
        <time>2018-06-20T10:19:59Z</time>
      </trkpt>
      <trkpt lat="45.88724" lon="4.83049">
        <ele>174</ele>
        <time>2018-06-20T10:20:00Z</time>
      </trkpt>
      <trkpt lat="45.88719" lon="4.83054">
        <ele>174</ele>
        <time>2018-06-20T10:20:01Z</time>
      </trkpt>
      <trkpt lat="45.88715" lon="4.83058">
        <ele>174</ele>
        <time>2018-06-20T10:20:02Z</time>
      </trkpt>
      <trkpt lat="45.88711" lon="4.83063">
        <ele>174</ele>
        <time>2018-06-20T10:20:03Z</time>
      </trkpt>
      <trkpt lat="45.88708" lon="4.83066">
        <ele>174</ele>
        <time>2018-06-20T10:20:04Z</time>
      </trkpt>
      <trkpt lat="45.88704" lon="4.8307">
        <ele>174</ele>
        <time>2018-06-20T10:20:05Z</time>
      </trkpt>
      <trkpt lat="45.88701" lon="4.83075">
        <ele>174</ele>
        <time>2018-06-20T10:20:06Z</time>
      </trkpt>
      <trkpt lat="45.88696" lon="4.83084">
        <ele>174</ele>
        <time>2018-06-20T10:20:08Z</time>
      </trkpt>
      <trkpt lat="45.88692" lon="4.83089">
        <ele>174</ele>
        <time>2018-06-20T10:20:09Z</time>
      </trkpt>
      <trkpt lat="45.88686" lon="4.83094">
        <ele>174</ele>
        <time>2018-06-20T10:20:10Z</time>
      </trkpt>
      <trkpt lat="45.88682" lon="4.83099">
        <ele>174</ele>
        <time>2018-06-20T10:20:11Z</time>
      </trkpt>
      <trkpt lat="45.88679" lon="4.83103">
        <ele>174</ele>
        <time>2018-06-20T10:20:12Z</time>
      </trkpt>
      <trkpt lat="45.88674" lon="4.83107">
        <ele>174</ele>
        <time>2018-06-20T10:20:13Z</time>
      </trkpt>
      <trkpt lat="45.88669" lon="4.83112">
        <ele>174</ele>
        <time>2018-06-20T10:20:14Z</time>
      </trkpt>
      <trkpt lat="45.88666" lon="4.83116">
        <ele>173</ele>
        <time>2018-06-20T10:20:15Z</time>
      </trkpt>
      <trkpt lat="45.88662" lon="4.83122">
        <ele>173</ele>
        <time>2018-06-20T10:20:16Z</time>
      </trkpt>
      <trkpt lat="45.88658" lon="4.83127">
        <ele>173</ele>
        <time>2018-06-20T10:20:17Z</time>
      </trkpt>
      <trkpt lat="45.88654" lon="4.83132">
        <ele>173</ele>
        <time>2018-06-20T10:20:18Z</time>
      </trkpt>
      <trkpt lat="45.88651" lon="4.83139">
        <ele>173</ele>
        <time>2018-06-20T10:20:19Z</time>
      </trkpt>
      <trkpt lat="45.88646" lon="4.83144">
        <ele>173</ele>
        <time>2018-06-20T10:20:20Z</time>
      </trkpt>
      <trkpt lat="45.88642" lon="4.83148">
        <ele>173</ele>
        <time>2018-06-20T10:20:21Z</time>
      </trkpt>
      <trkpt lat="45.88638" lon="4.83154">
        <ele>173</ele>
        <time>2018-06-20T10:20:22Z</time>
      </trkpt>
      <trkpt lat="45.88632" lon="4.83159">
        <ele>173</ele>
        <time>2018-06-20T10:20:23Z</time>
      </trkpt>
      <trkpt lat="45.88628" lon="4.83162">
        <ele>172</ele>
        <time>2018-06-20T10:20:24Z</time>
      </trkpt>
      <trkpt lat="45.88623" lon="4.83167">
        <ele>172</ele>
        <time>2018-06-20T10:20:25Z</time>
      </trkpt>
      <trkpt lat="45.88619" lon="4.83171">
        <ele>172</ele>
        <time>2018-06-20T10:20:26Z</time>
      </trkpt>
      <trkpt lat="45.88615" lon="4.83175">
        <ele>172</ele>
        <time>2018-06-20T10:20:27Z</time>
      </trkpt>
      <trkpt lat="45.8861" lon="4.83178">
        <ele>172</ele>
        <time>2018-06-20T10:20:28Z</time>
      </trkpt>
      <trkpt lat="45.88606" lon="4.83183">
        <ele>172</ele>
        <time>2018-06-20T10:20:29Z</time>
      </trkpt>
      <trkpt lat="45.88602" lon="4.83188">
        <ele>172</ele>
        <time>2018-06-20T10:20:30Z</time>
      </trkpt>
      <trkpt lat="45.88597" lon="4.83192">
        <ele>172</ele>
        <time>2018-06-20T10:20:31Z</time>
      </trkpt>
      <trkpt lat="45.88593" lon="4.83197">
        <ele>172</ele>
        <time>2018-06-20T10:20:32Z</time>
      </trkpt>
      <trkpt lat="45.88589" lon="4.83204">
        <ele>172</ele>
        <time>2018-06-20T10:20:33Z</time>
      </trkpt>
      <trkpt lat="45.88585" lon="4.83209">
        <ele>172</ele>
        <time>2018-06-20T10:20:34Z</time>
      </trkpt>
      <trkpt lat="45.88581" lon="4.83211">
        <ele>172</ele>
        <time>2018-06-20T10:20:35Z</time>
      </trkpt>
      <trkpt lat="45.88576" lon="4.83217">
        <ele>172</ele>
        <time>2018-06-20T10:20:36Z</time>
      </trkpt>
      <trkpt lat="45.88573" lon="4.83221">
        <ele>172</ele>
        <time>2018-06-20T10:20:37Z</time>
      </trkpt>
      <trkpt lat="45.88567" lon="4.83227">
        <ele>172</ele>
        <time>2018-06-20T10:20:38Z</time>
      </trkpt>
      <trkpt lat="45.88563" lon="4.83233">
        <ele>172</ele>
        <time>2018-06-20T10:20:39Z</time>
      </trkpt>
      <trkpt lat="45.88557" lon="4.83239">
        <ele>172</ele>
        <time>2018-06-20T10:20:40Z</time>
      </trkpt>
      <trkpt lat="45.88553" lon="4.83244">
        <ele>172</ele>
        <time>2018-06-20T10:20:41Z</time>
      </trkpt>
      <trkpt lat="45.88549" lon="4.83251">
        <ele>172</ele>
        <time>2018-06-20T10:20:42Z</time>
      </trkpt>
      <trkpt lat="45.88545" lon="4.83256">
        <ele>172</ele>
        <time>2018-06-20T10:20:43Z</time>
      </trkpt>
      <trkpt lat="45.88538" lon="4.83262">
        <ele>172</ele>
        <time>2018-06-20T10:20:45Z</time>
      </trkpt>
      <trkpt lat="45.88535" lon="4.83266">
        <ele>172</ele>
        <time>2018-06-20T10:20:46Z</time>
      </trkpt>
      <trkpt lat="45.88529" lon="4.83271">
        <ele>172</ele>
        <time>2018-06-20T10:20:47Z</time>
      </trkpt>
      <trkpt lat="45.88523" lon="4.83276">
        <ele>172</ele>
        <time>2018-06-20T10:20:48Z</time>
      </trkpt>
      <trkpt lat="45.88518" lon="4.83278">
        <ele>172</ele>
        <time>2018-06-20T10:20:49Z</time>
      </trkpt>
      <trkpt lat="45.88515" lon="4.83281">
        <ele>172</ele>
        <time>2018-06-20T10:20:50Z</time>
      </trkpt>
      <trkpt lat="45.88509" lon="4.83284">
        <ele>172</ele>
        <time>2018-06-20T10:20:51Z</time>
      </trkpt>
      <trkpt lat="45.88505" lon="4.83284">
        <ele>172</ele>
        <time>2018-06-20T10:20:52Z</time>
      </trkpt>
      <trkpt lat="45.88499" lon="4.83288">
        <ele>172</ele>
        <time>2018-06-20T10:20:53Z</time>
      </trkpt>
      <trkpt lat="45.88496" lon="4.83291">
        <ele>172</ele>
        <time>2018-06-20T10:20:54Z</time>
      </trkpt>
      <trkpt lat="45.88492" lon="4.83295">
        <ele>172</ele>
        <time>2018-06-20T10:20:55Z</time>
      </trkpt>
      <trkpt lat="45.88487" lon="4.83297">
        <ele>172</ele>
        <time>2018-06-20T10:20:56Z</time>
      </trkpt>
      <trkpt lat="45.88482" lon="4.83299">
        <ele>172</ele>
        <time>2018-06-20T10:20:57Z</time>
      </trkpt>
      <trkpt lat="45.88476" lon="4.83302">
        <ele>172</ele>
        <time>2018-06-20T10:20:58Z</time>
      </trkpt>
      <trkpt lat="45.8847" lon="4.83304">
        <ele>172</ele>
        <time>2018-06-20T10:20:59Z</time>
      </trkpt>
      <trkpt lat="45.88465" lon="4.83307">
        <ele>172</ele>
        <time>2018-06-20T10:21:00Z</time>
      </trkpt>
      <trkpt lat="45.8846" lon="4.8331">
        <ele>172</ele>
        <time>2018-06-20T10:21:01Z</time>
      </trkpt>
      <trkpt lat="45.88454" lon="4.83314">
        <ele>172</ele>
        <time>2018-06-20T10:21:02Z</time>
      </trkpt>
      <trkpt lat="45.88448" lon="4.83318">
        <ele>172</ele>
        <time>2018-06-20T10:21:03Z</time>
      </trkpt>
      <trkpt lat="45.88445" lon="4.8332">
        <ele>172</ele>
        <time>2018-06-20T10:21:04Z</time>
      </trkpt>
      <trkpt lat="45.88443" lon="4.83321">
        <ele>172</ele>
        <time>2018-06-20T10:21:05Z</time>
      </trkpt>
      <trkpt lat="45.88435" lon="4.83325">
        <ele>172</ele>
        <time>2018-06-20T10:21:06Z</time>
      </trkpt>
      <trkpt lat="45.88431" lon="4.83326">
        <ele>172</ele>
        <time>2018-06-20T10:21:07Z</time>
      </trkpt>
      <trkpt lat="45.88426" lon="4.83327">
        <ele>172</ele>
        <time>2018-06-20T10:21:08Z</time>
      </trkpt>
      <trkpt lat="45.8842" lon="4.83331">
        <ele>172</ele>
        <time>2018-06-20T10:21:10Z</time>
      </trkpt>
      <trkpt lat="45.88416" lon="4.83335">
        <ele>172</ele>
        <time>2018-06-20T10:21:11Z</time>
      </trkpt>
      <trkpt lat="45.8841" lon="4.83338">
        <ele>172</ele>
        <time>2018-06-20T10:21:12Z</time>
      </trkpt>
      <trkpt lat="45.88405" lon="4.8334">
        <ele>172</ele>
        <time>2018-06-20T10:21:13Z</time>
      </trkpt>
      <trkpt lat="45.88399" lon="4.83342">
        <ele>172</ele>
        <time>2018-06-20T10:21:14Z</time>
      </trkpt>
      <trkpt lat="45.88395" lon="4.83343">
        <ele>172</ele>
        <time>2018-06-20T10:21:15Z</time>
      </trkpt>
      <trkpt lat="45.88389" lon="4.83343">
        <ele>172</ele>
        <time>2018-06-20T10:21:16Z</time>
      </trkpt>
      <trkpt lat="45.88383" lon="4.83346">
        <ele>172</ele>
        <time>2018-06-20T10:21:17Z</time>
      </trkpt>
      <trkpt lat="45.88379" lon="4.83348">
        <ele>172</ele>
        <time>2018-06-20T10:21:18Z</time>
      </trkpt>
      <trkpt lat="45.88374" lon="4.83352">
        <ele>172</ele>
        <time>2018-06-20T10:21:19Z</time>
      </trkpt>
      <trkpt lat="45.88369" lon="4.83353">
        <ele>172</ele>
        <time>2018-06-20T10:21:20Z</time>
      </trkpt>
      <trkpt lat="45.88365" lon="4.83356">
        <ele>172</ele>
        <time>2018-06-20T10:21:21Z</time>
      </trkpt>
      <trkpt lat="45.88358" lon="4.8336">
        <ele>172</ele>
        <time>2018-06-20T10:21:22Z</time>
      </trkpt>
      <trkpt lat="45.88355" lon="4.83363">
        <ele>172</ele>
        <time>2018-06-20T10:21:23Z</time>
      </trkpt>
      <trkpt lat="45.8835" lon="4.83365">
        <ele>172</ele>
        <time>2018-06-20T10:21:24Z</time>
      </trkpt>
      <trkpt lat="45.88346" lon="4.83367">
        <ele>172</ele>
        <time>2018-06-20T10:21:25Z</time>
      </trkpt>
      <trkpt lat="45.88341" lon="4.83369">
        <ele>172</ele>
        <time>2018-06-20T10:21:26Z</time>
      </trkpt>
      <trkpt lat="45.88336" lon="4.83372">
        <ele>172</ele>
        <time>2018-06-20T10:21:27Z</time>
      </trkpt>
      <trkpt lat="45.88329" lon="4.83375">
        <ele>172</ele>
        <time>2018-06-20T10:21:28Z</time>
      </trkpt>
      <trkpt lat="45.88326" lon="4.83376">
        <ele>172</ele>
        <time>2018-06-20T10:21:29Z</time>
      </trkpt>
      <trkpt lat="45.88321" lon="4.83377">
        <ele>172</ele>
        <time>2018-06-20T10:21:30Z</time>
      </trkpt>
      <trkpt lat="45.88315" lon="4.8338">
        <ele>172</ele>
        <time>2018-06-20T10:21:31Z</time>
      </trkpt>
      <trkpt lat="45.88309" lon="4.83382">
        <ele>172</ele>
        <time>2018-06-20T10:21:32Z</time>
      </trkpt>
      <trkpt lat="45.88304" lon="4.83385">
        <ele>172</ele>
        <time>2018-06-20T10:21:33Z</time>
      </trkpt>
      <trkpt lat="45.88299" lon="4.83386">
        <ele>172</ele>
        <time>2018-06-20T10:21:34Z</time>
      </trkpt>
      <trkpt lat="45.88294" lon="4.83388">
        <ele>172</ele>
        <time>2018-06-20T10:21:35Z</time>
      </trkpt>
      <trkpt lat="45.88288" lon="4.83391">
        <ele>172</ele>
        <time>2018-06-20T10:21:36Z</time>
      </trkpt>
      <trkpt lat="45.88282" lon="4.83393">
        <ele>172</ele>
        <time>2018-06-20T10:21:37Z</time>
      </trkpt>
      <trkpt lat="45.88276" lon="4.83394">
        <ele>172</ele>
        <time>2018-06-20T10:21:38Z</time>
      </trkpt>
      <trkpt lat="45.88272" lon="4.83396">
        <ele>172</ele>
        <time>2018-06-20T10:21:39Z</time>
      </trkpt>
      <trkpt lat="45.88264" lon="4.83398">
        <ele>172</ele>
        <time>2018-06-20T10:21:41Z</time>
      </trkpt>
      <trkpt lat="45.8826" lon="4.834">
        <ele>172</ele>
        <time>2018-06-20T10:21:42Z</time>
      </trkpt>
      <trkpt lat="45.88251" lon="4.83402">
        <ele>172</ele>
        <time>2018-06-20T10:21:44Z</time>
      </trkpt>
      <trkpt lat="45.88247" lon="4.83404">
        <ele>172</ele>
        <time>2018-06-20T10:21:45Z</time>
      </trkpt>
      <trkpt lat="45.88241" lon="4.83406">
        <ele>172</ele>
        <time>2018-06-20T10:21:46Z</time>
      </trkpt>
      <trkpt lat="45.88235" lon="4.83408">
        <ele>171</ele>
        <time>2018-06-20T10:21:47Z</time>
      </trkpt>
      <trkpt lat="45.88228" lon="4.83411">
        <ele>171</ele>
        <time>2018-06-20T10:21:49Z</time>
      </trkpt>
      <trkpt lat="45.88224" lon="4.83413">
        <ele>171</ele>
        <time>2018-06-20T10:21:50Z</time>
      </trkpt>
      <trkpt lat="45.8822" lon="4.83415">
        <ele>171</ele>
        <time>2018-06-20T10:21:51Z</time>
      </trkpt>
      <trkpt lat="45.88214" lon="4.83417">
        <ele>172</ele>
        <time>2018-06-20T10:21:52Z</time>
      </trkpt>
      <trkpt lat="45.88206" lon="4.83419">
        <ele>171</ele>
        <time>2018-06-20T10:21:54Z</time>
      </trkpt>
      <trkpt lat="45.882" lon="4.83421">
        <ele>171</ele>
        <time>2018-06-20T10:21:55Z</time>
      </trkpt>
      <trkpt lat="45.88192" lon="4.83424">
        <ele>171</ele>
        <time>2018-06-20T10:21:57Z</time>
      </trkpt>
      <trkpt lat="45.88188" lon="4.83427">
        <ele>171</ele>
        <time>2018-06-20T10:21:58Z</time>
      </trkpt>
      <trkpt lat="45.88179" lon="4.83432">
        <ele>171</ele>
        <time>2018-06-20T10:22:00Z</time>
      </trkpt>
      <trkpt lat="45.88174" lon="4.83434">
        <ele>171</ele>
        <time>2018-06-20T10:22:01Z</time>
      </trkpt>
      <trkpt lat="45.88167" lon="4.83439">
        <ele>171</ele>
        <time>2018-06-20T10:22:02Z</time>
      </trkpt>
      <trkpt lat="45.88164" lon="4.83442">
        <ele>171</ele>
        <time>2018-06-20T10:22:03Z</time>
      </trkpt>
      <trkpt lat="45.88159" lon="4.83444">
        <ele>171</ele>
        <time>2018-06-20T10:22:04Z</time>
      </trkpt>
      <trkpt lat="45.88155" lon="4.83448">
        <ele>171</ele>
        <time>2018-06-20T10:22:05Z</time>
      </trkpt>
      <trkpt lat="45.8815" lon="4.83451">
        <ele>171</ele>
        <time>2018-06-20T10:22:06Z</time>
      </trkpt>
      <trkpt lat="45.88145" lon="4.83455">
        <ele>171</ele>
        <time>2018-06-20T10:22:07Z</time>
      </trkpt>
      <trkpt lat="45.8814" lon="4.83458">
        <ele>171</ele>
        <time>2018-06-20T10:22:08Z</time>
      </trkpt>
      <trkpt lat="45.88135" lon="4.83462">
        <ele>171</ele>
        <time>2018-06-20T10:22:09Z</time>
      </trkpt>
      <trkpt lat="45.88128" lon="4.83468">
        <ele>172</ele>
        <time>2018-06-20T10:22:11Z</time>
      </trkpt>
      <trkpt lat="45.88127" lon="4.83468">
        <ele>172</ele>
        <time>2018-06-20T10:22:12Z</time>
      </trkpt>
      <trkpt lat="45.8812" lon="4.83471">
        <ele>172</ele>
        <time>2018-06-20T10:22:14Z</time>
      </trkpt>
      <trkpt lat="45.88115" lon="4.83476">
        <ele>172</ele>
        <time>2018-06-20T10:22:15Z</time>
      </trkpt>
      <trkpt lat="45.88111" lon="4.83477">
        <ele>172</ele>
        <time>2018-06-20T10:22:17Z</time>
      </trkpt>
      <trkpt lat="45.88104" lon="4.83478">
        <ele>172</ele>
        <time>2018-06-20T10:22:18Z</time>
      </trkpt>
      <trkpt lat="45.88099" lon="4.83475">
        <ele>172</ele>
        <time>2018-06-20T10:22:21Z</time>
      </trkpt>
      <trkpt lat="45.88092" lon="4.83471">
        <ele>172</ele>
        <time>2018-06-20T10:22:22Z</time>
      </trkpt>
      <trkpt lat="45.88084" lon="4.83466">
        <ele>172</ele>
        <time>2018-06-20T10:22:24Z</time>
      </trkpt>
      <trkpt lat="45.88081" lon="4.83463">
        <ele>172</ele>
        <time>2018-06-20T10:22:25Z</time>
      </trkpt>
      <trkpt lat="45.88073" lon="4.83457">
        <ele>172</ele>
        <time>2018-06-20T10:22:27Z</time>
      </trkpt>
      <trkpt lat="45.8807" lon="4.83455">
        <ele>172</ele>
        <time>2018-06-20T10:22:28Z</time>
      </trkpt>
      <trkpt lat="45.88066" lon="4.83453">
        <ele>172</ele>
        <time>2018-06-20T10:22:29Z</time>
      </trkpt>
      <trkpt lat="45.88061" lon="4.83448">
        <ele>172</ele>
        <time>2018-06-20T10:22:30Z</time>
      </trkpt>
      <trkpt lat="45.88056" lon="4.83445">
        <ele>172</ele>
        <time>2018-06-20T10:22:31Z</time>
      </trkpt>
      <trkpt lat="45.88052" lon="4.83442">
        <ele>172</ele>
        <time>2018-06-20T10:22:32Z</time>
      </trkpt>
      <trkpt lat="45.88047" lon="4.83439">
        <ele>172</ele>
        <time>2018-06-20T10:22:33Z</time>
      </trkpt>
      <trkpt lat="45.88042" lon="4.83436">
        <ele>172</ele>
        <time>2018-06-20T10:22:34Z</time>
      </trkpt>
      <trkpt lat="45.88038" lon="4.8343">
        <ele>172</ele>
        <time>2018-06-20T10:22:36Z</time>
      </trkpt>
      <trkpt lat="45.88034" lon="4.83427">
        <ele>172</ele>
        <time>2018-06-20T10:22:37Z</time>
      </trkpt>
      <trkpt lat="45.88028" lon="4.83422">
        <ele>172</ele>
        <time>2018-06-20T10:22:39Z</time>
      </trkpt>
      <trkpt lat="45.88025" lon="4.83418">
        <ele>172</ele>
        <time>2018-06-20T10:22:40Z</time>
      </trkpt>
      <trkpt lat="45.88016" lon="4.83414">
        <ele>171</ele>
        <time>2018-06-20T10:22:44Z</time>
      </trkpt>
      <trkpt lat="45.88014" lon="4.83412">
        <ele>171</ele>
        <time>2018-06-20T10:22:45Z</time>
      </trkpt>
      <trkpt lat="45.88006" lon="4.8341">
        <ele>171</ele>
        <time>2018-06-20T10:22:48Z</time>
      </trkpt>
      <trkpt lat="45.87997" lon="4.83413">
        <ele>170</ele>
        <time>2018-06-20T10:22:49Z</time>
      </trkpt>
      <trkpt lat="45.87993" lon="4.83424">
        <ele>170</ele>
        <time>2018-06-20T10:22:51Z</time>
      </trkpt>
      <trkpt lat="45.87992" lon="4.83427">
        <ele>170</ele>
        <time>2018-06-20T10:22:52Z</time>
      </trkpt>
      <trkpt lat="45.87991" lon="4.8344">
        <ele>170</ele>
        <time>2018-06-20T10:22:53Z</time>
      </trkpt>
      <trkpt lat="45.87988" lon="4.83451">
        <ele>170</ele>
        <time>2018-06-20T10:22:55Z</time>
      </trkpt>
      <trkpt lat="45.87987" lon="4.83458">
        <ele>170</ele>
        <time>2018-06-20T10:22:56Z</time>
      </trkpt>
      <trkpt lat="45.87986" lon="4.83464">
        <ele>170</ele>
        <time>2018-06-20T10:22:57Z</time>
      </trkpt>
      <trkpt lat="45.87985" lon="4.83471">
        <ele>170</ele>
        <time>2018-06-20T10:22:58Z</time>
      </trkpt>
      <trkpt lat="45.87983" lon="4.83477">
        <ele>170</ele>
        <time>2018-06-20T10:22:59Z</time>
      </trkpt>
      <trkpt lat="45.8798" lon="4.83483">
        <ele>170</ele>
        <time>2018-06-20T10:23:00Z</time>
      </trkpt>
      <trkpt lat="45.87979" lon="4.83489">
        <ele>170</ele>
        <time>2018-06-20T10:23:01Z</time>
      </trkpt>
      <trkpt lat="45.87978" lon="4.83496">
        <ele>170</ele>
        <time>2018-06-20T10:23:02Z</time>
      </trkpt>
      <trkpt lat="45.87975" lon="4.83503">
        <ele>171</ele>
        <time>2018-06-20T10:23:03Z</time>
      </trkpt>
      <trkpt lat="45.87975" lon="4.8351">
        <ele>171</ele>
        <time>2018-06-20T10:23:04Z</time>
      </trkpt>
      <trkpt lat="45.87971" lon="4.8352">
        <ele>170</ele>
        <time>2018-06-20T10:23:06Z</time>
      </trkpt>
      <trkpt lat="45.8797" lon="4.83525">
        <ele>170</ele>
        <time>2018-06-20T10:23:07Z</time>
      </trkpt>
      <trkpt lat="45.87968" lon="4.83537">
        <ele>170</ele>
        <time>2018-06-20T10:23:09Z</time>
      </trkpt>
      <trkpt lat="45.87967" lon="4.83542">
        <ele>170</ele>
        <time>2018-06-20T10:23:10Z</time>
      </trkpt>
      <trkpt lat="45.87964" lon="4.83554">
        <ele>170</ele>
        <time>2018-06-20T10:23:12Z</time>
      </trkpt>
      <trkpt lat="45.87963" lon="4.83561">
        <ele>170</ele>
        <time>2018-06-20T10:23:13Z</time>
      </trkpt>
      <trkpt lat="45.87959" lon="4.83571">
        <ele>170</ele>
        <time>2018-06-20T10:23:15Z</time>
      </trkpt>
      <trkpt lat="45.87956" lon="4.83575">
        <ele>170</ele>
        <time>2018-06-20T10:23:16Z</time>
      </trkpt>
      <trkpt lat="45.87952" lon="4.83585">
        <ele>171</ele>
        <time>2018-06-20T10:23:18Z</time>
      </trkpt>
      <trkpt lat="45.87951" lon="4.83591">
        <ele>171</ele>
        <time>2018-06-20T10:23:19Z</time>
      </trkpt>
      <trkpt lat="45.87948" lon="4.83601">
        <ele>171</ele>
        <time>2018-06-20T10:23:21Z</time>
      </trkpt>
      <trkpt lat="45.87946" lon="4.83605">
        <ele>171</ele>
        <time>2018-06-20T10:23:22Z</time>
      </trkpt>
      <trkpt lat="45.87944" lon="4.83618">
        <ele>171</ele>
        <time>2018-06-20T10:23:24Z</time>
      </trkpt>
      <trkpt lat="45.87943" lon="4.83619">
        <ele>171</ele>
        <time>2018-06-20T10:23:25Z</time>
      </trkpt>
      <trkpt lat="45.87942" lon="4.83622">
        <ele>171</ele>
        <time>2018-06-20T10:23:26Z</time>
      </trkpt>
      <trkpt lat="45.87938" lon="4.8363">
        <ele>171</ele>
        <time>2018-06-20T10:23:27Z</time>
      </trkpt>
      <trkpt lat="45.87935" lon="4.8364">
        <ele>171</ele>
        <time>2018-06-20T10:23:30Z</time>
      </trkpt>
      <trkpt lat="45.8793" lon="4.8365">
        <ele>171</ele>
        <time>2018-06-20T10:23:31Z</time>
      </trkpt>
      <trkpt lat="45.87924" lon="4.83659">
        <ele>171</ele>
        <time>2018-06-20T10:23:33Z</time>
      </trkpt>
      <trkpt lat="45.87921" lon="4.83663">
        <ele>171</ele>
        <time>2018-06-20T10:23:34Z</time>
      </trkpt>
      <trkpt lat="45.8792" lon="4.8367">
        <ele>171</ele>
        <time>2018-06-20T10:23:35Z</time>
      </trkpt>
      <trkpt lat="45.87918" lon="4.83675">
        <ele>171</ele>
        <time>2018-06-20T10:23:36Z</time>
      </trkpt>
      <trkpt lat="45.87914" lon="4.83683">
        <ele>170</ele>
        <time>2018-06-20T10:23:37Z</time>
      </trkpt>
      <trkpt lat="45.87909" lon="4.83688">
        <ele>170</ele>
        <time>2018-06-20T10:23:38Z</time>
      </trkpt>
      <trkpt lat="45.87905" lon="4.83694">
        <ele>170</ele>
        <time>2018-06-20T10:23:39Z</time>
      </trkpt>
      <trkpt lat="45.87899" lon="4.83701">
        <ele>169</ele>
        <time>2018-06-20T10:23:40Z</time>
      </trkpt>
      <trkpt lat="45.87892" lon="4.83701">
        <ele>169</ele>
        <time>2018-06-20T10:23:41Z</time>
      </trkpt>
      <trkpt lat="45.87888" lon="4.83708">
        <ele>169</ele>
        <time>2018-06-20T10:23:42Z</time>
      </trkpt>
      <trkpt lat="45.87885" lon="4.83712">
        <ele>169</ele>
        <time>2018-06-20T10:23:43Z</time>
      </trkpt>
      <trkpt lat="45.8788" lon="4.83717">
        <ele>169</ele>
        <time>2018-06-20T10:23:44Z</time>
      </trkpt>
      <trkpt lat="45.87875" lon="4.83723">
        <ele>169</ele>
        <time>2018-06-20T10:23:45Z</time>
      </trkpt>
      <trkpt lat="45.87869" lon="4.83726">
        <ele>168</ele>
        <time>2018-06-20T10:23:46Z</time>
      </trkpt>
      <trkpt lat="45.87863" lon="4.8373">
        <ele>168</ele>
        <time>2018-06-20T10:23:47Z</time>
      </trkpt>
      <trkpt lat="45.8786" lon="4.83733">
        <ele>168</ele>
        <time>2018-06-20T10:23:48Z</time>
      </trkpt>
      <trkpt lat="45.87854" lon="4.83737">
        <ele>167</ele>
        <time>2018-06-20T10:23:49Z</time>
      </trkpt>
      <trkpt lat="45.8785" lon="4.83741">
        <ele>167</ele>
        <time>2018-06-20T10:23:50Z</time>
      </trkpt>
      <trkpt lat="45.87847" lon="4.83746">
        <ele>167</ele>
        <time>2018-06-20T10:23:51Z</time>
      </trkpt>
      <trkpt lat="45.87843" lon="4.83751">
        <ele>167</ele>
        <time>2018-06-20T10:23:52Z</time>
      </trkpt>
      <trkpt lat="45.87836" lon="4.83757">
        <ele>167</ele>
        <time>2018-06-20T10:23:54Z</time>
      </trkpt>
      <trkpt lat="45.87833" lon="4.8376">
        <ele>166</ele>
        <time>2018-06-20T10:23:55Z</time>
      </trkpt>
      <trkpt lat="45.87826" lon="4.83767">
        <ele>167</ele>
        <time>2018-06-20T10:23:58Z</time>
      </trkpt>
      <trkpt lat="45.87825" lon="4.83769">
        <ele>167</ele>
        <time>2018-06-20T10:23:59Z</time>
      </trkpt>
      <trkpt lat="45.87821" lon="4.83772">
        <ele>167</ele>
        <time>2018-06-20T10:24:11Z</time>
      </trkpt>
      <trkpt lat="45.87821" lon="4.83771">
        <ele>167</ele>
        <time>2018-06-20T10:24:12Z</time>
      </trkpt>
      <trkpt lat="45.87821" lon="4.8377">
        <ele>167</ele>
        <time>2018-06-20T10:24:13Z</time>
      </trkpt>
      <trkpt lat="45.8782" lon="4.83758">
        <ele>167</ele>
        <time>2018-06-20T10:24:30Z</time>
      </trkpt>
      <trkpt lat="45.8782" lon="4.83757">
        <ele>167</ele>
        <time>2018-06-20T10:24:31Z</time>
      </trkpt>
      <trkpt lat="45.87821" lon="4.83754">
        <ele>166</ele>
        <time>2018-06-20T10:24:47Z</time>
      </trkpt>
      <trkpt lat="45.87821" lon="4.83754">
        <ele>166</ele>
        <time>2018-06-20T10:24:48Z</time>
      </trkpt>
      <trkpt lat="45.87822" lon="4.83755">
        <ele>166</ele>
        <time>2018-06-20T10:24:54Z</time>
      </trkpt>
      <trkpt lat="45.87822" lon="4.83755">
        <ele>166</ele>
        <time>2018-06-20T10:24:55Z</time>
      </trkpt>
      <trkpt lat="45.87825" lon="4.83755">
        <ele>166</ele>
        <time>2018-06-20T10:24:58Z</time>
      </trkpt>
      <trkpt lat="45.87825" lon="4.83755">
        <ele>166</ele>
        <time>2018-06-20T10:24:59Z</time>
      </trkpt>
      <trkpt lat="45.87828" lon="4.83756">
        <ele>166</ele>
        <time>2018-06-20T10:25:05Z</time>
      </trkpt>
      <trkpt lat="45.87828" lon="4.83756">
        <ele>166</ele>
        <time>2018-06-20T10:25:06Z</time>
      </trkpt>
      <trkpt lat="45.87823" lon="4.83754">
        <ele>166</ele>
        <time>2018-06-20T10:25:53Z</time>
      </trkpt>
      <trkpt lat="45.87823" lon="4.83754">
        <ele>166</ele>
        <time>2018-06-20T10:25:54Z</time>
      </trkpt>
      <trkpt lat="45.87822" lon="4.83752">
        <ele>166</ele>
        <time>2018-06-20T10:31:08Z</time>
      </trkpt>
      <trkpt lat="45.87822" lon="4.83752">
        <ele>166</ele>
        <time>2018-06-20T10:31:09Z</time>
      </trkpt>
      <trkpt lat="45.87823" lon="4.83752">
        <ele>166</ele>
        <time>2018-06-20T10:33:38Z</time>
      </trkpt>
      <trkpt lat="45.87823" lon="4.83752">
        <ele>166</ele>
        <time>2018-06-20T10:33:39Z</time>
      </trkpt>
      <trkpt lat="45.87823" lon="4.83752">
        <ele>166</ele>
        <time>2018-06-20T10:33:40Z</time>
      </trkpt>
      <trkpt lat="45.87831" lon="4.83746">
        <ele>165</ele>
        <time>2018-06-20T10:34:00Z</time>
      </trkpt>
      <trkpt lat="45.87832" lon="4.83746">
        <ele>165</ele>
        <time>2018-06-20T10:34:01Z</time>
      </trkpt>
      <trkpt lat="45.87824" lon="4.83753">
        <ele>166</ele>
        <time>2018-06-20T10:34:52Z</time>
      </trkpt>
      <trkpt lat="45.87824" lon="4.83753">
        <ele>166</ele>
        <time>2018-06-20T10:34:53Z</time>
      </trkpt>
      <trkpt lat="45.87823" lon="4.83756">
        <ele>166</ele>
        <time>2018-06-20T10:35:21Z</time>
      </trkpt>
      <trkpt lat="45.87823" lon="4.83756">
        <ele>166</ele>
        <time>2018-06-20T10:35:22Z</time>
      </trkpt>
      <trkpt lat="45.87823" lon="4.83756">
        <ele>166</ele>
        <time>2018-06-20T10:35:23Z</time>
      </trkpt>
      <trkpt lat="45.87821" lon="4.83768">
        <ele>167</ele>
        <time>2018-06-20T10:35:48Z</time>
      </trkpt>
      <trkpt lat="45.87819" lon="4.8377">
        <ele>167</ele>
        <time>2018-06-20T10:35:49Z</time>
      </trkpt>
      <trkpt lat="45.87814" lon="4.83775">
        <ele>168</ele>
        <time>2018-06-20T10:35:52Z</time>
      </trkpt>
      <trkpt lat="45.87811" lon="4.83777">
        <ele>168</ele>
        <time>2018-06-20T10:35:53Z</time>
      </trkpt>
      <trkpt lat="45.87804" lon="4.83784">
        <ele>168</ele>
        <time>2018-06-20T10:35:56Z</time>
      </trkpt>
      <trkpt lat="45.87802" lon="4.83787">
        <ele>168</ele>
        <time>2018-06-20T10:35:57Z</time>
      </trkpt>
      <trkpt lat="45.87797" lon="4.83792">
        <ele>169</ele>
        <time>2018-06-20T10:35:59Z</time>
      </trkpt>
      <trkpt lat="45.8779" lon="4.83798">
        <ele>169</ele>
        <time>2018-06-20T10:36:00Z</time>
      </trkpt>
      <trkpt lat="45.87784" lon="4.83805">
        <ele>169</ele>
        <time>2018-06-20T10:36:02Z</time>
      </trkpt>
      <trkpt lat="45.87781" lon="4.8381">
        <ele>169</ele>
        <time>2018-06-20T10:36:03Z</time>
      </trkpt>
      <trkpt lat="45.87774" lon="4.83815">
        <ele>169</ele>
        <time>2018-06-20T10:36:05Z</time>
      </trkpt>
      <trkpt lat="45.87769" lon="4.83817">
        <ele>170</ele>
        <time>2018-06-20T10:36:06Z</time>
      </trkpt>
      <trkpt lat="45.87762" lon="4.83823">
        <ele>170</ele>
        <time>2018-06-20T10:36:08Z</time>
      </trkpt>
      <trkpt lat="45.87757" lon="4.83824">
        <ele>170</ele>
        <time>2018-06-20T10:36:09Z</time>
      </trkpt>
      <trkpt lat="45.87749" lon="4.83825">
        <ele>170</ele>
        <time>2018-06-20T10:36:11Z</time>
      </trkpt>
      <trkpt lat="45.87745" lon="4.83827">
        <ele>170</ele>
        <time>2018-06-20T10:36:12Z</time>
      </trkpt>
      <trkpt lat="45.87738" lon="4.83829">
        <ele>170</ele>
        <time>2018-06-20T10:36:14Z</time>
      </trkpt>
      <trkpt lat="45.87734" lon="4.83829">
        <ele>170</ele>
        <time>2018-06-20T10:36:15Z</time>
      </trkpt>
      <trkpt lat="45.87729" lon="4.83828">
        <ele>170</ele>
        <time>2018-06-20T10:36:16Z</time>
      </trkpt>
      <trkpt lat="45.87724" lon="4.83826">
        <ele>169</ele>
        <time>2018-06-20T10:36:17Z</time>
      </trkpt>
      <trkpt lat="45.87716" lon="4.83821">
        <ele>169</ele>
        <time>2018-06-20T10:36:19Z</time>
      </trkpt>
      <trkpt lat="45.87712" lon="4.83819">
        <ele>169</ele>
        <time>2018-06-20T10:36:20Z</time>
      </trkpt>
      <trkpt lat="45.87707" lon="4.83809">
        <ele>169</ele>
        <time>2018-06-20T10:36:22Z</time>
      </trkpt>
      <trkpt lat="45.87705" lon="4.83804">
        <ele>169</ele>
        <time>2018-06-20T10:36:23Z</time>
      </trkpt>
      <trkpt lat="45.87705" lon="4.83793">
        <ele>168</ele>
        <time>2018-06-20T10:36:25Z</time>
      </trkpt>
      <trkpt lat="45.87705" lon="4.8379">
        <ele>168</ele>
        <time>2018-06-20T10:36:26Z</time>
      </trkpt>
      <trkpt lat="45.87703" lon="4.83782">
        <ele>168</ele>
        <time>2018-06-20T10:36:27Z</time>
      </trkpt>
      <trkpt lat="45.87702" lon="4.83777">
        <ele>168</ele>
        <time>2018-06-20T10:36:28Z</time>
      </trkpt>
      <trkpt lat="45.87701" lon="4.83767">
        <ele>167</ele>
        <time>2018-06-20T10:36:31Z</time>
      </trkpt>
      <trkpt lat="45.87701" lon="4.83757">
        <ele>167</ele>
        <time>2018-06-20T10:36:32Z</time>
      </trkpt>
      <trkpt lat="45.877" lon="4.83746">
        <ele>165</ele>
        <time>2018-06-20T10:36:34Z</time>
      </trkpt>
      <trkpt lat="45.87699" lon="4.83741">
        <ele>165</ele>
        <time>2018-06-20T10:36:35Z</time>
      </trkpt>
      <trkpt lat="45.87697" lon="4.83731">
        <ele>165</ele>
        <time>2018-06-20T10:36:37Z</time>
      </trkpt>
      <trkpt lat="45.87697" lon="4.83726">
        <ele>165</ele>
        <time>2018-06-20T10:36:38Z</time>
      </trkpt>
      <trkpt lat="45.87696" lon="4.83714">
        <ele>165</ele>
        <time>2018-06-20T10:36:40Z</time>
      </trkpt>
      <trkpt lat="45.87696" lon="4.83709">
        <ele>165</ele>
        <time>2018-06-20T10:36:41Z</time>
      </trkpt>
      <trkpt lat="45.87694" lon="4.83697">
        <ele>165</ele>
        <time>2018-06-20T10:36:43Z</time>
      </trkpt>
      <trkpt lat="45.87693" lon="4.83692">
        <ele>165</ele>
        <time>2018-06-20T10:36:44Z</time>
      </trkpt>
      <trkpt lat="45.87689" lon="4.83685">
        <ele>165</ele>
        <time>2018-06-20T10:36:45Z</time>
      </trkpt>
      <trkpt lat="45.87688" lon="4.83678">
        <ele>165</ele>
        <time>2018-06-20T10:36:46Z</time>
      </trkpt>
      <trkpt lat="45.87686" lon="4.83672">
        <ele>165</ele>
        <time>2018-06-20T10:36:47Z</time>
      </trkpt>
      <trkpt lat="45.87685" lon="4.83664">
        <ele>165</ele>
        <time>2018-06-20T10:36:48Z</time>
      </trkpt>
      <trkpt lat="45.87683" lon="4.83656">
        <ele>165</ele>
        <time>2018-06-20T10:36:49Z</time>
      </trkpt>
      <trkpt lat="45.87683" lon="4.83648">
        <ele>165</ele>
        <time>2018-06-20T10:36:50Z</time>
      </trkpt>
      <trkpt lat="45.87682" lon="4.83641">
        <ele>165</ele>
        <time>2018-06-20T10:36:51Z</time>
      </trkpt>
      <trkpt lat="45.87681" lon="4.83633">
        <ele>165</ele>
        <time>2018-06-20T10:36:52Z</time>
      </trkpt>
      <trkpt lat="45.87681" lon="4.83624">
        <ele>165</ele>
        <time>2018-06-20T10:36:53Z</time>
      </trkpt>
      <trkpt lat="45.87679" lon="4.83618">
        <ele>165</ele>
        <time>2018-06-20T10:36:54Z</time>
      </trkpt>
      <trkpt lat="45.87678" lon="4.8361">
        <ele>165</ele>
        <time>2018-06-20T10:36:55Z</time>
      </trkpt>
      <trkpt lat="45.87677" lon="4.83602">
        <ele>165</ele>
        <time>2018-06-20T10:36:56Z</time>
      </trkpt>
      <trkpt lat="45.87676" lon="4.83592">
        <ele>165</ele>
        <time>2018-06-20T10:36:57Z</time>
      </trkpt>
      <trkpt lat="45.87674" lon="4.83584">
        <ele>165</ele>
        <time>2018-06-20T10:36:58Z</time>
      </trkpt>
      <trkpt lat="45.87676" lon="4.83576">
        <ele>166</ele>
        <time>2018-06-20T10:36:59Z</time>
      </trkpt>
      <trkpt lat="45.87676" lon="4.83568">
        <ele>167</ele>
        <time>2018-06-20T10:37:00Z</time>
      </trkpt>
      <trkpt lat="45.87677" lon="4.8356">
        <ele>167</ele>
        <time>2018-06-20T10:37:01Z</time>
      </trkpt>
      <trkpt lat="45.87681" lon="4.83551">
        <ele>168</ele>
        <time>2018-06-20T10:37:02Z</time>
      </trkpt>
      <trkpt lat="45.87682" lon="4.83542">
        <ele>168</ele>
        <time>2018-06-20T10:37:03Z</time>
      </trkpt>
      <trkpt lat="45.87683" lon="4.83535">
        <ele>169</ele>
        <time>2018-06-20T10:37:04Z</time>
      </trkpt>
      <trkpt lat="45.8768" lon="4.83526">
        <ele>169</ele>
        <time>2018-06-20T10:37:05Z</time>
      </trkpt>
      <trkpt lat="45.87678" lon="4.83518">
        <ele>170</ele>
        <time>2018-06-20T10:37:06Z</time>
      </trkpt>
      <trkpt lat="45.87677" lon="4.83511">
        <ele>170</ele>
        <time>2018-06-20T10:37:07Z</time>
      </trkpt>
      <trkpt lat="45.87675" lon="4.83503">
        <ele>170</ele>
        <time>2018-06-20T10:37:08Z</time>
      </trkpt>
      <trkpt lat="45.87673" lon="4.83495">
        <ele>171</ele>
        <time>2018-06-20T10:37:09Z</time>
      </trkpt>
      <trkpt lat="45.87672" lon="4.83487">
        <ele>171</ele>
        <time>2018-06-20T10:37:10Z</time>
      </trkpt>
      <trkpt lat="45.8767" lon="4.83479">
        <ele>172</ele>
        <time>2018-06-20T10:37:11Z</time>
      </trkpt>
      <trkpt lat="45.87667" lon="4.83471">
        <ele>172</ele>
        <time>2018-06-20T10:37:12Z</time>
      </trkpt>
      <trkpt lat="45.87665" lon="4.83463">
        <ele>172</ele>
        <time>2018-06-20T10:37:13Z</time>
      </trkpt>
      <trkpt lat="45.87662" lon="4.83458">
        <ele>172</ele>
        <time>2018-06-20T10:37:14Z</time>
      </trkpt>
      <trkpt lat="45.8766" lon="4.83452">
        <ele>172</ele>
        <time>2018-06-20T10:37:15Z</time>
      </trkpt>
      <trkpt lat="45.87656" lon="4.83447">
        <ele>172</ele>
        <time>2018-06-20T10:37:16Z</time>
      </trkpt>
      <trkpt lat="45.87653" lon="4.83441">
        <ele>172</ele>
        <time>2018-06-20T10:37:17Z</time>
      </trkpt>
      <trkpt lat="45.8765" lon="4.83436">
        <ele>172</ele>
        <time>2018-06-20T10:37:18Z</time>
      </trkpt>
      <trkpt lat="45.87645" lon="4.8343">
        <ele>172</ele>
        <time>2018-06-20T10:37:19Z</time>
      </trkpt>
      <trkpt lat="45.87641" lon="4.83425">
        <ele>172</ele>
        <time>2018-06-20T10:37:20Z</time>
      </trkpt>
      <trkpt lat="45.87636" lon="4.8342">
        <ele>172</ele>
        <time>2018-06-20T10:37:21Z</time>
      </trkpt>
      <trkpt lat="45.87633" lon="4.83415">
        <ele>173</ele>
        <time>2018-06-20T10:37:22Z</time>
      </trkpt>
      <trkpt lat="45.8763" lon="4.83409">
        <ele>174</ele>
        <time>2018-06-20T10:37:23Z</time>
      </trkpt>
      <trkpt lat="45.87628" lon="4.83403">
        <ele>174</ele>
        <time>2018-06-20T10:37:24Z</time>
      </trkpt>
      <trkpt lat="45.87625" lon="4.83397">
        <ele>174</ele>
        <time>2018-06-20T10:37:25Z</time>
      </trkpt>
      <trkpt lat="45.87619" lon="4.83393">
        <ele>174</ele>
        <time>2018-06-20T10:37:26Z</time>
      </trkpt>
      <trkpt lat="45.87614" lon="4.8339">
        <ele>174</ele>
        <time>2018-06-20T10:37:27Z</time>
      </trkpt>
      <trkpt lat="45.87609" lon="4.83386">
        <ele>174</ele>
        <time>2018-06-20T10:37:28Z</time>
      </trkpt>
      <trkpt lat="45.87602" lon="4.83379">
        <ele>174</ele>
        <time>2018-06-20T10:37:30Z</time>
      </trkpt>
      <trkpt lat="45.87597" lon="4.83376">
        <ele>174</ele>
        <time>2018-06-20T10:37:31Z</time>
      </trkpt>
      <trkpt lat="45.87591" lon="4.8337">
        <ele>174</ele>
        <time>2018-06-20T10:37:33Z</time>
      </trkpt>
      <trkpt lat="45.87586" lon="4.83367">
        <ele>175</ele>
        <time>2018-06-20T10:37:34Z</time>
      </trkpt>
      <trkpt lat="45.87579" lon="4.83359">
        <ele>175</ele>
        <time>2018-06-20T10:37:36Z</time>
      </trkpt>
      <trkpt lat="45.87577" lon="4.83355">
        <ele>175</ele>
        <time>2018-06-20T10:37:37Z</time>
      </trkpt>
      <trkpt lat="45.87574" lon="4.8335">
        <ele>176</ele>
        <time>2018-06-20T10:37:38Z</time>
      </trkpt>
      <trkpt lat="45.8757" lon="4.83343">
        <ele>176</ele>
        <time>2018-06-20T10:37:39Z</time>
      </trkpt>
      <trkpt lat="45.87564" lon="4.83334">
        <ele>176</ele>
        <time>2018-06-20T10:37:41Z</time>
      </trkpt>
      <trkpt lat="45.87561" lon="4.83329">
        <ele>177</ele>
        <time>2018-06-20T10:37:42Z</time>
      </trkpt>
      <trkpt lat="45.87557" lon="4.83321">
        <ele>177</ele>
        <time>2018-06-20T10:37:44Z</time>
      </trkpt>
      <trkpt lat="45.87556" lon="4.83318">
        <ele>177</ele>
        <time>2018-06-20T10:37:45Z</time>
      </trkpt>
      <trkpt lat="45.87552" lon="4.83308">
        <ele>177</ele>
        <time>2018-06-20T10:37:49Z</time>
      </trkpt>
      <trkpt lat="45.8755" lon="4.83305">
        <ele>177</ele>
        <time>2018-06-20T10:37:50Z</time>
      </trkpt>
      <trkpt lat="45.87548" lon="4.83298">
        <ele>177</ele>
        <time>2018-06-20T10:37:52Z</time>
      </trkpt>
      <trkpt lat="45.87547" lon="4.83293">
        <ele>177</ele>
        <time>2018-06-20T10:37:53Z</time>
      </trkpt>
      <trkpt lat="45.87545" lon="4.83281">
        <ele>178</ele>
        <time>2018-06-20T10:37:56Z</time>
      </trkpt>
      <trkpt lat="45.87545" lon="4.83277">
        <ele>178</ele>
        <time>2018-06-20T10:37:57Z</time>
      </trkpt>
      <trkpt lat="45.87546" lon="4.83265">
        <ele>178</ele>
        <time>2018-06-20T10:38:00Z</time>
      </trkpt>
      <trkpt lat="45.87547" lon="4.83262">
        <ele>178</ele>
        <time>2018-06-20T10:38:01Z</time>
      </trkpt>
      <trkpt lat="45.87552" lon="4.83254">
        <ele>178</ele>
        <time>2018-06-20T10:38:04Z</time>
      </trkpt>
      <trkpt lat="45.87554" lon="4.83252">
        <ele>178</ele>
        <time>2018-06-20T10:38:05Z</time>
      </trkpt>
      <trkpt lat="45.8756" lon="4.83245">
        <ele>180</ele>
        <time>2018-06-20T10:38:08Z</time>
      </trkpt>
      <trkpt lat="45.87563" lon="4.83243">
        <ele>180</ele>
        <time>2018-06-20T10:38:09Z</time>
      </trkpt>
      <trkpt lat="45.87568" lon="4.83235">
        <ele>180</ele>
        <time>2018-06-20T10:38:12Z</time>
      </trkpt>
      <trkpt lat="45.8757" lon="4.83231">
        <ele>181</ele>
        <time>2018-06-20T10:38:13Z</time>
      </trkpt>
      <trkpt lat="45.87571" lon="4.83219">
        <ele>181</ele>
        <time>2018-06-20T10:38:16Z</time>
      </trkpt>
      <trkpt lat="45.8757" lon="4.83216">
        <ele>181</ele>
        <time>2018-06-20T10:38:17Z</time>
      </trkpt>
      <trkpt lat="45.87566" lon="4.83206">
        <ele>182</ele>
        <time>2018-06-20T10:38:20Z</time>
      </trkpt>
      <trkpt lat="45.87565" lon="4.83204">
        <ele>182</ele>
        <time>2018-06-20T10:38:21Z</time>
      </trkpt>
      <trkpt lat="45.8756" lon="4.83194">
        <ele>182</ele>
        <time>2018-06-20T10:38:24Z</time>
      </trkpt>
      <trkpt lat="45.87557" lon="4.83191">
        <ele>183</ele>
        <time>2018-06-20T10:38:25Z</time>
      </trkpt>
      <trkpt lat="45.87552" lon="4.83182">
        <ele>183</ele>
        <time>2018-06-20T10:38:28Z</time>
      </trkpt>
      <trkpt lat="45.87551" lon="4.83179">
        <ele>183</ele>
        <time>2018-06-20T10:38:29Z</time>
      </trkpt>
      <trkpt lat="45.87547" lon="4.83169">
        <ele>183</ele>
        <time>2018-06-20T10:38:33Z</time>
      </trkpt>
      <trkpt lat="45.87546" lon="4.83166">
        <ele>189</ele>
        <time>2018-06-20T10:38:34Z</time>
      </trkpt>
      <trkpt lat="45.87541" lon="4.83156">
        <ele>189</ele>
        <time>2018-06-20T10:38:39Z</time>
      </trkpt>
      <trkpt lat="45.8754" lon="4.83155">
        <ele>190</ele>
        <time>2018-06-20T10:38:40Z</time>
      </trkpt>
      <trkpt lat="45.87534" lon="4.83151">
        <ele>190</ele>
        <time>2018-06-20T10:38:43Z</time>
      </trkpt>
      <trkpt lat="45.87531" lon="4.83151">
        <ele>190</ele>
        <time>2018-06-20T10:38:44Z</time>
      </trkpt>
      <trkpt lat="45.87524" lon="4.8315">
        <ele>190</ele>
        <time>2018-06-20T10:38:47Z</time>
      </trkpt>
      <trkpt lat="45.87522" lon="4.83151">
        <ele>190</ele>
        <time>2018-06-20T10:38:48Z</time>
      </trkpt>
      <trkpt lat="45.87515" lon="4.83153">
        <ele>190</ele>
        <time>2018-06-20T10:38:51Z</time>
      </trkpt>
      <trkpt lat="45.87512" lon="4.83154">
        <ele>190</ele>
        <time>2018-06-20T10:38:52Z</time>
      </trkpt>
      <trkpt lat="45.87504" lon="4.83156">
        <ele>190</ele>
        <time>2018-06-20T10:38:55Z</time>
      </trkpt>
      <trkpt lat="45.87502" lon="4.83156">
        <ele>190</ele>
        <time>2018-06-20T10:38:56Z</time>
      </trkpt>
      <trkpt lat="45.87494" lon="4.83154">
        <ele>192</ele>
        <time>2018-06-20T10:38:59Z</time>
      </trkpt>
      <trkpt lat="45.87492" lon="4.83153">
        <ele>192</ele>
        <time>2018-06-20T10:39:00Z</time>
      </trkpt>
      <trkpt lat="45.87485" lon="4.83145">
        <ele>193</ele>
        <time>2018-06-20T10:39:04Z</time>
      </trkpt>
      <trkpt lat="45.87484" lon="4.83142">
        <ele>194</ele>
        <time>2018-06-20T10:39:05Z</time>
      </trkpt>
      <trkpt lat="45.87482" lon="4.83131">
        <ele>194</ele>
        <time>2018-06-20T10:39:09Z</time>
      </trkpt>
      <trkpt lat="45.87483" lon="4.83128">
        <ele>195</ele>
        <time>2018-06-20T10:39:10Z</time>
      </trkpt>
      <trkpt lat="45.87487" lon="4.83118">
        <ele>195</ele>
        <time>2018-06-20T10:39:15Z</time>
      </trkpt>
      <trkpt lat="45.87489" lon="4.83116">
        <ele>195</ele>
        <time>2018-06-20T10:39:16Z</time>
      </trkpt>
      <trkpt lat="45.87495" lon="4.83109">
        <ele>196</ele>
        <time>2018-06-20T10:39:20Z</time>
      </trkpt>
      <trkpt lat="45.87497" lon="4.83107">
        <ele>196</ele>
        <time>2018-06-20T10:39:21Z</time>
      </trkpt>
      <trkpt lat="45.87504" lon="4.83101">
        <ele>195</ele>
        <time>2018-06-20T10:39:25Z</time>
      </trkpt>
      <trkpt lat="45.87506" lon="4.83099">
        <ele>195</ele>
        <time>2018-06-20T10:39:26Z</time>
      </trkpt>
      <trkpt lat="45.87511" lon="4.83092">
        <ele>196</ele>
        <time>2018-06-20T10:39:30Z</time>
      </trkpt>
      <trkpt lat="45.87512" lon="4.83089">
        <ele>196</ele>
        <time>2018-06-20T10:39:31Z</time>
      </trkpt>
      <trkpt lat="45.87517" lon="4.83081">
        <ele>199</ele>
        <time>2018-06-20T10:39:35Z</time>
      </trkpt>
      <trkpt lat="45.87518" lon="4.83079">
        <ele>199</ele>
        <time>2018-06-20T10:39:36Z</time>
      </trkpt>
      <trkpt lat="45.87521" lon="4.83069">
        <ele>200</ele>
        <time>2018-06-20T10:39:40Z</time>
      </trkpt>
      <trkpt lat="45.87522" lon="4.83067">
        <ele>200</ele>
        <time>2018-06-20T10:39:41Z</time>
      </trkpt>
      <trkpt lat="45.87526" lon="4.83056">
        <ele>200</ele>
        <time>2018-06-20T10:39:45Z</time>
      </trkpt>
      <trkpt lat="45.87528" lon="4.83053">
        <ele>200</ele>
        <time>2018-06-20T10:39:46Z</time>
      </trkpt>
      <trkpt lat="45.87531" lon="4.83042">
        <ele>201</ele>
        <time>2018-06-20T10:39:50Z</time>
      </trkpt>
      <trkpt lat="45.87532" lon="4.83039">
        <ele>201</ele>
        <time>2018-06-20T10:39:51Z</time>
      </trkpt>
      <trkpt lat="45.87533" lon="4.83027">
        <ele>201</ele>
        <time>2018-06-20T10:39:55Z</time>
      </trkpt>
      <trkpt lat="45.87533" lon="4.83024">
        <ele>202</ele>
        <time>2018-06-20T10:39:56Z</time>
      </trkpt>
      <trkpt lat="45.87534" lon="4.83014">
        <ele>202</ele>
        <time>2018-06-20T10:39:59Z</time>
      </trkpt>
      <trkpt lat="45.87535" lon="4.83011">
        <ele>202</ele>
        <time>2018-06-20T10:40:00Z</time>
      </trkpt>
      <trkpt lat="45.87536" lon="4.83001">
        <ele>202</ele>
        <time>2018-06-20T10:40:03Z</time>
      </trkpt>
      <trkpt lat="45.87536" lon="4.82998">
        <ele>206</ele>
        <time>2018-06-20T10:40:04Z</time>
      </trkpt>
      <trkpt lat="45.87534" lon="4.82988">
        <ele>206</ele>
        <time>2018-06-20T10:40:07Z</time>
      </trkpt>
      <trkpt lat="45.87534" lon="4.82985">
        <ele>206</ele>
        <time>2018-06-20T10:40:08Z</time>
      </trkpt>
      <trkpt lat="45.87532" lon="4.82975">
        <ele>206</ele>
        <time>2018-06-20T10:40:11Z</time>
      </trkpt>
      <trkpt lat="45.87531" lon="4.82972">
        <ele>206</ele>
        <time>2018-06-20T10:40:12Z</time>
      </trkpt>
      <trkpt lat="45.87528" lon="4.82962">
        <ele>206</ele>
        <time>2018-06-20T10:40:15Z</time>
      </trkpt>
      <trkpt lat="45.87527" lon="4.82959">
        <ele>206</ele>
        <time>2018-06-20T10:40:16Z</time>
      </trkpt>
      <trkpt lat="45.87524" lon="4.8295">
        <ele>206</ele>
        <time>2018-06-20T10:40:19Z</time>
      </trkpt>
      <trkpt lat="45.87523" lon="4.82947">
        <ele>207</ele>
        <time>2018-06-20T10:40:20Z</time>
      </trkpt>
      <trkpt lat="45.8752" lon="4.82938">
        <ele>207</ele>
        <time>2018-06-20T10:40:23Z</time>
      </trkpt>
      <trkpt lat="45.87519" lon="4.82935">
        <ele>207</ele>
        <time>2018-06-20T10:40:24Z</time>
      </trkpt>
      <trkpt lat="45.87516" lon="4.82925">
        <ele>208</ele>
        <time>2018-06-20T10:40:27Z</time>
      </trkpt>
      <trkpt lat="45.87515" lon="4.82922">
        <ele>208</ele>
        <time>2018-06-20T10:40:28Z</time>
      </trkpt>
      <trkpt lat="45.87511" lon="4.82913">
        <ele>208</ele>
        <time>2018-06-20T10:40:31Z</time>
      </trkpt>
      <trkpt lat="45.87509" lon="4.8291">
        <ele>208</ele>
        <time>2018-06-20T10:40:32Z</time>
      </trkpt>
      <trkpt lat="45.87506" lon="4.82899">
        <ele>207</ele>
        <time>2018-06-20T10:40:36Z</time>
      </trkpt>
      <trkpt lat="45.87505" lon="4.82897">
        <ele>206</ele>
        <time>2018-06-20T10:40:37Z</time>
      </trkpt>
      <trkpt lat="45.87504" lon="4.82885">
        <ele>206</ele>
        <time>2018-06-20T10:40:41Z</time>
      </trkpt>
      <trkpt lat="45.87503" lon="4.82882">
        <ele>205</ele>
        <time>2018-06-20T10:40:42Z</time>
      </trkpt>
      <trkpt lat="45.87499" lon="4.82872">
        <ele>210</ele>
        <time>2018-06-20T10:40:46Z</time>
      </trkpt>
      <trkpt lat="45.87498" lon="4.82869">
        <ele>210</ele>
        <time>2018-06-20T10:40:47Z</time>
      </trkpt>
      <trkpt lat="45.87495" lon="4.82857">
        <ele>210</ele>
        <time>2018-06-20T10:40:51Z</time>
      </trkpt>
      <trkpt lat="45.87494" lon="4.82854">
        <ele>209</ele>
        <time>2018-06-20T10:40:52Z</time>
      </trkpt>
      <trkpt lat="45.87491" lon="4.82845">
        <ele>209</ele>
        <time>2018-06-20T10:40:55Z</time>
      </trkpt>
      <trkpt lat="45.8749" lon="4.82842">
        <ele>209</ele>
        <time>2018-06-20T10:40:56Z</time>
      </trkpt>
      <trkpt lat="45.87485" lon="4.82833">
        <ele>208</ele>
        <time>2018-06-20T10:40:59Z</time>
      </trkpt>
      <trkpt lat="45.87483" lon="4.8283">
        <ele>208</ele>
        <time>2018-06-20T10:41:00Z</time>
      </trkpt>
      <trkpt lat="45.87479" lon="4.82823">
        <ele>209</ele>
        <time>2018-06-20T10:41:02Z</time>
      </trkpt>
      <trkpt lat="45.87477" lon="4.8282">
        <ele>209</ele>
        <time>2018-06-20T10:41:03Z</time>
      </trkpt>
      <trkpt lat="45.87471" lon="4.8281">
        <ele>209</ele>
        <time>2018-06-20T10:41:06Z</time>
      </trkpt>
      <trkpt lat="45.8747" lon="4.82807">
        <ele>209</ele>
        <time>2018-06-20T10:41:07Z</time>
      </trkpt>
      <trkpt lat="45.87466" lon="4.828">
        <ele>209</ele>
        <time>2018-06-20T10:41:09Z</time>
      </trkpt>
      <trkpt lat="45.87465" lon="4.82796">
        <ele>209</ele>
        <time>2018-06-20T10:41:10Z</time>
      </trkpt>
      <trkpt lat="45.87459" lon="4.82785">
        <ele>209</ele>
        <time>2018-06-20T10:41:13Z</time>
      </trkpt>
      <trkpt lat="45.87458" lon="4.82781">
        <ele>209</ele>
        <time>2018-06-20T10:41:14Z</time>
      </trkpt>
      <trkpt lat="45.87454" lon="4.82774">
        <ele>210</ele>
        <time>2018-06-20T10:41:16Z</time>
      </trkpt>
      <trkpt lat="45.87452" lon="4.8277">
        <ele>210</ele>
        <time>2018-06-20T10:41:17Z</time>
      </trkpt>
      <trkpt lat="45.87449" lon="4.82762">
        <ele>210</ele>
        <time>2018-06-20T10:41:19Z</time>
      </trkpt>
      <trkpt lat="45.87447" lon="4.82759">
        <ele>210</ele>
        <time>2018-06-20T10:41:20Z</time>
      </trkpt>
      <trkpt lat="45.87446" lon="4.82755">
        <ele>210</ele>
        <time>2018-06-20T10:41:21Z</time>
      </trkpt>
      <trkpt lat="45.8744" lon="4.82743">
        <ele>209</ele>
        <time>2018-06-20T10:41:22Z</time>
      </trkpt>
      <trkpt lat="45.87437" lon="4.82738">
        <ele>209</ele>
        <time>2018-06-20T10:41:24Z</time>
      </trkpt>
      <trkpt lat="45.87433" lon="4.82732">
        <ele>209</ele>
        <time>2018-06-20T10:41:25Z</time>
      </trkpt>
      <trkpt lat="45.87428" lon="4.82722">
        <ele>209</ele>
        <time>2018-06-20T10:41:28Z</time>
      </trkpt>
      <trkpt lat="45.87424" lon="4.82715">
        <ele>209</ele>
        <time>2018-06-20T10:41:29Z</time>
      </trkpt>
      <trkpt lat="45.8742" lon="4.82706">
        <ele>208</ele>
        <time>2018-06-20T10:41:31Z</time>
      </trkpt>
      <trkpt lat="45.87418" lon="4.82704">
        <ele>208</ele>
        <time>2018-06-20T10:41:32Z</time>
      </trkpt>
      <trkpt lat="45.87414" lon="4.82694">
        <ele>215</ele>
        <time>2018-06-20T10:41:34Z</time>
      </trkpt>
      <trkpt lat="45.87411" lon="4.82689">
        <ele>214</ele>
        <time>2018-06-20T10:41:35Z</time>
      </trkpt>
      <trkpt lat="45.87406" lon="4.82679">
        <ele>214</ele>
        <time>2018-06-20T10:41:38Z</time>
      </trkpt>
      <trkpt lat="45.87405" lon="4.82677">
        <ele>214</ele>
        <time>2018-06-20T10:41:39Z</time>
      </trkpt>
      <trkpt lat="45.87402" lon="4.8267">
        <ele>214</ele>
        <time>2018-06-20T10:41:40Z</time>
      </trkpt>
      <trkpt lat="45.874" lon="4.82665">
        <ele>212</ele>
        <time>2018-06-20T10:41:41Z</time>
      </trkpt>
      <trkpt lat="45.87396" lon="4.82656">
        <ele>212</ele>
        <time>2018-06-20T10:41:43Z</time>
      </trkpt>
      <trkpt lat="45.87395" lon="4.82652">
        <ele>212</ele>
        <time>2018-06-20T10:41:44Z</time>
      </trkpt>
      <trkpt lat="45.8739" lon="4.82641">
        <ele>213</ele>
        <time>2018-06-20T10:41:47Z</time>
      </trkpt>
      <trkpt lat="45.87389" lon="4.82639">
        <ele>213</ele>
        <time>2018-06-20T10:41:48Z</time>
      </trkpt>
      <trkpt lat="45.87385" lon="4.82629">
        <ele>213</ele>
        <time>2018-06-20T10:41:51Z</time>
      </trkpt>
      <trkpt lat="45.87383" lon="4.82626">
        <ele>213</ele>
        <time>2018-06-20T10:41:52Z</time>
      </trkpt>
      <trkpt lat="45.8738" lon="4.82618">
        <ele>212</ele>
        <time>2018-06-20T10:41:54Z</time>
      </trkpt>
      <trkpt lat="45.87374" lon="4.82607">
        <ele>213</ele>
        <time>2018-06-20T10:41:55Z</time>
      </trkpt>
      <trkpt lat="45.8737" lon="4.82598">
        <ele>213</ele>
        <time>2018-06-20T10:41:57Z</time>
      </trkpt>
      <trkpt lat="45.87368" lon="4.82593">
        <ele>213</ele>
        <time>2018-06-20T10:41:58Z</time>
      </trkpt>
      <trkpt lat="45.87365" lon="4.82583">
        <ele>209</ele>
        <time>2018-06-20T10:42:00Z</time>
      </trkpt>
      <trkpt lat="45.87363" lon="4.82577">
        <ele>210</ele>
        <time>2018-06-20T10:42:01Z</time>
      </trkpt>
      <trkpt lat="45.87359" lon="4.82568">
        <ele>210</ele>
        <time>2018-06-20T10:42:03Z</time>
      </trkpt>
      <trkpt lat="45.87358" lon="4.82565">
        <ele>210</ele>
        <time>2018-06-20T10:42:04Z</time>
      </trkpt>
      <trkpt lat="45.87352" lon="4.82555">
        <ele>209</ele>
        <time>2018-06-20T10:42:06Z</time>
      </trkpt>
      <trkpt lat="45.8735" lon="4.8255">
        <ele>209</ele>
        <time>2018-06-20T10:42:07Z</time>
      </trkpt>
      <trkpt lat="45.87346" lon="4.8254">
        <ele>209</ele>
        <time>2018-06-20T10:42:09Z</time>
      </trkpt>
      <trkpt lat="45.87344" lon="4.82535">
        <ele>208</ele>
        <time>2018-06-20T10:42:10Z</time>
      </trkpt>
      <trkpt lat="45.87341" lon="4.82525">
        <ele>208</ele>
        <time>2018-06-20T10:42:12Z</time>
      </trkpt>
      <trkpt lat="45.8734" lon="4.82521">
        <ele>208</ele>
        <time>2018-06-20T10:42:13Z</time>
      </trkpt>
      <trkpt lat="45.87338" lon="4.82515">
        <ele>208</ele>
        <time>2018-06-20T10:42:15Z</time>
      </trkpt>
      <trkpt lat="45.87335" lon="4.82507">
        <ele>209</ele>
        <time>2018-06-20T10:42:16Z</time>
      </trkpt>
      <trkpt lat="45.87331" lon="4.82498">
        <ele>210</ele>
        <time>2018-06-20T10:42:18Z</time>
      </trkpt>
      <trkpt lat="45.87328" lon="4.82493">
        <ele>210</ele>
        <time>2018-06-20T10:42:19Z</time>
      </trkpt>
      <trkpt lat="45.87325" lon="4.82487">
        <ele>211</ele>
        <time>2018-06-20T10:42:20Z</time>
      </trkpt>
      <trkpt lat="45.87323" lon="4.82481">
        <ele>211</ele>
        <time>2018-06-20T10:42:21Z</time>
      </trkpt>
      <trkpt lat="45.87319" lon="4.82474">
        <ele>211</ele>
        <time>2018-06-20T10:42:22Z</time>
      </trkpt>
      <trkpt lat="45.87316" lon="4.8247">
        <ele>212</ele>
        <time>2018-06-20T10:42:23Z</time>
      </trkpt>
      <trkpt lat="45.87313" lon="4.82465">
        <ele>212</ele>
        <time>2018-06-20T10:42:24Z</time>
      </trkpt>
      <trkpt lat="45.8731" lon="4.82459">
        <ele>212</ele>
        <time>2018-06-20T10:42:25Z</time>
      </trkpt>
      <trkpt lat="45.87308" lon="4.82453">
        <ele>212</ele>
        <time>2018-06-20T10:42:26Z</time>
      </trkpt>
      <trkpt lat="45.87304" lon="4.82447">
        <ele>212</ele>
        <time>2018-06-20T10:42:27Z</time>
      </trkpt>
      <trkpt lat="45.87301" lon="4.82441">
        <ele>212</ele>
        <time>2018-06-20T10:42:28Z</time>
      </trkpt>
      <trkpt lat="45.87298" lon="4.82434">
        <ele>212</ele>
        <time>2018-06-20T10:42:29Z</time>
      </trkpt>
      <trkpt lat="45.87293" lon="4.82428">
        <ele>212</ele>
        <time>2018-06-20T10:42:30Z</time>
      </trkpt>
      <trkpt lat="45.87287" lon="4.8242">
        <ele>212</ele>
        <time>2018-06-20T10:42:31Z</time>
      </trkpt>
      <trkpt lat="45.87284" lon="4.82413">
        <ele>209</ele>
        <time>2018-06-20T10:42:32Z</time>
      </trkpt>
      <trkpt lat="45.87279" lon="4.82405">
        <ele>209</ele>
        <time>2018-06-20T10:42:33Z</time>
      </trkpt>
      <trkpt lat="45.87273" lon="4.82398">
        <ele>210</ele>
        <time>2018-06-20T10:42:34Z</time>
      </trkpt>
      <trkpt lat="45.87268" lon="4.82389">
        <ele>209</ele>
        <time>2018-06-20T10:42:35Z</time>
      </trkpt>
      <trkpt lat="45.87264" lon="4.8238">
        <ele>209</ele>
        <time>2018-06-20T10:42:36Z</time>
      </trkpt>
      <trkpt lat="45.87262" lon="4.82371">
        <ele>208</ele>
        <time>2018-06-20T10:42:37Z</time>
      </trkpt>
      <trkpt lat="45.87258" lon="4.82363">
        <ele>208</ele>
        <time>2018-06-20T10:42:38Z</time>
      </trkpt>
      <trkpt lat="45.87252" lon="4.82353">
        <ele>208</ele>
        <time>2018-06-20T10:42:39Z</time>
      </trkpt>
      <trkpt lat="45.87241" lon="4.82347">
        <ele>213</ele>
        <time>2018-06-20T10:42:40Z</time>
      </trkpt>
      <trkpt lat="45.87236" lon="4.82337">
        <ele>212</ele>
        <time>2018-06-20T10:42:41Z</time>
      </trkpt>
      <trkpt lat="45.87229" lon="4.82326">
        <ele>210</ele>
        <time>2018-06-20T10:42:42Z</time>
      </trkpt>
      <trkpt lat="45.87221" lon="4.82316">
        <ele>210</ele>
        <time>2018-06-20T10:42:43Z</time>
      </trkpt>
      <trkpt lat="45.87215" lon="4.82307">
        <ele>210</ele>
        <time>2018-06-20T10:42:44Z</time>
      </trkpt>
      <trkpt lat="45.87209" lon="4.82295">
        <ele>210</ele>
        <time>2018-06-20T10:42:45Z</time>
      </trkpt>
      <trkpt lat="45.87204" lon="4.82283">
        <ele>210</ele>
        <time>2018-06-20T10:42:46Z</time>
      </trkpt>
      <trkpt lat="45.872" lon="4.82269">
        <ele>210</ele>
        <time>2018-06-20T10:42:47Z</time>
      </trkpt>
      <trkpt lat="45.87194" lon="4.82259">
        <ele>210</ele>
        <time>2018-06-20T10:42:48Z</time>
      </trkpt>
      <trkpt lat="45.87193" lon="4.82245">
        <ele>208</ele>
        <time>2018-06-20T10:42:49Z</time>
      </trkpt>
      <trkpt lat="45.87187" lon="4.82233">
        <ele>208</ele>
        <time>2018-06-20T10:42:50Z</time>
      </trkpt>
      <trkpt lat="45.87186" lon="4.82221">
        <ele>208</ele>
        <time>2018-06-20T10:42:51Z</time>
      </trkpt>
      <trkpt lat="45.87183" lon="4.82211">
        <ele>208</ele>
        <time>2018-06-20T10:42:52Z</time>
      </trkpt>
      <trkpt lat="45.87188" lon="4.82196">
        <ele>207</ele>
        <time>2018-06-20T10:42:53Z</time>
      </trkpt>
      <trkpt lat="45.87183" lon="4.82188">
        <ele>208</ele>
        <time>2018-06-20T10:42:54Z</time>
      </trkpt>
      <trkpt lat="45.8719" lon="4.82182">
        <ele>207</ele>
        <time>2018-06-20T10:42:55Z</time>
      </trkpt>
      <trkpt lat="45.8719" lon="4.82175">
        <ele>207</ele>
        <time>2018-06-20T10:42:56Z</time>
      </trkpt>
      <trkpt lat="45.87177" lon="4.82166">
        <ele>209</ele>
        <time>2018-06-20T10:42:57Z</time>
      </trkpt>
      <trkpt lat="45.87173" lon="4.82158">
        <ele>209</ele>
        <time>2018-06-20T10:42:58Z</time>
      </trkpt>
      <trkpt lat="45.8717" lon="4.82151">
        <ele>209</ele>
        <time>2018-06-20T10:42:59Z</time>
      </trkpt>
      <trkpt lat="45.87167" lon="4.82144">
        <ele>209</ele>
        <time>2018-06-20T10:43:00Z</time>
      </trkpt>
      <trkpt lat="45.87163" lon="4.82139">
        <ele>211</ele>
        <time>2018-06-20T10:43:01Z</time>
      </trkpt>
      <trkpt lat="45.87162" lon="4.82136">
        <ele>211</ele>
        <time>2018-06-20T10:43:02Z</time>
      </trkpt>
      <trkpt lat="45.87156" lon="4.8213">
        <ele>211</ele>
        <time>2018-06-20T10:43:03Z</time>
      </trkpt>
      <trkpt lat="45.87152" lon="4.82122">
        <ele>212</ele>
        <time>2018-06-20T10:43:05Z</time>
      </trkpt>
      <trkpt lat="45.87148" lon="4.8212">
        <ele>212</ele>
        <time>2018-06-20T10:43:06Z</time>
      </trkpt>
      <trkpt lat="45.87142" lon="4.82113">
        <ele>212</ele>
        <time>2018-06-20T10:43:09Z</time>
      </trkpt>
      <trkpt lat="45.87136" lon="4.82111">
        <ele>212</ele>
        <time>2018-06-20T10:43:10Z</time>
      </trkpt>
      <trkpt lat="45.87133" lon="4.82109">
        <ele>212</ele>
        <time>2018-06-20T10:43:11Z</time>
      </trkpt>
      <trkpt lat="45.87127" lon="4.82105">
        <ele>212</ele>
        <time>2018-06-20T10:43:12Z</time>
      </trkpt>
      <trkpt lat="45.87121" lon="4.82099">
        <ele>212</ele>
        <time>2018-06-20T10:43:14Z</time>
      </trkpt>
      <trkpt lat="45.87118" lon="4.82097">
        <ele>213</ele>
        <time>2018-06-20T10:43:15Z</time>
      </trkpt>
      <trkpt lat="45.87113" lon="4.82094">
        <ele>213</ele>
        <time>2018-06-20T10:43:17Z</time>
      </trkpt>
      <trkpt lat="45.87109" lon="4.82092">
        <ele>213</ele>
        <time>2018-06-20T10:43:18Z</time>
      </trkpt>
      <trkpt lat="45.87101" lon="4.82086">
        <ele>213</ele>
        <time>2018-06-20T10:43:22Z</time>
      </trkpt>
      <trkpt lat="45.87094" lon="4.82082">
        <ele>215</ele>
        <time>2018-06-20T10:43:23Z</time>
      </trkpt>
      <trkpt lat="45.87086" lon="4.82076">
        <ele>215</ele>
        <time>2018-06-20T10:43:27Z</time>
      </trkpt>
      <trkpt lat="45.87084" lon="4.82075">
        <ele>215</ele>
        <time>2018-06-20T10:43:28Z</time>
      </trkpt>
      <trkpt lat="45.87078" lon="4.82071">
        <ele>216</ele>
        <time>2018-06-20T10:43:30Z</time>
      </trkpt>
      <trkpt lat="45.87075" lon="4.82069">
        <ele>216</ele>
        <time>2018-06-20T10:43:31Z</time>
      </trkpt>
      <trkpt lat="45.8707" lon="4.82065">
        <ele>217</ele>
        <time>2018-06-20T10:43:33Z</time>
      </trkpt>
      <trkpt lat="45.87067" lon="4.82063">
        <ele>217</ele>
        <time>2018-06-20T10:43:34Z</time>
      </trkpt>
      <trkpt lat="45.87061" lon="4.8206">
        <ele>217</ele>
        <time>2018-06-20T10:43:36Z</time>
      </trkpt>
      <trkpt lat="45.87058" lon="4.82058">
        <ele>218</ele>
        <time>2018-06-20T10:43:37Z</time>
      </trkpt>
      <trkpt lat="45.87052" lon="4.82054">
        <ele>218</ele>
        <time>2018-06-20T10:43:39Z</time>
      </trkpt>
      <trkpt lat="45.87049" lon="4.82053">
        <ele>218</ele>
        <time>2018-06-20T10:43:40Z</time>
      </trkpt>
      <trkpt lat="45.87043" lon="4.82049">
        <ele>218</ele>
        <time>2018-06-20T10:43:42Z</time>
      </trkpt>
      <trkpt lat="45.8704" lon="4.82047">
        <ele>218</ele>
        <time>2018-06-20T10:43:43Z</time>
      </trkpt>
      <trkpt lat="45.87033" lon="4.82042">
        <ele>218</ele>
        <time>2018-06-20T10:43:46Z</time>
      </trkpt>
      <trkpt lat="45.8703" lon="4.8204">
        <ele>218</ele>
        <time>2018-06-20T10:43:47Z</time>
      </trkpt>
      <trkpt lat="45.87023" lon="4.82035">
        <ele>218</ele>
        <time>2018-06-20T10:43:50Z</time>
      </trkpt>
      <trkpt lat="45.87021" lon="4.82034">
        <ele>218</ele>
        <time>2018-06-20T10:43:51Z</time>
      </trkpt>
      <trkpt lat="45.87015" lon="4.82029">
        <ele>218</ele>
        <time>2018-06-20T10:43:54Z</time>
      </trkpt>
      <trkpt lat="45.87013" lon="4.82027">
        <ele>218</ele>
        <time>2018-06-20T10:43:55Z</time>
      </trkpt>
      <trkpt lat="45.87006" lon="4.82021">
        <ele>218</ele>
        <time>2018-06-20T10:43:59Z</time>
      </trkpt>
      <trkpt lat="45.87004" lon="4.8202">
        <ele>218</ele>
        <time>2018-06-20T10:44:00Z</time>
      </trkpt>
      <trkpt lat="45.86998" lon="4.82014">
        <ele>221</ele>
        <time>2018-06-20T10:44:03Z</time>
      </trkpt>
      <trkpt lat="45.86996" lon="4.82011">
        <ele>221</ele>
        <time>2018-06-20T10:44:04Z</time>
      </trkpt>
      <trkpt lat="45.86993" lon="4.82001">
        <ele>220</ele>
        <time>2018-06-20T10:44:07Z</time>
      </trkpt>
      <trkpt lat="45.86993" lon="4.81997">
        <ele>220</ele>
        <time>2018-06-20T10:44:08Z</time>
      </trkpt>
      <trkpt lat="45.86993" lon="4.81988">
        <ele>222</ele>
        <time>2018-06-20T10:44:10Z</time>
      </trkpt>
      <trkpt lat="45.86993" lon="4.81984">
        <ele>223</ele>
        <time>2018-06-20T10:44:11Z</time>
      </trkpt>
      <trkpt lat="45.86992" lon="4.81974">
        <ele>224</ele>
        <time>2018-06-20T10:44:13Z</time>
      </trkpt>
      <trkpt lat="45.86992" lon="4.81969">
        <ele>225</ele>
        <time>2018-06-20T10:44:14Z</time>
      </trkpt>
      <trkpt lat="45.86992" lon="4.81955">
        <ele>226</ele>
        <time>2018-06-20T10:44:15Z</time>
      </trkpt>
      <trkpt lat="45.86996" lon="4.81945">
        <ele>227</ele>
        <time>2018-06-20T10:44:19Z</time>
      </trkpt>
      <trkpt lat="45.86998" lon="4.81942">
        <ele>228</ele>
        <time>2018-06-20T10:44:20Z</time>
      </trkpt>
      <trkpt lat="45.87006" lon="4.81939">
        <ele>230</ele>
        <time>2018-06-20T10:44:23Z</time>
      </trkpt>
      <trkpt lat="45.87008" lon="4.81939">
        <ele>230</ele>
        <time>2018-06-20T10:44:24Z</time>
      </trkpt>
      <trkpt lat="45.87015" lon="4.81941">
        <ele>230</ele>
        <time>2018-06-20T10:44:27Z</time>
      </trkpt>
      <trkpt lat="45.87017" lon="4.81942">
        <ele>230</ele>
        <time>2018-06-20T10:44:28Z</time>
      </trkpt>
      <trkpt lat="45.87024" lon="4.81945">
        <ele>229</ele>
        <time>2018-06-20T10:44:31Z</time>
      </trkpt>
      <trkpt lat="45.87027" lon="4.81947">
        <ele>229</ele>
        <time>2018-06-20T10:44:32Z</time>
      </trkpt>
      <trkpt lat="45.87033" lon="4.81949">
        <ele>229</ele>
        <time>2018-06-20T10:44:34Z</time>
      </trkpt>
      <trkpt lat="45.87036" lon="4.8195">
        <ele>229</ele>
        <time>2018-06-20T10:44:35Z</time>
      </trkpt>
      <trkpt lat="45.87044" lon="4.81952">
        <ele>229</ele>
        <time>2018-06-20T10:44:38Z</time>
      </trkpt>
      <trkpt lat="45.87047" lon="4.81953">
        <ele>229</ele>
        <time>2018-06-20T10:44:39Z</time>
      </trkpt>
      <trkpt lat="45.87053" lon="4.81956">
        <ele>229</ele>
        <time>2018-06-20T10:44:41Z</time>
      </trkpt>
      <trkpt lat="45.87056" lon="4.81957">
        <ele>229</ele>
        <time>2018-06-20T10:44:42Z</time>
      </trkpt>
      <trkpt lat="45.87064" lon="4.81962">
        <ele>229</ele>
        <time>2018-06-20T10:44:45Z</time>
      </trkpt>
      <trkpt lat="45.87066" lon="4.81963">
        <ele>229</ele>
        <time>2018-06-20T10:44:46Z</time>
      </trkpt>
      <trkpt lat="45.87073" lon="4.81965">
        <ele>228</ele>
        <time>2018-06-20T10:44:49Z</time>
      </trkpt>
      <trkpt lat="45.87075" lon="4.81966">
        <ele>228</ele>
        <time>2018-06-20T10:44:50Z</time>
      </trkpt>
      <trkpt lat="45.87082" lon="4.81968">
        <ele>228</ele>
        <time>2018-06-20T10:44:53Z</time>
      </trkpt>
      <trkpt lat="45.87084" lon="4.81968">
        <ele>230</ele>
        <time>2018-06-20T10:44:54Z</time>
      </trkpt>
      <trkpt lat="45.87092" lon="4.81968">
        <ele>230</ele>
        <time>2018-06-20T10:44:58Z</time>
      </trkpt>
      <trkpt lat="45.87094" lon="4.81968">
        <ele>230</ele>
        <time>2018-06-20T10:44:59Z</time>
      </trkpt>
      <trkpt lat="45.87102" lon="4.81968">
        <ele>230</ele>
        <time>2018-06-20T10:45:02Z</time>
      </trkpt>
      <trkpt lat="45.87104" lon="4.81968">
        <ele>230</ele>
        <time>2018-06-20T10:45:03Z</time>
      </trkpt>
      <trkpt lat="45.87111" lon="4.81968">
        <ele>231</ele>
        <time>2018-06-20T10:45:06Z</time>
      </trkpt>
      <trkpt lat="45.87113" lon="4.81968">
        <ele>231</ele>
        <time>2018-06-20T10:45:07Z</time>
      </trkpt>
      <trkpt lat="45.87121" lon="4.8197">
        <ele>231</ele>
        <time>2018-06-20T10:45:10Z</time>
      </trkpt>
      <trkpt lat="45.87123" lon="4.8197">
        <ele>231</ele>
        <time>2018-06-20T10:45:11Z</time>
      </trkpt>
      <trkpt lat="45.8713" lon="4.8197">
        <ele>231</ele>
        <time>2018-06-20T10:45:14Z</time>
      </trkpt>
      <trkpt lat="45.87132" lon="4.8197">
        <ele>231</ele>
        <time>2018-06-20T10:45:15Z</time>
      </trkpt>
      <trkpt lat="45.87139" lon="4.81969">
        <ele>231</ele>
        <time>2018-06-20T10:45:18Z</time>
      </trkpt>
      <trkpt lat="45.87141" lon="4.81968">
        <ele>231</ele>
        <time>2018-06-20T10:45:19Z</time>
      </trkpt>
      <trkpt lat="45.87148" lon="4.81966">
        <ele>231</ele>
        <time>2018-06-20T10:45:22Z</time>
      </trkpt>
      <trkpt lat="45.87151" lon="4.81966">
        <ele>231</ele>
        <time>2018-06-20T10:45:23Z</time>
      </trkpt>
      <trkpt lat="45.87158" lon="4.81965">
        <ele>231</ele>
        <time>2018-06-20T10:45:26Z</time>
      </trkpt>
      <trkpt lat="45.8716" lon="4.81965">
        <ele>231</ele>
        <time>2018-06-20T10:45:27Z</time>
      </trkpt>
      <trkpt lat="45.87168" lon="4.81964">
        <ele>231</ele>
        <time>2018-06-20T10:45:30Z</time>
      </trkpt>
      <trkpt lat="45.8717" lon="4.81965">
        <ele>231</ele>
        <time>2018-06-20T10:45:31Z</time>
      </trkpt>
      <trkpt lat="45.87178" lon="4.81965">
        <ele>231</ele>
        <time>2018-06-20T10:45:34Z</time>
      </trkpt>
      <trkpt lat="45.87181" lon="4.81965">
        <ele>231</ele>
        <time>2018-06-20T10:45:35Z</time>
      </trkpt>
      <trkpt lat="45.8719" lon="4.81965">
        <ele>231</ele>
        <time>2018-06-20T10:45:39Z</time>
      </trkpt>
      <trkpt lat="45.87192" lon="4.81964">
        <ele>231</ele>
        <time>2018-06-20T10:45:40Z</time>
      </trkpt>
      <trkpt lat="45.87199" lon="4.8196">
        <ele>231</ele>
        <time>2018-06-20T10:45:44Z</time>
      </trkpt>
      <trkpt lat="45.872" lon="4.81959">
        <ele>231</ele>
        <time>2018-06-20T10:45:45Z</time>
      </trkpt>
      <trkpt lat="45.87208" lon="4.81954">
        <ele>231</ele>
        <time>2018-06-20T10:45:47Z</time>
      </trkpt>
      <trkpt lat="45.87218" lon="4.81949">
        <ele>231</ele>
        <time>2018-06-20T10:45:48Z</time>
      </trkpt>
      <trkpt lat="45.87228" lon="4.81945">
        <ele>232</ele>
        <time>2018-06-20T10:45:49Z</time>
      </trkpt>
      <trkpt lat="45.87231" lon="4.81944">
        <ele>232</ele>
        <time>2018-06-20T10:45:53Z</time>
      </trkpt>
      <trkpt lat="45.87247" lon="4.81941">
        <ele>232</ele>
        <time>2018-06-20T10:45:54Z</time>
      </trkpt>
      <trkpt lat="45.87249" lon="4.81933">
        <ele>233</ele>
        <time>2018-06-20T10:46:01Z</time>
      </trkpt>
      <trkpt lat="45.8726" lon="4.81929">
        <ele>231</ele>
        <time>2018-06-20T10:46:02Z</time>
      </trkpt>
      <trkpt lat="45.87267" lon="4.81922">
        <ele>231</ele>
        <time>2018-06-20T10:46:04Z</time>
      </trkpt>
      <trkpt lat="45.87272" lon="4.8192">
        <ele>231</ele>
        <time>2018-06-20T10:46:05Z</time>
      </trkpt>
      <trkpt lat="45.87279" lon="4.81914">
        <ele>235</ele>
        <time>2018-06-20T10:46:08Z</time>
      </trkpt>
      <trkpt lat="45.87281" lon="4.81912">
        <ele>235</ele>
        <time>2018-06-20T10:46:09Z</time>
      </trkpt>
      <trkpt lat="45.87283" lon="4.8191">
        <ele>235</ele>
        <time>2018-06-20T10:46:10Z</time>
      </trkpt>
      <trkpt lat="45.87291" lon="4.81903">
        <ele>235</ele>
        <time>2018-06-20T10:46:11Z</time>
      </trkpt>
      <trkpt lat="45.87297" lon="4.81897">
        <ele>235</ele>
        <time>2018-06-20T10:46:13Z</time>
      </trkpt>
      <trkpt lat="45.87299" lon="4.81893">
        <ele>235</ele>
        <time>2018-06-20T10:46:14Z</time>
      </trkpt>
      <trkpt lat="45.87301" lon="4.81883">
        <ele>235</ele>
        <time>2018-06-20T10:46:17Z</time>
      </trkpt>
      <trkpt lat="45.87301" lon="4.8188">
        <ele>235</ele>
        <time>2018-06-20T10:46:18Z</time>
      </trkpt>
      <trkpt lat="45.87301" lon="4.81872">
        <ele>235</ele>
        <time>2018-06-20T10:46:20Z</time>
      </trkpt>
      <trkpt lat="45.87301" lon="4.8186">
        <ele>236</ele>
        <time>2018-06-20T10:46:21Z</time>
      </trkpt>
      <trkpt lat="45.87303" lon="4.8185">
        <ele>236</ele>
        <time>2018-06-20T10:46:25Z</time>
      </trkpt>
      <trkpt lat="45.87304" lon="4.81846">
        <ele>236</ele>
        <time>2018-06-20T10:46:26Z</time>
      </trkpt>
      <trkpt lat="45.87306" lon="4.81837">
        <ele>236</ele>
        <time>2018-06-20T10:46:29Z</time>
      </trkpt>
      <trkpt lat="45.87306" lon="4.81834">
        <ele>236</ele>
        <time>2018-06-20T10:46:30Z</time>
      </trkpt>
      <trkpt lat="45.87307" lon="4.81823">
        <ele>238</ele>
        <time>2018-06-20T10:46:32Z</time>
      </trkpt>
      <trkpt lat="45.87307" lon="4.81818">
        <ele>238</ele>
        <time>2018-06-20T10:46:33Z</time>
      </trkpt>
      <trkpt lat="45.87308" lon="4.81807">
        <ele>238</ele>
        <time>2018-06-20T10:46:36Z</time>
      </trkpt>
      <trkpt lat="45.87309" lon="4.81803">
        <ele>238</ele>
        <time>2018-06-20T10:46:37Z</time>
      </trkpt>
      <trkpt lat="45.87312" lon="4.81793">
        <ele>239</ele>
        <time>2018-06-20T10:46:40Z</time>
      </trkpt>
      <trkpt lat="45.87313" lon="4.81789">
        <ele>239</ele>
        <time>2018-06-20T10:46:41Z</time>
      </trkpt>
      <trkpt lat="45.87316" lon="4.81782">
        <ele>239</ele>
        <time>2018-06-20T10:46:43Z</time>
      </trkpt>
      <trkpt lat="45.87322" lon="4.81769">
        <ele>239</ele>
        <time>2018-06-20T10:46:44Z</time>
      </trkpt>
      <trkpt lat="45.87325" lon="4.81758">
        <ele>238</ele>
        <time>2018-06-20T10:46:48Z</time>
      </trkpt>
      <trkpt lat="45.87326" lon="4.81754">
        <ele>238</ele>
        <time>2018-06-20T10:46:49Z</time>
      </trkpt>
      <trkpt lat="45.87329" lon="4.81742">
        <ele>239</ele>
        <time>2018-06-20T10:46:50Z</time>
      </trkpt>
      <trkpt lat="45.87331" lon="4.81737">
        <ele>240</ele>
        <time>2018-06-20T10:46:51Z</time>
      </trkpt>
      <trkpt lat="45.87335" lon="4.81727">
        <ele>236</ele>
        <time>2018-06-20T10:46:53Z</time>
      </trkpt>
      <trkpt lat="45.87336" lon="4.81725">
        <ele>236</ele>
        <time>2018-06-20T10:46:54Z</time>
      </trkpt>
      <trkpt lat="45.87339" lon="4.81715">
        <ele>236</ele>
        <time>2018-06-20T10:46:56Z</time>
      </trkpt>
      <trkpt lat="45.87342" lon="4.81709">
        <ele>236</ele>
        <time>2018-06-20T10:46:57Z</time>
      </trkpt>
      <trkpt lat="45.87345" lon="4.81702">
        <ele>236</ele>
        <time>2018-06-20T10:46:59Z</time>
      </trkpt>
      <trkpt lat="45.87349" lon="4.81695">
        <ele>237</ele>
        <time>2018-06-20T10:47:00Z</time>
      </trkpt>
      <trkpt lat="45.87352" lon="4.81688">
        <ele>237</ele>
        <time>2018-06-20T10:47:02Z</time>
      </trkpt>
      <trkpt lat="45.87354" lon="4.81681">
        <ele>237</ele>
        <time>2018-06-20T10:47:03Z</time>
      </trkpt>
      <trkpt lat="45.87358" lon="4.81673">
        <ele>237</ele>
        <time>2018-06-20T10:47:05Z</time>
      </trkpt>
      <trkpt lat="45.87359" lon="4.81668">
        <ele>237</ele>
        <time>2018-06-20T10:47:06Z</time>
      </trkpt>
      <trkpt lat="45.87362" lon="4.81657">
        <ele>239</ele>
        <time>2018-06-20T10:47:10Z</time>
      </trkpt>
      <trkpt lat="45.87363" lon="4.81654">
        <ele>239</ele>
        <time>2018-06-20T10:47:11Z</time>
      </trkpt>
      <trkpt lat="45.87366" lon="4.81643">
        <ele>239</ele>
        <time>2018-06-20T10:47:12Z</time>
      </trkpt>
      <trkpt lat="45.87367" lon="4.8164">
        <ele>239</ele>
        <time>2018-06-20T10:47:13Z</time>
      </trkpt>
      <trkpt lat="45.8737" lon="4.81629">
        <ele>239</ele>
        <time>2018-06-20T10:47:16Z</time>
      </trkpt>
      <trkpt lat="45.87371" lon="4.81625">
        <ele>240</ele>
        <time>2018-06-20T10:47:17Z</time>
      </trkpt>
      <trkpt lat="45.87375" lon="4.81615">
        <ele>240</ele>
        <time>2018-06-20T10:47:20Z</time>
      </trkpt>
      <trkpt lat="45.87376" lon="4.81612">
        <ele>240</ele>
        <time>2018-06-20T10:47:21Z</time>
      </trkpt>
      <trkpt lat="45.87377" lon="4.81601">
        <ele>240</ele>
        <time>2018-06-20T10:47:24Z</time>
      </trkpt>
      <trkpt lat="45.87378" lon="4.81597">
        <ele>240</ele>
        <time>2018-06-20T10:47:25Z</time>
      </trkpt>
      <trkpt lat="45.87379" lon="4.81588">
        <ele>240</ele>
        <time>2018-06-20T10:47:27Z</time>
      </trkpt>
      <trkpt lat="45.8738" lon="4.81584">
        <ele>240</ele>
        <time>2018-06-20T10:47:28Z</time>
      </trkpt>
      <trkpt lat="45.87382" lon="4.81575">
        <ele>243</ele>
        <time>2018-06-20T10:47:30Z</time>
      </trkpt>
      <trkpt lat="45.87382" lon="4.81571">
        <ele>244</ele>
        <time>2018-06-20T10:47:31Z</time>
      </trkpt>
      <trkpt lat="45.87383" lon="4.81558">
        <ele>244</ele>
        <time>2018-06-20T10:47:34Z</time>
      </trkpt>
      <trkpt lat="45.87384" lon="4.81555">
        <ele>244</ele>
        <time>2018-06-20T10:47:35Z</time>
      </trkpt>
      <trkpt lat="45.87387" lon="4.81544">
        <ele>244</ele>
        <time>2018-06-20T10:47:38Z</time>
      </trkpt>
      <trkpt lat="45.87388" lon="4.8154">
        <ele>244</ele>
        <time>2018-06-20T10:47:39Z</time>
      </trkpt>
      <trkpt lat="45.8739" lon="4.81533">
        <ele>244</ele>
        <time>2018-06-20T10:47:41Z</time>
      </trkpt>
      <trkpt lat="45.87391" lon="4.81529">
        <ele>244</ele>
        <time>2018-06-20T10:47:42Z</time>
      </trkpt>
      <trkpt lat="45.87395" lon="4.8152">
        <ele>244</ele>
        <time>2018-06-20T10:47:44Z</time>
      </trkpt>
      <trkpt lat="45.874" lon="4.81507">
        <ele>244</ele>
        <time>2018-06-20T10:47:45Z</time>
      </trkpt>
      <trkpt lat="45.87404" lon="4.81498">
        <ele>245</ele>
        <time>2018-06-20T10:47:47Z</time>
      </trkpt>
      <trkpt lat="45.87405" lon="4.81495">
        <ele>245</ele>
        <time>2018-06-20T10:47:48Z</time>
      </trkpt>
      <trkpt lat="45.87409" lon="4.81486">
        <ele>246</ele>
        <time>2018-06-20T10:47:51Z</time>
      </trkpt>
      <trkpt lat="45.8741" lon="4.81482">
        <ele>247</ele>
        <time>2018-06-20T10:47:52Z</time>
      </trkpt>
      <trkpt lat="45.87414" lon="4.81472">
        <ele>248</ele>
        <time>2018-06-20T10:47:53Z</time>
      </trkpt>
      <trkpt lat="45.87416" lon="4.81467">
        <ele>248</ele>
        <time>2018-06-20T10:47:54Z</time>
      </trkpt>
      <trkpt lat="45.8742" lon="4.81459">
        <ele>242</ele>
        <time>2018-06-20T10:47:57Z</time>
      </trkpt>
      <trkpt lat="45.87422" lon="4.81456">
        <ele>242</ele>
        <time>2018-06-20T10:47:58Z</time>
      </trkpt>
      <trkpt lat="45.87426" lon="4.81445">
        <ele>243</ele>
        <time>2018-06-20T10:48:01Z</time>
      </trkpt>
      <trkpt lat="45.87428" lon="4.81441">
        <ele>243</ele>
        <time>2018-06-20T10:48:02Z</time>
      </trkpt>
      <trkpt lat="45.87431" lon="4.81434">
        <ele>244</ele>
        <time>2018-06-20T10:48:04Z</time>
      </trkpt>
      <trkpt lat="45.87433" lon="4.8143">
        <ele>244</ele>
        <time>2018-06-20T10:48:05Z</time>
      </trkpt>
      <trkpt lat="45.87437" lon="4.81422">
        <ele>244</ele>
        <time>2018-06-20T10:48:07Z</time>
      </trkpt>
      <trkpt lat="45.87439" lon="4.81419">
        <ele>244</ele>
        <time>2018-06-20T10:48:08Z</time>
      </trkpt>
      <trkpt lat="45.87443" lon="4.81412">
        <ele>248</ele>
        <time>2018-06-20T10:48:10Z</time>
      </trkpt>
      <trkpt lat="45.87445" lon="4.81409">
        <ele>248</ele>
        <time>2018-06-20T10:48:11Z</time>
      </trkpt>
      <trkpt lat="45.87449" lon="4.81402">
        <ele>248</ele>
        <time>2018-06-20T10:48:13Z</time>
      </trkpt>
      <trkpt lat="45.87451" lon="4.81399">
        <ele>248</ele>
        <time>2018-06-20T10:48:14Z</time>
      </trkpt>
      <trkpt lat="45.87456" lon="4.81392">
        <ele>248</ele>
        <time>2018-06-20T10:48:16Z</time>
      </trkpt>
      <trkpt lat="45.87458" lon="4.81389">
        <ele>248</ele>
        <time>2018-06-20T10:48:17Z</time>
      </trkpt>
      <trkpt lat="45.87464" lon="4.8138">
        <ele>248</ele>
        <time>2018-06-20T10:48:20Z</time>
      </trkpt>
      <trkpt lat="45.87466" lon="4.81377">
        <ele>248</ele>
        <time>2018-06-20T10:48:21Z</time>
      </trkpt>
      <trkpt lat="45.87471" lon="4.81368">
        <ele>248</ele>
        <time>2018-06-20T10:48:24Z</time>
      </trkpt>
      <trkpt lat="45.87473" lon="4.81364">
        <ele>248</ele>
        <time>2018-06-20T10:48:25Z</time>
      </trkpt>
      <trkpt lat="45.87478" lon="4.81354">
        <ele>248</ele>
        <time>2018-06-20T10:48:28Z</time>
      </trkpt>
      <trkpt lat="45.8748" lon="4.8135">
        <ele>248</ele>
        <time>2018-06-20T10:48:29Z</time>
      </trkpt>
      <trkpt lat="45.87483" lon="4.81343">
        <ele>248</ele>
        <time>2018-06-20T10:48:31Z</time>
      </trkpt>
      <trkpt lat="45.87484" lon="4.81339">
        <ele>248</ele>
        <time>2018-06-20T10:48:32Z</time>
      </trkpt>
      <trkpt lat="45.87489" lon="4.81329">
        <ele>251</ele>
        <time>2018-06-20T10:48:35Z</time>
      </trkpt>
      <trkpt lat="45.8749" lon="4.81326">
        <ele>251</ele>
        <time>2018-06-20T10:48:36Z</time>
      </trkpt>
      <trkpt lat="45.87494" lon="4.81316">
        <ele>252</ele>
        <time>2018-06-20T10:48:39Z</time>
      </trkpt>
      <trkpt lat="45.87495" lon="4.81313">
        <ele>252</ele>
        <time>2018-06-20T10:48:40Z</time>
      </trkpt>
      <trkpt lat="45.87497" lon="4.81303">
        <ele>253</ele>
        <time>2018-06-20T10:48:43Z</time>
      </trkpt>
      <trkpt lat="45.87498" lon="4.813">
        <ele>253</ele>
        <time>2018-06-20T10:48:44Z</time>
      </trkpt>
      <trkpt lat="45.875" lon="4.81289">
        <ele>254</ele>
        <time>2018-06-20T10:48:47Z</time>
      </trkpt>
      <trkpt lat="45.875" lon="4.81286">
        <ele>251</ele>
        <time>2018-06-20T10:48:48Z</time>
      </trkpt>
      <trkpt lat="45.87502" lon="4.81276">
        <ele>249</ele>
        <time>2018-06-20T10:48:51Z</time>
      </trkpt>
      <trkpt lat="45.87502" lon="4.81272">
        <ele>249</ele>
        <time>2018-06-20T10:48:52Z</time>
      </trkpt>
      <trkpt lat="45.87504" lon="4.81263">
        <ele>250</ele>
        <time>2018-06-20T10:48:55Z</time>
      </trkpt>
      <trkpt lat="45.87505" lon="4.8126">
        <ele>251</ele>
        <time>2018-06-20T10:48:56Z</time>
      </trkpt>
      <trkpt lat="45.87508" lon="4.81249">
        <ele>253</ele>
        <time>2018-06-20T10:48:59Z</time>
      </trkpt>
      <trkpt lat="45.87509" lon="4.81246">
        <ele>253</ele>
        <time>2018-06-20T10:49:00Z</time>
      </trkpt>
      <trkpt lat="45.87512" lon="4.81234">
        <ele>253</ele>
        <time>2018-06-20T10:49:03Z</time>
      </trkpt>
      <trkpt lat="45.87513" lon="4.8123">
        <ele>253</ele>
        <time>2018-06-20T10:49:04Z</time>
      </trkpt>
      <trkpt lat="45.87516" lon="4.81218">
        <ele>254</ele>
        <time>2018-06-20T10:49:07Z</time>
      </trkpt>
      <trkpt lat="45.87517" lon="4.81214">
        <ele>254</ele>
        <time>2018-06-20T10:49:08Z</time>
      </trkpt>
      <trkpt lat="45.87521" lon="4.81203">
        <ele>254</ele>
        <time>2018-06-20T10:49:11Z</time>
      </trkpt>
      <trkpt lat="45.87522" lon="4.81199">
        <ele>254</ele>
        <time>2018-06-20T10:49:12Z</time>
      </trkpt>
      <trkpt lat="45.87526" lon="4.81188">
        <ele>255</ele>
        <time>2018-06-20T10:49:15Z</time>
      </trkpt>
      <trkpt lat="45.87527" lon="4.81185">
        <ele>255</ele>
        <time>2018-06-20T10:49:16Z</time>
      </trkpt>
      <trkpt lat="45.8753" lon="4.81175">
        <ele>255</ele>
        <time>2018-06-20T10:49:19Z</time>
      </trkpt>
      <trkpt lat="45.87531" lon="4.81172">
        <ele>255</ele>
        <time>2018-06-20T10:49:20Z</time>
      </trkpt>
      <trkpt lat="45.87534" lon="4.81161">
        <ele>260</ele>
        <time>2018-06-20T10:49:24Z</time>
      </trkpt>
      <trkpt lat="45.87535" lon="4.81158">
        <ele>260</ele>
        <time>2018-06-20T10:49:25Z</time>
      </trkpt>
      <trkpt lat="45.8754" lon="4.81149">
        <ele>260</ele>
        <time>2018-06-20T10:49:29Z</time>
      </trkpt>
      <trkpt lat="45.87541" lon="4.81147">
        <ele>260</ele>
        <time>2018-06-20T10:49:30Z</time>
      </trkpt>
      <trkpt lat="45.87545" lon="4.81137">
        <ele>260</ele>
        <time>2018-06-20T10:49:35Z</time>
      </trkpt>
      <trkpt lat="45.87545" lon="4.81134">
        <ele>260</ele>
        <time>2018-06-20T10:49:36Z</time>
      </trkpt>
      <trkpt lat="45.87549" lon="4.81122">
        <ele>261</ele>
        <time>2018-06-20T10:49:41Z</time>
      </trkpt>
      <trkpt lat="45.87549" lon="4.8112">
        <ele>261</ele>
        <time>2018-06-20T10:49:42Z</time>
      </trkpt>
      <trkpt lat="45.87551" lon="4.8111">
        <ele>261</ele>
        <time>2018-06-20T10:49:46Z</time>
      </trkpt>
      <trkpt lat="45.87552" lon="4.81107">
        <ele>261</ele>
        <time>2018-06-20T10:49:47Z</time>
      </trkpt>
      <trkpt lat="45.87555" lon="4.81096">
        <ele>261</ele>
        <time>2018-06-20T10:49:50Z</time>
      </trkpt>
      <trkpt lat="45.87556" lon="4.81093">
        <ele>261</ele>
        <time>2018-06-20T10:49:51Z</time>
      </trkpt>
      <trkpt lat="45.8756" lon="4.81083">
        <ele>265</ele>
        <time>2018-06-20T10:49:55Z</time>
      </trkpt>
      <trkpt lat="45.8756" lon="4.8108">
        <ele>265</ele>
        <time>2018-06-20T10:49:56Z</time>
      </trkpt>
      <trkpt lat="45.87564" lon="4.81069">
        <ele>265</ele>
        <time>2018-06-20T10:50:00Z</time>
      </trkpt>
      <trkpt lat="45.87565" lon="4.81066">
        <ele>265</ele>
        <time>2018-06-20T10:50:01Z</time>
      </trkpt>
      <trkpt lat="45.87567" lon="4.81055">
        <ele>266</ele>
        <time>2018-06-20T10:50:05Z</time>
      </trkpt>
      <trkpt lat="45.87568" lon="4.81052">
        <ele>266</ele>
        <time>2018-06-20T10:50:06Z</time>
      </trkpt>
      <trkpt lat="45.8757" lon="4.81042">
        <ele>266</ele>
        <time>2018-06-20T10:50:09Z</time>
      </trkpt>
      <trkpt lat="45.87571" lon="4.81039">
        <ele>266</ele>
        <time>2018-06-20T10:50:10Z</time>
      </trkpt>
      <trkpt lat="45.87572" lon="4.81029">
        <ele>266</ele>
        <time>2018-06-20T10:50:13Z</time>
      </trkpt>
      <trkpt lat="45.87573" lon="4.81025">
        <ele>266</ele>
        <time>2018-06-20T10:50:14Z</time>
      </trkpt>
      <trkpt lat="45.87574" lon="4.81015">
        <ele>266</ele>
        <time>2018-06-20T10:50:17Z</time>
      </trkpt>
      <trkpt lat="45.87575" lon="4.81012">
        <ele>266</ele>
        <time>2018-06-20T10:50:18Z</time>
      </trkpt>
      <trkpt lat="45.87578" lon="4.81002">
        <ele>266</ele>
        <time>2018-06-20T10:50:21Z</time>
      </trkpt>
      <trkpt lat="45.87579" lon="4.80999">
        <ele>266</ele>
        <time>2018-06-20T10:50:22Z</time>
      </trkpt>
      <trkpt lat="45.87582" lon="4.8099">
        <ele>268</ele>
        <time>2018-06-20T10:50:25Z</time>
      </trkpt>
      <trkpt lat="45.87583" lon="4.80987">
        <ele>268</ele>
        <time>2018-06-20T10:50:26Z</time>
      </trkpt>
      <trkpt lat="45.87586" lon="4.80978">
        <ele>264</ele>
        <time>2018-06-20T10:50:29Z</time>
      </trkpt>
      <trkpt lat="45.87588" lon="4.80975">
        <ele>264</ele>
        <time>2018-06-20T10:50:30Z</time>
      </trkpt>
      <trkpt lat="45.87592" lon="4.80964">
        <ele>264</ele>
        <time>2018-06-20T10:50:33Z</time>
      </trkpt>
      <trkpt lat="45.87594" lon="4.80961">
        <ele>264</ele>
        <time>2018-06-20T10:50:34Z</time>
      </trkpt>
      <trkpt lat="45.876" lon="4.80953">
        <ele>264</ele>
        <time>2018-06-20T10:50:37Z</time>
      </trkpt>
      <trkpt lat="45.87602" lon="4.8095">
        <ele>264</ele>
        <time>2018-06-20T10:50:38Z</time>
      </trkpt>
      <trkpt lat="45.87604" lon="4.80947">
        <ele>264</ele>
        <time>2018-06-20T10:50:39Z</time>
      </trkpt>
      <trkpt lat="45.87608" lon="4.80935">
        <ele>264</ele>
        <time>2018-06-20T10:50:40Z</time>
      </trkpt>
      <trkpt lat="45.87611" lon="4.80927">
        <ele>264</ele>
        <time>2018-06-20T10:50:43Z</time>
      </trkpt>
      <trkpt lat="45.87612" lon="4.80923">
        <ele>264</ele>
        <time>2018-06-20T10:50:44Z</time>
      </trkpt>
      <trkpt lat="45.87613" lon="4.80919">
        <ele>264</ele>
        <time>2018-06-20T10:50:45Z</time>
      </trkpt>
      <trkpt lat="45.87616" lon="4.80907">
        <ele>266</ele>
        <time>2018-06-20T10:50:46Z</time>
      </trkpt>
      <trkpt lat="45.87617" lon="4.80902">
        <ele>266</ele>
        <time>2018-06-20T10:50:48Z</time>
      </trkpt>
      <trkpt lat="45.8762" lon="4.80893">
        <ele>266</ele>
        <time>2018-06-20T10:50:49Z</time>
      </trkpt>
      <trkpt lat="45.87624" lon="4.80883">
        <ele>265</ele>
        <time>2018-06-20T10:50:50Z</time>
      </trkpt>
      <trkpt lat="45.87625" lon="4.80879">
        <ele>265</ele>
        <time>2018-06-20T10:50:51Z</time>
      </trkpt>
      <trkpt lat="45.87628" lon="4.80869">
        <ele>265</ele>
        <time>2018-06-20T10:50:52Z</time>
      </trkpt>
      <trkpt lat="45.8763" lon="4.80862">
        <ele>265</ele>
        <time>2018-06-20T10:50:53Z</time>
      </trkpt>
      <trkpt lat="45.87632" lon="4.80853">
        <ele>265</ele>
        <time>2018-06-20T10:50:54Z</time>
      </trkpt>
      <trkpt lat="45.87635" lon="4.80844">
        <ele>265</ele>
        <time>2018-06-20T10:50:55Z</time>
      </trkpt>
      <trkpt lat="45.87638" lon="4.80837">
        <ele>265</ele>
        <time>2018-06-20T10:50:56Z</time>
      </trkpt>
      <trkpt lat="45.87639" lon="4.80832">
        <ele>267</ele>
        <time>2018-06-20T10:50:57Z</time>
      </trkpt>
      <trkpt lat="45.87639" lon="4.80826">
        <ele>267</ele>
        <time>2018-06-20T10:50:58Z</time>
      </trkpt>
      <trkpt lat="45.8764" lon="4.80818">
        <ele>267</ele>
        <time>2018-06-20T10:50:59Z</time>
      </trkpt>
      <trkpt lat="45.87638" lon="4.80807">
        <ele>268</ele>
        <time>2018-06-20T10:51:01Z</time>
      </trkpt>
      <trkpt lat="45.8764" lon="4.808">
        <ele>268</ele>
        <time>2018-06-20T10:51:02Z</time>
      </trkpt>
      <trkpt lat="45.87642" lon="4.80788">
        <ele>269</ele>
        <time>2018-06-20T10:51:04Z</time>
      </trkpt>
      <trkpt lat="45.87644" lon="4.80784">
        <ele>269</ele>
        <time>2018-06-20T10:51:05Z</time>
      </trkpt>
      <trkpt lat="45.87648" lon="4.80774">
        <ele>269</ele>
        <time>2018-06-20T10:51:08Z</time>
      </trkpt>
      <trkpt lat="45.87649" lon="4.80771">
        <ele>269</ele>
        <time>2018-06-20T10:51:09Z</time>
      </trkpt>
      <trkpt lat="45.8765" lon="4.80762">
        <ele>269</ele>
        <time>2018-06-20T10:51:11Z</time>
      </trkpt>
      <trkpt lat="45.87651" lon="4.80758">
        <ele>269</ele>
        <time>2018-06-20T10:51:12Z</time>
      </trkpt>
      <trkpt lat="45.87653" lon="4.8075">
        <ele>270</ele>
        <time>2018-06-20T10:51:14Z</time>
      </trkpt>
      <trkpt lat="45.87655" lon="4.80746">
        <ele>270</ele>
        <time>2018-06-20T10:51:15Z</time>
      </trkpt>
      <trkpt lat="45.87658" lon="4.80738">
        <ele>270</ele>
        <time>2018-06-20T10:51:17Z</time>
      </trkpt>
      <trkpt lat="45.87659" lon="4.80733">
        <ele>271</ele>
        <time>2018-06-20T10:51:18Z</time>
      </trkpt>
      <trkpt lat="45.8766" lon="4.80723">
        <ele>271</ele>
        <time>2018-06-20T10:51:20Z</time>
      </trkpt>
      <trkpt lat="45.87661" lon="4.80719">
        <ele>271</ele>
        <time>2018-06-20T10:51:21Z</time>
      </trkpt>
      <trkpt lat="45.87663" lon="4.80707">
        <ele>271</ele>
        <time>2018-06-20T10:51:24Z</time>
      </trkpt>
      <trkpt lat="45.87664" lon="4.80703">
        <ele>271</ele>
        <time>2018-06-20T10:51:25Z</time>
      </trkpt>
      <trkpt lat="45.87666" lon="4.80693">
        <ele>271</ele>
        <time>2018-06-20T10:51:28Z</time>
      </trkpt>
      <trkpt lat="45.87667" lon="4.80688">
        <ele>267</ele>
        <time>2018-06-20T10:51:29Z</time>
      </trkpt>
      <trkpt lat="45.87668" lon="4.8068">
        <ele>268</ele>
        <time>2018-06-20T10:51:31Z</time>
      </trkpt>
      <trkpt lat="45.87669" lon="4.80675">
        <ele>268</ele>
        <time>2018-06-20T10:51:32Z</time>
      </trkpt>
      <trkpt lat="45.87671" lon="4.80669">
        <ele>268</ele>
        <time>2018-06-20T10:51:33Z</time>
      </trkpt>
      <trkpt lat="45.87673" lon="4.80662">
        <ele>268</ele>
        <time>2018-06-20T10:51:34Z</time>
      </trkpt>
      <trkpt lat="45.87678" lon="4.80647">
        <ele>267</ele>
        <time>2018-06-20T10:51:35Z</time>
      </trkpt>
      <trkpt lat="45.8768" lon="4.8064">
        <ele>266</ele>
        <time>2018-06-20T10:51:36Z</time>
      </trkpt>
      <trkpt lat="45.8768" lon="4.80631">
        <ele>266</ele>
        <time>2018-06-20T10:51:37Z</time>
      </trkpt>
      <trkpt lat="45.87683" lon="4.80623">
        <ele>266</ele>
        <time>2018-06-20T10:51:38Z</time>
      </trkpt>
      <trkpt lat="45.87686" lon="4.80615">
        <ele>266</ele>
        <time>2018-06-20T10:51:39Z</time>
      </trkpt>
      <trkpt lat="45.87686" lon="4.80608">
        <ele>266</ele>
        <time>2018-06-20T10:51:40Z</time>
      </trkpt>
      <trkpt lat="45.8769" lon="4.80603">
        <ele>266</ele>
        <time>2018-06-20T10:51:41Z</time>
      </trkpt>
      <trkpt lat="45.87689" lon="4.80594">
        <ele>266</ele>
        <time>2018-06-20T10:51:42Z</time>
      </trkpt>
      <trkpt lat="45.8769" lon="4.80583">
        <ele>266</ele>
        <time>2018-06-20T10:51:43Z</time>
      </trkpt>
      <trkpt lat="45.87692" lon="4.80578">
        <ele>264</ele>
        <time>2018-06-20T10:51:44Z</time>
      </trkpt>
      <trkpt lat="45.87694" lon="4.8057">
        <ele>264</ele>
        <time>2018-06-20T10:51:45Z</time>
      </trkpt>
      <trkpt lat="45.87691" lon="4.8056">
        <ele>264</ele>
        <time>2018-06-20T10:51:46Z</time>
      </trkpt>
      <trkpt lat="45.87691" lon="4.8055">
        <ele>264</ele>
        <time>2018-06-20T10:51:47Z</time>
      </trkpt>
      <trkpt lat="45.87692" lon="4.80543">
        <ele>263</ele>
        <time>2018-06-20T10:51:48Z</time>
      </trkpt>
      <trkpt lat="45.87692" lon="4.80537">
        <ele>263</ele>
        <time>2018-06-20T10:51:49Z</time>
      </trkpt>
      <trkpt lat="45.87692" lon="4.8053">
        <ele>263</ele>
        <time>2018-06-20T10:51:51Z</time>
      </trkpt>
      <trkpt lat="45.87692" lon="4.80521">
        <ele>263</ele>
        <time>2018-06-20T10:51:52Z</time>
      </trkpt>
      <trkpt lat="45.87698" lon="4.80516">
        <ele>263</ele>
        <time>2018-06-20T10:51:53Z</time>
      </trkpt>
      <trkpt lat="45.87699" lon="4.8051">
        <ele>263</ele>
        <time>2018-06-20T10:51:54Z</time>
      </trkpt>
      <trkpt lat="45.87699" lon="4.80501">
        <ele>263</ele>
        <time>2018-06-20T10:51:56Z</time>
      </trkpt>
      <trkpt lat="45.87701" lon="4.80494">
        <ele>262</ele>
        <time>2018-06-20T10:51:57Z</time>
      </trkpt>
      <trkpt lat="45.87706" lon="4.80488">
        <ele>262</ele>
        <time>2018-06-20T10:51:59Z</time>
      </trkpt>
      <trkpt lat="45.87708" lon="4.80485">
        <ele>262</ele>
        <time>2018-06-20T10:52:00Z</time>
      </trkpt>
      <trkpt lat="45.8771" lon="4.80483">
        <ele>261</ele>
        <time>2018-06-20T10:52:01Z</time>
      </trkpt>
      <trkpt lat="45.87718" lon="4.80476">
        <ele>261</ele>
        <time>2018-06-20T10:52:02Z</time>
      </trkpt>
      <trkpt lat="45.87731" lon="4.80476">
        <ele>260</ele>
        <time>2018-06-20T10:52:03Z</time>
      </trkpt>
      <trkpt lat="45.87732" lon="4.80463">
        <ele>260</ele>
        <time>2018-06-20T10:52:06Z</time>
      </trkpt>
      <trkpt lat="45.87733" lon="4.80462">
        <ele>260</ele>
        <time>2018-06-20T10:52:07Z</time>
      </trkpt>
      <trkpt lat="45.87734" lon="4.80455">
        <ele>260</ele>
        <time>2018-06-20T10:52:09Z</time>
      </trkpt>
      <trkpt lat="45.87741" lon="4.80444">
        <ele>260</ele>
        <time>2018-06-20T10:52:10Z</time>
      </trkpt>
      <trkpt lat="45.87746" lon="4.8044">
        <ele>259</ele>
        <time>2018-06-20T10:52:11Z</time>
      </trkpt>
      <trkpt lat="45.87747" lon="4.80432">
        <ele>259</ele>
        <time>2018-06-20T10:52:12Z</time>
      </trkpt>
      <trkpt lat="45.87752" lon="4.80423">
        <ele>256</ele>
        <time>2018-06-20T10:52:14Z</time>
      </trkpt>
      <trkpt lat="45.87756" lon="4.8042">
        <ele>256</ele>
        <time>2018-06-20T10:52:15Z</time>
      </trkpt>
      <trkpt lat="45.87761" lon="4.80411">
        <ele>256</ele>
        <time>2018-06-20T10:52:17Z</time>
      </trkpt>
      <trkpt lat="45.87764" lon="4.80406">
        <ele>256</ele>
        <time>2018-06-20T10:52:18Z</time>
      </trkpt>
      <trkpt lat="45.87766" lon="4.80401">
        <ele>256</ele>
        <time>2018-06-20T10:52:19Z</time>
      </trkpt>
      <trkpt lat="45.87771" lon="4.80395">
        <ele>256</ele>
        <time>2018-06-20T10:52:20Z</time>
      </trkpt>
      <trkpt lat="45.87775" lon="4.80387">
        <ele>257</ele>
        <time>2018-06-20T10:52:22Z</time>
      </trkpt>
      <trkpt lat="45.87776" lon="4.80385">
        <ele>257</ele>
        <time>2018-06-20T10:52:23Z</time>
      </trkpt>
      <trkpt lat="45.87779" lon="4.80379">
        <ele>257</ele>
        <time>2018-06-20T10:52:24Z</time>
      </trkpt>
      <trkpt lat="45.8778" lon="4.80373">
        <ele>257</ele>
        <time>2018-06-20T10:52:25Z</time>
      </trkpt>
      <trkpt lat="45.87781" lon="4.80366">
        <ele>257</ele>
        <time>2018-06-20T10:52:28Z</time>
      </trkpt>
      <trkpt lat="45.87784" lon="4.80357">
        <ele>258</ele>
        <time>2018-06-20T10:52:29Z</time>
      </trkpt>
      <trkpt lat="45.87791" lon="4.80353">
        <ele>257</ele>
        <time>2018-06-20T10:52:31Z</time>
      </trkpt>
      <trkpt lat="45.87795" lon="4.80347">
        <ele>257</ele>
        <time>2018-06-20T10:52:32Z</time>
      </trkpt>
      <trkpt lat="45.878" lon="4.80337">
        <ele>257</ele>
        <time>2018-06-20T10:52:34Z</time>
      </trkpt>
      <trkpt lat="45.878" lon="4.80335">
        <ele>257</ele>
        <time>2018-06-20T10:52:35Z</time>
      </trkpt>
      <trkpt lat="45.87801" lon="4.80322">
        <ele>259</ele>
        <time>2018-06-20T10:52:39Z</time>
      </trkpt>
      <trkpt lat="45.87807" lon="4.80307">
        <ele>259</ele>
        <time>2018-06-20T10:52:40Z</time>
      </trkpt>
      <trkpt lat="45.87814" lon="4.80303">
        <ele>259</ele>
        <time>2018-06-20T10:52:41Z</time>
      </trkpt>
      <trkpt lat="45.87815" lon="4.80298">
        <ele>259</ele>
        <time>2018-06-20T10:52:42Z</time>
      </trkpt>
      <trkpt lat="45.87815" lon="4.80291">
        <ele>259</ele>
        <time>2018-06-20T10:52:45Z</time>
      </trkpt>
      <trkpt lat="45.87817" lon="4.80279">
        <ele>259</ele>
        <time>2018-06-20T10:52:46Z</time>
      </trkpt>
      <trkpt lat="45.87815" lon="4.80272">
        <ele>259</ele>
        <time>2018-06-20T10:52:47Z</time>
      </trkpt>
      <trkpt lat="45.87817" lon="4.80266">
        <ele>259</ele>
        <time>2018-06-20T10:52:48Z</time>
      </trkpt>
      <trkpt lat="45.87823" lon="4.8026">
        <ele>258</ele>
        <time>2018-06-20T10:52:49Z</time>
      </trkpt>
      <trkpt lat="45.8782" lon="4.80253">
        <ele>258</ele>
        <time>2018-06-20T10:52:50Z</time>
      </trkpt>
      <trkpt lat="45.87823" lon="4.80243">
        <ele>259</ele>
        <time>2018-06-20T10:52:52Z</time>
      </trkpt>
      <trkpt lat="45.87824" lon="4.80241">
        <ele>259</ele>
        <time>2018-06-20T10:52:53Z</time>
      </trkpt>
      <trkpt lat="45.87828" lon="4.80232">
        <ele>260</ele>
        <time>2018-06-20T10:52:56Z</time>
      </trkpt>
      <trkpt lat="45.87829" lon="4.80229">
        <ele>260</ele>
        <time>2018-06-20T10:52:57Z</time>
      </trkpt>
      <trkpt lat="45.8783" lon="4.80225">
        <ele>261</ele>
        <time>2018-06-20T10:52:58Z</time>
      </trkpt>
      <trkpt lat="45.87833" lon="4.80214">
        <ele>261</ele>
        <time>2018-06-20T10:52:59Z</time>
      </trkpt>
      <trkpt lat="45.87836" lon="4.80205">
        <ele>258</ele>
        <time>2018-06-20T10:53:01Z</time>
      </trkpt>
      <trkpt lat="45.87838" lon="4.802">
        <ele>258</ele>
        <time>2018-06-20T10:53:02Z</time>
      </trkpt>
      <trkpt lat="45.87844" lon="4.80191">
        <ele>259</ele>
        <time>2018-06-20T10:53:04Z</time>
      </trkpt>
      <trkpt lat="45.87847" lon="4.80186">
        <ele>259</ele>
        <time>2018-06-20T10:53:05Z</time>
      </trkpt>
      <trkpt lat="45.8785" lon="4.8018">
        <ele>259</ele>
        <time>2018-06-20T10:53:06Z</time>
      </trkpt>
      <trkpt lat="45.87852" lon="4.80175">
        <ele>259</ele>
        <time>2018-06-20T10:53:07Z</time>
      </trkpt>
      <trkpt lat="45.87855" lon="4.80163">
        <ele>262</ele>
        <time>2018-06-20T10:53:09Z</time>
      </trkpt>
      <trkpt lat="45.87858" lon="4.8016">
        <ele>262</ele>
        <time>2018-06-20T10:53:10Z</time>
      </trkpt>
      <trkpt lat="45.87861" lon="4.80156">
        <ele>262</ele>
        <time>2018-06-20T10:53:12Z</time>
      </trkpt>
      <trkpt lat="45.87867" lon="4.8015">
        <ele>262</ele>
        <time>2018-06-20T10:53:13Z</time>
      </trkpt>
      <trkpt lat="45.87873" lon="4.80142">
        <ele>262</ele>
        <time>2018-06-20T10:53:15Z</time>
      </trkpt>
      <trkpt lat="45.87876" lon="4.80137">
        <ele>262</ele>
        <time>2018-06-20T10:53:16Z</time>
      </trkpt>
      <trkpt lat="45.8788" lon="4.80131">
        <ele>262</ele>
        <time>2018-06-20T10:53:17Z</time>
      </trkpt>
      <trkpt lat="45.87882" lon="4.80127">
        <ele>262</ele>
        <time>2018-06-20T10:53:18Z</time>
      </trkpt>
      <trkpt lat="45.87889" lon="4.8012">
        <ele>262</ele>
        <time>2018-06-20T10:53:20Z</time>
      </trkpt>
      <trkpt lat="45.87894" lon="4.80118">
        <ele>262</ele>
        <time>2018-06-20T10:53:21Z</time>
      </trkpt>
      <trkpt lat="45.87899" lon="4.80108">
        <ele>262</ele>
        <time>2018-06-20T10:53:23Z</time>
      </trkpt>
      <trkpt lat="45.87902" lon="4.80105">
        <ele>262</ele>
        <time>2018-06-20T10:53:24Z</time>
      </trkpt>
      <trkpt lat="45.87908" lon="4.80097">
        <ele>262</ele>
        <time>2018-06-20T10:53:26Z</time>
      </trkpt>
      <trkpt lat="45.87912" lon="4.80094">
        <ele>262</ele>
        <time>2018-06-20T10:53:27Z</time>
      </trkpt>
      <trkpt lat="45.87915" lon="4.80089">
        <ele>262</ele>
        <time>2018-06-20T10:53:28Z</time>
      </trkpt>
      <trkpt lat="45.8792" lon="4.80086">
        <ele>261</ele>
        <time>2018-06-20T10:53:29Z</time>
      </trkpt>
      <trkpt lat="45.87927" lon="4.80082">
        <ele>260</ele>
        <time>2018-06-20T10:53:31Z</time>
      </trkpt>
      <trkpt lat="45.87933" lon="4.80077">
        <ele>260</ele>
        <time>2018-06-20T10:53:32Z</time>
      </trkpt>
      <trkpt lat="45.87937" lon="4.80076">
        <ele>259</ele>
        <time>2018-06-20T10:53:33Z</time>
      </trkpt>
      <trkpt lat="45.87942" lon="4.80074">
        <ele>259</ele>
        <time>2018-06-20T10:53:34Z</time>
      </trkpt>
      <trkpt lat="45.87948" lon="4.80072">
        <ele>258</ele>
        <time>2018-06-20T10:53:35Z</time>
      </trkpt>
      <trkpt lat="45.87953" lon="4.80072">
        <ele>258</ele>
        <time>2018-06-20T10:53:36Z</time>
      </trkpt>
      <trkpt lat="45.87957" lon="4.80064">
        <ele>257</ele>
        <time>2018-06-20T10:53:37Z</time>
      </trkpt>
      <trkpt lat="45.87961" lon="4.80058">
        <ele>257</ele>
        <time>2018-06-20T10:53:38Z</time>
      </trkpt>
      <trkpt lat="45.87966" lon="4.80051">
        <ele>257</ele>
        <time>2018-06-20T10:53:39Z</time>
      </trkpt>
      <trkpt lat="45.87971" lon="4.80043">
        <ele>256</ele>
        <time>2018-06-20T10:53:40Z</time>
      </trkpt>
      <trkpt lat="45.87976" lon="4.80035">
        <ele>256</ele>
        <time>2018-06-20T10:53:41Z</time>
      </trkpt>
      <trkpt lat="45.87977" lon="4.8003">
        <ele>256</ele>
        <time>2018-06-20T10:53:42Z</time>
      </trkpt>
      <trkpt lat="45.87981" lon="4.80024">
        <ele>255</ele>
        <time>2018-06-20T10:53:43Z</time>
      </trkpt>
      <trkpt lat="45.87992" lon="4.80016">
        <ele>254</ele>
        <time>2018-06-20T10:53:44Z</time>
      </trkpt>
      <trkpt lat="45.87995" lon="4.80007">
        <ele>253</ele>
        <time>2018-06-20T10:53:45Z</time>
      </trkpt>
      <trkpt lat="45.88" lon="4.79998">
        <ele>251</ele>
        <time>2018-06-20T10:53:46Z</time>
      </trkpt>
      <trkpt lat="45.88003" lon="4.79988">
        <ele>250</ele>
        <time>2018-06-20T10:53:47Z</time>
      </trkpt>
      <trkpt lat="45.88006" lon="4.7998">
        <ele>250</ele>
        <time>2018-06-20T10:53:48Z</time>
      </trkpt>
      <trkpt lat="45.88006" lon="4.79969">
        <ele>250</ele>
        <time>2018-06-20T10:53:49Z</time>
      </trkpt>
      <trkpt lat="45.88008" lon="4.79961">
        <ele>250</ele>
        <time>2018-06-20T10:53:50Z</time>
      </trkpt>
      <trkpt lat="45.88011" lon="4.79951">
        <ele>250</ele>
        <time>2018-06-20T10:53:51Z</time>
      </trkpt>
      <trkpt lat="45.88013" lon="4.79942">
        <ele>250</ele>
        <time>2018-06-20T10:53:52Z</time>
      </trkpt>
      <trkpt lat="45.88015" lon="4.79932">
        <ele>250</ele>
        <time>2018-06-20T10:53:53Z</time>
      </trkpt>
      <trkpt lat="45.88017" lon="4.79922">
        <ele>250</ele>
        <time>2018-06-20T10:53:54Z</time>
      </trkpt>
      <trkpt lat="45.8802" lon="4.79911">
        <ele>249</ele>
        <time>2018-06-20T10:53:55Z</time>
      </trkpt>
      <trkpt lat="45.88023" lon="4.79901">
        <ele>248</ele>
        <time>2018-06-20T10:53:56Z</time>
      </trkpt>
      <trkpt lat="45.88026" lon="4.79892">
        <ele>248</ele>
        <time>2018-06-20T10:53:57Z</time>
      </trkpt>
      <trkpt lat="45.88027" lon="4.79882">
        <ele>247</ele>
        <time>2018-06-20T10:53:58Z</time>
      </trkpt>
      <trkpt lat="45.88026" lon="4.79872">
        <ele>247</ele>
        <time>2018-06-20T10:53:59Z</time>
      </trkpt>
      <trkpt lat="45.88027" lon="4.79861">
        <ele>247</ele>
        <time>2018-06-20T10:54:00Z</time>
      </trkpt>
      <trkpt lat="45.88029" lon="4.79854">
        <ele>247</ele>
        <time>2018-06-20T10:54:01Z</time>
      </trkpt>
      <trkpt lat="45.88029" lon="4.79845">
        <ele>247</ele>
        <time>2018-06-20T10:54:02Z</time>
      </trkpt>
      <trkpt lat="45.88028" lon="4.79836">
        <ele>247</ele>
        <time>2018-06-20T10:54:03Z</time>
      </trkpt>
      <trkpt lat="45.88028" lon="4.7983">
        <ele>244</ele>
        <time>2018-06-20T10:54:04Z</time>
      </trkpt>
      <trkpt lat="45.88029" lon="4.79819">
        <ele>243</ele>
        <time>2018-06-20T10:54:06Z</time>
      </trkpt>
      <trkpt lat="45.88028" lon="4.79814">
        <ele>243</ele>
        <time>2018-06-20T10:54:07Z</time>
      </trkpt>
      <trkpt lat="45.88029" lon="4.79802">
        <ele>243</ele>
        <time>2018-06-20T10:54:11Z</time>
      </trkpt>
      <trkpt lat="45.88028" lon="4.798">
        <ele>242</ele>
        <time>2018-06-20T10:54:12Z</time>
      </trkpt>
      <trkpt lat="45.88034" lon="4.7979">
        <ele>242</ele>
        <time>2018-06-20T10:54:20Z</time>
      </trkpt>
      <trkpt lat="45.88034" lon="4.7979">
        <ele>242</ele>
        <time>2018-06-20T10:54:21Z</time>
      </trkpt>
      <trkpt lat="45.88029" lon="4.798">
        <ele>242</ele>
        <time>2018-06-20T10:54:40Z</time>
      </trkpt>
      <trkpt lat="45.88029" lon="4.79801">
        <ele>242</ele>
        <time>2018-06-20T10:54:41Z</time>
      </trkpt>
      <trkpt lat="45.88032" lon="4.79813">
        <ele>243</ele>
        <time>2018-06-20T10:54:48Z</time>
      </trkpt>
      <trkpt lat="45.88032" lon="4.79814">
        <ele>243</ele>
        <time>2018-06-20T10:54:49Z</time>
      </trkpt>
      <trkpt lat="45.88028" lon="4.79808">
        <ele>243</ele>
        <time>2018-06-20T10:55:09Z</time>
      </trkpt>
      <trkpt lat="45.8803" lon="4.798">
        <ele>242</ele>
        <time>2018-06-20T10:55:10Z</time>
      </trkpt>
      <trkpt lat="45.88031" lon="4.79794">
        <ele>242</ele>
        <time>2018-06-20T10:55:11Z</time>
      </trkpt>
      <trkpt lat="45.88031" lon="4.79785">
        <ele>242</ele>
        <time>2018-06-20T10:55:12Z</time>
      </trkpt>
      <trkpt lat="45.8803" lon="4.79777">
        <ele>241</ele>
        <time>2018-06-20T10:55:13Z</time>
      </trkpt>
      <trkpt lat="45.88029" lon="4.7977">
        <ele>241</ele>
        <time>2018-06-20T10:55:14Z</time>
      </trkpt>
      <trkpt lat="45.88029" lon="4.79763">
        <ele>241</ele>
        <time>2018-06-20T10:55:15Z</time>
      </trkpt>
      <trkpt lat="45.88023" lon="4.79753">
        <ele>241</ele>
        <time>2018-06-20T10:55:16Z</time>
      </trkpt>
      <trkpt lat="45.88019" lon="4.79745">
        <ele>238</ele>
        <time>2018-06-20T10:55:17Z</time>
      </trkpt>
      <trkpt lat="45.88018" lon="4.79738">
        <ele>238</ele>
        <time>2018-06-20T10:55:18Z</time>
      </trkpt>
      <trkpt lat="45.88015" lon="4.79729">
        <ele>237</ele>
        <time>2018-06-20T10:55:19Z</time>
      </trkpt>
      <trkpt lat="45.88015" lon="4.7972">
        <ele>237</ele>
        <time>2018-06-20T10:55:20Z</time>
      </trkpt>
      <trkpt lat="45.8801" lon="4.79711">
        <ele>236</ele>
        <time>2018-06-20T10:55:21Z</time>
      </trkpt>
      <trkpt lat="45.88003" lon="4.797">
        <ele>236</ele>
        <time>2018-06-20T10:55:22Z</time>
      </trkpt>
      <trkpt lat="45.87999" lon="4.79688">
        <ele>240</ele>
        <time>2018-06-20T10:55:23Z</time>
      </trkpt>
      <trkpt lat="45.87997" lon="4.79678">
        <ele>238</ele>
        <time>2018-06-20T10:55:24Z</time>
      </trkpt>
      <trkpt lat="45.87995" lon="4.79667">
        <ele>236</ele>
        <time>2018-06-20T10:55:25Z</time>
      </trkpt>
      <trkpt lat="45.8799" lon="4.79658">
        <ele>237</ele>
        <time>2018-06-20T10:55:26Z</time>
      </trkpt>
      <trkpt lat="45.87987" lon="4.79648">
        <ele>238</ele>
        <time>2018-06-20T10:55:27Z</time>
      </trkpt>
      <trkpt lat="45.87982" lon="4.7964">
        <ele>238</ele>
        <time>2018-06-20T10:55:28Z</time>
      </trkpt>
      <trkpt lat="45.87977" lon="4.79631">
        <ele>239</ele>
        <time>2018-06-20T10:55:29Z</time>
      </trkpt>
      <trkpt lat="45.87978" lon="4.79625">
        <ele>238</ele>
        <time>2018-06-20T10:55:30Z</time>
      </trkpt>
      <trkpt lat="45.87975" lon="4.7962">
        <ele>239</ele>
        <time>2018-06-20T10:55:31Z</time>
      </trkpt>
      <trkpt lat="45.8797" lon="4.79613">
        <ele>239</ele>
        <time>2018-06-20T10:55:32Z</time>
      </trkpt>
      <trkpt lat="45.87967" lon="4.79601">
        <ele>239</ele>
        <time>2018-06-20T10:55:34Z</time>
      </trkpt>
      <trkpt lat="45.87965" lon="4.79594">
        <ele>239</ele>
        <time>2018-06-20T10:55:35Z</time>
      </trkpt>
      <trkpt lat="45.87961" lon="4.79584">
        <ele>239</ele>
        <time>2018-06-20T10:55:37Z</time>
      </trkpt>
      <trkpt lat="45.8796" lon="4.79582">
        <ele>239</ele>
        <time>2018-06-20T10:55:38Z</time>
      </trkpt>
      <trkpt lat="45.87958" lon="4.7958">
        <ele>239</ele>
        <time>2018-06-20T10:55:39Z</time>
      </trkpt>
      <trkpt lat="45.87952" lon="4.79572">
        <ele>240</ele>
        <time>2018-06-20T10:55:40Z</time>
      </trkpt>
      <trkpt lat="45.87946" lon="4.79562">
        <ele>240</ele>
        <time>2018-06-20T10:55:42Z</time>
      </trkpt>
      <trkpt lat="45.87944" lon="4.79556">
        <ele>240</ele>
        <time>2018-06-20T10:55:43Z</time>
      </trkpt>
      <trkpt lat="45.87939" lon="4.79546">
        <ele>240</ele>
        <time>2018-06-20T10:55:45Z</time>
      </trkpt>
      <trkpt lat="45.87938" lon="4.79544">
        <ele>240</ele>
        <time>2018-06-20T10:55:46Z</time>
      </trkpt>
      <trkpt lat="45.87934" lon="4.79535">
        <ele>241</ele>
        <time>2018-06-20T10:55:48Z</time>
      </trkpt>
      <trkpt lat="45.8793" lon="4.79529">
        <ele>241</ele>
        <time>2018-06-20T10:55:49Z</time>
      </trkpt>
      <trkpt lat="45.87926" lon="4.79518">
        <ele>242</ele>
        <time>2018-06-20T10:55:52Z</time>
      </trkpt>
      <trkpt lat="45.87924" lon="4.79508">
        <ele>243</ele>
        <time>2018-06-20T10:55:53Z</time>
      </trkpt>
      <trkpt lat="45.87923" lon="4.795">
        <ele>243</ele>
        <time>2018-06-20T10:55:55Z</time>
      </trkpt>
      <trkpt lat="45.87923" lon="4.79492">
        <ele>242</ele>
        <time>2018-06-20T10:55:56Z</time>
      </trkpt>
      <trkpt lat="45.87922" lon="4.79481">
        <ele>240</ele>
        <time>2018-06-20T10:55:58Z</time>
      </trkpt>
      <trkpt lat="45.8792" lon="4.79476">
        <ele>239</ele>
        <time>2018-06-20T10:55:59Z</time>
      </trkpt>
      <trkpt lat="45.87917" lon="4.79464">
        <ele>246</ele>
        <time>2018-06-20T10:56:01Z</time>
      </trkpt>
      <trkpt lat="45.87915" lon="4.79458">
        <ele>246</ele>
        <time>2018-06-20T10:56:02Z</time>
      </trkpt>
      <trkpt lat="45.87914" lon="4.79451">
        <ele>245</ele>
        <time>2018-06-20T10:56:03Z</time>
      </trkpt>
      <trkpt lat="45.87913" lon="4.79445">
        <ele>244</ele>
        <time>2018-06-20T10:56:04Z</time>
      </trkpt>
      <trkpt lat="45.87912" lon="4.79432">
        <ele>243</ele>
        <time>2018-06-20T10:56:06Z</time>
      </trkpt>
      <trkpt lat="45.87909" lon="4.79425">
        <ele>242</ele>
        <time>2018-06-20T10:56:07Z</time>
      </trkpt>
      <trkpt lat="45.87908" lon="4.79417">
        <ele>241</ele>
        <time>2018-06-20T10:56:08Z</time>
      </trkpt>
      <trkpt lat="45.87906" lon="4.79409">
        <ele>240</ele>
        <time>2018-06-20T10:56:09Z</time>
      </trkpt>
      <trkpt lat="45.87905" lon="4.79401">
        <ele>240</ele>
        <time>2018-06-20T10:56:10Z</time>
      </trkpt>
      <trkpt lat="45.87905" lon="4.79392">
        <ele>240</ele>
        <time>2018-06-20T10:56:11Z</time>
      </trkpt>
      <trkpt lat="45.87903" lon="4.79383">
        <ele>240</ele>
        <time>2018-06-20T10:56:12Z</time>
      </trkpt>
      <trkpt lat="45.87902" lon="4.79372">
        <ele>240</ele>
        <time>2018-06-20T10:56:13Z</time>
      </trkpt>
      <trkpt lat="45.879" lon="4.79363">
        <ele>240</ele>
        <time>2018-06-20T10:56:14Z</time>
      </trkpt>
      <trkpt lat="45.87899" lon="4.79354">
        <ele>239</ele>
        <time>2018-06-20T10:56:15Z</time>
      </trkpt>
      <trkpt lat="45.87899" lon="4.79343">
        <ele>238</ele>
        <time>2018-06-20T10:56:16Z</time>
      </trkpt>
      <trkpt lat="45.87898" lon="4.79333">
        <ele>235</ele>
        <time>2018-06-20T10:56:17Z</time>
      </trkpt>
      <trkpt lat="45.87896" lon="4.79323">
        <ele>236</ele>
        <time>2018-06-20T10:56:18Z</time>
      </trkpt>
      <trkpt lat="45.87894" lon="4.79312">
        <ele>236</ele>
        <time>2018-06-20T10:56:19Z</time>
      </trkpt>
      <trkpt lat="45.87894" lon="4.79302">
        <ele>236</ele>
        <time>2018-06-20T10:56:20Z</time>
      </trkpt>
      <trkpt lat="45.87892" lon="4.79292">
        <ele>236</ele>
        <time>2018-06-20T10:56:21Z</time>
      </trkpt>
      <trkpt lat="45.8789" lon="4.79281">
        <ele>236</ele>
        <time>2018-06-20T10:56:22Z</time>
      </trkpt>
      <trkpt lat="45.87888" lon="4.79269">
        <ele>235</ele>
        <time>2018-06-20T10:56:23Z</time>
      </trkpt>
      <trkpt lat="45.87884" lon="4.79259">
        <ele>235</ele>
        <time>2018-06-20T10:56:24Z</time>
      </trkpt>
      <trkpt lat="45.87881" lon="4.79248">
        <ele>233</ele>
        <time>2018-06-20T10:56:25Z</time>
      </trkpt>
      <trkpt lat="45.87879" lon="4.79236">
        <ele>233</ele>
        <time>2018-06-20T10:56:26Z</time>
      </trkpt>
      <trkpt lat="45.87876" lon="4.79225">
        <ele>233</ele>
        <time>2018-06-20T10:56:27Z</time>
      </trkpt>
      <trkpt lat="45.87874" lon="4.79213">
        <ele>233</ele>
        <time>2018-06-20T10:56:28Z</time>
      </trkpt>
      <trkpt lat="45.87873" lon="4.79203">
        <ele>233</ele>
        <time>2018-06-20T10:56:29Z</time>
      </trkpt>
      <trkpt lat="45.8787" lon="4.7919">
        <ele>232</ele>
        <time>2018-06-20T10:56:30Z</time>
      </trkpt>
      <trkpt lat="45.87868" lon="4.79178">
        <ele>232</ele>
        <time>2018-06-20T10:56:31Z</time>
      </trkpt>
      <trkpt lat="45.87866" lon="4.79166">
        <ele>230</ele>
        <time>2018-06-20T10:56:32Z</time>
      </trkpt>
      <trkpt lat="45.87865" lon="4.79154">
        <ele>230</ele>
        <time>2018-06-20T10:56:33Z</time>
      </trkpt>
      <trkpt lat="45.87862" lon="4.79142">
        <ele>230</ele>
        <time>2018-06-20T10:56:34Z</time>
      </trkpt>
      <trkpt lat="45.8786" lon="4.7913">
        <ele>230</ele>
        <time>2018-06-20T10:56:35Z</time>
      </trkpt>
      <trkpt lat="45.87859" lon="4.79119">
        <ele>230</ele>
        <time>2018-06-20T10:56:36Z</time>
      </trkpt>
      <trkpt lat="45.87858" lon="4.79107">
        <ele>230</ele>
        <time>2018-06-20T10:56:37Z</time>
      </trkpt>
      <trkpt lat="45.87856" lon="4.79095">
        <ele>230</ele>
        <time>2018-06-20T10:56:38Z</time>
      </trkpt>
      <trkpt lat="45.87854" lon="4.79084">
        <ele>230</ele>
        <time>2018-06-20T10:56:39Z</time>
      </trkpt>
      <trkpt lat="45.87852" lon="4.79072">
        <ele>229</ele>
        <time>2018-06-20T10:56:40Z</time>
      </trkpt>
      <trkpt lat="45.87851" lon="4.7906">
        <ele>228</ele>
        <time>2018-06-20T10:56:41Z</time>
      </trkpt>
      <trkpt lat="45.87849" lon="4.7905">
        <ele>228</ele>
        <time>2018-06-20T10:56:42Z</time>
      </trkpt>
      <trkpt lat="45.87847" lon="4.79039">
        <ele>228</ele>
        <time>2018-06-20T10:56:43Z</time>
      </trkpt>
      <trkpt lat="45.87845" lon="4.79026">
        <ele>228</ele>
        <time>2018-06-20T10:56:44Z</time>
      </trkpt>
      <trkpt lat="45.87845" lon="4.79015">
        <ele>228</ele>
        <time>2018-06-20T10:56:45Z</time>
      </trkpt>
      <trkpt lat="45.87843" lon="4.79003">
        <ele>228</ele>
        <time>2018-06-20T10:56:46Z</time>
      </trkpt>
      <trkpt lat="45.87842" lon="4.7899">
        <ele>227</ele>
        <time>2018-06-20T10:56:47Z</time>
      </trkpt>
      <trkpt lat="45.87841" lon="4.78978">
        <ele>226</ele>
        <time>2018-06-20T10:56:48Z</time>
      </trkpt>
      <trkpt lat="45.87838" lon="4.78965">
        <ele>226</ele>
        <time>2018-06-20T10:56:49Z</time>
      </trkpt>
      <trkpt lat="45.87839" lon="4.78954">
        <ele>225</ele>
        <time>2018-06-20T10:56:50Z</time>
      </trkpt>
      <trkpt lat="45.87837" lon="4.78941">
        <ele>225</ele>
        <time>2018-06-20T10:56:51Z</time>
      </trkpt>
      <trkpt lat="45.87841" lon="4.7893">
        <ele>226</ele>
        <time>2018-06-20T10:56:52Z</time>
      </trkpt>
      <trkpt lat="45.87842" lon="4.78917">
        <ele>226</ele>
        <time>2018-06-20T10:56:53Z</time>
      </trkpt>
      <trkpt lat="45.87845" lon="4.78905">
        <ele>226</ele>
        <time>2018-06-20T10:56:54Z</time>
      </trkpt>
      <trkpt lat="45.87847" lon="4.78895">
        <ele>225</ele>
        <time>2018-06-20T10:56:55Z</time>
      </trkpt>
      <trkpt lat="45.87847" lon="4.78884">
        <ele>225</ele>
        <time>2018-06-20T10:56:56Z</time>
      </trkpt>
      <trkpt lat="45.87848" lon="4.78874">
        <ele>225</ele>
        <time>2018-06-20T10:56:57Z</time>
      </trkpt>
      <trkpt lat="45.8785" lon="4.78866">
        <ele>226</ele>
        <time>2018-06-20T10:56:58Z</time>
      </trkpt>
      <trkpt lat="45.8785" lon="4.78857">
        <ele>226</ele>
        <time>2018-06-20T10:56:59Z</time>
      </trkpt>
      <trkpt lat="45.87849" lon="4.78846">
        <ele>226</ele>
        <time>2018-06-20T10:57:00Z</time>
      </trkpt>
      <trkpt lat="45.8785" lon="4.78837">
        <ele>227</ele>
        <time>2018-06-20T10:57:01Z</time>
      </trkpt>
      <trkpt lat="45.8785" lon="4.78827">
        <ele>227</ele>
        <time>2018-06-20T10:57:02Z</time>
      </trkpt>
      <trkpt lat="45.8785" lon="4.78819">
        <ele>227</ele>
        <time>2018-06-20T10:57:03Z</time>
      </trkpt>
      <trkpt lat="45.8785" lon="4.78809">
        <ele>226</ele>
        <time>2018-06-20T10:57:04Z</time>
      </trkpt>
      <trkpt lat="45.8785" lon="4.78798">
        <ele>226</ele>
        <time>2018-06-20T10:57:05Z</time>
      </trkpt>
      <trkpt lat="45.8785" lon="4.78789">
        <ele>226</ele>
        <time>2018-06-20T10:57:06Z</time>
      </trkpt>
      <trkpt lat="45.87848" lon="4.7878">
        <ele>226</ele>
        <time>2018-06-20T10:57:07Z</time>
      </trkpt>
      <trkpt lat="45.8785" lon="4.78771">
        <ele>226</ele>
        <time>2018-06-20T10:57:08Z</time>
      </trkpt>
      <trkpt lat="45.87849" lon="4.78762">
        <ele>226</ele>
        <time>2018-06-20T10:57:09Z</time>
      </trkpt>
      <trkpt lat="45.87848" lon="4.78754">
        <ele>227</ele>
        <time>2018-06-20T10:57:10Z</time>
      </trkpt>
      <trkpt lat="45.87849" lon="4.78747">
        <ele>226</ele>
        <time>2018-06-20T10:57:11Z</time>
      </trkpt>
      <trkpt lat="45.87849" lon="4.78738">
        <ele>226</ele>
        <time>2018-06-20T10:57:12Z</time>
      </trkpt>
      <trkpt lat="45.87849" lon="4.78729">
        <ele>226</ele>
        <time>2018-06-20T10:57:13Z</time>
      </trkpt>
      <trkpt lat="45.87848" lon="4.78721">
        <ele>226</ele>
        <time>2018-06-20T10:57:14Z</time>
      </trkpt>
      <trkpt lat="45.87848" lon="4.78712">
        <ele>226</ele>
        <time>2018-06-20T10:57:15Z</time>
      </trkpt>
      <trkpt lat="45.87847" lon="4.78703">
        <ele>226</ele>
        <time>2018-06-20T10:57:16Z</time>
      </trkpt>
      <trkpt lat="45.87846" lon="4.78694">
        <ele>226</ele>
        <time>2018-06-20T10:57:17Z</time>
      </trkpt>
      <trkpt lat="45.87845" lon="4.78685">
        <ele>226</ele>
        <time>2018-06-20T10:57:18Z</time>
      </trkpt>
      <trkpt lat="45.87845" lon="4.78676">
        <ele>226</ele>
        <time>2018-06-20T10:57:19Z</time>
      </trkpt>
      <trkpt lat="45.87843" lon="4.78667">
        <ele>227</ele>
        <time>2018-06-20T10:57:20Z</time>
      </trkpt>
      <trkpt lat="45.87843" lon="4.78658">
        <ele>227</ele>
        <time>2018-06-20T10:57:21Z</time>
      </trkpt>
      <trkpt lat="45.87842" lon="4.78649">
        <ele>226</ele>
        <time>2018-06-20T10:57:22Z</time>
      </trkpt>
      <trkpt lat="45.8784" lon="4.78642">
        <ele>226</ele>
        <time>2018-06-20T10:57:23Z</time>
      </trkpt>
      <trkpt lat="45.8784" lon="4.78633">
        <ele>226</ele>
        <time>2018-06-20T10:57:24Z</time>
      </trkpt>
      <trkpt lat="45.87838" lon="4.78625">
        <ele>226</ele>
        <time>2018-06-20T10:57:25Z</time>
      </trkpt>
      <trkpt lat="45.87836" lon="4.78616">
        <ele>226</ele>
        <time>2018-06-20T10:57:26Z</time>
      </trkpt>
      <trkpt lat="45.87834" lon="4.78608">
        <ele>226</ele>
        <time>2018-06-20T10:57:27Z</time>
      </trkpt>
      <trkpt lat="45.87834" lon="4.786">
        <ele>227</ele>
        <time>2018-06-20T10:57:28Z</time>
      </trkpt>
      <trkpt lat="45.87833" lon="4.78593">
        <ele>229</ele>
        <time>2018-06-20T10:57:29Z</time>
      </trkpt>
      <trkpt lat="45.87833" lon="4.78585">
        <ele>228</ele>
        <time>2018-06-20T10:57:30Z</time>
      </trkpt>
      <trkpt lat="45.87834" lon="4.78578">
        <ele>227</ele>
        <time>2018-06-20T10:57:31Z</time>
      </trkpt>
      <trkpt lat="45.87839" lon="4.7857">
        <ele>226</ele>
        <time>2018-06-20T10:57:32Z</time>
      </trkpt>
      <trkpt lat="45.87834" lon="4.78563">
        <ele>226</ele>
        <time>2018-06-20T10:57:33Z</time>
      </trkpt>
      <trkpt lat="45.87831" lon="4.78557">
        <ele>228</ele>
        <time>2018-06-20T10:57:34Z</time>
      </trkpt>
      <trkpt lat="45.87831" lon="4.78549">
        <ele>228</ele>
        <time>2018-06-20T10:57:35Z</time>
      </trkpt>
      <trkpt lat="45.87832" lon="4.78542">
        <ele>228</ele>
        <time>2018-06-20T10:57:36Z</time>
      </trkpt>
      <trkpt lat="45.87832" lon="4.78536">
        <ele>228</ele>
        <time>2018-06-20T10:57:37Z</time>
      </trkpt>
      <trkpt lat="45.87832" lon="4.78528">
        <ele>228</ele>
        <time>2018-06-20T10:57:38Z</time>
      </trkpt>
      <trkpt lat="45.87827" lon="4.78521">
        <ele>228</ele>
        <time>2018-06-20T10:57:39Z</time>
      </trkpt>
      <trkpt lat="45.87827" lon="4.78514">
        <ele>227</ele>
        <time>2018-06-20T10:57:40Z</time>
      </trkpt>
      <trkpt lat="45.87826" lon="4.78506">
        <ele>227</ele>
        <time>2018-06-20T10:57:41Z</time>
      </trkpt>
      <trkpt lat="45.87822" lon="4.78499">
        <ele>226</ele>
        <time>2018-06-20T10:57:42Z</time>
      </trkpt>
      <trkpt lat="45.87818" lon="4.78491">
        <ele>226</ele>
        <time>2018-06-20T10:57:43Z</time>
      </trkpt>
      <trkpt lat="45.87821" lon="4.78479">
        <ele>226</ele>
        <time>2018-06-20T10:57:45Z</time>
      </trkpt>
      <trkpt lat="45.87823" lon="4.78473">
        <ele>226</ele>
        <time>2018-06-20T10:57:46Z</time>
      </trkpt>
      <trkpt lat="45.87827" lon="4.78463">
        <ele>226</ele>
        <time>2018-06-20T10:57:49Z</time>
      </trkpt>
      <trkpt lat="45.87829" lon="4.78461">
        <ele>226</ele>
        <time>2018-06-20T10:57:50Z</time>
      </trkpt>
      <trkpt lat="45.87835" lon="4.7846">
        <ele>223</ele>
        <time>2018-06-20T10:57:51Z</time>
      </trkpt>
      <trkpt lat="45.87841" lon="4.78459">
        <ele>222</ele>
        <time>2018-06-20T10:57:52Z</time>
      </trkpt>
      <trkpt lat="45.87848" lon="4.78457">
        <ele>222</ele>
        <time>2018-06-20T10:57:53Z</time>
      </trkpt>
      <trkpt lat="45.87851" lon="4.78453">
        <ele>222</ele>
        <time>2018-06-20T10:57:54Z</time>
      </trkpt>
      <trkpt lat="45.8786" lon="4.78451">
        <ele>222</ele>
        <time>2018-06-20T10:57:55Z</time>
      </trkpt>
      <trkpt lat="45.87867" lon="4.78449">
        <ele>221</ele>
        <time>2018-06-20T10:57:56Z</time>
      </trkpt>
      <trkpt lat="45.87876" lon="4.78447">
        <ele>221</ele>
        <time>2018-06-20T10:57:57Z</time>
      </trkpt>
      <trkpt lat="45.87883" lon="4.78442">
        <ele>221</ele>
        <time>2018-06-20T10:57:58Z</time>
      </trkpt>
      <trkpt lat="45.87891" lon="4.7844">
        <ele>220</ele>
        <time>2018-06-20T10:57:59Z</time>
      </trkpt>
      <trkpt lat="45.879" lon="4.78437">
        <ele>220</ele>
        <time>2018-06-20T10:58:00Z</time>
      </trkpt>
      <trkpt lat="45.87909" lon="4.78436">
        <ele>219</ele>
        <time>2018-06-20T10:58:01Z</time>
      </trkpt>
      <trkpt lat="45.87916" lon="4.78434">
        <ele>219</ele>
        <time>2018-06-20T10:58:02Z</time>
      </trkpt>
      <trkpt lat="45.87924" lon="4.78433">
        <ele>216</ele>
        <time>2018-06-20T10:58:03Z</time>
      </trkpt>
      <trkpt lat="45.87932" lon="4.7843">
        <ele>216</ele>
        <time>2018-06-20T10:58:04Z</time>
      </trkpt>
      <trkpt lat="45.8794" lon="4.78428">
        <ele>216</ele>
        <time>2018-06-20T10:58:05Z</time>
      </trkpt>
      <trkpt lat="45.87947" lon="4.78427">
        <ele>216</ele>
        <time>2018-06-20T10:58:06Z</time>
      </trkpt>
      <trkpt lat="45.87955" lon="4.78426">
        <ele>216</ele>
        <time>2018-06-20T10:58:07Z</time>
      </trkpt>
      <trkpt lat="45.87962" lon="4.78425">
        <ele>215</ele>
        <time>2018-06-20T10:58:08Z</time>
      </trkpt>
      <trkpt lat="45.87968" lon="4.78423">
        <ele>215</ele>
        <time>2018-06-20T10:58:09Z</time>
      </trkpt>
      <trkpt lat="45.87974" lon="4.78423">
        <ele>215</ele>
        <time>2018-06-20T10:58:10Z</time>
      </trkpt>
      <trkpt lat="45.87983" lon="4.78422">
        <ele>214</ele>
        <time>2018-06-20T10:58:12Z</time>
      </trkpt>
      <trkpt lat="45.87987" lon="4.78417">
        <ele>214</ele>
        <time>2018-06-20T10:58:13Z</time>
      </trkpt>
      <trkpt lat="45.87989" lon="4.78409">
        <ele>214</ele>
        <time>2018-06-20T10:58:15Z</time>
      </trkpt>
      <trkpt lat="45.8799" lon="4.78402">
        <ele>214</ele>
        <time>2018-06-20T10:58:16Z</time>
      </trkpt>
      <trkpt lat="45.87989" lon="4.7839">
        <ele>214</ele>
        <time>2018-06-20T10:58:18Z</time>
      </trkpt>
      <trkpt lat="45.87988" lon="4.78383">
        <ele>215</ele>
        <time>2018-06-20T10:58:19Z</time>
      </trkpt>
      <trkpt lat="45.87988" lon="4.78375">
        <ele>215</ele>
        <time>2018-06-20T10:58:20Z</time>
      </trkpt>
      <trkpt lat="45.87988" lon="4.78366">
        <ele>215</ele>
        <time>2018-06-20T10:58:21Z</time>
      </trkpt>
      <trkpt lat="45.87987" lon="4.78358">
        <ele>215</ele>
        <time>2018-06-20T10:58:22Z</time>
      </trkpt>
      <trkpt lat="45.87986" lon="4.7835">
        <ele>215</ele>
        <time>2018-06-20T10:58:23Z</time>
      </trkpt>
      <trkpt lat="45.87986" lon="4.78342">
        <ele>215</ele>
        <time>2018-06-20T10:58:24Z</time>
      </trkpt>
      <trkpt lat="45.87987" lon="4.78336">
        <ele>215</ele>
        <time>2018-06-20T10:58:25Z</time>
      </trkpt>
      <trkpt lat="45.87988" lon="4.78328">
        <ele>215</ele>
        <time>2018-06-20T10:58:26Z</time>
      </trkpt>
      <trkpt lat="45.87988" lon="4.78321">
        <ele>215</ele>
        <time>2018-06-20T10:58:27Z</time>
      </trkpt>
      <trkpt lat="45.8799" lon="4.78315">
        <ele>215</ele>
        <time>2018-06-20T10:58:28Z</time>
      </trkpt>
      <trkpt lat="45.8799" lon="4.78308">
        <ele>215</ele>
        <time>2018-06-20T10:58:29Z</time>
      </trkpt>
      <trkpt lat="45.8799" lon="4.78301">
        <ele>215</ele>
        <time>2018-06-20T10:58:30Z</time>
      </trkpt>
      <trkpt lat="45.87991" lon="4.78292">
        <ele>215</ele>
        <time>2018-06-20T10:58:31Z</time>
      </trkpt>
      <trkpt lat="45.87992" lon="4.78284">
        <ele>215</ele>
        <time>2018-06-20T10:58:32Z</time>
      </trkpt>
      <trkpt lat="45.87993" lon="4.78278">
        <ele>215</ele>
        <time>2018-06-20T10:58:33Z</time>
      </trkpt>
      <trkpt lat="45.87993" lon="4.78269">
        <ele>215</ele>
        <time>2018-06-20T10:58:34Z</time>
      </trkpt>
      <trkpt lat="45.87994" lon="4.78262">
        <ele>215</ele>
        <time>2018-06-20T10:58:35Z</time>
      </trkpt>
      <trkpt lat="45.87995" lon="4.78255">
        <ele>214</ele>
        <time>2018-06-20T10:58:36Z</time>
      </trkpt>
      <trkpt lat="45.87996" lon="4.78249">
        <ele>214</ele>
        <time>2018-06-20T10:58:37Z</time>
      </trkpt>
      <trkpt lat="45.87999" lon="4.78237">
        <ele>215</ele>
        <time>2018-06-20T10:58:39Z</time>
      </trkpt>
      <trkpt lat="45.88" lon="4.78229">
        <ele>215</ele>
        <time>2018-06-20T10:58:40Z</time>
      </trkpt>
      <trkpt lat="45.88" lon="4.78222">
        <ele>215</ele>
        <time>2018-06-20T10:58:41Z</time>
      </trkpt>
      <trkpt lat="45.88001" lon="4.78215">
        <ele>214</ele>
        <time>2018-06-20T10:58:42Z</time>
      </trkpt>
      <trkpt lat="45.88002" lon="4.78209">
        <ele>214</ele>
        <time>2018-06-20T10:58:43Z</time>
      </trkpt>
      <trkpt lat="45.88003" lon="4.78202">
        <ele>214</ele>
        <time>2018-06-20T10:58:44Z</time>
      </trkpt>
      <trkpt lat="45.88003" lon="4.78193">
        <ele>214</ele>
        <time>2018-06-20T10:58:45Z</time>
      </trkpt>
      <trkpt lat="45.88002" lon="4.78185">
        <ele>214</ele>
        <time>2018-06-20T10:58:46Z</time>
      </trkpt>
      <trkpt lat="45.88002" lon="4.78173">
        <ele>215</ele>
        <time>2018-06-20T10:58:48Z</time>
      </trkpt>
      <trkpt lat="45.88001" lon="4.78166">
        <ele>215</ele>
        <time>2018-06-20T10:58:49Z</time>
      </trkpt>
      <trkpt lat="45.88002" lon="4.7816">
        <ele>215</ele>
        <time>2018-06-20T10:58:50Z</time>
      </trkpt>
      <trkpt lat="45.88001" lon="4.78153">
        <ele>214</ele>
        <time>2018-06-20T10:58:51Z</time>
      </trkpt>
      <trkpt lat="45.88" lon="4.78146">
        <ele>216</ele>
        <time>2018-06-20T10:58:52Z</time>
      </trkpt>
      <trkpt lat="45.87999" lon="4.7814">
        <ele>216</ele>
        <time>2018-06-20T10:58:53Z</time>
      </trkpt>
      <trkpt lat="45.87998" lon="4.78128">
        <ele>216</ele>
        <time>2018-06-20T10:58:55Z</time>
      </trkpt>
      <trkpt lat="45.87998" lon="4.78123">
        <ele>216</ele>
        <time>2018-06-20T10:58:56Z</time>
      </trkpt>
      <trkpt lat="45.87997" lon="4.78112">
        <ele>216</ele>
        <time>2018-06-20T10:58:58Z</time>
      </trkpt>
      <trkpt lat="45.87996" lon="4.78106">
        <ele>216</ele>
        <time>2018-06-20T10:58:59Z</time>
      </trkpt>
      <trkpt lat="45.87995" lon="4.78094">
        <ele>216</ele>
        <time>2018-06-20T10:59:01Z</time>
      </trkpt>
      <trkpt lat="45.87995" lon="4.78088">
        <ele>215</ele>
        <time>2018-06-20T10:59:02Z</time>
      </trkpt>
      <trkpt lat="45.87993" lon="4.78077">
        <ele>216</ele>
        <time>2018-06-20T10:59:04Z</time>
      </trkpt>
      <trkpt lat="45.87992" lon="4.78071">
        <ele>216</ele>
        <time>2018-06-20T10:59:05Z</time>
      </trkpt>
      <trkpt lat="45.87991" lon="4.78059">
        <ele>217</ele>
        <time>2018-06-20T10:59:07Z</time>
      </trkpt>
      <trkpt lat="45.8799" lon="4.78054">
        <ele>217</ele>
        <time>2018-06-20T10:59:08Z</time>
      </trkpt>
      <trkpt lat="45.87989" lon="4.78043">
        <ele>217</ele>
        <time>2018-06-20T10:59:10Z</time>
      </trkpt>
      <trkpt lat="45.87987" lon="4.78038">
        <ele>217</ele>
        <time>2018-06-20T10:59:11Z</time>
      </trkpt>
      <trkpt lat="45.87985" lon="4.78026">
        <ele>218</ele>
        <time>2018-06-20T10:59:13Z</time>
      </trkpt>
      <trkpt lat="45.87983" lon="4.7802">
        <ele>218</ele>
        <time>2018-06-20T10:59:14Z</time>
      </trkpt>
      <trkpt lat="45.87982" lon="4.78014">
        <ele>218</ele>
        <time>2018-06-20T10:59:15Z</time>
      </trkpt>
      <trkpt lat="45.87981" lon="4.78007">
        <ele>218</ele>
        <time>2018-06-20T10:59:16Z</time>
      </trkpt>
      <trkpt lat="45.87979" lon="4.78001">
        <ele>218</ele>
        <time>2018-06-20T10:59:17Z</time>
      </trkpt>
      <trkpt lat="45.87979" lon="4.77994">
        <ele>219</ele>
        <time>2018-06-20T10:59:18Z</time>
      </trkpt>
      <trkpt lat="45.87979" lon="4.77987">
        <ele>219</ele>
        <time>2018-06-20T10:59:19Z</time>
      </trkpt>
      <trkpt lat="45.87978" lon="4.7798">
        <ele>219</ele>
        <time>2018-06-20T10:59:20Z</time>
      </trkpt>
      <trkpt lat="45.87979" lon="4.77973">
        <ele>219</ele>
        <time>2018-06-20T10:59:21Z</time>
      </trkpt>
      <trkpt lat="45.87978" lon="4.77967">
        <ele>219</ele>
        <time>2018-06-20T10:59:22Z</time>
      </trkpt>
      <trkpt lat="45.87974" lon="4.77955">
        <ele>219</ele>
        <time>2018-06-20T10:59:25Z</time>
      </trkpt>
      <trkpt lat="45.87974" lon="4.77952">
        <ele>219</ele>
        <time>2018-06-20T10:59:26Z</time>
      </trkpt>
      <trkpt lat="45.87973" lon="4.77949">
        <ele>219</ele>
        <time>2018-06-20T10:59:27Z</time>
      </trkpt>
      <trkpt lat="45.87971" lon="4.77938">
        <ele>220</ele>
        <time>2018-06-20T10:59:28Z</time>
      </trkpt>
      <trkpt lat="45.8797" lon="4.77934">
        <ele>220</ele>
        <time>2018-06-20T10:59:30Z</time>
      </trkpt>
      <trkpt lat="45.87975" lon="4.77923">
        <ele>219</ele>
        <time>2018-06-20T10:59:31Z</time>
      </trkpt>
      <trkpt lat="45.87974" lon="4.77916">
        <ele>219</ele>
        <time>2018-06-20T10:59:32Z</time>
      </trkpt>
      <trkpt lat="45.87972" lon="4.7791">
        <ele>219</ele>
        <time>2018-06-20T10:59:33Z</time>
      </trkpt>
      <trkpt lat="45.87969" lon="4.77902">
        <ele>219</ele>
        <time>2018-06-20T10:59:34Z</time>
      </trkpt>
      <trkpt lat="45.8797" lon="4.77894">
        <ele>219</ele>
        <time>2018-06-20T10:59:35Z</time>
      </trkpt>
      <trkpt lat="45.8797" lon="4.77882">
        <ele>219</ele>
        <time>2018-06-20T10:59:37Z</time>
      </trkpt>
      <trkpt lat="45.8797" lon="4.77874">
        <ele>219</ele>
        <time>2018-06-20T10:59:38Z</time>
      </trkpt>
      <trkpt lat="45.8797" lon="4.77867">
        <ele>219</ele>
        <time>2018-06-20T10:59:39Z</time>
      </trkpt>
      <trkpt lat="45.87971" lon="4.77859">
        <ele>219</ele>
        <time>2018-06-20T10:59:40Z</time>
      </trkpt>
      <trkpt lat="45.8797" lon="4.77851">
        <ele>219</ele>
        <time>2018-06-20T10:59:41Z</time>
      </trkpt>
      <trkpt lat="45.87972" lon="4.77844">
        <ele>219</ele>
        <time>2018-06-20T10:59:42Z</time>
      </trkpt>
      <trkpt lat="45.87971" lon="4.77837">
        <ele>219</ele>
        <time>2018-06-20T10:59:43Z</time>
      </trkpt>
      <trkpt lat="45.87971" lon="4.7783">
        <ele>218</ele>
        <time>2018-06-20T10:59:44Z</time>
      </trkpt>
      <trkpt lat="45.8797" lon="4.77817">
        <ele>218</ele>
        <time>2018-06-20T10:59:46Z</time>
      </trkpt>
      <trkpt lat="45.87969" lon="4.7781">
        <ele>218</ele>
        <time>2018-06-20T10:59:47Z</time>
      </trkpt>
      <trkpt lat="45.87968" lon="4.77802">
        <ele>218</ele>
        <time>2018-06-20T10:59:48Z</time>
      </trkpt>
      <trkpt lat="45.87967" lon="4.77793">
        <ele>218</ele>
        <time>2018-06-20T10:59:49Z</time>
      </trkpt>
      <trkpt lat="45.87966" lon="4.77787">
        <ele>218</ele>
        <time>2018-06-20T10:59:50Z</time>
      </trkpt>
      <trkpt lat="45.87964" lon="4.77779">
        <ele>219</ele>
        <time>2018-06-20T10:59:51Z</time>
      </trkpt>
      <trkpt lat="45.87962" lon="4.77772">
        <ele>219</ele>
        <time>2018-06-20T10:59:52Z</time>
      </trkpt>
      <trkpt lat="45.87959" lon="4.77765">
        <ele>219</ele>
        <time>2018-06-20T10:59:53Z</time>
      </trkpt>
      <trkpt lat="45.87959" lon="4.77757">
        <ele>219</ele>
        <time>2018-06-20T10:59:54Z</time>
      </trkpt>
      <trkpt lat="45.87955" lon="4.7775">
        <ele>219</ele>
        <time>2018-06-20T10:59:55Z</time>
      </trkpt>
      <trkpt lat="45.87954" lon="4.77743">
        <ele>219</ele>
        <time>2018-06-20T10:59:56Z</time>
      </trkpt>
      <trkpt lat="45.87955" lon="4.77736">
        <ele>218</ele>
        <time>2018-06-20T10:59:57Z</time>
      </trkpt>
      <trkpt lat="45.87955" lon="4.77727">
        <ele>218</ele>
        <time>2018-06-20T10:59:58Z</time>
      </trkpt>
      <trkpt lat="45.87956" lon="4.77721">
        <ele>218</ele>
        <time>2018-06-20T10:59:59Z</time>
      </trkpt>
      <trkpt lat="45.87957" lon="4.77713">
        <ele>218</ele>
        <time>2018-06-20T11:00:00Z</time>
      </trkpt>
      <trkpt lat="45.87959" lon="4.77705">
        <ele>218</ele>
        <time>2018-06-20T11:00:01Z</time>
      </trkpt>
      <trkpt lat="45.8796" lon="4.77697">
        <ele>218</ele>
        <time>2018-06-20T11:00:02Z</time>
      </trkpt>
      <trkpt lat="45.87961" lon="4.7769">
        <ele>218</ele>
        <time>2018-06-20T11:00:03Z</time>
      </trkpt>
      <trkpt lat="45.87966" lon="4.77684">
        <ele>218</ele>
        <time>2018-06-20T11:00:04Z</time>
      </trkpt>
      <trkpt lat="45.87968" lon="4.77679">
        <ele>218</ele>
        <time>2018-06-20T11:00:05Z</time>
      </trkpt>
      <trkpt lat="45.87969" lon="4.77668">
        <ele>218</ele>
        <time>2018-06-20T11:00:06Z</time>
      </trkpt>
      <trkpt lat="45.8797" lon="4.77662">
        <ele>218</ele>
        <time>2018-06-20T11:00:07Z</time>
      </trkpt>
      <trkpt lat="45.87969" lon="4.77654">
        <ele>218</ele>
        <time>2018-06-20T11:00:08Z</time>
      </trkpt>
      <trkpt lat="45.87969" lon="4.77647">
        <ele>218</ele>
        <time>2018-06-20T11:00:09Z</time>
      </trkpt>
      <trkpt lat="45.87969" lon="4.77639">
        <ele>218</ele>
        <time>2018-06-20T11:00:10Z</time>
      </trkpt>
      <trkpt lat="45.87969" lon="4.77633">
        <ele>218</ele>
        <time>2018-06-20T11:00:11Z</time>
      </trkpt>
      <trkpt lat="45.87972" lon="4.77627">
        <ele>218</ele>
        <time>2018-06-20T11:00:12Z</time>
      </trkpt>
      <trkpt lat="45.87973" lon="4.77618">
        <ele>218</ele>
        <time>2018-06-20T11:00:13Z</time>
      </trkpt>
      <trkpt lat="45.87975" lon="4.77612">
        <ele>218</ele>
        <time>2018-06-20T11:00:14Z</time>
      </trkpt>
      <trkpt lat="45.87977" lon="4.77605">
        <ele>218</ele>
        <time>2018-06-20T11:00:15Z</time>
      </trkpt>
      <trkpt lat="45.87978" lon="4.77598">
        <ele>218</ele>
        <time>2018-06-20T11:00:16Z</time>
      </trkpt>
      <trkpt lat="45.87978" lon="4.7759">
        <ele>218</ele>
        <time>2018-06-20T11:00:17Z</time>
      </trkpt>
      <trkpt lat="45.87981" lon="4.77582">
        <ele>217</ele>
        <time>2018-06-20T11:00:18Z</time>
      </trkpt>
      <trkpt lat="45.87982" lon="4.77575">
        <ele>217</ele>
        <time>2018-06-20T11:00:19Z</time>
      </trkpt>
      <trkpt lat="45.87984" lon="4.77567">
        <ele>217</ele>
        <time>2018-06-20T11:00:20Z</time>
      </trkpt>
      <trkpt lat="45.87986" lon="4.77559">
        <ele>217</ele>
        <time>2018-06-20T11:00:21Z</time>
      </trkpt>
      <trkpt lat="45.87987" lon="4.77552">
        <ele>217</ele>
        <time>2018-06-20T11:00:22Z</time>
      </trkpt>
      <trkpt lat="45.87988" lon="4.77544">
        <ele>217</ele>
        <time>2018-06-20T11:00:23Z</time>
      </trkpt>
      <trkpt lat="45.87988" lon="4.77536">
        <ele>217</ele>
        <time>2018-06-20T11:00:24Z</time>
      </trkpt>
      <trkpt lat="45.87989" lon="4.77528">
        <ele>217</ele>
        <time>2018-06-20T11:00:25Z</time>
      </trkpt>
      <trkpt lat="45.87989" lon="4.77521">
        <ele>217</ele>
        <time>2018-06-20T11:00:26Z</time>
      </trkpt>
      <trkpt lat="45.8799" lon="4.77514">
        <ele>217</ele>
        <time>2018-06-20T11:00:27Z</time>
      </trkpt>
      <trkpt lat="45.87991" lon="4.77506">
        <ele>217</ele>
        <time>2018-06-20T11:00:28Z</time>
      </trkpt>
      <trkpt lat="45.8799" lon="4.77499">
        <ele>216</ele>
        <time>2018-06-20T11:00:29Z</time>
      </trkpt>
      <trkpt lat="45.87996" lon="4.77495">
        <ele>216</ele>
        <time>2018-06-20T11:00:30Z</time>
      </trkpt>
      <trkpt lat="45.87995" lon="4.77486">
        <ele>216</ele>
        <time>2018-06-20T11:00:31Z</time>
      </trkpt>
      <trkpt lat="45.87996" lon="4.7748">
        <ele>217</ele>
        <time>2018-06-20T11:00:32Z</time>
      </trkpt>
      <trkpt lat="45.87996" lon="4.77471">
        <ele>217</ele>
        <time>2018-06-20T11:00:33Z</time>
      </trkpt>
      <trkpt lat="45.87997" lon="4.77464">
        <ele>217</ele>
        <time>2018-06-20T11:00:34Z</time>
      </trkpt>
      <trkpt lat="45.88" lon="4.77458">
        <ele>217</ele>
        <time>2018-06-20T11:00:35Z</time>
      </trkpt>
      <trkpt lat="45.87999" lon="4.77451">
        <ele>217</ele>
        <time>2018-06-20T11:00:36Z</time>
      </trkpt>
      <trkpt lat="45.87998" lon="4.77444">
        <ele>216</ele>
        <time>2018-06-20T11:00:37Z</time>
      </trkpt>
      <trkpt lat="45.87999" lon="4.77431">
        <ele>216</ele>
        <time>2018-06-20T11:00:39Z</time>
      </trkpt>
      <trkpt lat="45.88" lon="4.77424">
        <ele>215</ele>
        <time>2018-06-20T11:00:40Z</time>
      </trkpt>
      <trkpt lat="45.88001" lon="4.77416">
        <ele>215</ele>
        <time>2018-06-20T11:00:41Z</time>
      </trkpt>
      <trkpt lat="45.88002" lon="4.77409">
        <ele>215</ele>
        <time>2018-06-20T11:00:42Z</time>
      </trkpt>
      <trkpt lat="45.88004" lon="4.774">
        <ele>215</ele>
        <time>2018-06-20T11:00:43Z</time>
      </trkpt>
      <trkpt lat="45.88007" lon="4.77394">
        <ele>215</ele>
        <time>2018-06-20T11:00:44Z</time>
      </trkpt>
      <trkpt lat="45.88008" lon="4.77385">
        <ele>215</ele>
        <time>2018-06-20T11:00:45Z</time>
      </trkpt>
      <trkpt lat="45.88007" lon="4.77376">
        <ele>215</ele>
        <time>2018-06-20T11:00:46Z</time>
      </trkpt>
      <trkpt lat="45.88006" lon="4.77369">
        <ele>215</ele>
        <time>2018-06-20T11:00:47Z</time>
      </trkpt>
      <trkpt lat="45.8801" lon="4.77362">
        <ele>215</ele>
        <time>2018-06-20T11:00:48Z</time>
      </trkpt>
      <trkpt lat="45.8801" lon="4.77354">
        <ele>215</ele>
        <time>2018-06-20T11:00:49Z</time>
      </trkpt>
      <trkpt lat="45.88014" lon="4.77348">
        <ele>215</ele>
        <time>2018-06-20T11:00:50Z</time>
      </trkpt>
      <trkpt lat="45.88015" lon="4.77339">
        <ele>215</ele>
        <time>2018-06-20T11:00:51Z</time>
      </trkpt>
      <trkpt lat="45.88015" lon="4.77333">
        <ele>216</ele>
        <time>2018-06-20T11:00:52Z</time>
      </trkpt>
      <trkpt lat="45.88016" lon="4.77325">
        <ele>215</ele>
        <time>2018-06-20T11:00:53Z</time>
      </trkpt>
      <trkpt lat="45.88017" lon="4.77319">
        <ele>215</ele>
        <time>2018-06-20T11:00:54Z</time>
      </trkpt>
      <trkpt lat="45.88018" lon="4.7731">
        <ele>215</ele>
        <time>2018-06-20T11:00:55Z</time>
      </trkpt>
      <trkpt lat="45.88018" lon="4.77303">
        <ele>215</ele>
        <time>2018-06-20T11:00:56Z</time>
      </trkpt>
      <trkpt lat="45.8802" lon="4.77295">
        <ele>215</ele>
        <time>2018-06-20T11:00:57Z</time>
      </trkpt>
      <trkpt lat="45.88021" lon="4.77288">
        <ele>215</ele>
        <time>2018-06-20T11:00:58Z</time>
      </trkpt>
      <trkpt lat="45.88022" lon="4.77282">
        <ele>215</ele>
        <time>2018-06-20T11:00:59Z</time>
      </trkpt>
      <trkpt lat="45.88024" lon="4.77271">
        <ele>216</ele>
        <time>2018-06-20T11:01:00Z</time>
      </trkpt>
      <trkpt lat="45.88024" lon="4.77261">
        <ele>216</ele>
        <time>2018-06-20T11:01:01Z</time>
      </trkpt>
      <trkpt lat="45.88025" lon="4.77255">
        <ele>216</ele>
        <time>2018-06-20T11:01:02Z</time>
      </trkpt>
      <trkpt lat="45.88026" lon="4.77247">
        <ele>216</ele>
        <time>2018-06-20T11:01:03Z</time>
      </trkpt>
      <trkpt lat="45.88027" lon="4.77241">
        <ele>216</ele>
        <time>2018-06-20T11:01:04Z</time>
      </trkpt>
      <trkpt lat="45.88028" lon="4.77229">
        <ele>216</ele>
        <time>2018-06-20T11:01:06Z</time>
      </trkpt>
      <trkpt lat="45.88029" lon="4.77222">
        <ele>216</ele>
        <time>2018-06-20T11:01:07Z</time>
      </trkpt>
      <trkpt lat="45.88031" lon="4.77211">
        <ele>216</ele>
        <time>2018-06-20T11:01:09Z</time>
      </trkpt>
      <trkpt lat="45.88033" lon="4.77204">
        <ele>216</ele>
        <time>2018-06-20T11:01:10Z</time>
      </trkpt>
      <trkpt lat="45.88032" lon="4.77196">
        <ele>216</ele>
        <time>2018-06-20T11:01:11Z</time>
      </trkpt>
      <trkpt lat="45.88033" lon="4.77189">
        <ele>216</ele>
        <time>2018-06-20T11:01:12Z</time>
      </trkpt>
      <trkpt lat="45.88033" lon="4.77183">
        <ele>216</ele>
        <time>2018-06-20T11:01:13Z</time>
      </trkpt>
      <trkpt lat="45.88034" lon="4.77176">
        <ele>216</ele>
        <time>2018-06-20T11:01:14Z</time>
      </trkpt>
      <trkpt lat="45.88035" lon="4.77168">
        <ele>216</ele>
        <time>2018-06-20T11:01:15Z</time>
      </trkpt>
      <trkpt lat="45.88035" lon="4.77163">
        <ele>215</ele>
        <time>2018-06-20T11:01:16Z</time>
      </trkpt>
      <trkpt lat="45.88037" lon="4.7715">
        <ele>215</ele>
        <time>2018-06-20T11:01:18Z</time>
      </trkpt>
      <trkpt lat="45.88038" lon="4.77142">
        <ele>215</ele>
        <time>2018-06-20T11:01:19Z</time>
      </trkpt>
      <trkpt lat="45.8804" lon="4.77135">
        <ele>215</ele>
        <time>2018-06-20T11:01:20Z</time>
      </trkpt>
      <trkpt lat="45.8804" lon="4.77129">
        <ele>215</ele>
        <time>2018-06-20T11:01:21Z</time>
      </trkpt>
      <trkpt lat="45.88041" lon="4.77122">
        <ele>215</ele>
        <time>2018-06-20T11:01:22Z</time>
      </trkpt>
      <trkpt lat="45.88043" lon="4.77116">
        <ele>215</ele>
        <time>2018-06-20T11:01:23Z</time>
      </trkpt>
      <trkpt lat="45.88045" lon="4.7711">
        <ele>215</ele>
        <time>2018-06-20T11:01:24Z</time>
      </trkpt>
      <trkpt lat="45.88047" lon="4.77102">
        <ele>215</ele>
        <time>2018-06-20T11:01:25Z</time>
      </trkpt>
      <trkpt lat="45.8805" lon="4.7709">
        <ele>215</ele>
        <time>2018-06-20T11:01:27Z</time>
      </trkpt>
      <trkpt lat="45.88052" lon="4.77083">
        <ele>215</ele>
        <time>2018-06-20T11:01:28Z</time>
      </trkpt>
      <trkpt lat="45.88054" lon="4.77076">
        <ele>214</ele>
        <time>2018-06-20T11:01:29Z</time>
      </trkpt>
      <trkpt lat="45.88056" lon="4.7707">
        <ele>214</ele>
        <time>2018-06-20T11:01:30Z</time>
      </trkpt>
      <trkpt lat="45.88058" lon="4.77063">
        <ele>214</ele>
        <time>2018-06-20T11:01:31Z</time>
      </trkpt>
      <trkpt lat="45.88059" lon="4.77056">
        <ele>214</ele>
        <time>2018-06-20T11:01:32Z</time>
      </trkpt>
      <trkpt lat="45.88061" lon="4.77048">
        <ele>214</ele>
        <time>2018-06-20T11:01:33Z</time>
      </trkpt>
      <trkpt lat="45.88063" lon="4.77042">
        <ele>214</ele>
        <time>2018-06-20T11:01:34Z</time>
      </trkpt>
      <trkpt lat="45.88064" lon="4.77034">
        <ele>214</ele>
        <time>2018-06-20T11:01:35Z</time>
      </trkpt>
      <trkpt lat="45.88067" lon="4.77026">
        <ele>214</ele>
        <time>2018-06-20T11:01:36Z</time>
      </trkpt>
      <trkpt lat="45.88069" lon="4.77019">
        <ele>214</ele>
        <time>2018-06-20T11:01:37Z</time>
      </trkpt>
      <trkpt lat="45.88071" lon="4.77009">
        <ele>213</ele>
        <time>2018-06-20T11:01:38Z</time>
      </trkpt>
      <trkpt lat="45.88073" lon="4.77003">
        <ele>213</ele>
        <time>2018-06-20T11:01:39Z</time>
      </trkpt>
      <trkpt lat="45.88075" lon="4.76996">
        <ele>213</ele>
        <time>2018-06-20T11:01:40Z</time>
      </trkpt>
      <trkpt lat="45.88077" lon="4.76989">
        <ele>213</ele>
        <time>2018-06-20T11:01:41Z</time>
      </trkpt>
      <trkpt lat="45.88079" lon="4.76981">
        <ele>213</ele>
        <time>2018-06-20T11:01:42Z</time>
      </trkpt>
      <trkpt lat="45.8808" lon="4.76974">
        <ele>213</ele>
        <time>2018-06-20T11:01:43Z</time>
      </trkpt>
      <trkpt lat="45.88082" lon="4.76968">
        <ele>213</ele>
        <time>2018-06-20T11:01:44Z</time>
      </trkpt>
      <trkpt lat="45.88084" lon="4.76961">
        <ele>212</ele>
        <time>2018-06-20T11:01:45Z</time>
      </trkpt>
      <trkpt lat="45.88085" lon="4.76954">
        <ele>212</ele>
        <time>2018-06-20T11:01:46Z</time>
      </trkpt>
      <trkpt lat="45.88087" lon="4.76947">
        <ele>212</ele>
        <time>2018-06-20T11:01:47Z</time>
      </trkpt>
      <trkpt lat="45.88088" lon="4.7694">
        <ele>212</ele>
        <time>2018-06-20T11:01:48Z</time>
      </trkpt>
      <trkpt lat="45.88089" lon="4.76929">
        <ele>212</ele>
        <time>2018-06-20T11:01:50Z</time>
      </trkpt>
      <trkpt lat="45.8809" lon="4.76923">
        <ele>213</ele>
        <time>2018-06-20T11:01:51Z</time>
      </trkpt>
      <trkpt lat="45.88091" lon="4.76916">
        <ele>213</ele>
        <time>2018-06-20T11:01:52Z</time>
      </trkpt>
      <trkpt lat="45.88092" lon="4.76908">
        <ele>212</ele>
        <time>2018-06-20T11:01:53Z</time>
      </trkpt>
      <trkpt lat="45.88093" lon="4.76901">
        <ele>212</ele>
        <time>2018-06-20T11:01:54Z</time>
      </trkpt>
      <trkpt lat="45.88094" lon="4.76893">
        <ele>212</ele>
        <time>2018-06-20T11:01:55Z</time>
      </trkpt>
      <trkpt lat="45.88095" lon="4.76886">
        <ele>212</ele>
        <time>2018-06-20T11:01:56Z</time>
      </trkpt>
      <trkpt lat="45.88095" lon="4.76878">
        <ele>212</ele>
        <time>2018-06-20T11:01:57Z</time>
      </trkpt>
      <trkpt lat="45.88097" lon="4.76871">
        <ele>212</ele>
        <time>2018-06-20T11:01:58Z</time>
      </trkpt>
      <trkpt lat="45.88099" lon="4.76864">
        <ele>212</ele>
        <time>2018-06-20T11:01:59Z</time>
      </trkpt>
      <trkpt lat="45.881" lon="4.76857">
        <ele>212</ele>
        <time>2018-06-20T11:02:00Z</time>
      </trkpt>
      <trkpt lat="45.88101" lon="4.76849">
        <ele>212</ele>
        <time>2018-06-20T11:02:01Z</time>
      </trkpt>
      <trkpt lat="45.88101" lon="4.7684">
        <ele>212</ele>
        <time>2018-06-20T11:02:02Z</time>
      </trkpt>
      <trkpt lat="45.88103" lon="4.76831">
        <ele>213</ele>
        <time>2018-06-20T11:02:03Z</time>
      </trkpt>
      <trkpt lat="45.88104" lon="4.76824">
        <ele>213</ele>
        <time>2018-06-20T11:02:04Z</time>
      </trkpt>
      <trkpt lat="45.88105" lon="4.76815">
        <ele>213</ele>
        <time>2018-06-20T11:02:05Z</time>
      </trkpt>
      <trkpt lat="45.88106" lon="4.76806">
        <ele>213</ele>
        <time>2018-06-20T11:02:06Z</time>
      </trkpt>
      <trkpt lat="45.88108" lon="4.76798">
        <ele>213</ele>
        <time>2018-06-20T11:02:07Z</time>
      </trkpt>
      <trkpt lat="45.88108" lon="4.76791">
        <ele>213</ele>
        <time>2018-06-20T11:02:08Z</time>
      </trkpt>
      <trkpt lat="45.88108" lon="4.76783">
        <ele>213</ele>
        <time>2018-06-20T11:02:09Z</time>
      </trkpt>
      <trkpt lat="45.88109" lon="4.76776">
        <ele>213</ele>
        <time>2018-06-20T11:02:10Z</time>
      </trkpt>
      <trkpt lat="45.8811" lon="4.76768">
        <ele>213</ele>
        <time>2018-06-20T11:02:11Z</time>
      </trkpt>
      <trkpt lat="45.88111" lon="4.7676">
        <ele>213</ele>
        <time>2018-06-20T11:02:12Z</time>
      </trkpt>
      <trkpt lat="45.88112" lon="4.76754">
        <ele>213</ele>
        <time>2018-06-20T11:02:13Z</time>
      </trkpt>
      <trkpt lat="45.88114" lon="4.76746">
        <ele>214</ele>
        <time>2018-06-20T11:02:14Z</time>
      </trkpt>
      <trkpt lat="45.88114" lon="4.76738">
        <ele>214</ele>
        <time>2018-06-20T11:02:15Z</time>
      </trkpt>
      <trkpt lat="45.88116" lon="4.76732">
        <ele>214</ele>
        <time>2018-06-20T11:02:16Z</time>
      </trkpt>
      <trkpt lat="45.88119" lon="4.76724">
        <ele>214</ele>
        <time>2018-06-20T11:02:17Z</time>
      </trkpt>
      <trkpt lat="45.88122" lon="4.76719">
        <ele>214</ele>
        <time>2018-06-20T11:02:18Z</time>
      </trkpt>
      <trkpt lat="45.88124" lon="4.76712">
        <ele>214</ele>
        <time>2018-06-20T11:02:19Z</time>
      </trkpt>
      <trkpt lat="45.88128" lon="4.76706">
        <ele>214</ele>
        <time>2018-06-20T11:02:20Z</time>
      </trkpt>
      <trkpt lat="45.8813" lon="4.76701">
        <ele>214</ele>
        <time>2018-06-20T11:02:21Z</time>
      </trkpt>
      <trkpt lat="45.88133" lon="4.76696">
        <ele>214</ele>
        <time>2018-06-20T11:02:22Z</time>
      </trkpt>
      <trkpt lat="45.88135" lon="4.7669">
        <ele>214</ele>
        <time>2018-06-20T11:02:23Z</time>
      </trkpt>
      <trkpt lat="45.8814" lon="4.76679">
        <ele>214</ele>
        <time>2018-06-20T11:02:25Z</time>
      </trkpt>
      <trkpt lat="45.88141" lon="4.76674">
        <ele>214</ele>
        <time>2018-06-20T11:02:26Z</time>
      </trkpt>
      <trkpt lat="45.88142" lon="4.76668">
        <ele>214</ele>
        <time>2018-06-20T11:02:27Z</time>
      </trkpt>
      <trkpt lat="45.88145" lon="4.76661">
        <ele>214</ele>
        <time>2018-06-20T11:02:28Z</time>
      </trkpt>
      <trkpt lat="45.88147" lon="4.76655">
        <ele>214</ele>
        <time>2018-06-20T11:02:29Z</time>
      </trkpt>
      <trkpt lat="45.88149" lon="4.76649">
        <ele>215</ele>
        <time>2018-06-20T11:02:30Z</time>
      </trkpt>
      <trkpt lat="45.88152" lon="4.76642">
        <ele>215</ele>
        <time>2018-06-20T11:02:31Z</time>
      </trkpt>
      <trkpt lat="45.88154" lon="4.76636">
        <ele>215</ele>
        <time>2018-06-20T11:02:32Z</time>
      </trkpt>
      <trkpt lat="45.88158" lon="4.76626">
        <ele>215</ele>
        <time>2018-06-20T11:02:34Z</time>
      </trkpt>
      <trkpt lat="45.8816" lon="4.76622">
        <ele>215</ele>
        <time>2018-06-20T11:02:35Z</time>
      </trkpt>
      <trkpt lat="45.88162" lon="4.76615">
        <ele>215</ele>
        <time>2018-06-20T11:02:36Z</time>
      </trkpt>
      <trkpt lat="45.88165" lon="4.76609">
        <ele>215</ele>
        <time>2018-06-20T11:02:37Z</time>
      </trkpt>
      <trkpt lat="45.88167" lon="4.76603">
        <ele>214</ele>
        <time>2018-06-20T11:02:38Z</time>
      </trkpt>
      <trkpt lat="45.8817" lon="4.76596">
        <ele>214</ele>
        <time>2018-06-20T11:02:39Z</time>
      </trkpt>
      <trkpt lat="45.88174" lon="4.76585">
        <ele>215</ele>
        <time>2018-06-20T11:02:41Z</time>
      </trkpt>
      <trkpt lat="45.88175" lon="4.7658">
        <ele>215</ele>
        <time>2018-06-20T11:02:42Z</time>
      </trkpt>
      <trkpt lat="45.88176" lon="4.76572">
        <ele>215</ele>
        <time>2018-06-20T11:02:43Z</time>
      </trkpt>
      <trkpt lat="45.88177" lon="4.76567">
        <ele>214</ele>
        <time>2018-06-20T11:02:44Z</time>
      </trkpt>
      <trkpt lat="45.8818" lon="4.76561">
        <ele>214</ele>
        <time>2018-06-20T11:02:45Z</time>
      </trkpt>
      <trkpt lat="45.88181" lon="4.76555">
        <ele>214</ele>
        <time>2018-06-20T11:02:46Z</time>
      </trkpt>
      <trkpt lat="45.88183" lon="4.76549">
        <ele>214</ele>
        <time>2018-06-20T11:02:47Z</time>
      </trkpt>
      <trkpt lat="45.88185" lon="4.76542">
        <ele>214</ele>
        <time>2018-06-20T11:02:48Z</time>
      </trkpt>
      <trkpt lat="45.88187" lon="4.76535">
        <ele>214</ele>
        <time>2018-06-20T11:02:49Z</time>
      </trkpt>
      <trkpt lat="45.88189" lon="4.7653">
        <ele>214</ele>
        <time>2018-06-20T11:02:50Z</time>
      </trkpt>
      <trkpt lat="45.88193" lon="4.76519">
        <ele>214</ele>
        <time>2018-06-20T11:02:52Z</time>
      </trkpt>
      <trkpt lat="45.88195" lon="4.76512">
        <ele>214</ele>
        <time>2018-06-20T11:02:53Z</time>
      </trkpt>
      <trkpt lat="45.88199" lon="4.76501">
        <ele>214</ele>
        <time>2018-06-20T11:02:55Z</time>
      </trkpt>
      <trkpt lat="45.88201" lon="4.76495">
        <ele>214</ele>
        <time>2018-06-20T11:02:56Z</time>
      </trkpt>
      <trkpt lat="45.88204" lon="4.76488">
        <ele>214</ele>
        <time>2018-06-20T11:02:57Z</time>
      </trkpt>
      <trkpt lat="45.88206" lon="4.76482">
        <ele>214</ele>
        <time>2018-06-20T11:02:58Z</time>
      </trkpt>
      <trkpt lat="45.88211" lon="4.76471">
        <ele>214</ele>
        <time>2018-06-20T11:03:00Z</time>
      </trkpt>
      <trkpt lat="45.88213" lon="4.76464">
        <ele>214</ele>
        <time>2018-06-20T11:03:01Z</time>
      </trkpt>
      <trkpt lat="45.88215" lon="4.76459">
        <ele>214</ele>
        <time>2018-06-20T11:03:02Z</time>
      </trkpt>
      <trkpt lat="45.88218" lon="4.76453">
        <ele>214</ele>
        <time>2018-06-20T11:03:03Z</time>
      </trkpt>
      <trkpt lat="45.8822" lon="4.76445">
        <ele>214</ele>
        <time>2018-06-20T11:03:04Z</time>
      </trkpt>
      <trkpt lat="45.88223" lon="4.76438">
        <ele>214</ele>
        <time>2018-06-20T11:03:05Z</time>
      </trkpt>
      <trkpt lat="45.88225" lon="4.7643">
        <ele>214</ele>
        <time>2018-06-20T11:03:06Z</time>
      </trkpt>
      <trkpt lat="45.88227" lon="4.76422">
        <ele>214</ele>
        <time>2018-06-20T11:03:07Z</time>
      </trkpt>
      <trkpt lat="45.88231" lon="4.76412">
        <ele>215</ele>
        <time>2018-06-20T11:03:09Z</time>
      </trkpt>
      <trkpt lat="45.88233" lon="4.76406">
        <ele>215</ele>
        <time>2018-06-20T11:03:10Z</time>
      </trkpt>
      <trkpt lat="45.88236" lon="4.764">
        <ele>215</ele>
        <time>2018-06-20T11:03:11Z</time>
      </trkpt>
      <trkpt lat="45.88239" lon="4.76394">
        <ele>215</ele>
        <time>2018-06-20T11:03:12Z</time>
      </trkpt>
      <trkpt lat="45.88241" lon="4.76386">
        <ele>215</ele>
        <time>2018-06-20T11:03:13Z</time>
      </trkpt>
      <trkpt lat="45.88244" lon="4.76382">
        <ele>215</ele>
        <time>2018-06-20T11:03:14Z</time>
      </trkpt>
      <trkpt lat="45.88246" lon="4.76376">
        <ele>215</ele>
        <time>2018-06-20T11:03:15Z</time>
      </trkpt>
      <trkpt lat="45.88249" lon="4.76369">
        <ele>215</ele>
        <time>2018-06-20T11:03:16Z</time>
      </trkpt>
      <trkpt lat="45.88251" lon="4.76362">
        <ele>214</ele>
        <time>2018-06-20T11:03:17Z</time>
      </trkpt>
      <trkpt lat="45.88253" lon="4.76356">
        <ele>214</ele>
        <time>2018-06-20T11:03:18Z</time>
      </trkpt>
      <trkpt lat="45.88255" lon="4.76349">
        <ele>214</ele>
        <time>2018-06-20T11:03:19Z</time>
      </trkpt>
      <trkpt lat="45.88258" lon="4.76344">
        <ele>214</ele>
        <time>2018-06-20T11:03:20Z</time>
      </trkpt>
      <trkpt lat="45.8826" lon="4.76338">
        <ele>214</ele>
        <time>2018-06-20T11:03:21Z</time>
      </trkpt>
      <trkpt lat="45.88264" lon="4.76333">
        <ele>214</ele>
        <time>2018-06-20T11:03:22Z</time>
      </trkpt>
      <trkpt lat="45.88269" lon="4.76323">
        <ele>214</ele>
        <time>2018-06-20T11:03:24Z</time>
      </trkpt>
      <trkpt lat="45.8827" lon="4.76316">
        <ele>214</ele>
        <time>2018-06-20T11:03:25Z</time>
      </trkpt>
      <trkpt lat="45.88273" lon="4.76312">
        <ele>214</ele>
        <time>2018-06-20T11:03:26Z</time>
      </trkpt>
      <trkpt lat="45.88276" lon="4.76302">
        <ele>214</ele>
        <time>2018-06-20T11:03:27Z</time>
      </trkpt>
      <trkpt lat="45.88275" lon="4.76294">
        <ele>214</ele>
        <time>2018-06-20T11:03:28Z</time>
      </trkpt>
      <trkpt lat="45.88277" lon="4.76287">
        <ele>214</ele>
        <time>2018-06-20T11:03:29Z</time>
      </trkpt>
      <trkpt lat="45.88276" lon="4.7628">
        <ele>214</ele>
        <time>2018-06-20T11:03:30Z</time>
      </trkpt>
      <trkpt lat="45.88277" lon="4.76271">
        <ele>214</ele>
        <time>2018-06-20T11:03:31Z</time>
      </trkpt>
      <trkpt lat="45.88279" lon="4.76261">
        <ele>214</ele>
        <time>2018-06-20T11:03:32Z</time>
      </trkpt>
      <trkpt lat="45.8828" lon="4.76253">
        <ele>214</ele>
        <time>2018-06-20T11:03:33Z</time>
      </trkpt>
      <trkpt lat="45.8828" lon="4.76245">
        <ele>213</ele>
        <time>2018-06-20T11:03:34Z</time>
      </trkpt>
      <trkpt lat="45.8828" lon="4.76237">
        <ele>213</ele>
        <time>2018-06-20T11:03:35Z</time>
      </trkpt>
      <trkpt lat="45.8828" lon="4.76229">
        <ele>213</ele>
        <time>2018-06-20T11:03:36Z</time>
      </trkpt>
      <trkpt lat="45.88281" lon="4.76222">
        <ele>213</ele>
        <time>2018-06-20T11:03:37Z</time>
      </trkpt>
      <trkpt lat="45.88281" lon="4.76212">
        <ele>213</ele>
        <time>2018-06-20T11:03:38Z</time>
      </trkpt>
      <trkpt lat="45.88282" lon="4.76205">
        <ele>213</ele>
        <time>2018-06-20T11:03:39Z</time>
      </trkpt>
      <trkpt lat="45.88283" lon="4.76195">
        <ele>213</ele>
        <time>2018-06-20T11:03:40Z</time>
      </trkpt>
      <trkpt lat="45.88283" lon="4.76185">
        <ele>213</ele>
        <time>2018-06-20T11:03:41Z</time>
      </trkpt>
      <trkpt lat="45.88283" lon="4.76176">
        <ele>212</ele>
        <time>2018-06-20T11:03:42Z</time>
      </trkpt>
      <trkpt lat="45.88283" lon="4.76169">
        <ele>212</ele>
        <time>2018-06-20T11:03:43Z</time>
      </trkpt>
      <trkpt lat="45.88284" lon="4.76162">
        <ele>211</ele>
        <time>2018-06-20T11:03:44Z</time>
      </trkpt>
      <trkpt lat="45.88284" lon="4.76153">
        <ele>211</ele>
        <time>2018-06-20T11:03:45Z</time>
      </trkpt>
      <trkpt lat="45.88285" lon="4.76144">
        <ele>211</ele>
        <time>2018-06-20T11:03:46Z</time>
      </trkpt>
      <trkpt lat="45.88285" lon="4.76134">
        <ele>210</ele>
        <time>2018-06-20T11:03:47Z</time>
      </trkpt>
      <trkpt lat="45.88286" lon="4.76126">
        <ele>210</ele>
        <time>2018-06-20T11:03:48Z</time>
      </trkpt>
      <trkpt lat="45.88285" lon="4.76116">
        <ele>210</ele>
        <time>2018-06-20T11:03:49Z</time>
      </trkpt>
      <trkpt lat="45.88285" lon="4.76105">
        <ele>210</ele>
        <time>2018-06-20T11:03:50Z</time>
      </trkpt>
      <trkpt lat="45.88286" lon="4.76097">
        <ele>210</ele>
        <time>2018-06-20T11:03:51Z</time>
      </trkpt>
      <trkpt lat="45.88286" lon="4.76086">
        <ele>210</ele>
        <time>2018-06-20T11:03:52Z</time>
      </trkpt>
      <trkpt lat="45.88287" lon="4.76076">
        <ele>208</ele>
        <time>2018-06-20T11:03:53Z</time>
      </trkpt>
      <trkpt lat="45.88288" lon="4.76067">
        <ele>208</ele>
        <time>2018-06-20T11:03:54Z</time>
      </trkpt>
      <trkpt lat="45.88289" lon="4.76056">
        <ele>208</ele>
        <time>2018-06-20T11:03:55Z</time>
      </trkpt>
      <trkpt lat="45.8829" lon="4.76046">
        <ele>208</ele>
        <time>2018-06-20T11:03:56Z</time>
      </trkpt>
      <trkpt lat="45.88292" lon="4.76036">
        <ele>207</ele>
        <time>2018-06-20T11:03:57Z</time>
      </trkpt>
      <trkpt lat="45.88293" lon="4.76026">
        <ele>207</ele>
        <time>2018-06-20T11:03:58Z</time>
      </trkpt>
      <trkpt lat="45.88295" lon="4.76017">
        <ele>207</ele>
        <time>2018-06-20T11:03:59Z</time>
      </trkpt>
      <trkpt lat="45.88295" lon="4.76006">
        <ele>207</ele>
        <time>2018-06-20T11:04:00Z</time>
      </trkpt>
      <trkpt lat="45.88298" lon="4.75998">
        <ele>206</ele>
        <time>2018-06-20T11:04:01Z</time>
      </trkpt>
      <trkpt lat="45.88301" lon="4.75988">
        <ele>206</ele>
        <time>2018-06-20T11:04:02Z</time>
      </trkpt>
      <trkpt lat="45.88305" lon="4.75977">
        <ele>206</ele>
        <time>2018-06-20T11:04:03Z</time>
      </trkpt>
      <trkpt lat="45.88308" lon="4.75968">
        <ele>206</ele>
        <time>2018-06-20T11:04:04Z</time>
      </trkpt>
      <trkpt lat="45.88312" lon="4.75959">
        <ele>206</ele>
        <time>2018-06-20T11:04:05Z</time>
      </trkpt>
      <trkpt lat="45.88315" lon="4.75949">
        <ele>206</ele>
        <time>2018-06-20T11:04:06Z</time>
      </trkpt>
      <trkpt lat="45.88318" lon="4.7594">
        <ele>206</ele>
        <time>2018-06-20T11:04:07Z</time>
      </trkpt>
      <trkpt lat="45.8832" lon="4.7593">
        <ele>205</ele>
        <time>2018-06-20T11:04:08Z</time>
      </trkpt>
      <trkpt lat="45.88322" lon="4.7592">
        <ele>205</ele>
        <time>2018-06-20T11:04:09Z</time>
      </trkpt>
      <trkpt lat="45.88325" lon="4.7591">
        <ele>205</ele>
        <time>2018-06-20T11:04:10Z</time>
      </trkpt>
      <trkpt lat="45.88327" lon="4.75899">
        <ele>205</ele>
        <time>2018-06-20T11:04:11Z</time>
      </trkpt>
      <trkpt lat="45.88328" lon="4.7589">
        <ele>205</ele>
        <time>2018-06-20T11:04:12Z</time>
      </trkpt>
      <trkpt lat="45.8833" lon="4.75879">
        <ele>204</ele>
        <time>2018-06-20T11:04:13Z</time>
      </trkpt>
      <trkpt lat="45.88332" lon="4.7587">
        <ele>204</ele>
        <time>2018-06-20T11:04:14Z</time>
      </trkpt>
      <trkpt lat="45.88333" lon="4.75861">
        <ele>204</ele>
        <time>2018-06-20T11:04:15Z</time>
      </trkpt>
      <trkpt lat="45.88334" lon="4.75852">
        <ele>204</ele>
        <time>2018-06-20T11:04:16Z</time>
      </trkpt>
      <trkpt lat="45.88335" lon="4.75842">
        <ele>203</ele>
        <time>2018-06-20T11:04:17Z</time>
      </trkpt>
      <trkpt lat="45.88336" lon="4.75835">
        <ele>203</ele>
        <time>2018-06-20T11:04:18Z</time>
      </trkpt>
      <trkpt lat="45.88337" lon="4.75826">
        <ele>203</ele>
        <time>2018-06-20T11:04:19Z</time>
      </trkpt>
      <trkpt lat="45.88336" lon="4.75818">
        <ele>203</ele>
        <time>2018-06-20T11:04:20Z</time>
      </trkpt>
      <trkpt lat="45.88337" lon="4.75808">
        <ele>203</ele>
        <time>2018-06-20T11:04:21Z</time>
      </trkpt>
      <trkpt lat="45.88337" lon="4.758">
        <ele>203</ele>
        <time>2018-06-20T11:04:22Z</time>
      </trkpt>
      <trkpt lat="45.88338" lon="4.75791">
        <ele>203</ele>
        <time>2018-06-20T11:04:23Z</time>
      </trkpt>
      <trkpt lat="45.88339" lon="4.75783">
        <ele>203</ele>
        <time>2018-06-20T11:04:24Z</time>
      </trkpt>
      <trkpt lat="45.88339" lon="4.75776">
        <ele>203</ele>
        <time>2018-06-20T11:04:25Z</time>
      </trkpt>
      <trkpt lat="45.8834" lon="4.75769">
        <ele>203</ele>
        <time>2018-06-20T11:04:26Z</time>
      </trkpt>
      <trkpt lat="45.8834" lon="4.75762">
        <ele>203</ele>
        <time>2018-06-20T11:04:27Z</time>
      </trkpt>
      <trkpt lat="45.88341" lon="4.75755">
        <ele>203</ele>
        <time>2018-06-20T11:04:28Z</time>
      </trkpt>
      <trkpt lat="45.88341" lon="4.75747">
        <ele>203</ele>
        <time>2018-06-20T11:04:29Z</time>
      </trkpt>
      <trkpt lat="45.88342" lon="4.75739">
        <ele>203</ele>
        <time>2018-06-20T11:04:30Z</time>
      </trkpt>
      <trkpt lat="45.88343" lon="4.75731">
        <ele>203</ele>
        <time>2018-06-20T11:04:31Z</time>
      </trkpt>
      <trkpt lat="45.88346" lon="4.75722">
        <ele>204</ele>
        <time>2018-06-20T11:04:32Z</time>
      </trkpt>
      <trkpt lat="45.88347" lon="4.75712">
        <ele>204</ele>
        <time>2018-06-20T11:04:33Z</time>
      </trkpt>
      <trkpt lat="45.8835" lon="4.75704">
        <ele>204</ele>
        <time>2018-06-20T11:04:34Z</time>
      </trkpt>
      <trkpt lat="45.88353" lon="4.75696">
        <ele>204</ele>
        <time>2018-06-20T11:04:35Z</time>
      </trkpt>
      <trkpt lat="45.88354" lon="4.75688">
        <ele>204</ele>
        <time>2018-06-20T11:04:36Z</time>
      </trkpt>
      <trkpt lat="45.88354" lon="4.7568">
        <ele>203</ele>
        <time>2018-06-20T11:04:37Z</time>
      </trkpt>
      <trkpt lat="45.88355" lon="4.7567">
        <ele>203</ele>
        <time>2018-06-20T11:04:38Z</time>
      </trkpt>
      <trkpt lat="45.88357" lon="4.75662">
        <ele>203</ele>
        <time>2018-06-20T11:04:39Z</time>
      </trkpt>
      <trkpt lat="45.88358" lon="4.75655">
        <ele>204</ele>
        <time>2018-06-20T11:04:40Z</time>
      </trkpt>
      <trkpt lat="45.88358" lon="4.75648">
        <ele>204</ele>
        <time>2018-06-20T11:04:41Z</time>
      </trkpt>
      <trkpt lat="45.88359" lon="4.75639">
        <ele>204</ele>
        <time>2018-06-20T11:04:42Z</time>
      </trkpt>
      <trkpt lat="45.8836" lon="4.75631">
        <ele>204</ele>
        <time>2018-06-20T11:04:43Z</time>
      </trkpt>
      <trkpt lat="45.88359" lon="4.75622">
        <ele>204</ele>
        <time>2018-06-20T11:04:44Z</time>
      </trkpt>
      <trkpt lat="45.88359" lon="4.75615">
        <ele>204</ele>
        <time>2018-06-20T11:04:45Z</time>
      </trkpt>
      <trkpt lat="45.88359" lon="4.75608">
        <ele>204</ele>
        <time>2018-06-20T11:04:46Z</time>
      </trkpt>
      <trkpt lat="45.8836" lon="4.75602">
        <ele>204</ele>
        <time>2018-06-20T11:04:47Z</time>
      </trkpt>
      <trkpt lat="45.8836" lon="4.75594">
        <ele>204</ele>
        <time>2018-06-20T11:04:48Z</time>
      </trkpt>
      <trkpt lat="45.8836" lon="4.75587">
        <ele>204</ele>
        <time>2018-06-20T11:04:49Z</time>
      </trkpt>
      <trkpt lat="45.8836" lon="4.75579">
        <ele>204</ele>
        <time>2018-06-20T11:04:50Z</time>
      </trkpt>
      <trkpt lat="45.8836" lon="4.75571">
        <ele>204</ele>
        <time>2018-06-20T11:04:51Z</time>
      </trkpt>
      <trkpt lat="45.88361" lon="4.75563">
        <ele>204</ele>
        <time>2018-06-20T11:04:52Z</time>
      </trkpt>
      <trkpt lat="45.88362" lon="4.75554">
        <ele>204</ele>
        <time>2018-06-20T11:04:53Z</time>
      </trkpt>
      <trkpt lat="45.88362" lon="4.75545">
        <ele>204</ele>
        <time>2018-06-20T11:04:54Z</time>
      </trkpt>
      <trkpt lat="45.88361" lon="4.75537">
        <ele>204</ele>
        <time>2018-06-20T11:04:55Z</time>
      </trkpt>
      <trkpt lat="45.88361" lon="4.7553">
        <ele>204</ele>
        <time>2018-06-20T11:04:56Z</time>
      </trkpt>
      <trkpt lat="45.88362" lon="4.75522">
        <ele>204</ele>
        <time>2018-06-20T11:04:57Z</time>
      </trkpt>
      <trkpt lat="45.88361" lon="4.75514">
        <ele>204</ele>
        <time>2018-06-20T11:04:58Z</time>
      </trkpt>
      <trkpt lat="45.88361" lon="4.75507">
        <ele>204</ele>
        <time>2018-06-20T11:04:59Z</time>
      </trkpt>
      <trkpt lat="45.88362" lon="4.755">
        <ele>203</ele>
        <time>2018-06-20T11:05:00Z</time>
      </trkpt>
      <trkpt lat="45.88362" lon="4.75493">
        <ele>203</ele>
        <time>2018-06-20T11:05:01Z</time>
      </trkpt>
      <trkpt lat="45.88361" lon="4.75486">
        <ele>203</ele>
        <time>2018-06-20T11:05:02Z</time>
      </trkpt>
      <trkpt lat="45.88362" lon="4.75477">
        <ele>203</ele>
        <time>2018-06-20T11:05:03Z</time>
      </trkpt>
      <trkpt lat="45.88361" lon="4.7547">
        <ele>203</ele>
        <time>2018-06-20T11:05:04Z</time>
      </trkpt>
      <trkpt lat="45.88363" lon="4.75461">
        <ele>203</ele>
        <time>2018-06-20T11:05:05Z</time>
      </trkpt>
      <trkpt lat="45.88364" lon="4.75452">
        <ele>203</ele>
        <time>2018-06-20T11:05:06Z</time>
      </trkpt>
      <trkpt lat="45.88365" lon="4.75444">
        <ele>203</ele>
        <time>2018-06-20T11:05:07Z</time>
      </trkpt>
      <trkpt lat="45.88367" lon="4.75436">
        <ele>203</ele>
        <time>2018-06-20T11:05:08Z</time>
      </trkpt>
      <trkpt lat="45.88369" lon="4.75429">
        <ele>203</ele>
        <time>2018-06-20T11:05:09Z</time>
      </trkpt>
      <trkpt lat="45.8837" lon="4.75421">
        <ele>203</ele>
        <time>2018-06-20T11:05:10Z</time>
      </trkpt>
      <trkpt lat="45.88371" lon="4.75414">
        <ele>202</ele>
        <time>2018-06-20T11:05:11Z</time>
      </trkpt>
      <trkpt lat="45.88371" lon="4.75407">
        <ele>202</ele>
        <time>2018-06-20T11:05:12Z</time>
      </trkpt>
      <trkpt lat="45.88373" lon="4.75401">
        <ele>202</ele>
        <time>2018-06-20T11:05:13Z</time>
      </trkpt>
      <trkpt lat="45.88375" lon="4.75394">
        <ele>202</ele>
        <time>2018-06-20T11:05:14Z</time>
      </trkpt>
      <trkpt lat="45.88376" lon="4.75388">
        <ele>201</ele>
        <time>2018-06-20T11:05:15Z</time>
      </trkpt>
      <trkpt lat="45.88377" lon="4.75382">
        <ele>201</ele>
        <time>2018-06-20T11:05:16Z</time>
      </trkpt>
      <trkpt lat="45.8838" lon="4.75376">
        <ele>201</ele>
        <time>2018-06-20T11:05:17Z</time>
      </trkpt>
      <trkpt lat="45.88383" lon="4.7537">
        <ele>201</ele>
        <time>2018-06-20T11:05:18Z</time>
      </trkpt>
      <trkpt lat="45.88386" lon="4.75365">
        <ele>201</ele>
        <time>2018-06-20T11:05:19Z</time>
      </trkpt>
      <trkpt lat="45.8839" lon="4.7536">
        <ele>201</ele>
        <time>2018-06-20T11:05:20Z</time>
      </trkpt>
      <trkpt lat="45.88394" lon="4.75354">
        <ele>201</ele>
        <time>2018-06-20T11:05:21Z</time>
      </trkpt>
      <trkpt lat="45.88396" lon="4.75348">
        <ele>201</ele>
        <time>2018-06-20T11:05:22Z</time>
      </trkpt>
      <trkpt lat="45.88399" lon="4.75342">
        <ele>201</ele>
        <time>2018-06-20T11:05:23Z</time>
      </trkpt>
      <trkpt lat="45.88402" lon="4.75336">
        <ele>201</ele>
        <time>2018-06-20T11:05:24Z</time>
      </trkpt>
      <trkpt lat="45.88405" lon="4.75328">
        <ele>200</ele>
        <time>2018-06-20T11:05:25Z</time>
      </trkpt>
      <trkpt lat="45.88406" lon="4.75321">
        <ele>200</ele>
        <time>2018-06-20T11:05:26Z</time>
      </trkpt>
      <trkpt lat="45.88409" lon="4.75315">
        <ele>200</ele>
        <time>2018-06-20T11:05:27Z</time>
      </trkpt>
      <trkpt lat="45.88412" lon="4.75309">
        <ele>200</ele>
        <time>2018-06-20T11:05:28Z</time>
      </trkpt>
      <trkpt lat="45.88416" lon="4.75303">
        <ele>200</ele>
        <time>2018-06-20T11:05:29Z</time>
      </trkpt>
      <trkpt lat="45.8842" lon="4.75298">
        <ele>201</ele>
        <time>2018-06-20T11:05:30Z</time>
      </trkpt>
      <trkpt lat="45.88424" lon="4.75291">
        <ele>201</ele>
        <time>2018-06-20T11:05:31Z</time>
      </trkpt>
      <trkpt lat="45.88429" lon="4.75287">
        <ele>201</ele>
        <time>2018-06-20T11:05:32Z</time>
      </trkpt>
      <trkpt lat="45.88434" lon="4.75282">
        <ele>201</ele>
        <time>2018-06-20T11:05:33Z</time>
      </trkpt>
      <trkpt lat="45.88439" lon="4.75278">
        <ele>201</ele>
        <time>2018-06-20T11:05:34Z</time>
      </trkpt>
      <trkpt lat="45.88444" lon="4.75275">
        <ele>201</ele>
        <time>2018-06-20T11:05:35Z</time>
      </trkpt>
      <trkpt lat="45.8845" lon="4.75271">
        <ele>201</ele>
        <time>2018-06-20T11:05:36Z</time>
      </trkpt>
      <trkpt lat="45.88454" lon="4.75269">
        <ele>201</ele>
        <time>2018-06-20T11:05:37Z</time>
      </trkpt>
      <trkpt lat="45.88459" lon="4.75267">
        <ele>201</ele>
        <time>2018-06-20T11:05:38Z</time>
      </trkpt>
      <trkpt lat="45.88464" lon="4.75266">
        <ele>201</ele>
        <time>2018-06-20T11:05:39Z</time>
      </trkpt>
      <trkpt lat="45.88469" lon="4.75263">
        <ele>201</ele>
        <time>2018-06-20T11:05:40Z</time>
      </trkpt>
      <trkpt lat="45.88474" lon="4.75261">
        <ele>201</ele>
        <time>2018-06-20T11:05:41Z</time>
      </trkpt>
      <trkpt lat="45.88479" lon="4.75259">
        <ele>201</ele>
        <time>2018-06-20T11:05:42Z</time>
      </trkpt>
      <trkpt lat="45.88484" lon="4.75256">
        <ele>201</ele>
        <time>2018-06-20T11:05:43Z</time>
      </trkpt>
      <trkpt lat="45.88489" lon="4.75253">
        <ele>201</ele>
        <time>2018-06-20T11:05:44Z</time>
      </trkpt>
      <trkpt lat="45.88493" lon="4.7525">
        <ele>201</ele>
        <time>2018-06-20T11:05:45Z</time>
      </trkpt>
      <trkpt lat="45.88497" lon="4.75247">
        <ele>201</ele>
        <time>2018-06-20T11:05:46Z</time>
      </trkpt>
      <trkpt lat="45.88501" lon="4.75244">
        <ele>201</ele>
        <time>2018-06-20T11:05:47Z</time>
      </trkpt>
      <trkpt lat="45.88505" lon="4.7524">
        <ele>201</ele>
        <time>2018-06-20T11:05:48Z</time>
      </trkpt>
      <trkpt lat="45.88509" lon="4.75237">
        <ele>201</ele>
        <time>2018-06-20T11:05:49Z</time>
      </trkpt>
      <trkpt lat="45.88511" lon="4.75232">
        <ele>201</ele>
        <time>2018-06-20T11:05:50Z</time>
      </trkpt>
      <trkpt lat="45.88516" lon="4.75224">
        <ele>201</ele>
        <time>2018-06-20T11:05:51Z</time>
      </trkpt>
      <trkpt lat="45.88519" lon="4.75218">
        <ele>201</ele>
        <time>2018-06-20T11:05:52Z</time>
      </trkpt>
      <trkpt lat="45.88524" lon="4.75212">
        <ele>201</ele>
        <time>2018-06-20T11:05:53Z</time>
      </trkpt>
      <trkpt lat="45.88528" lon="4.75206">
        <ele>201</ele>
        <time>2018-06-20T11:05:54Z</time>
      </trkpt>
      <trkpt lat="45.88531" lon="4.75199">
        <ele>201</ele>
        <time>2018-06-20T11:05:55Z</time>
      </trkpt>
      <trkpt lat="45.88534" lon="4.75193">
        <ele>201</ele>
        <time>2018-06-20T11:05:56Z</time>
      </trkpt>
      <trkpt lat="45.88537" lon="4.75187">
        <ele>201</ele>
        <time>2018-06-20T11:05:57Z</time>
      </trkpt>
      <trkpt lat="45.88541" lon="4.75175">
        <ele>201</ele>
        <time>2018-06-20T11:05:59Z</time>
      </trkpt>
      <trkpt lat="45.88544" lon="4.75168">
        <ele>201</ele>
        <time>2018-06-20T11:06:00Z</time>
      </trkpt>
      <trkpt lat="45.88547" lon="4.75161">
        <ele>201</ele>
        <time>2018-06-20T11:06:01Z</time>
      </trkpt>
      <trkpt lat="45.8855" lon="4.75154">
        <ele>201</ele>
        <time>2018-06-20T11:06:02Z</time>
      </trkpt>
      <trkpt lat="45.88555" lon="4.75149">
        <ele>201</ele>
        <time>2018-06-20T11:06:03Z</time>
      </trkpt>
      <trkpt lat="45.88558" lon="4.75143">
        <ele>201</ele>
        <time>2018-06-20T11:06:04Z</time>
      </trkpt>
      <trkpt lat="45.88563" lon="4.75136">
        <ele>201</ele>
        <time>2018-06-20T11:06:05Z</time>
      </trkpt>
      <trkpt lat="45.88567" lon="4.7513">
        <ele>201</ele>
        <time>2018-06-20T11:06:06Z</time>
      </trkpt>
      <trkpt lat="45.88571" lon="4.75124">
        <ele>201</ele>
        <time>2018-06-20T11:06:07Z</time>
      </trkpt>
      <trkpt lat="45.88573" lon="4.75119">
        <ele>201</ele>
        <time>2018-06-20T11:06:08Z</time>
      </trkpt>
      <trkpt lat="45.88577" lon="4.75114">
        <ele>201</ele>
        <time>2018-06-20T11:06:09Z</time>
      </trkpt>
      <trkpt lat="45.88581" lon="4.75112">
        <ele>201</ele>
        <time>2018-06-20T11:06:10Z</time>
      </trkpt>
      <trkpt lat="45.88586" lon="4.75107">
        <ele>202</ele>
        <time>2018-06-20T11:06:11Z</time>
      </trkpt>
      <trkpt lat="45.88588" lon="4.75104">
        <ele>202</ele>
        <time>2018-06-20T11:06:12Z</time>
      </trkpt>
      <trkpt lat="45.88593" lon="4.75097">
        <ele>202</ele>
        <time>2018-06-20T11:06:14Z</time>
      </trkpt>
      <trkpt lat="45.88597" lon="4.75092">
        <ele>202</ele>
        <time>2018-06-20T11:06:15Z</time>
      </trkpt>
      <trkpt lat="45.88603" lon="4.75083">
        <ele>202</ele>
        <time>2018-06-20T11:06:17Z</time>
      </trkpt>
      <trkpt lat="45.88609" lon="4.75075">
        <ele>202</ele>
        <time>2018-06-20T11:06:18Z</time>
      </trkpt>
      <trkpt lat="45.88612" lon="4.75065">
        <ele>202</ele>
        <time>2018-06-20T11:06:19Z</time>
      </trkpt>
      <trkpt lat="45.88614" lon="4.7506">
        <ele>202</ele>
        <time>2018-06-20T11:06:20Z</time>
      </trkpt>
      <trkpt lat="45.88616" lon="4.75053">
        <ele>202</ele>
        <time>2018-06-20T11:06:21Z</time>
      </trkpt>
      <trkpt lat="45.88617" lon="4.75046">
        <ele>202</ele>
        <time>2018-06-20T11:06:22Z</time>
      </trkpt>
      <trkpt lat="45.88619" lon="4.75041">
        <ele>202</ele>
        <time>2018-06-20T11:06:23Z</time>
      </trkpt>
      <trkpt lat="45.88621" lon="4.75034">
        <ele>202</ele>
        <time>2018-06-20T11:06:24Z</time>
      </trkpt>
      <trkpt lat="45.88621" lon="4.75027">
        <ele>202</ele>
        <time>2018-06-20T11:06:25Z</time>
      </trkpt>
      <trkpt lat="45.88623" lon="4.75021">
        <ele>202</ele>
        <time>2018-06-20T11:06:26Z</time>
      </trkpt>
      <trkpt lat="45.88625" lon="4.75014">
        <ele>202</ele>
        <time>2018-06-20T11:06:27Z</time>
      </trkpt>
      <trkpt lat="45.88626" lon="4.75008">
        <ele>202</ele>
        <time>2018-06-20T11:06:28Z</time>
      </trkpt>
      <trkpt lat="45.88628" lon="4.74995">
        <ele>201</ele>
        <time>2018-06-20T11:06:30Z</time>
      </trkpt>
      <trkpt lat="45.8863" lon="4.74988">
        <ele>201</ele>
        <time>2018-06-20T11:06:31Z</time>
      </trkpt>
      <trkpt lat="45.88631" lon="4.74981">
        <ele>201</ele>
        <time>2018-06-20T11:06:32Z</time>
      </trkpt>
      <trkpt lat="45.88633" lon="4.74974">
        <ele>201</ele>
        <time>2018-06-20T11:06:33Z</time>
      </trkpt>
      <trkpt lat="45.88635" lon="4.74968">
        <ele>201</ele>
        <time>2018-06-20T11:06:34Z</time>
      </trkpt>
      <trkpt lat="45.88637" lon="4.74962">
        <ele>201</ele>
        <time>2018-06-20T11:06:35Z</time>
      </trkpt>
      <trkpt lat="45.88639" lon="4.74955">
        <ele>201</ele>
        <time>2018-06-20T11:06:36Z</time>
      </trkpt>
      <trkpt lat="45.88641" lon="4.74949">
        <ele>201</ele>
        <time>2018-06-20T11:06:37Z</time>
      </trkpt>
      <trkpt lat="45.88642" lon="4.74942">
        <ele>201</ele>
        <time>2018-06-20T11:06:38Z</time>
      </trkpt>
      <trkpt lat="45.88644" lon="4.74936">
        <ele>201</ele>
        <time>2018-06-20T11:06:39Z</time>
      </trkpt>
      <trkpt lat="45.88647" lon="4.74932">
        <ele>202</ele>
        <time>2018-06-20T11:06:40Z</time>
      </trkpt>
      <trkpt lat="45.8865" lon="4.74926">
        <ele>202</ele>
        <time>2018-06-20T11:06:41Z</time>
      </trkpt>
      <trkpt lat="45.88655" lon="4.7492">
        <ele>202</ele>
        <time>2018-06-20T11:06:42Z</time>
      </trkpt>
      <trkpt lat="45.88658" lon="4.74917">
        <ele>202</ele>
        <time>2018-06-20T11:06:43Z</time>
      </trkpt>
      <trkpt lat="45.88662" lon="4.74914">
        <ele>202</ele>
        <time>2018-06-20T11:06:44Z</time>
      </trkpt>
      <trkpt lat="45.88666" lon="4.7491">
        <ele>202</ele>
        <time>2018-06-20T11:06:45Z</time>
      </trkpt>
      <trkpt lat="45.88675" lon="4.74912">
        <ele>202</ele>
        <time>2018-06-20T11:06:47Z</time>
      </trkpt>
      <trkpt lat="45.88679" lon="4.74915">
        <ele>202</ele>
        <time>2018-06-20T11:06:48Z</time>
      </trkpt>
      <trkpt lat="45.88686" lon="4.74921">
        <ele>202</ele>
        <time>2018-06-20T11:06:50Z</time>
      </trkpt>
      <trkpt lat="45.8869" lon="4.74922">
        <ele>202</ele>
        <time>2018-06-20T11:06:51Z</time>
      </trkpt>
      <trkpt lat="45.88694" lon="4.74923">
        <ele>202</ele>
        <time>2018-06-20T11:06:52Z</time>
      </trkpt>
      <trkpt lat="45.88699" lon="4.74924">
        <ele>202</ele>
        <time>2018-06-20T11:06:53Z</time>
      </trkpt>
      <trkpt lat="45.88703" lon="4.74925">
        <ele>202</ele>
        <time>2018-06-20T11:06:54Z</time>
      </trkpt>
      <trkpt lat="45.88708" lon="4.74927">
        <ele>202</ele>
        <time>2018-06-20T11:06:55Z</time>
      </trkpt>
      <trkpt lat="45.88713" lon="4.74928">
        <ele>201</ele>
        <time>2018-06-20T11:06:56Z</time>
      </trkpt>
      <trkpt lat="45.88718" lon="4.7493">
        <ele>201</ele>
        <time>2018-06-20T11:06:57Z</time>
      </trkpt>
      <trkpt lat="45.88723" lon="4.74932">
        <ele>201</ele>
        <time>2018-06-20T11:06:58Z</time>
      </trkpt>
      <trkpt lat="45.88731" lon="4.74929">
        <ele>201</ele>
        <time>2018-06-20T11:06:59Z</time>
      </trkpt>
      <trkpt lat="45.88735" lon="4.74929">
        <ele>201</ele>
        <time>2018-06-20T11:07:00Z</time>
      </trkpt>
      <trkpt lat="45.88741" lon="4.7493">
        <ele>201</ele>
        <time>2018-06-20T11:07:01Z</time>
      </trkpt>
      <trkpt lat="45.88746" lon="4.74933">
        <ele>201</ele>
        <time>2018-06-20T11:07:02Z</time>
      </trkpt>
      <trkpt lat="45.88752" lon="4.74934">
        <ele>201</ele>
        <time>2018-06-20T11:07:03Z</time>
      </trkpt>
      <trkpt lat="45.88758" lon="4.74935">
        <ele>201</ele>
        <time>2018-06-20T11:07:04Z</time>
      </trkpt>
      <trkpt lat="45.88764" lon="4.74937">
        <ele>201</ele>
        <time>2018-06-20T11:07:05Z</time>
      </trkpt>
      <trkpt lat="45.88773" lon="4.74936">
        <ele>201</ele>
        <time>2018-06-20T11:07:06Z</time>
      </trkpt>
      <trkpt lat="45.88778" lon="4.74937">
        <ele>201</ele>
        <time>2018-06-20T11:07:07Z</time>
      </trkpt>
      <trkpt lat="45.88784" lon="4.74938">
        <ele>201</ele>
        <time>2018-06-20T11:07:08Z</time>
      </trkpt>
      <trkpt lat="45.88788" lon="4.7494">
        <ele>201</ele>
        <time>2018-06-20T11:07:09Z</time>
      </trkpt>
      <trkpt lat="45.88793" lon="4.74943">
        <ele>201</ele>
        <time>2018-06-20T11:07:10Z</time>
      </trkpt>
      <trkpt lat="45.88798" lon="4.74945">
        <ele>201</ele>
        <time>2018-06-20T11:07:11Z</time>
      </trkpt>
      <trkpt lat="45.88803" lon="4.74945">
        <ele>201</ele>
        <time>2018-06-20T11:07:12Z</time>
      </trkpt>
      <trkpt lat="45.88807" lon="4.74947">
        <ele>201</ele>
        <time>2018-06-20T11:07:13Z</time>
      </trkpt>
      <trkpt lat="45.88812" lon="4.74947">
        <ele>201</ele>
        <time>2018-06-20T11:07:14Z</time>
      </trkpt>
      <trkpt lat="45.88818" lon="4.74948">
        <ele>201</ele>
        <time>2018-06-20T11:07:15Z</time>
      </trkpt>
      <trkpt lat="45.88823" lon="4.7495">
        <ele>201</ele>
        <time>2018-06-20T11:07:16Z</time>
      </trkpt>
      <trkpt lat="45.88828" lon="4.74951">
        <ele>201</ele>
        <time>2018-06-20T11:07:17Z</time>
      </trkpt>
      <trkpt lat="45.88832" lon="4.74953">
        <ele>201</ele>
        <time>2018-06-20T11:07:18Z</time>
      </trkpt>
      <trkpt lat="45.88841" lon="4.74952">
        <ele>201</ele>
        <time>2018-06-20T11:07:20Z</time>
      </trkpt>
      <trkpt lat="45.88845" lon="4.74952">
        <ele>201</ele>
        <time>2018-06-20T11:07:21Z</time>
      </trkpt>
      <trkpt lat="45.8885" lon="4.74953">
        <ele>201</ele>
        <time>2018-06-20T11:07:22Z</time>
      </trkpt>
      <trkpt lat="45.88855" lon="4.74953">
        <ele>201</ele>
        <time>2018-06-20T11:07:23Z</time>
      </trkpt>
      <trkpt lat="45.88863" lon="4.74956">
        <ele>201</ele>
        <time>2018-06-20T11:07:25Z</time>
      </trkpt>
      <trkpt lat="45.88869" lon="4.74958">
        <ele>201</ele>
        <time>2018-06-20T11:07:26Z</time>
      </trkpt>
      <trkpt lat="45.88877" lon="4.74959">
        <ele>201</ele>
        <time>2018-06-20T11:07:28Z</time>
      </trkpt>
      <trkpt lat="45.88884" lon="4.74961">
        <ele>201</ele>
        <time>2018-06-20T11:07:29Z</time>
      </trkpt>
      <trkpt lat="45.88892" lon="4.74964">
        <ele>201</ele>
        <time>2018-06-20T11:07:30Z</time>
      </trkpt>
      <trkpt lat="45.88898" lon="4.74964">
        <ele>201</ele>
        <time>2018-06-20T11:07:31Z</time>
      </trkpt>
      <trkpt lat="45.88904" lon="4.74963">
        <ele>201</ele>
        <time>2018-06-20T11:07:32Z</time>
      </trkpt>
      <trkpt lat="45.88907" lon="4.7496">
        <ele>201</ele>
        <time>2018-06-20T11:07:33Z</time>
      </trkpt>
      <trkpt lat="45.88913" lon="4.74958">
        <ele>201</ele>
        <time>2018-06-20T11:07:34Z</time>
      </trkpt>
      <trkpt lat="45.88918" lon="4.74957">
        <ele>200</ele>
        <time>2018-06-20T11:07:35Z</time>
      </trkpt>
      <trkpt lat="45.88921" lon="4.74956">
        <ele>200</ele>
        <time>2018-06-20T11:07:36Z</time>
      </trkpt>
      <trkpt lat="45.88927" lon="4.74954">
        <ele>200</ele>
        <time>2018-06-20T11:07:37Z</time>
      </trkpt>
      <trkpt lat="45.8893" lon="4.7495">
        <ele>200</ele>
        <time>2018-06-20T11:07:38Z</time>
      </trkpt>
      <trkpt lat="45.88935" lon="4.74948">
        <ele>200</ele>
        <time>2018-06-20T11:07:39Z</time>
      </trkpt>
      <trkpt lat="45.88939" lon="4.74946">
        <ele>200</ele>
        <time>2018-06-20T11:07:40Z</time>
      </trkpt>
      <trkpt lat="45.88946" lon="4.74945">
        <ele>200</ele>
        <time>2018-06-20T11:07:41Z</time>
      </trkpt>
      <trkpt lat="45.88954" lon="4.74941">
        <ele>200</ele>
        <time>2018-06-20T11:07:43Z</time>
      </trkpt>
      <trkpt lat="45.88959" lon="4.74939">
        <ele>200</ele>
        <time>2018-06-20T11:07:44Z</time>
      </trkpt>
      <trkpt lat="45.88965" lon="4.74936">
        <ele>200</ele>
        <time>2018-06-20T11:07:45Z</time>
      </trkpt>
      <trkpt lat="45.88972" lon="4.74935">
        <ele>200</ele>
        <time>2018-06-20T11:07:46Z</time>
      </trkpt>
      <trkpt lat="45.88977" lon="4.74932">
        <ele>200</ele>
        <time>2018-06-20T11:07:47Z</time>
      </trkpt>
      <trkpt lat="45.88981" lon="4.74928">
        <ele>199</ele>
        <time>2018-06-20T11:07:48Z</time>
      </trkpt>
      <trkpt lat="45.88987" lon="4.74925">
        <ele>199</ele>
        <time>2018-06-20T11:07:49Z</time>
      </trkpt>
      <trkpt lat="45.88991" lon="4.74924">
        <ele>199</ele>
        <time>2018-06-20T11:07:50Z</time>
      </trkpt>
      <trkpt lat="45.88996" lon="4.74922">
        <ele>199</ele>
        <time>2018-06-20T11:07:51Z</time>
      </trkpt>
      <trkpt lat="45.89001" lon="4.74917">
        <ele>199</ele>
        <time>2018-06-20T11:07:52Z</time>
      </trkpt>
      <trkpt lat="45.89009" lon="4.74911">
        <ele>199</ele>
        <time>2018-06-20T11:07:54Z</time>
      </trkpt>
      <trkpt lat="45.89012" lon="4.74908">
        <ele>199</ele>
        <time>2018-06-20T11:07:55Z</time>
      </trkpt>
      <trkpt lat="45.89017" lon="4.74903">
        <ele>199</ele>
        <time>2018-06-20T11:07:56Z</time>
      </trkpt>
      <trkpt lat="45.8902" lon="4.749">
        <ele>199</ele>
        <time>2018-06-20T11:07:57Z</time>
      </trkpt>
      <trkpt lat="45.89028" lon="4.74894">
        <ele>199</ele>
        <time>2018-06-20T11:07:59Z</time>
      </trkpt>
      <trkpt lat="45.89031" lon="4.74891">
        <ele>199</ele>
        <time>2018-06-20T11:08:00Z</time>
      </trkpt>
      <trkpt lat="45.89036" lon="4.74882">
        <ele>199</ele>
        <time>2018-06-20T11:08:02Z</time>
      </trkpt>
      <trkpt lat="45.8904" lon="4.74879">
        <ele>199</ele>
        <time>2018-06-20T11:08:03Z</time>
      </trkpt>
      <trkpt lat="45.89043" lon="4.74874">
        <ele>199</ele>
        <time>2018-06-20T11:08:04Z</time>
      </trkpt>
      <trkpt lat="45.89048" lon="4.74872">
        <ele>199</ele>
        <time>2018-06-20T11:08:05Z</time>
      </trkpt>
      <trkpt lat="45.89055" lon="4.7487">
        <ele>199</ele>
        <time>2018-06-20T11:08:06Z</time>
      </trkpt>
      <trkpt lat="45.8906" lon="4.7487">
        <ele>199</ele>
        <time>2018-06-20T11:08:07Z</time>
      </trkpt>
      <trkpt lat="45.89066" lon="4.74867">
        <ele>199</ele>
        <time>2018-06-20T11:08:08Z</time>
      </trkpt>
      <trkpt lat="45.89073" lon="4.74867">
        <ele>199</ele>
        <time>2018-06-20T11:08:09Z</time>
      </trkpt>
      <trkpt lat="45.8908" lon="4.74866">
        <ele>199</ele>
        <time>2018-06-20T11:08:10Z</time>
      </trkpt>
      <trkpt lat="45.89085" lon="4.74865">
        <ele>199</ele>
        <time>2018-06-20T11:08:11Z</time>
      </trkpt>
      <trkpt lat="45.89093" lon="4.7486">
        <ele>199</ele>
        <time>2018-06-20T11:08:13Z</time>
      </trkpt>
      <trkpt lat="45.89101" lon="4.74859">
        <ele>199</ele>
        <time>2018-06-20T11:08:14Z</time>
      </trkpt>
      <trkpt lat="45.89107" lon="4.74856">
        <ele>199</ele>
        <time>2018-06-20T11:08:15Z</time>
      </trkpt>
      <trkpt lat="45.89113" lon="4.74858">
        <ele>199</ele>
        <time>2018-06-20T11:08:16Z</time>
      </trkpt>
      <trkpt lat="45.8912" lon="4.74857">
        <ele>199</ele>
        <time>2018-06-20T11:08:17Z</time>
      </trkpt>
      <trkpt lat="45.89127" lon="4.74853">
        <ele>199</ele>
        <time>2018-06-20T11:08:18Z</time>
      </trkpt>
      <trkpt lat="45.89134" lon="4.74852">
        <ele>199</ele>
        <time>2018-06-20T11:08:19Z</time>
      </trkpt>
      <trkpt lat="45.89141" lon="4.74851">
        <ele>199</ele>
        <time>2018-06-20T11:08:20Z</time>
      </trkpt>
      <trkpt lat="45.89148" lon="4.74852">
        <ele>199</ele>
        <time>2018-06-20T11:08:21Z</time>
      </trkpt>
      <trkpt lat="45.89154" lon="4.74851">
        <ele>198</ele>
        <time>2018-06-20T11:08:22Z</time>
      </trkpt>
      <trkpt lat="45.8916" lon="4.7485">
        <ele>198</ele>
        <time>2018-06-20T11:08:23Z</time>
      </trkpt>
      <trkpt lat="45.89165" lon="4.74852">
        <ele>198</ele>
        <time>2018-06-20T11:08:24Z</time>
      </trkpt>
      <trkpt lat="45.89171" lon="4.74851">
        <ele>198</ele>
        <time>2018-06-20T11:08:25Z</time>
      </trkpt>
      <trkpt lat="45.89177" lon="4.74852">
        <ele>198</ele>
        <time>2018-06-20T11:08:26Z</time>
      </trkpt>
      <trkpt lat="45.89182" lon="4.74853">
        <ele>198</ele>
        <time>2018-06-20T11:08:27Z</time>
      </trkpt>
      <trkpt lat="45.8919" lon="4.74853">
        <ele>198</ele>
        <time>2018-06-20T11:08:28Z</time>
      </trkpt>
      <trkpt lat="45.89196" lon="4.74854">
        <ele>198</ele>
        <time>2018-06-20T11:08:29Z</time>
      </trkpt>
      <trkpt lat="45.89202" lon="4.74854">
        <ele>198</ele>
        <time>2018-06-20T11:08:30Z</time>
      </trkpt>
      <trkpt lat="45.89209" lon="4.74853">
        <ele>198</ele>
        <time>2018-06-20T11:08:31Z</time>
      </trkpt>
      <trkpt lat="45.89215" lon="4.74852">
        <ele>198</ele>
        <time>2018-06-20T11:08:32Z</time>
      </trkpt>
      <trkpt lat="45.89221" lon="4.74852">
        <ele>198</ele>
        <time>2018-06-20T11:08:33Z</time>
      </trkpt>
      <trkpt lat="45.89228" lon="4.74852">
        <ele>198</ele>
        <time>2018-06-20T11:08:34Z</time>
      </trkpt>
      <trkpt lat="45.89234" lon="4.74852">
        <ele>198</ele>
        <time>2018-06-20T11:08:35Z</time>
      </trkpt>
      <trkpt lat="45.89239" lon="4.74853">
        <ele>198</ele>
        <time>2018-06-20T11:08:36Z</time>
      </trkpt>
      <trkpt lat="45.89246" lon="4.74854">
        <ele>198</ele>
        <time>2018-06-20T11:08:37Z</time>
      </trkpt>
      <trkpt lat="45.8925" lon="4.74854">
        <ele>198</ele>
        <time>2018-06-20T11:08:38Z</time>
      </trkpt>
      <trkpt lat="45.89257" lon="4.74854">
        <ele>198</ele>
        <time>2018-06-20T11:08:39Z</time>
      </trkpt>
      <trkpt lat="45.89265" lon="4.74853">
        <ele>198</ele>
        <time>2018-06-20T11:08:40Z</time>
      </trkpt>
      <trkpt lat="45.89274" lon="4.74854">
        <ele>198</ele>
        <time>2018-06-20T11:08:42Z</time>
      </trkpt>
      <trkpt lat="45.89279" lon="4.74853">
        <ele>198</ele>
        <time>2018-06-20T11:08:43Z</time>
      </trkpt>
      <trkpt lat="45.89283" lon="4.74855">
        <ele>198</ele>
        <time>2018-06-20T11:08:44Z</time>
      </trkpt>
      <trkpt lat="45.8929" lon="4.74856">
        <ele>198</ele>
        <time>2018-06-20T11:08:45Z</time>
      </trkpt>
      <trkpt lat="45.89298" lon="4.74856">
        <ele>198</ele>
        <time>2018-06-20T11:08:47Z</time>
      </trkpt>
      <trkpt lat="45.89303" lon="4.74857">
        <ele>198</ele>
        <time>2018-06-20T11:08:48Z</time>
      </trkpt>
      <trkpt lat="45.89311" lon="4.74857">
        <ele>198</ele>
        <time>2018-06-20T11:08:50Z</time>
      </trkpt>
      <trkpt lat="45.89315" lon="4.74857">
        <ele>198</ele>
        <time>2018-06-20T11:08:51Z</time>
      </trkpt>
      <trkpt lat="45.8932" lon="4.74858">
        <ele>198</ele>
        <time>2018-06-20T11:08:52Z</time>
      </trkpt>
      <trkpt lat="45.89326" lon="4.7486">
        <ele>198</ele>
        <time>2018-06-20T11:08:53Z</time>
      </trkpt>
      <trkpt lat="45.89332" lon="4.74862">
        <ele>198</ele>
        <time>2018-06-20T11:08:54Z</time>
      </trkpt>
      <trkpt lat="45.89339" lon="4.74861">
        <ele>199</ele>
        <time>2018-06-20T11:08:55Z</time>
      </trkpt>
      <trkpt lat="45.89343" lon="4.74864">
        <ele>199</ele>
        <time>2018-06-20T11:08:56Z</time>
      </trkpt>
      <trkpt lat="45.89351" lon="4.74859">
        <ele>199</ele>
        <time>2018-06-20T11:08:57Z</time>
      </trkpt>
      <trkpt lat="45.89357" lon="4.74861">
        <ele>199</ele>
        <time>2018-06-20T11:08:58Z</time>
      </trkpt>
      <trkpt lat="45.89362" lon="4.74864">
        <ele>199</ele>
        <time>2018-06-20T11:08:59Z</time>
      </trkpt>
      <trkpt lat="45.89369" lon="4.74867">
        <ele>199</ele>
        <time>2018-06-20T11:09:00Z</time>
      </trkpt>
      <trkpt lat="45.89376" lon="4.74868">
        <ele>199</ele>
        <time>2018-06-20T11:09:01Z</time>
      </trkpt>
      <trkpt lat="45.89383" lon="4.74871">
        <ele>199</ele>
        <time>2018-06-20T11:09:03Z</time>
      </trkpt>
      <trkpt lat="45.89387" lon="4.74872">
        <ele>199</ele>
        <time>2018-06-20T11:09:04Z</time>
      </trkpt>
      <trkpt lat="45.89392" lon="4.74873">
        <ele>199</ele>
        <time>2018-06-20T11:09:05Z</time>
      </trkpt>
      <trkpt lat="45.89397" lon="4.74873">
        <ele>199</ele>
        <time>2018-06-20T11:09:06Z</time>
      </trkpt>
      <trkpt lat="45.89401" lon="4.74871">
        <ele>199</ele>
        <time>2018-06-20T11:09:07Z</time>
      </trkpt>
      <trkpt lat="45.89407" lon="4.74869">
        <ele>199</ele>
        <time>2018-06-20T11:09:08Z</time>
      </trkpt>
      <trkpt lat="45.89411" lon="4.74865">
        <ele>199</ele>
        <time>2018-06-20T11:09:09Z</time>
      </trkpt>
      <trkpt lat="45.89416" lon="4.74864">
        <ele>199</ele>
        <time>2018-06-20T11:09:10Z</time>
      </trkpt>
      <trkpt lat="45.89422" lon="4.74864">
        <ele>199</ele>
        <time>2018-06-20T11:09:11Z</time>
      </trkpt>
      <trkpt lat="45.89426" lon="4.74867">
        <ele>199</ele>
        <time>2018-06-20T11:09:12Z</time>
      </trkpt>
      <trkpt lat="45.89432" lon="4.7487">
        <ele>199</ele>
        <time>2018-06-20T11:09:13Z</time>
      </trkpt>
      <trkpt lat="45.89436" lon="4.7487">
        <ele>199</ele>
        <time>2018-06-20T11:09:14Z</time>
      </trkpt>
      <trkpt lat="45.89441" lon="4.74873">
        <ele>199</ele>
        <time>2018-06-20T11:09:15Z</time>
      </trkpt>
      <trkpt lat="45.89446" lon="4.74873">
        <ele>199</ele>
        <time>2018-06-20T11:09:16Z</time>
      </trkpt>
      <trkpt lat="45.89453" lon="4.74876">
        <ele>199</ele>
        <time>2018-06-20T11:09:17Z</time>
      </trkpt>
      <trkpt lat="45.89457" lon="4.74877">
        <ele>199</ele>
        <time>2018-06-20T11:09:18Z</time>
      </trkpt>
      <trkpt lat="45.89462" lon="4.74879">
        <ele>199</ele>
        <time>2018-06-20T11:09:19Z</time>
      </trkpt>
      <trkpt lat="45.89468" lon="4.74879">
        <ele>198</ele>
        <time>2018-06-20T11:09:20Z</time>
      </trkpt>
      <trkpt lat="45.89477" lon="4.7488">
        <ele>198</ele>
        <time>2018-06-20T11:09:22Z</time>
      </trkpt>
      <trkpt lat="45.89481" lon="4.74881">
        <ele>198</ele>
        <time>2018-06-20T11:09:23Z</time>
      </trkpt>
      <trkpt lat="45.89485" lon="4.74882">
        <ele>198</ele>
        <time>2018-06-20T11:09:24Z</time>
      </trkpt>
      <trkpt lat="45.8949" lon="4.74883">
        <ele>198</ele>
        <time>2018-06-20T11:09:25Z</time>
      </trkpt>
      <trkpt lat="45.89495" lon="4.74885">
        <ele>198</ele>
        <time>2018-06-20T11:09:26Z</time>
      </trkpt>
      <trkpt lat="45.89499" lon="4.7489">
        <ele>199</ele>
        <time>2018-06-20T11:09:27Z</time>
      </trkpt>
      <trkpt lat="45.89504" lon="4.74887">
        <ele>198</ele>
        <time>2018-06-20T11:09:28Z</time>
      </trkpt>
      <trkpt lat="45.89509" lon="4.74887">
        <ele>198</ele>
        <time>2018-06-20T11:09:29Z</time>
      </trkpt>
      <trkpt lat="45.89515" lon="4.74886">
        <ele>198</ele>
        <time>2018-06-20T11:09:30Z</time>
      </trkpt>
      <trkpt lat="45.89519" lon="4.74884">
        <ele>198</ele>
        <time>2018-06-20T11:09:31Z</time>
      </trkpt>
      <trkpt lat="45.89524" lon="4.74885">
        <ele>198</ele>
        <time>2018-06-20T11:09:32Z</time>
      </trkpt>
      <trkpt lat="45.8953" lon="4.74883">
        <ele>198</ele>
        <time>2018-06-20T11:09:33Z</time>
      </trkpt>
      <trkpt lat="45.89536" lon="4.74888">
        <ele>198</ele>
        <time>2018-06-20T11:09:34Z</time>
      </trkpt>
      <trkpt lat="45.89542" lon="4.74888">
        <ele>198</ele>
        <time>2018-06-20T11:09:35Z</time>
      </trkpt>
      <trkpt lat="45.89549" lon="4.74888">
        <ele>198</ele>
        <time>2018-06-20T11:09:36Z</time>
      </trkpt>
      <trkpt lat="45.89553" lon="4.74891">
        <ele>198</ele>
        <time>2018-06-20T11:09:37Z</time>
      </trkpt>
      <trkpt lat="45.89559" lon="4.74895">
        <ele>198</ele>
        <time>2018-06-20T11:09:39Z</time>
      </trkpt>
      <trkpt lat="45.89562" lon="4.74899">
        <ele>198</ele>
        <time>2018-06-20T11:09:40Z</time>
      </trkpt>
      <trkpt lat="45.89569" lon="4.74902">
        <ele>198</ele>
        <time>2018-06-20T11:09:41Z</time>
      </trkpt>
      <trkpt lat="45.89575" lon="4.74906">
        <ele>198</ele>
        <time>2018-06-20T11:09:42Z</time>
      </trkpt>
      <trkpt lat="45.89583" lon="4.74907">
        <ele>197</ele>
        <time>2018-06-20T11:09:44Z</time>
      </trkpt>
      <trkpt lat="45.89589" lon="4.74909">
        <ele>197</ele>
        <time>2018-06-20T11:09:45Z</time>
      </trkpt>
      <trkpt lat="45.89597" lon="4.74907">
        <ele>197</ele>
        <time>2018-06-20T11:09:46Z</time>
      </trkpt>
      <trkpt lat="45.89605" lon="4.74911">
        <ele>197</ele>
        <time>2018-06-20T11:09:47Z</time>
      </trkpt>
      <trkpt lat="45.89611" lon="4.74912">
        <ele>197</ele>
        <time>2018-06-20T11:09:48Z</time>
      </trkpt>
      <trkpt lat="45.89616" lon="4.74911">
        <ele>197</ele>
        <time>2018-06-20T11:09:49Z</time>
      </trkpt>
      <trkpt lat="45.89624" lon="4.74912">
        <ele>197</ele>
        <time>2018-06-20T11:09:51Z</time>
      </trkpt>
      <trkpt lat="45.89629" lon="4.74915">
        <ele>196</ele>
        <time>2018-06-20T11:09:52Z</time>
      </trkpt>
      <trkpt lat="45.89636" lon="4.74914">
        <ele>196</ele>
        <time>2018-06-20T11:09:53Z</time>
      </trkpt>
      <trkpt lat="45.89643" lon="4.74913">
        <ele>196</ele>
        <time>2018-06-20T11:09:54Z</time>
      </trkpt>
      <trkpt lat="45.8965" lon="4.74912">
        <ele>196</ele>
        <time>2018-06-20T11:09:55Z</time>
      </trkpt>
      <trkpt lat="45.89656" lon="4.74911">
        <ele>196</ele>
        <time>2018-06-20T11:09:56Z</time>
      </trkpt>
      <trkpt lat="45.89662" lon="4.74911">
        <ele>196</ele>
        <time>2018-06-20T11:09:57Z</time>
      </trkpt>
      <trkpt lat="45.89666" lon="4.7491">
        <ele>196</ele>
        <time>2018-06-20T11:09:58Z</time>
      </trkpt>
      <trkpt lat="45.89673" lon="4.74912">
        <ele>196</ele>
        <time>2018-06-20T11:09:59Z</time>
      </trkpt>
      <trkpt lat="45.89676" lon="4.74912">
        <ele>196</ele>
        <time>2018-06-20T11:10:00Z</time>
      </trkpt>
      <trkpt lat="45.8968" lon="4.74911">
        <ele>195</ele>
        <time>2018-06-20T11:10:01Z</time>
      </trkpt>
      <trkpt lat="45.89692" lon="4.74914">
        <ele>195</ele>
        <time>2018-06-20T11:10:02Z</time>
      </trkpt>
      <trkpt lat="45.89697" lon="4.74913">
        <ele>195</ele>
        <time>2018-06-20T11:10:03Z</time>
      </trkpt>
      <trkpt lat="45.89702" lon="4.7491">
        <ele>195</ele>
        <time>2018-06-20T11:10:04Z</time>
      </trkpt>
      <trkpt lat="45.89708" lon="4.74912">
        <ele>195</ele>
        <time>2018-06-20T11:10:05Z</time>
      </trkpt>
      <trkpt lat="45.89713" lon="4.74913">
        <ele>195</ele>
        <time>2018-06-20T11:10:06Z</time>
      </trkpt>
      <trkpt lat="45.89718" lon="4.74914">
        <ele>195</ele>
        <time>2018-06-20T11:10:07Z</time>
      </trkpt>
      <trkpt lat="45.89724" lon="4.74915">
        <ele>195</ele>
        <time>2018-06-20T11:10:08Z</time>
      </trkpt>
      <trkpt lat="45.89729" lon="4.74918">
        <ele>196</ele>
        <time>2018-06-20T11:10:09Z</time>
      </trkpt>
      <trkpt lat="45.89735" lon="4.74918">
        <ele>196</ele>
        <time>2018-06-20T11:10:10Z</time>
      </trkpt>
      <trkpt lat="45.8974" lon="4.74921">
        <ele>195</ele>
        <time>2018-06-20T11:10:11Z</time>
      </trkpt>
      <trkpt lat="45.89744" lon="4.74923">
        <ele>195</ele>
        <time>2018-06-20T11:10:12Z</time>
      </trkpt>
      <trkpt lat="45.89748" lon="4.74926">
        <ele>195</ele>
        <time>2018-06-20T11:10:13Z</time>
      </trkpt>
      <trkpt lat="45.89753" lon="4.74927">
        <ele>195</ele>
        <time>2018-06-20T11:10:14Z</time>
      </trkpt>
      <trkpt lat="45.89757" lon="4.74929">
        <ele>195</ele>
        <time>2018-06-20T11:10:15Z</time>
      </trkpt>
      <trkpt lat="45.89762" lon="4.74933">
        <ele>195</ele>
        <time>2018-06-20T11:10:16Z</time>
      </trkpt>
      <trkpt lat="45.89766" lon="4.74933">
        <ele>195</ele>
        <time>2018-06-20T11:10:17Z</time>
      </trkpt>
      <trkpt lat="45.89771" lon="4.74936">
        <ele>195</ele>
        <time>2018-06-20T11:10:18Z</time>
      </trkpt>
      <trkpt lat="45.89777" lon="4.74939">
        <ele>195</ele>
        <time>2018-06-20T11:10:19Z</time>
      </trkpt>
      <trkpt lat="45.89782" lon="4.74941">
        <ele>195</ele>
        <time>2018-06-20T11:10:20Z</time>
      </trkpt>
      <trkpt lat="45.89786" lon="4.74945">
        <ele>195</ele>
        <time>2018-06-20T11:10:21Z</time>
      </trkpt>
      <trkpt lat="45.89791" lon="4.74948">
        <ele>195</ele>
        <time>2018-06-20T11:10:22Z</time>
      </trkpt>
      <trkpt lat="45.89796" lon="4.74951">
        <ele>195</ele>
        <time>2018-06-20T11:10:23Z</time>
      </trkpt>
      <trkpt lat="45.89803" lon="4.74953">
        <ele>195</ele>
        <time>2018-06-20T11:10:24Z</time>
      </trkpt>
      <trkpt lat="45.89808" lon="4.74956">
        <ele>195</ele>
        <time>2018-06-20T11:10:25Z</time>
      </trkpt>
      <trkpt lat="45.89813" lon="4.74957">
        <ele>195</ele>
        <time>2018-06-20T11:10:26Z</time>
      </trkpt>
      <trkpt lat="45.89819" lon="4.74959">
        <ele>195</ele>
        <time>2018-06-20T11:10:27Z</time>
      </trkpt>
      <trkpt lat="45.89824" lon="4.74961">
        <ele>195</ele>
        <time>2018-06-20T11:10:28Z</time>
      </trkpt>
      <trkpt lat="45.89829" lon="4.74962">
        <ele>194</ele>
        <time>2018-06-20T11:10:29Z</time>
      </trkpt>
      <trkpt lat="45.89835" lon="4.74962">
        <ele>194</ele>
        <time>2018-06-20T11:10:30Z</time>
      </trkpt>
      <trkpt lat="45.8984" lon="4.74963">
        <ele>194</ele>
        <time>2018-06-20T11:10:31Z</time>
      </trkpt>
      <trkpt lat="45.89846" lon="4.74964">
        <ele>194</ele>
        <time>2018-06-20T11:10:32Z</time>
      </trkpt>
      <trkpt lat="45.8985" lon="4.74966">
        <ele>194</ele>
        <time>2018-06-20T11:10:33Z</time>
      </trkpt>
      <trkpt lat="45.89856" lon="4.74967">
        <ele>194</ele>
        <time>2018-06-20T11:10:34Z</time>
      </trkpt>
      <trkpt lat="45.89861" lon="4.74969">
        <ele>194</ele>
        <time>2018-06-20T11:10:35Z</time>
      </trkpt>
      <trkpt lat="45.89867" lon="4.7497">
        <ele>194</ele>
        <time>2018-06-20T11:10:36Z</time>
      </trkpt>
      <trkpt lat="45.89872" lon="4.74971">
        <ele>194</ele>
        <time>2018-06-20T11:10:37Z</time>
      </trkpt>
      <trkpt lat="45.89878" lon="4.74972">
        <ele>194</ele>
        <time>2018-06-20T11:10:38Z</time>
      </trkpt>
      <trkpt lat="45.89883" lon="4.74974">
        <ele>194</ele>
        <time>2018-06-20T11:10:39Z</time>
      </trkpt>
      <trkpt lat="45.89889" lon="4.74975">
        <ele>194</ele>
        <time>2018-06-20T11:10:40Z</time>
      </trkpt>
      <trkpt lat="45.89894" lon="4.74976">
        <ele>194</ele>
        <time>2018-06-20T11:10:41Z</time>
      </trkpt>
      <trkpt lat="45.89898" lon="4.74978">
        <ele>194</ele>
        <time>2018-06-20T11:10:42Z</time>
      </trkpt>
      <trkpt lat="45.89902" lon="4.74978">
        <ele>194</ele>
        <time>2018-06-20T11:10:43Z</time>
      </trkpt>
      <trkpt lat="45.89907" lon="4.7498">
        <ele>194</ele>
        <time>2018-06-20T11:10:44Z</time>
      </trkpt>
      <trkpt lat="45.89913" lon="4.74982">
        <ele>194</ele>
        <time>2018-06-20T11:10:45Z</time>
      </trkpt>
      <trkpt lat="45.89918" lon="4.74983">
        <ele>193</ele>
        <time>2018-06-20T11:10:46Z</time>
      </trkpt>
      <trkpt lat="45.89923" lon="4.74985">
        <ele>193</ele>
        <time>2018-06-20T11:10:47Z</time>
      </trkpt>
      <trkpt lat="45.89928" lon="4.74986">
        <ele>193</ele>
        <time>2018-06-20T11:10:48Z</time>
      </trkpt>
      <trkpt lat="45.89934" lon="4.74988">
        <ele>193</ele>
        <time>2018-06-20T11:10:49Z</time>
      </trkpt>
      <trkpt lat="45.8994" lon="4.74988">
        <ele>193</ele>
        <time>2018-06-20T11:10:50Z</time>
      </trkpt>
      <trkpt lat="45.89944" lon="4.7499">
        <ele>193</ele>
        <time>2018-06-20T11:10:51Z</time>
      </trkpt>
      <trkpt lat="45.8995" lon="4.7499">
        <ele>193</ele>
        <time>2018-06-20T11:10:52Z</time>
      </trkpt>
      <trkpt lat="45.89956" lon="4.7499">
        <ele>193</ele>
        <time>2018-06-20T11:10:53Z</time>
      </trkpt>
      <trkpt lat="45.89961" lon="4.74991">
        <ele>193</ele>
        <time>2018-06-20T11:10:54Z</time>
      </trkpt>
      <trkpt lat="45.89967" lon="4.74993">
        <ele>193</ele>
        <time>2018-06-20T11:10:55Z</time>
      </trkpt>
      <trkpt lat="45.89973" lon="4.74995">
        <ele>193</ele>
        <time>2018-06-20T11:10:56Z</time>
      </trkpt>
      <trkpt lat="45.89979" lon="4.74997">
        <ele>192</ele>
        <time>2018-06-20T11:10:57Z</time>
      </trkpt>
      <trkpt lat="45.89985" lon="4.75">
        <ele>192</ele>
        <time>2018-06-20T11:10:58Z</time>
      </trkpt>
      <trkpt lat="45.89991" lon="4.75002">
        <ele>193</ele>
        <time>2018-06-20T11:10:59Z</time>
      </trkpt>
      <trkpt lat="45.89996" lon="4.75003">
        <ele>192</ele>
        <time>2018-06-20T11:11:00Z</time>
      </trkpt>
      <trkpt lat="45.90002" lon="4.75003">
        <ele>192</ele>
        <time>2018-06-20T11:11:01Z</time>
      </trkpt>
      <trkpt lat="45.90007" lon="4.75004">
        <ele>192</ele>
        <time>2018-06-20T11:11:02Z</time>
      </trkpt>
      <trkpt lat="45.90012" lon="4.75005">
        <ele>193</ele>
        <time>2018-06-20T11:11:03Z</time>
      </trkpt>
      <trkpt lat="45.90017" lon="4.75007">
        <ele>193</ele>
        <time>2018-06-20T11:11:04Z</time>
      </trkpt>
      <trkpt lat="45.90021" lon="4.75009">
        <ele>193</ele>
        <time>2018-06-20T11:11:05Z</time>
      </trkpt>
      <trkpt lat="45.90027" lon="4.7501">
        <ele>193</ele>
        <time>2018-06-20T11:11:06Z</time>
      </trkpt>
      <trkpt lat="45.90032" lon="4.75011">
        <ele>193</ele>
        <time>2018-06-20T11:11:07Z</time>
      </trkpt>
      <trkpt lat="45.90038" lon="4.75014">
        <ele>193</ele>
        <time>2018-06-20T11:11:08Z</time>
      </trkpt>
      <trkpt lat="45.90044" lon="4.75016">
        <ele>193</ele>
        <time>2018-06-20T11:11:09Z</time>
      </trkpt>
      <trkpt lat="45.90049" lon="4.75018">
        <ele>193</ele>
        <time>2018-06-20T11:11:10Z</time>
      </trkpt>
      <trkpt lat="45.90055" lon="4.75021">
        <ele>193</ele>
        <time>2018-06-20T11:11:11Z</time>
      </trkpt>
      <trkpt lat="45.90061" lon="4.75022">
        <ele>193</ele>
        <time>2018-06-20T11:11:12Z</time>
      </trkpt>
      <trkpt lat="45.90065" lon="4.75023">
        <ele>193</ele>
        <time>2018-06-20T11:11:13Z</time>
      </trkpt>
      <trkpt lat="45.90071" lon="4.75026">
        <ele>193</ele>
        <time>2018-06-20T11:11:14Z</time>
      </trkpt>
      <trkpt lat="45.90076" lon="4.75029">
        <ele>193</ele>
        <time>2018-06-20T11:11:15Z</time>
      </trkpt>
      <trkpt lat="45.90081" lon="4.75032">
        <ele>193</ele>
        <time>2018-06-20T11:11:16Z</time>
      </trkpt>
      <trkpt lat="45.90086" lon="4.75033">
        <ele>192</ele>
        <time>2018-06-20T11:11:17Z</time>
      </trkpt>
      <trkpt lat="45.90091" lon="4.75034">
        <ele>192</ele>
        <time>2018-06-20T11:11:18Z</time>
      </trkpt>
      <trkpt lat="45.90097" lon="4.75036">
        <ele>192</ele>
        <time>2018-06-20T11:11:19Z</time>
      </trkpt>
      <trkpt lat="45.90102" lon="4.75039">
        <ele>192</ele>
        <time>2018-06-20T11:11:20Z</time>
      </trkpt>
      <trkpt lat="45.90107" lon="4.75042">
        <ele>192</ele>
        <time>2018-06-20T11:11:21Z</time>
      </trkpt>
      <trkpt lat="45.90113" lon="4.75044">
        <ele>192</ele>
        <time>2018-06-20T11:11:22Z</time>
      </trkpt>
      <trkpt lat="45.90118" lon="4.75047">
        <ele>192</ele>
        <time>2018-06-20T11:11:23Z</time>
      </trkpt>
      <trkpt lat="45.90123" lon="4.7505">
        <ele>192</ele>
        <time>2018-06-20T11:11:24Z</time>
      </trkpt>
      <trkpt lat="45.90128" lon="4.75052">
        <ele>192</ele>
        <time>2018-06-20T11:11:25Z</time>
      </trkpt>
      <trkpt lat="45.90134" lon="4.75056">
        <ele>192</ele>
        <time>2018-06-20T11:11:26Z</time>
      </trkpt>
      <trkpt lat="45.90139" lon="4.7506">
        <ele>192</ele>
        <time>2018-06-20T11:11:27Z</time>
      </trkpt>
      <trkpt lat="45.90143" lon="4.75061">
        <ele>192</ele>
        <time>2018-06-20T11:11:28Z</time>
      </trkpt>
      <trkpt lat="45.90148" lon="4.75064">
        <ele>192</ele>
        <time>2018-06-20T11:11:29Z</time>
      </trkpt>
      <trkpt lat="45.90153" lon="4.75068">
        <ele>191</ele>
        <time>2018-06-20T11:11:30Z</time>
      </trkpt>
      <trkpt lat="45.90157" lon="4.75071">
        <ele>191</ele>
        <time>2018-06-20T11:11:31Z</time>
      </trkpt>
      <trkpt lat="45.90162" lon="4.75072">
        <ele>191</ele>
        <time>2018-06-20T11:11:32Z</time>
      </trkpt>
      <trkpt lat="45.90168" lon="4.75072">
        <ele>191</ele>
        <time>2018-06-20T11:11:33Z</time>
      </trkpt>
      <trkpt lat="45.90173" lon="4.75071">
        <ele>191</ele>
        <time>2018-06-20T11:11:34Z</time>
      </trkpt>
      <trkpt lat="45.90178" lon="4.75065">
        <ele>191</ele>
        <time>2018-06-20T11:11:35Z</time>
      </trkpt>
      <trkpt lat="45.90183" lon="4.7506">
        <ele>191</ele>
        <time>2018-06-20T11:11:36Z</time>
      </trkpt>
      <trkpt lat="45.90189" lon="4.75057">
        <ele>191</ele>
        <time>2018-06-20T11:11:37Z</time>
      </trkpt>
      <trkpt lat="45.90195" lon="4.75053">
        <ele>191</ele>
        <time>2018-06-20T11:11:38Z</time>
      </trkpt>
      <trkpt lat="45.90201" lon="4.75051">
        <ele>191</ele>
        <time>2018-06-20T11:11:39Z</time>
      </trkpt>
      <trkpt lat="45.90208" lon="4.7505">
        <ele>191</ele>
        <time>2018-06-20T11:11:40Z</time>
      </trkpt>
      <trkpt lat="45.90213" lon="4.75049">
        <ele>191</ele>
        <time>2018-06-20T11:11:41Z</time>
      </trkpt>
      <trkpt lat="45.9022" lon="4.75047">
        <ele>191</ele>
        <time>2018-06-20T11:11:42Z</time>
      </trkpt>
      <trkpt lat="45.90227" lon="4.75045">
        <ele>191</ele>
        <time>2018-06-20T11:11:43Z</time>
      </trkpt>
      <trkpt lat="45.90234" lon="4.75044">
        <ele>191</ele>
        <time>2018-06-20T11:11:44Z</time>
      </trkpt>
      <trkpt lat="45.9024" lon="4.75043">
        <ele>191</ele>
        <time>2018-06-20T11:11:45Z</time>
      </trkpt>
      <trkpt lat="45.90247" lon="4.75041">
        <ele>190</ele>
        <time>2018-06-20T11:11:46Z</time>
      </trkpt>
      <trkpt lat="45.90254" lon="4.75038">
        <ele>190</ele>
        <time>2018-06-20T11:11:47Z</time>
      </trkpt>
      <trkpt lat="45.90261" lon="4.75036">
        <ele>190</ele>
        <time>2018-06-20T11:11:48Z</time>
      </trkpt>
      <trkpt lat="45.90268" lon="4.75034">
        <ele>190</ele>
        <time>2018-06-20T11:11:49Z</time>
      </trkpt>
      <trkpt lat="45.90275" lon="4.75032">
        <ele>190</ele>
        <time>2018-06-20T11:11:50Z</time>
      </trkpt>
      <trkpt lat="45.90281" lon="4.75031">
        <ele>190</ele>
        <time>2018-06-20T11:11:51Z</time>
      </trkpt>
      <trkpt lat="45.90288" lon="4.75029">
        <ele>189</ele>
        <time>2018-06-20T11:11:52Z</time>
      </trkpt>
      <trkpt lat="45.90296" lon="4.75027">
        <ele>189</ele>
        <time>2018-06-20T11:11:53Z</time>
      </trkpt>
      <trkpt lat="45.90302" lon="4.75024">
        <ele>189</ele>
        <time>2018-06-20T11:11:54Z</time>
      </trkpt>
      <trkpt lat="45.90309" lon="4.75023">
        <ele>189</ele>
        <time>2018-06-20T11:11:55Z</time>
      </trkpt>
      <trkpt lat="45.90315" lon="4.75021">
        <ele>189</ele>
        <time>2018-06-20T11:11:56Z</time>
      </trkpt>
      <trkpt lat="45.90322" lon="4.7502">
        <ele>189</ele>
        <time>2018-06-20T11:11:57Z</time>
      </trkpt>
      <trkpt lat="45.90328" lon="4.75018">
        <ele>188</ele>
        <time>2018-06-20T11:11:58Z</time>
      </trkpt>
      <trkpt lat="45.90335" lon="4.75016">
        <ele>188</ele>
        <time>2018-06-20T11:11:59Z</time>
      </trkpt>
      <trkpt lat="45.90341" lon="4.75014">
        <ele>188</ele>
        <time>2018-06-20T11:12:00Z</time>
      </trkpt>
      <trkpt lat="45.90349" lon="4.75013">
        <ele>188</ele>
        <time>2018-06-20T11:12:01Z</time>
      </trkpt>
      <trkpt lat="45.90356" lon="4.75013">
        <ele>188</ele>
        <time>2018-06-20T11:12:02Z</time>
      </trkpt>
      <trkpt lat="45.90362" lon="4.7501">
        <ele>188</ele>
        <time>2018-06-20T11:12:03Z</time>
      </trkpt>
      <trkpt lat="45.90369" lon="4.75009">
        <ele>188</ele>
        <time>2018-06-20T11:12:04Z</time>
      </trkpt>
      <trkpt lat="45.90376" lon="4.75006">
        <ele>188</ele>
        <time>2018-06-20T11:12:05Z</time>
      </trkpt>
      <trkpt lat="45.90383" lon="4.75004">
        <ele>188</ele>
        <time>2018-06-20T11:12:06Z</time>
      </trkpt>
      <trkpt lat="45.90391" lon="4.75002">
        <ele>188</ele>
        <time>2018-06-20T11:12:07Z</time>
      </trkpt>
      <trkpt lat="45.90398" lon="4.75002">
        <ele>188</ele>
        <time>2018-06-20T11:12:08Z</time>
      </trkpt>
      <trkpt lat="45.90406" lon="4.75">
        <ele>187</ele>
        <time>2018-06-20T11:12:09Z</time>
      </trkpt>
      <trkpt lat="45.90414" lon="4.74997">
        <ele>188</ele>
        <time>2018-06-20T11:12:10Z</time>
      </trkpt>
      <trkpt lat="45.9042" lon="4.74994">
        <ele>187</ele>
        <time>2018-06-20T11:12:11Z</time>
      </trkpt>
      <trkpt lat="45.90426" lon="4.74992">
        <ele>187</ele>
        <time>2018-06-20T11:12:12Z</time>
      </trkpt>
      <trkpt lat="45.90434" lon="4.7499">
        <ele>187</ele>
        <time>2018-06-20T11:12:13Z</time>
      </trkpt>
      <trkpt lat="45.9044" lon="4.74989">
        <ele>186</ele>
        <time>2018-06-20T11:12:14Z</time>
      </trkpt>
      <trkpt lat="45.90447" lon="4.74988">
        <ele>186</ele>
        <time>2018-06-20T11:12:15Z</time>
      </trkpt>
      <trkpt lat="45.90454" lon="4.74987">
        <ele>186</ele>
        <time>2018-06-20T11:12:16Z</time>
      </trkpt>
      <trkpt lat="45.90461" lon="4.74985">
        <ele>186</ele>
        <time>2018-06-20T11:12:17Z</time>
      </trkpt>
      <trkpt lat="45.90466" lon="4.74985">
        <ele>186</ele>
        <time>2018-06-20T11:12:18Z</time>
      </trkpt>
      <trkpt lat="45.90473" lon="4.74985">
        <ele>186</ele>
        <time>2018-06-20T11:12:19Z</time>
      </trkpt>
      <trkpt lat="45.9048" lon="4.74984">
        <ele>186</ele>
        <time>2018-06-20T11:12:20Z</time>
      </trkpt>
      <trkpt lat="45.90486" lon="4.74984">
        <ele>186</ele>
        <time>2018-06-20T11:12:21Z</time>
      </trkpt>
      <trkpt lat="45.90493" lon="4.74983">
        <ele>186</ele>
        <time>2018-06-20T11:12:22Z</time>
      </trkpt>
      <trkpt lat="45.905" lon="4.74982">
        <ele>186</ele>
        <time>2018-06-20T11:12:23Z</time>
      </trkpt>
      <trkpt lat="45.90508" lon="4.74979">
        <ele>185</ele>
        <time>2018-06-20T11:12:24Z</time>
      </trkpt>
      <trkpt lat="45.90515" lon="4.74978">
        <ele>185</ele>
        <time>2018-06-20T11:12:25Z</time>
      </trkpt>
      <trkpt lat="45.90522" lon="4.74977">
        <ele>185</ele>
        <time>2018-06-20T11:12:26Z</time>
      </trkpt>
      <trkpt lat="45.9053" lon="4.74977">
        <ele>185</ele>
        <time>2018-06-20T11:12:27Z</time>
      </trkpt>
      <trkpt lat="45.90537" lon="4.74976">
        <ele>185</ele>
        <time>2018-06-20T11:12:28Z</time>
      </trkpt>
      <trkpt lat="45.90545" lon="4.74975">
        <ele>184</ele>
        <time>2018-06-20T11:12:29Z</time>
      </trkpt>
      <trkpt lat="45.90553" lon="4.74973">
        <ele>184</ele>
        <time>2018-06-20T11:12:30Z</time>
      </trkpt>
      <trkpt lat="45.9056" lon="4.74972">
        <ele>184</ele>
        <time>2018-06-20T11:12:31Z</time>
      </trkpt>
      <trkpt lat="45.90568" lon="4.74971">
        <ele>184</ele>
        <time>2018-06-20T11:12:32Z</time>
      </trkpt>
      <trkpt lat="45.90575" lon="4.74969">
        <ele>184</ele>
        <time>2018-06-20T11:12:33Z</time>
      </trkpt>
      <trkpt lat="45.90583" lon="4.74969">
        <ele>184</ele>
        <time>2018-06-20T11:12:34Z</time>
      </trkpt>
      <trkpt lat="45.9059" lon="4.74967">
        <ele>184</ele>
        <time>2018-06-20T11:12:35Z</time>
      </trkpt>
      <trkpt lat="45.90598" lon="4.74966">
        <ele>184</ele>
        <time>2018-06-20T11:12:36Z</time>
      </trkpt>
      <trkpt lat="45.90605" lon="4.74965">
        <ele>184</ele>
        <time>2018-06-20T11:12:37Z</time>
      </trkpt>
      <trkpt lat="45.90613" lon="4.74964">
        <ele>183</ele>
        <time>2018-06-20T11:12:38Z</time>
      </trkpt>
      <trkpt lat="45.9062" lon="4.74963">
        <ele>183</ele>
        <time>2018-06-20T11:12:39Z</time>
      </trkpt>
      <trkpt lat="45.90628" lon="4.74962">
        <ele>183</ele>
        <time>2018-06-20T11:12:40Z</time>
      </trkpt>
      <trkpt lat="45.90635" lon="4.7496">
        <ele>183</ele>
        <time>2018-06-20T11:12:41Z</time>
      </trkpt>
      <trkpt lat="45.90643" lon="4.74959">
        <ele>183</ele>
        <time>2018-06-20T11:12:42Z</time>
      </trkpt>
      <trkpt lat="45.90649" lon="4.74957">
        <ele>183</ele>
        <time>2018-06-20T11:12:43Z</time>
      </trkpt>
      <trkpt lat="45.90657" lon="4.74954">
        <ele>183</ele>
        <time>2018-06-20T11:12:44Z</time>
      </trkpt>
      <trkpt lat="45.90663" lon="4.74952">
        <ele>183</ele>
        <time>2018-06-20T11:12:45Z</time>
      </trkpt>
      <trkpt lat="45.9067" lon="4.74949">
        <ele>181</ele>
        <time>2018-06-20T11:12:46Z</time>
      </trkpt>
      <trkpt lat="45.90677" lon="4.74943">
        <ele>181</ele>
        <time>2018-06-20T11:12:47Z</time>
      </trkpt>
      <trkpt lat="45.90684" lon="4.7494">
        <ele>181</ele>
        <time>2018-06-20T11:12:48Z</time>
      </trkpt>
      <trkpt lat="45.90691" lon="4.74937">
        <ele>181</ele>
        <time>2018-06-20T11:12:49Z</time>
      </trkpt>
      <trkpt lat="45.90699" lon="4.74934">
        <ele>181</ele>
        <time>2018-06-20T11:12:50Z</time>
      </trkpt>
      <trkpt lat="45.90706" lon="4.74933">
        <ele>181</ele>
        <time>2018-06-20T11:12:51Z</time>
      </trkpt>
      <trkpt lat="45.90711" lon="4.7493">
        <ele>181</ele>
        <time>2018-06-20T11:12:52Z</time>
      </trkpt>
      <trkpt lat="45.90718" lon="4.74929">
        <ele>181</ele>
        <time>2018-06-20T11:12:53Z</time>
      </trkpt>
      <trkpt lat="45.90725" lon="4.74929">
        <ele>181</ele>
        <time>2018-06-20T11:12:54Z</time>
      </trkpt>
      <trkpt lat="45.90731" lon="4.7493">
        <ele>181</ele>
        <time>2018-06-20T11:12:55Z</time>
      </trkpt>
      <trkpt lat="45.90737" lon="4.74934">
        <ele>181</ele>
        <time>2018-06-20T11:12:56Z</time>
      </trkpt>
      <trkpt lat="45.90743" lon="4.74937">
        <ele>181</ele>
        <time>2018-06-20T11:12:57Z</time>
      </trkpt>
      <trkpt lat="45.90748" lon="4.74939">
        <ele>181</ele>
        <time>2018-06-20T11:12:58Z</time>
      </trkpt>
      <trkpt lat="45.90754" lon="4.7494">
        <ele>180</ele>
        <time>2018-06-20T11:12:59Z</time>
      </trkpt>
      <trkpt lat="45.90759" lon="4.7494">
        <ele>180</ele>
        <time>2018-06-20T11:13:00Z</time>
      </trkpt>
      <trkpt lat="45.90766" lon="4.74942">
        <ele>180</ele>
        <time>2018-06-20T11:13:01Z</time>
      </trkpt>
      <trkpt lat="45.90771" lon="4.74944">
        <ele>180</ele>
        <time>2018-06-20T11:13:02Z</time>
      </trkpt>
      <trkpt lat="45.90778" lon="4.74947">
        <ele>180</ele>
        <time>2018-06-20T11:13:03Z</time>
      </trkpt>
      <trkpt lat="45.90784" lon="4.7495">
        <ele>180</ele>
        <time>2018-06-20T11:13:04Z</time>
      </trkpt>
      <trkpt lat="45.9079" lon="4.74952">
        <ele>180</ele>
        <time>2018-06-20T11:13:05Z</time>
      </trkpt>
      <trkpt lat="45.90796" lon="4.74956">
        <ele>179</ele>
        <time>2018-06-20T11:13:06Z</time>
      </trkpt>
      <trkpt lat="45.90802" lon="4.74959">
        <ele>179</ele>
        <time>2018-06-20T11:13:07Z</time>
      </trkpt>
      <trkpt lat="45.90809" lon="4.7496">
        <ele>179</ele>
        <time>2018-06-20T11:13:08Z</time>
      </trkpt>
      <trkpt lat="45.90816" lon="4.74963">
        <ele>179</ele>
        <time>2018-06-20T11:13:09Z</time>
      </trkpt>
      <trkpt lat="45.90822" lon="4.74966">
        <ele>179</ele>
        <time>2018-06-20T11:13:10Z</time>
      </trkpt>
      <trkpt lat="45.90828" lon="4.74968">
        <ele>179</ele>
        <time>2018-06-20T11:13:11Z</time>
      </trkpt>
      <trkpt lat="45.90835" lon="4.7497">
        <ele>179</ele>
        <time>2018-06-20T11:13:12Z</time>
      </trkpt>
      <trkpt lat="45.90841" lon="4.74973">
        <ele>179</ele>
        <time>2018-06-20T11:13:13Z</time>
      </trkpt>
      <trkpt lat="45.90848" lon="4.74976">
        <ele>179</ele>
        <time>2018-06-20T11:13:14Z</time>
      </trkpt>
      <trkpt lat="45.90854" lon="4.74979">
        <ele>179</ele>
        <time>2018-06-20T11:13:15Z</time>
      </trkpt>
      <trkpt lat="45.9086" lon="4.74982">
        <ele>179</ele>
        <time>2018-06-20T11:13:16Z</time>
      </trkpt>
      <trkpt lat="45.90866" lon="4.74985">
        <ele>179</ele>
        <time>2018-06-20T11:13:17Z</time>
      </trkpt>
      <trkpt lat="45.90872" lon="4.74988">
        <ele>179</ele>
        <time>2018-06-20T11:13:18Z</time>
      </trkpt>
      <trkpt lat="45.90879" lon="4.7499">
        <ele>178</ele>
        <time>2018-06-20T11:13:19Z</time>
      </trkpt>
      <trkpt lat="45.90885" lon="4.74994">
        <ele>178</ele>
        <time>2018-06-20T11:13:20Z</time>
      </trkpt>
      <trkpt lat="45.90891" lon="4.74997">
        <ele>178</ele>
        <time>2018-06-20T11:13:21Z</time>
      </trkpt>
      <trkpt lat="45.90898" lon="4.75001">
        <ele>179</ele>
        <time>2018-06-20T11:13:22Z</time>
      </trkpt>
      <trkpt lat="45.90904" lon="4.75004">
        <ele>179</ele>
        <time>2018-06-20T11:13:23Z</time>
      </trkpt>
      <trkpt lat="45.9091" lon="4.75006">
        <ele>179</ele>
        <time>2018-06-20T11:13:24Z</time>
      </trkpt>
      <trkpt lat="45.90916" lon="4.75009">
        <ele>179</ele>
        <time>2018-06-20T11:13:25Z</time>
      </trkpt>
      <trkpt lat="45.90923" lon="4.75011">
        <ele>178</ele>
        <time>2018-06-20T11:13:26Z</time>
      </trkpt>
      <trkpt lat="45.90929" lon="4.75014">
        <ele>178</ele>
        <time>2018-06-20T11:13:27Z</time>
      </trkpt>
      <trkpt lat="45.90935" lon="4.75017">
        <ele>178</ele>
        <time>2018-06-20T11:13:28Z</time>
      </trkpt>
      <trkpt lat="45.90941" lon="4.75019">
        <ele>179</ele>
        <time>2018-06-20T11:13:29Z</time>
      </trkpt>
      <trkpt lat="45.90946" lon="4.7502">
        <ele>179</ele>
        <time>2018-06-20T11:13:30Z</time>
      </trkpt>
      <trkpt lat="45.90952" lon="4.75023">
        <ele>179</ele>
        <time>2018-06-20T11:13:31Z</time>
      </trkpt>
      <trkpt lat="45.90958" lon="4.75025">
        <ele>179</ele>
        <time>2018-06-20T11:13:32Z</time>
      </trkpt>
      <trkpt lat="45.90963" lon="4.75028">
        <ele>179</ele>
        <time>2018-06-20T11:13:33Z</time>
      </trkpt>
      <trkpt lat="45.90969" lon="4.7503">
        <ele>178</ele>
        <time>2018-06-20T11:13:34Z</time>
      </trkpt>
      <trkpt lat="45.90974" lon="4.75032">
        <ele>178</ele>
        <time>2018-06-20T11:13:35Z</time>
      </trkpt>
      <trkpt lat="45.9098" lon="4.75033">
        <ele>178</ele>
        <time>2018-06-20T11:13:36Z</time>
      </trkpt>
      <trkpt lat="45.90985" lon="4.75035">
        <ele>178</ele>
        <time>2018-06-20T11:13:37Z</time>
      </trkpt>
      <trkpt lat="45.90991" lon="4.75037">
        <ele>178</ele>
        <time>2018-06-20T11:13:38Z</time>
      </trkpt>
      <trkpt lat="45.90996" lon="4.75039">
        <ele>178</ele>
        <time>2018-06-20T11:13:39Z</time>
      </trkpt>
      <trkpt lat="45.91002" lon="4.75041">
        <ele>178</ele>
        <time>2018-06-20T11:13:40Z</time>
      </trkpt>
      <trkpt lat="45.91007" lon="4.75042">
        <ele>178</ele>
        <time>2018-06-20T11:13:41Z</time>
      </trkpt>
      <trkpt lat="45.91013" lon="4.75044">
        <ele>178</ele>
        <time>2018-06-20T11:13:42Z</time>
      </trkpt>
      <trkpt lat="45.91018" lon="4.75047">
        <ele>178</ele>
        <time>2018-06-20T11:13:43Z</time>
      </trkpt>
      <trkpt lat="45.91024" lon="4.7505">
        <ele>179</ele>
        <time>2018-06-20T11:13:44Z</time>
      </trkpt>
      <trkpt lat="45.9103" lon="4.75051">
        <ele>179</ele>
        <time>2018-06-20T11:13:45Z</time>
      </trkpt>
      <trkpt lat="45.91037" lon="4.75053">
        <ele>179</ele>
        <time>2018-06-20T11:13:46Z</time>
      </trkpt>
      <trkpt lat="45.91042" lon="4.75055">
        <ele>179</ele>
        <time>2018-06-20T11:13:47Z</time>
      </trkpt>
      <trkpt lat="45.91048" lon="4.75058">
        <ele>179</ele>
        <time>2018-06-20T11:13:48Z</time>
      </trkpt>
      <trkpt lat="45.91054" lon="4.75061">
        <ele>179</ele>
        <time>2018-06-20T11:13:49Z</time>
      </trkpt>
      <trkpt lat="45.91059" lon="4.75063">
        <ele>179</ele>
        <time>2018-06-20T11:13:50Z</time>
      </trkpt>
      <trkpt lat="45.91066" lon="4.75065">
        <ele>179</ele>
        <time>2018-06-20T11:13:51Z</time>
      </trkpt>
      <trkpt lat="45.91072" lon="4.75067">
        <ele>179</ele>
        <time>2018-06-20T11:13:52Z</time>
      </trkpt>
      <trkpt lat="45.91077" lon="4.75069">
        <ele>179</ele>
        <time>2018-06-20T11:13:53Z</time>
      </trkpt>
      <trkpt lat="45.91084" lon="4.75071">
        <ele>179</ele>
        <time>2018-06-20T11:13:54Z</time>
      </trkpt>
      <trkpt lat="45.91089" lon="4.75073">
        <ele>179</ele>
        <time>2018-06-20T11:13:55Z</time>
      </trkpt>
      <trkpt lat="45.91094" lon="4.75073">
        <ele>179</ele>
        <time>2018-06-20T11:13:56Z</time>
      </trkpt>
      <trkpt lat="45.91101" lon="4.75076">
        <ele>179</ele>
        <time>2018-06-20T11:13:57Z</time>
      </trkpt>
      <trkpt lat="45.91107" lon="4.75079">
        <ele>179</ele>
        <time>2018-06-20T11:13:58Z</time>
      </trkpt>
      <trkpt lat="45.91113" lon="4.75081">
        <ele>179</ele>
        <time>2018-06-20T11:13:59Z</time>
      </trkpt>
      <trkpt lat="45.91119" lon="4.75084">
        <ele>179</ele>
        <time>2018-06-20T11:14:00Z</time>
      </trkpt>
      <trkpt lat="45.91125" lon="4.75088">
        <ele>179</ele>
        <time>2018-06-20T11:14:01Z</time>
      </trkpt>
      <trkpt lat="45.91129" lon="4.7509">
        <ele>179</ele>
        <time>2018-06-20T11:14:02Z</time>
      </trkpt>
      <trkpt lat="45.91134" lon="4.7509">
        <ele>179</ele>
        <time>2018-06-20T11:14:03Z</time>
      </trkpt>
      <trkpt lat="45.91139" lon="4.75092">
        <ele>179</ele>
        <time>2018-06-20T11:14:04Z</time>
      </trkpt>
      <trkpt lat="45.91145" lon="4.75094">
        <ele>179</ele>
        <time>2018-06-20T11:14:05Z</time>
      </trkpt>
      <trkpt lat="45.91149" lon="4.75094">
        <ele>179</ele>
        <time>2018-06-20T11:14:06Z</time>
      </trkpt>
      <trkpt lat="45.91156" lon="4.75095">
        <ele>179</ele>
        <time>2018-06-20T11:14:07Z</time>
      </trkpt>
      <trkpt lat="45.9116" lon="4.75097">
        <ele>179</ele>
        <time>2018-06-20T11:14:08Z</time>
      </trkpt>
      <trkpt lat="45.91166" lon="4.75099">
        <ele>179</ele>
        <time>2018-06-20T11:14:09Z</time>
      </trkpt>
      <trkpt lat="45.91171" lon="4.75101">
        <ele>178</ele>
        <time>2018-06-20T11:14:10Z</time>
      </trkpt>
      <trkpt lat="45.91177" lon="4.75102">
        <ele>178</ele>
        <time>2018-06-20T11:14:11Z</time>
      </trkpt>
      <trkpt lat="45.91184" lon="4.75103">
        <ele>178</ele>
        <time>2018-06-20T11:14:12Z</time>
      </trkpt>
      <trkpt lat="45.91191" lon="4.75105">
        <ele>178</ele>
        <time>2018-06-20T11:14:13Z</time>
      </trkpt>
      <trkpt lat="45.91197" lon="4.75106">
        <ele>178</ele>
        <time>2018-06-20T11:14:14Z</time>
      </trkpt>
      <trkpt lat="45.91203" lon="4.75107">
        <ele>178</ele>
        <time>2018-06-20T11:14:15Z</time>
      </trkpt>
      <trkpt lat="45.91208" lon="4.75109">
        <ele>178</ele>
        <time>2018-06-20T11:14:16Z</time>
      </trkpt>
      <trkpt lat="45.91214" lon="4.7511">
        <ele>177</ele>
        <time>2018-06-20T11:14:17Z</time>
      </trkpt>
      <trkpt lat="45.9122" lon="4.75113">
        <ele>177</ele>
        <time>2018-06-20T11:14:18Z</time>
      </trkpt>
      <trkpt lat="45.91225" lon="4.75114">
        <ele>177</ele>
        <time>2018-06-20T11:14:19Z</time>
      </trkpt>
      <trkpt lat="45.91231" lon="4.75117">
        <ele>177</ele>
        <time>2018-06-20T11:14:20Z</time>
      </trkpt>
      <trkpt lat="45.91236" lon="4.75121">
        <ele>177</ele>
        <time>2018-06-20T11:14:21Z</time>
      </trkpt>
      <trkpt lat="45.91242" lon="4.75123">
        <ele>177</ele>
        <time>2018-06-20T11:14:22Z</time>
      </trkpt>
      <trkpt lat="45.91248" lon="4.75126">
        <ele>177</ele>
        <time>2018-06-20T11:14:23Z</time>
      </trkpt>
      <trkpt lat="45.91253" lon="4.75128">
        <ele>177</ele>
        <time>2018-06-20T11:14:24Z</time>
      </trkpt>
      <trkpt lat="45.91258" lon="4.7513">
        <ele>177</ele>
        <time>2018-06-20T11:14:25Z</time>
      </trkpt>
      <trkpt lat="45.91263" lon="4.75133">
        <ele>177</ele>
        <time>2018-06-20T11:14:26Z</time>
      </trkpt>
      <trkpt lat="45.91268" lon="4.75136">
        <ele>177</ele>
        <time>2018-06-20T11:14:27Z</time>
      </trkpt>
      <trkpt lat="45.91274" lon="4.75139">
        <ele>177</ele>
        <time>2018-06-20T11:14:28Z</time>
      </trkpt>
      <trkpt lat="45.91278" lon="4.75139">
        <ele>177</ele>
        <time>2018-06-20T11:14:29Z</time>
      </trkpt>
      <trkpt lat="45.91283" lon="4.75141">
        <ele>177</ele>
        <time>2018-06-20T11:14:30Z</time>
      </trkpt>
      <trkpt lat="45.91291" lon="4.75143">
        <ele>177</ele>
        <time>2018-06-20T11:14:32Z</time>
      </trkpt>
      <trkpt lat="45.91295" lon="4.75144">
        <ele>177</ele>
        <time>2018-06-20T11:14:33Z</time>
      </trkpt>
      <trkpt lat="45.91303" lon="4.75147">
        <ele>177</ele>
        <time>2018-06-20T11:14:37Z</time>
      </trkpt>
      <trkpt lat="45.91304" lon="4.75146">
        <ele>177</ele>
        <time>2018-06-20T11:14:38Z</time>
      </trkpt>
      <trkpt lat="45.91308" lon="4.75136">
        <ele>177</ele>
        <time>2018-06-20T11:14:40Z</time>
      </trkpt>
      <trkpt lat="45.91307" lon="4.7513">
        <ele>177</ele>
        <time>2018-06-20T11:14:41Z</time>
      </trkpt>
      <trkpt lat="45.91304" lon="4.75119">
        <ele>177</ele>
        <time>2018-06-20T11:14:43Z</time>
      </trkpt>
      <trkpt lat="45.91304" lon="4.75114">
        <ele>177</ele>
        <time>2018-06-20T11:14:44Z</time>
      </trkpt>
      <trkpt lat="45.91303" lon="4.75102">
        <ele>177</ele>
        <time>2018-06-20T11:14:46Z</time>
      </trkpt>
      <trkpt lat="45.91302" lon="4.75095">
        <ele>177</ele>
        <time>2018-06-20T11:14:47Z</time>
      </trkpt>
      <trkpt lat="45.91301" lon="4.75089">
        <ele>177</ele>
        <time>2018-06-20T11:14:48Z</time>
      </trkpt>
      <trkpt lat="45.91301" lon="4.75082">
        <ele>177</ele>
        <time>2018-06-20T11:14:49Z</time>
      </trkpt>
      <trkpt lat="45.91301" lon="4.75075">
        <ele>177</ele>
        <time>2018-06-20T11:14:50Z</time>
      </trkpt>
      <trkpt lat="45.91301" lon="4.75067">
        <ele>177</ele>
        <time>2018-06-20T11:14:51Z</time>
      </trkpt>
      <trkpt lat="45.91299" lon="4.75059">
        <ele>177</ele>
        <time>2018-06-20T11:14:52Z</time>
      </trkpt>
      <trkpt lat="45.91298" lon="4.75051">
        <ele>177</ele>
        <time>2018-06-20T11:14:53Z</time>
      </trkpt>
      <trkpt lat="45.91298" lon="4.75044">
        <ele>177</ele>
        <time>2018-06-20T11:14:54Z</time>
      </trkpt>
      <trkpt lat="45.91298" lon="4.75036">
        <ele>177</ele>
        <time>2018-06-20T11:14:55Z</time>
      </trkpt>
      <trkpt lat="45.91298" lon="4.75028">
        <ele>177</ele>
        <time>2018-06-20T11:14:56Z</time>
      </trkpt>
      <trkpt lat="45.91298" lon="4.7502">
        <ele>177</ele>
        <time>2018-06-20T11:14:57Z</time>
      </trkpt>
      <trkpt lat="45.91299" lon="4.75013">
        <ele>177</ele>
        <time>2018-06-20T11:14:58Z</time>
      </trkpt>
      <trkpt lat="45.91299" lon="4.75005">
        <ele>177</ele>
        <time>2018-06-20T11:14:59Z</time>
      </trkpt>
      <trkpt lat="45.91299" lon="4.74996">
        <ele>177</ele>
        <time>2018-06-20T11:15:00Z</time>
      </trkpt>
      <trkpt lat="45.91301" lon="4.74988">
        <ele>177</ele>
        <time>2018-06-20T11:15:01Z</time>
      </trkpt>
      <trkpt lat="45.91302" lon="4.74979">
        <ele>177</ele>
        <time>2018-06-20T11:15:02Z</time>
      </trkpt>
      <trkpt lat="45.91303" lon="4.74973">
        <ele>177</ele>
        <time>2018-06-20T11:15:03Z</time>
      </trkpt>
      <trkpt lat="45.91305" lon="4.74964">
        <ele>177</ele>
        <time>2018-06-20T11:15:04Z</time>
      </trkpt>
      <trkpt lat="45.91309" lon="4.74958">
        <ele>177</ele>
        <time>2018-06-20T11:15:05Z</time>
      </trkpt>
      <trkpt lat="45.9131" lon="4.74953">
        <ele>177</ele>
        <time>2018-06-20T11:15:06Z</time>
      </trkpt>
      <trkpt lat="45.91314" lon="4.74945">
        <ele>177</ele>
        <time>2018-06-20T11:15:07Z</time>
      </trkpt>
      <trkpt lat="45.91317" lon="4.74939">
        <ele>177</ele>
        <time>2018-06-20T11:15:08Z</time>
      </trkpt>
      <trkpt lat="45.91306" lon="4.74926">
        <ele>177</ele>
        <time>2018-06-20T11:15:09Z</time>
      </trkpt>
      <trkpt lat="45.91305" lon="4.74918">
        <ele>177</ele>
        <time>2018-06-20T11:15:10Z</time>
      </trkpt>
      <trkpt lat="45.91309" lon="4.74913">
        <ele>176</ele>
        <time>2018-06-20T11:15:11Z</time>
      </trkpt>
      <trkpt lat="45.91311" lon="4.74906">
        <ele>176</ele>
        <time>2018-06-20T11:15:12Z</time>
      </trkpt>
      <trkpt lat="45.91313" lon="4.74901">
        <ele>176</ele>
        <time>2018-06-20T11:15:13Z</time>
      </trkpt>
      <trkpt lat="45.91313" lon="4.74893">
        <ele>176</ele>
        <time>2018-06-20T11:15:14Z</time>
      </trkpt>
      <trkpt lat="45.91314" lon="4.74885">
        <ele>176</ele>
        <time>2018-06-20T11:15:15Z</time>
      </trkpt>
      <trkpt lat="45.91314" lon="4.74877">
        <ele>176</ele>
        <time>2018-06-20T11:15:16Z</time>
      </trkpt>
      <trkpt lat="45.91313" lon="4.74869">
        <ele>176</ele>
        <time>2018-06-20T11:15:17Z</time>
      </trkpt>
      <trkpt lat="45.91314" lon="4.74862">
        <ele>176</ele>
        <time>2018-06-20T11:15:18Z</time>
      </trkpt>
      <trkpt lat="45.91313" lon="4.74855">
        <ele>176</ele>
        <time>2018-06-20T11:15:19Z</time>
      </trkpt>
      <trkpt lat="45.91315" lon="4.74849">
        <ele>176</ele>
        <time>2018-06-20T11:15:20Z</time>
      </trkpt>
      <trkpt lat="45.91314" lon="4.74841">
        <ele>176</ele>
        <time>2018-06-20T11:15:21Z</time>
      </trkpt>
      <trkpt lat="45.91313" lon="4.74833">
        <ele>175</ele>
        <time>2018-06-20T11:15:22Z</time>
      </trkpt>
      <trkpt lat="45.91313" lon="4.74826">
        <ele>175</ele>
        <time>2018-06-20T11:15:23Z</time>
      </trkpt>
      <trkpt lat="45.91313" lon="4.74818">
        <ele>175</ele>
        <time>2018-06-20T11:15:24Z</time>
      </trkpt>
      <trkpt lat="45.91312" lon="4.74808">
        <ele>175</ele>
        <time>2018-06-20T11:15:25Z</time>
      </trkpt>
      <trkpt lat="45.91312" lon="4.74799">
        <ele>174</ele>
        <time>2018-06-20T11:15:26Z</time>
      </trkpt>
      <trkpt lat="45.91314" lon="4.74793">
        <ele>174</ele>
        <time>2018-06-20T11:15:27Z</time>
      </trkpt>
      <trkpt lat="45.91316" lon="4.74786">
        <ele>174</ele>
        <time>2018-06-20T11:15:28Z</time>
      </trkpt>
      <trkpt lat="45.91317" lon="4.74778">
        <ele>174</ele>
        <time>2018-06-20T11:15:29Z</time>
      </trkpt>
      <trkpt lat="45.91318" lon="4.7477">
        <ele>174</ele>
        <time>2018-06-20T11:15:30Z</time>
      </trkpt>
      <trkpt lat="45.9132" lon="4.74761">
        <ele>174</ele>
        <time>2018-06-20T11:15:31Z</time>
      </trkpt>
      <trkpt lat="45.91321" lon="4.74753">
        <ele>174</ele>
        <time>2018-06-20T11:15:32Z</time>
      </trkpt>
      <trkpt lat="45.91322" lon="4.74745">
        <ele>173</ele>
        <time>2018-06-20T11:15:33Z</time>
      </trkpt>
      <trkpt lat="45.91323" lon="4.74736">
        <ele>173</ele>
        <time>2018-06-20T11:15:34Z</time>
      </trkpt>
      <trkpt lat="45.91325" lon="4.74728">
        <ele>173</ele>
        <time>2018-06-20T11:15:35Z</time>
      </trkpt>
      <trkpt lat="45.91326" lon="4.7472">
        <ele>173</ele>
        <time>2018-06-20T11:15:36Z</time>
      </trkpt>
      <trkpt lat="45.91327" lon="4.74713">
        <ele>173</ele>
        <time>2018-06-20T11:15:37Z</time>
      </trkpt>
      <trkpt lat="45.91329" lon="4.74704">
        <ele>173</ele>
        <time>2018-06-20T11:15:38Z</time>
      </trkpt>
      <trkpt lat="45.91328" lon="4.74697">
        <ele>173</ele>
        <time>2018-06-20T11:15:39Z</time>
      </trkpt>
      <trkpt lat="45.91327" lon="4.74689">
        <ele>173</ele>
        <time>2018-06-20T11:15:40Z</time>
      </trkpt>
      <trkpt lat="45.91326" lon="4.74682">
        <ele>173</ele>
        <time>2018-06-20T11:15:41Z</time>
      </trkpt>
      <trkpt lat="45.91324" lon="4.74673">
        <ele>173</ele>
        <time>2018-06-20T11:15:42Z</time>
      </trkpt>
      <trkpt lat="45.91322" lon="4.74665">
        <ele>173</ele>
        <time>2018-06-20T11:15:43Z</time>
      </trkpt>
      <trkpt lat="45.9132" lon="4.74658">
        <ele>173</ele>
        <time>2018-06-20T11:15:44Z</time>
      </trkpt>
      <trkpt lat="45.91317" lon="4.74651">
        <ele>173</ele>
        <time>2018-06-20T11:15:45Z</time>
      </trkpt>
      <trkpt lat="45.91314" lon="4.74644">
        <ele>173</ele>
        <time>2018-06-20T11:15:46Z</time>
      </trkpt>
      <trkpt lat="45.91312" lon="4.74638">
        <ele>173</ele>
        <time>2018-06-20T11:15:47Z</time>
      </trkpt>
      <trkpt lat="45.91308" lon="4.74631">
        <ele>173</ele>
        <time>2018-06-20T11:15:48Z</time>
      </trkpt>
      <trkpt lat="45.91305" lon="4.74625">
        <ele>173</ele>
        <time>2018-06-20T11:15:49Z</time>
      </trkpt>
      <trkpt lat="45.91303" lon="4.74618">
        <ele>173</ele>
        <time>2018-06-20T11:15:50Z</time>
      </trkpt>
      <trkpt lat="45.913" lon="4.74612">
        <ele>173</ele>
        <time>2018-06-20T11:15:51Z</time>
      </trkpt>
      <trkpt lat="45.91297" lon="4.74606">
        <ele>173</ele>
        <time>2018-06-20T11:15:52Z</time>
      </trkpt>
      <trkpt lat="45.91294" lon="4.74599">
        <ele>173</ele>
        <time>2018-06-20T11:15:53Z</time>
      </trkpt>
      <trkpt lat="45.91289" lon="4.74591">
        <ele>173</ele>
        <time>2018-06-20T11:15:54Z</time>
      </trkpt>
      <trkpt lat="45.91286" lon="4.74584">
        <ele>173</ele>
        <time>2018-06-20T11:15:55Z</time>
      </trkpt>
      <trkpt lat="45.91284" lon="4.74577">
        <ele>173</ele>
        <time>2018-06-20T11:15:56Z</time>
      </trkpt>
      <trkpt lat="45.91281" lon="4.74569">
        <ele>173</ele>
        <time>2018-06-20T11:15:57Z</time>
      </trkpt>
      <trkpt lat="45.91277" lon="4.74562">
        <ele>173</ele>
        <time>2018-06-20T11:15:58Z</time>
      </trkpt>
      <trkpt lat="45.91273" lon="4.74556">
        <ele>173</ele>
        <time>2018-06-20T11:15:59Z</time>
      </trkpt>
      <trkpt lat="45.91271" lon="4.74549">
        <ele>173</ele>
        <time>2018-06-20T11:16:00Z</time>
      </trkpt>
      <trkpt lat="45.91269" lon="4.74542">
        <ele>173</ele>
        <time>2018-06-20T11:16:01Z</time>
      </trkpt>
      <trkpt lat="45.91266" lon="4.74534">
        <ele>173</ele>
        <time>2018-06-20T11:16:02Z</time>
      </trkpt>
      <trkpt lat="45.91262" lon="4.74527">
        <ele>173</ele>
        <time>2018-06-20T11:16:03Z</time>
      </trkpt>
      <trkpt lat="45.9126" lon="4.7452">
        <ele>174</ele>
        <time>2018-06-20T11:16:04Z</time>
      </trkpt>
      <trkpt lat="45.91258" lon="4.74512">
        <ele>174</ele>
        <time>2018-06-20T11:16:05Z</time>
      </trkpt>
      <trkpt lat="45.91256" lon="4.74505">
        <ele>174</ele>
        <time>2018-06-20T11:16:06Z</time>
      </trkpt>
      <trkpt lat="45.91255" lon="4.74498">
        <ele>174</ele>
        <time>2018-06-20T11:16:07Z</time>
      </trkpt>
      <trkpt lat="45.91254" lon="4.7449">
        <ele>174</ele>
        <time>2018-06-20T11:16:08Z</time>
      </trkpt>
      <trkpt lat="45.91252" lon="4.74482">
        <ele>173</ele>
        <time>2018-06-20T11:16:09Z</time>
      </trkpt>
      <trkpt lat="45.9125" lon="4.74474">
        <ele>173</ele>
        <time>2018-06-20T11:16:10Z</time>
      </trkpt>
      <trkpt lat="45.91248" lon="4.74467">
        <ele>174</ele>
        <time>2018-06-20T11:16:11Z</time>
      </trkpt>
      <trkpt lat="45.91246" lon="4.74459">
        <ele>174</ele>
        <time>2018-06-20T11:16:12Z</time>
      </trkpt>
      <trkpt lat="45.91244" lon="4.74452">
        <ele>174</ele>
        <time>2018-06-20T11:16:13Z</time>
      </trkpt>
      <trkpt lat="45.91242" lon="4.74444">
        <ele>174</ele>
        <time>2018-06-20T11:16:14Z</time>
      </trkpt>
      <trkpt lat="45.91239" lon="4.74437">
        <ele>174</ele>
        <time>2018-06-20T11:16:15Z</time>
      </trkpt>
      <trkpt lat="45.91237" lon="4.74429">
        <ele>174</ele>
        <time>2018-06-20T11:16:16Z</time>
      </trkpt>
      <trkpt lat="45.91236" lon="4.74421">
        <ele>174</ele>
        <time>2018-06-20T11:16:17Z</time>
      </trkpt>
      <trkpt lat="45.91233" lon="4.74413">
        <ele>174</ele>
        <time>2018-06-20T11:16:18Z</time>
      </trkpt>
      <trkpt lat="45.91231" lon="4.74405">
        <ele>174</ele>
        <time>2018-06-20T11:16:19Z</time>
      </trkpt>
      <trkpt lat="45.91229" lon="4.74397">
        <ele>174</ele>
        <time>2018-06-20T11:16:20Z</time>
      </trkpt>
      <trkpt lat="45.91227" lon="4.74389">
        <ele>174</ele>
        <time>2018-06-20T11:16:21Z</time>
      </trkpt>
      <trkpt lat="45.91225" lon="4.74381">
        <ele>174</ele>
        <time>2018-06-20T11:16:22Z</time>
      </trkpt>
      <trkpt lat="45.91223" lon="4.74373">
        <ele>174</ele>
        <time>2018-06-20T11:16:23Z</time>
      </trkpt>
      <trkpt lat="45.91221" lon="4.74365">
        <ele>174</ele>
        <time>2018-06-20T11:16:24Z</time>
      </trkpt>
      <trkpt lat="45.91219" lon="4.74357">
        <ele>174</ele>
        <time>2018-06-20T11:16:25Z</time>
      </trkpt>
      <trkpt lat="45.91216" lon="4.7435">
        <ele>175</ele>
        <time>2018-06-20T11:16:26Z</time>
      </trkpt>
      <trkpt lat="45.91215" lon="4.74343">
        <ele>175</ele>
        <time>2018-06-20T11:16:27Z</time>
      </trkpt>
      <trkpt lat="45.91212" lon="4.74336">
        <ele>175</ele>
        <time>2018-06-20T11:16:28Z</time>
      </trkpt>
      <trkpt lat="45.9121" lon="4.74329">
        <ele>175</ele>
        <time>2018-06-20T11:16:29Z</time>
      </trkpt>
      <trkpt lat="45.91208" lon="4.74322">
        <ele>175</ele>
        <time>2018-06-20T11:16:30Z</time>
      </trkpt>
      <trkpt lat="45.91208" lon="4.74316">
        <ele>175</ele>
        <time>2018-06-20T11:16:31Z</time>
      </trkpt>
      <trkpt lat="45.91206" lon="4.7431">
        <ele>175</ele>
        <time>2018-06-20T11:16:32Z</time>
      </trkpt>
      <trkpt lat="45.91204" lon="4.74303">
        <ele>175</ele>
        <time>2018-06-20T11:16:33Z</time>
      </trkpt>
      <trkpt lat="45.91202" lon="4.74297">
        <ele>175</ele>
        <time>2018-06-20T11:16:34Z</time>
      </trkpt>
      <trkpt lat="45.91201" lon="4.74291">
        <ele>175</ele>
        <time>2018-06-20T11:16:35Z</time>
      </trkpt>
      <trkpt lat="45.91197" lon="4.74283">
        <ele>175</ele>
        <time>2018-06-20T11:16:36Z</time>
      </trkpt>
      <trkpt lat="45.91195" lon="4.74278">
        <ele>175</ele>
        <time>2018-06-20T11:16:37Z</time>
      </trkpt>
      <trkpt lat="45.91192" lon="4.74271">
        <ele>175</ele>
        <time>2018-06-20T11:16:38Z</time>
      </trkpt>
      <trkpt lat="45.91191" lon="4.74266">
        <ele>175</ele>
        <time>2018-06-20T11:16:39Z</time>
      </trkpt>
      <trkpt lat="45.9119" lon="4.74255">
        <ele>175</ele>
        <time>2018-06-20T11:16:41Z</time>
      </trkpt>
      <trkpt lat="45.91188" lon="4.74249">
        <ele>175</ele>
        <time>2018-06-20T11:16:42Z</time>
      </trkpt>
      <trkpt lat="45.91188" lon="4.74238">
        <ele>175</ele>
        <time>2018-06-20T11:16:44Z</time>
      </trkpt>
      <trkpt lat="45.91186" lon="4.74233">
        <ele>175</ele>
        <time>2018-06-20T11:16:45Z</time>
      </trkpt>
      <trkpt lat="45.91186" lon="4.74221">
        <ele>175</ele>
        <time>2018-06-20T11:16:47Z</time>
      </trkpt>
      <trkpt lat="45.91183" lon="4.74215">
        <ele>175</ele>
        <time>2018-06-20T11:16:48Z</time>
      </trkpt>
      <trkpt lat="45.91183" lon="4.74204">
        <ele>175</ele>
        <time>2018-06-20T11:16:50Z</time>
      </trkpt>
      <trkpt lat="45.91183" lon="4.74197">
        <ele>175</ele>
        <time>2018-06-20T11:16:51Z</time>
      </trkpt>
      <trkpt lat="45.91184" lon="4.74186">
        <ele>174</ele>
        <time>2018-06-20T11:16:53Z</time>
      </trkpt>
      <trkpt lat="45.91185" lon="4.7418">
        <ele>174</ele>
        <time>2018-06-20T11:16:54Z</time>
      </trkpt>
      <trkpt lat="45.91186" lon="4.74169">
        <ele>174</ele>
        <time>2018-06-20T11:16:56Z</time>
      </trkpt>
      <trkpt lat="45.91187" lon="4.74163">
        <ele>174</ele>
        <time>2018-06-20T11:16:57Z</time>
      </trkpt>
      <trkpt lat="45.91188" lon="4.74152">
        <ele>174</ele>
        <time>2018-06-20T11:16:59Z</time>
      </trkpt>
      <trkpt lat="45.91189" lon="4.74146">
        <ele>174</ele>
        <time>2018-06-20T11:17:00Z</time>
      </trkpt>
      <trkpt lat="45.91191" lon="4.74135">
        <ele>174</ele>
        <time>2018-06-20T11:17:02Z</time>
      </trkpt>
      <trkpt lat="45.91193" lon="4.74129">
        <ele>174</ele>
        <time>2018-06-20T11:17:03Z</time>
      </trkpt>
      <trkpt lat="45.91195" lon="4.74117">
        <ele>174</ele>
        <time>2018-06-20T11:17:05Z</time>
      </trkpt>
      <trkpt lat="45.91196" lon="4.74112">
        <ele>174</ele>
        <time>2018-06-20T11:17:06Z</time>
      </trkpt>
      <trkpt lat="45.91199" lon="4.741">
        <ele>173</ele>
        <time>2018-06-20T11:17:08Z</time>
      </trkpt>
      <trkpt lat="45.912" lon="4.74095">
        <ele>173</ele>
        <time>2018-06-20T11:17:09Z</time>
      </trkpt>
      <trkpt lat="45.91203" lon="4.74084">
        <ele>173</ele>
        <time>2018-06-20T11:17:11Z</time>
      </trkpt>
      <trkpt lat="45.91204" lon="4.74078">
        <ele>173</ele>
        <time>2018-06-20T11:17:12Z</time>
      </trkpt>
      <trkpt lat="45.91207" lon="4.74067">
        <ele>173</ele>
        <time>2018-06-20T11:17:14Z</time>
      </trkpt>
      <trkpt lat="45.91208" lon="4.74061">
        <ele>173</ele>
        <time>2018-06-20T11:17:15Z</time>
      </trkpt>
      <trkpt lat="45.9121" lon="4.74048">
        <ele>173</ele>
        <time>2018-06-20T11:17:17Z</time>
      </trkpt>
      <trkpt lat="45.91211" lon="4.74042">
        <ele>173</ele>
        <time>2018-06-20T11:17:18Z</time>
      </trkpt>
      <trkpt lat="45.91213" lon="4.74031">
        <ele>173</ele>
        <time>2018-06-20T11:17:20Z</time>
      </trkpt>
      <trkpt lat="45.91215" lon="4.74025">
        <ele>173</ele>
        <time>2018-06-20T11:17:21Z</time>
      </trkpt>
      <trkpt lat="45.91219" lon="4.74013">
        <ele>173</ele>
        <time>2018-06-20T11:17:23Z</time>
      </trkpt>
      <trkpt lat="45.9122" lon="4.74006">
        <ele>173</ele>
        <time>2018-06-20T11:17:24Z</time>
      </trkpt>
      <trkpt lat="45.91221" lon="4.73995">
        <ele>173</ele>
        <time>2018-06-20T11:17:26Z</time>
      </trkpt>
      <trkpt lat="45.91223" lon="4.73987">
        <ele>173</ele>
        <time>2018-06-20T11:17:27Z</time>
      </trkpt>
      <trkpt lat="45.91224" lon="4.73981">
        <ele>173</ele>
        <time>2018-06-20T11:17:28Z</time>
      </trkpt>
      <trkpt lat="45.91225" lon="4.73974">
        <ele>173</ele>
        <time>2018-06-20T11:17:29Z</time>
      </trkpt>
      <trkpt lat="45.91226" lon="4.73967">
        <ele>173</ele>
        <time>2018-06-20T11:17:30Z</time>
      </trkpt>
      <trkpt lat="45.91225" lon="4.73961">
        <ele>173</ele>
        <time>2018-06-20T11:17:31Z</time>
      </trkpt>
      <trkpt lat="45.91225" lon="4.73953">
        <ele>173</ele>
        <time>2018-06-20T11:17:32Z</time>
      </trkpt>
      <trkpt lat="45.91226" lon="4.73945">
        <ele>173</ele>
        <time>2018-06-20T11:17:33Z</time>
      </trkpt>
      <trkpt lat="45.91226" lon="4.73937">
        <ele>173</ele>
        <time>2018-06-20T11:17:34Z</time>
      </trkpt>
      <trkpt lat="45.91227" lon="4.73929">
        <ele>173</ele>
        <time>2018-06-20T11:17:35Z</time>
      </trkpt>
      <trkpt lat="45.91226" lon="4.73919">
        <ele>173</ele>
        <time>2018-06-20T11:17:36Z</time>
      </trkpt>
      <trkpt lat="45.91225" lon="4.73911">
        <ele>174</ele>
        <time>2018-06-20T11:17:37Z</time>
      </trkpt>
      <trkpt lat="45.91224" lon="4.73901">
        <ele>174</ele>
        <time>2018-06-20T11:17:38Z</time>
      </trkpt>
      <trkpt lat="45.91221" lon="4.73891">
        <ele>174</ele>
        <time>2018-06-20T11:17:39Z</time>
      </trkpt>
      <trkpt lat="45.91219" lon="4.73882">
        <ele>174</ele>
        <time>2018-06-20T11:17:40Z</time>
      </trkpt>
      <trkpt lat="45.91218" lon="4.73874">
        <ele>174</ele>
        <time>2018-06-20T11:17:41Z</time>
      </trkpt>
      <trkpt lat="45.91215" lon="4.73864">
        <ele>174</ele>
        <time>2018-06-20T11:17:42Z</time>
      </trkpt>
      <trkpt lat="45.91211" lon="4.73855">
        <ele>174</ele>
        <time>2018-06-20T11:17:43Z</time>
      </trkpt>
      <trkpt lat="45.91207" lon="4.73846">
        <ele>174</ele>
        <time>2018-06-20T11:17:44Z</time>
      </trkpt>
      <trkpt lat="45.91203" lon="4.73836">
        <ele>174</ele>
        <time>2018-06-20T11:17:45Z</time>
      </trkpt>
      <trkpt lat="45.91199" lon="4.73826">
        <ele>175</ele>
        <time>2018-06-20T11:17:46Z</time>
      </trkpt>
      <trkpt lat="45.91195" lon="4.73816">
        <ele>175</ele>
        <time>2018-06-20T11:17:47Z</time>
      </trkpt>
      <trkpt lat="45.91191" lon="4.73806">
        <ele>175</ele>
        <time>2018-06-20T11:17:48Z</time>
      </trkpt>
      <trkpt lat="45.91186" lon="4.73795">
        <ele>175</ele>
        <time>2018-06-20T11:17:49Z</time>
      </trkpt>
      <trkpt lat="45.91182" lon="4.73786">
        <ele>175</ele>
        <time>2018-06-20T11:17:50Z</time>
      </trkpt>
      <trkpt lat="45.91178" lon="4.73777">
        <ele>175</ele>
        <time>2018-06-20T11:17:51Z</time>
      </trkpt>
      <trkpt lat="45.91175" lon="4.7377">
        <ele>175</ele>
        <time>2018-06-20T11:17:52Z</time>
      </trkpt>
      <trkpt lat="45.91172" lon="4.73762">
        <ele>175</ele>
        <time>2018-06-20T11:17:53Z</time>
      </trkpt>
      <trkpt lat="45.91169" lon="4.73755">
        <ele>175</ele>
        <time>2018-06-20T11:17:54Z</time>
      </trkpt>
      <trkpt lat="45.91166" lon="4.73749">
        <ele>175</ele>
        <time>2018-06-20T11:17:55Z</time>
      </trkpt>
      <trkpt lat="45.91168" lon="4.73736">
        <ele>175</ele>
        <time>2018-06-20T11:17:57Z</time>
      </trkpt>
      <trkpt lat="45.91171" lon="4.73731">
        <ele>175</ele>
        <time>2018-06-20T11:17:58Z</time>
      </trkpt>
      <trkpt lat="45.91179" lon="4.73729">
        <ele>175</ele>
        <time>2018-06-20T11:18:00Z</time>
      </trkpt>
      <trkpt lat="45.91183" lon="4.7373">
        <ele>175</ele>
        <time>2018-06-20T11:18:01Z</time>
      </trkpt>
      <trkpt lat="45.91191" lon="4.73735">
        <ele>175</ele>
        <time>2018-06-20T11:18:03Z</time>
      </trkpt>
      <trkpt lat="45.91194" lon="4.73734">
        <ele>175</ele>
        <time>2018-06-20T11:18:04Z</time>
      </trkpt>
      <trkpt lat="45.91199" lon="4.73734">
        <ele>175</ele>
        <time>2018-06-20T11:18:05Z</time>
      </trkpt>
      <trkpt lat="45.91203" lon="4.73734">
        <ele>175</ele>
        <time>2018-06-20T11:18:06Z</time>
      </trkpt>
      <trkpt lat="45.91209" lon="4.73734">
        <ele>175</ele>
        <time>2018-06-20T11:18:07Z</time>
      </trkpt>
      <trkpt lat="45.91214" lon="4.73735">
        <ele>175</ele>
        <time>2018-06-20T11:18:08Z</time>
      </trkpt>
      <trkpt lat="45.91218" lon="4.73735">
        <ele>175</ele>
        <time>2018-06-20T11:18:09Z</time>
      </trkpt>
      <trkpt lat="45.91224" lon="4.73736">
        <ele>175</ele>
        <time>2018-06-20T11:18:10Z</time>
      </trkpt>
      <trkpt lat="45.91229" lon="4.73735">
        <ele>175</ele>
        <time>2018-06-20T11:18:11Z</time>
      </trkpt>
      <trkpt lat="45.91234" lon="4.73736">
        <ele>175</ele>
        <time>2018-06-20T11:18:12Z</time>
      </trkpt>
      <trkpt lat="45.9124" lon="4.73735">
        <ele>175</ele>
        <time>2018-06-20T11:18:13Z</time>
      </trkpt>
      <trkpt lat="45.91245" lon="4.73736">
        <ele>175</ele>
        <time>2018-06-20T11:18:14Z</time>
      </trkpt>
      <trkpt lat="45.91251" lon="4.73736">
        <ele>175</ele>
        <time>2018-06-20T11:18:15Z</time>
      </trkpt>
      <trkpt lat="45.91256" lon="4.73736">
        <ele>175</ele>
        <time>2018-06-20T11:18:16Z</time>
      </trkpt>
      <trkpt lat="45.91262" lon="4.73736">
        <ele>174</ele>
        <time>2018-06-20T11:18:17Z</time>
      </trkpt>
      <trkpt lat="45.91267" lon="4.73736">
        <ele>174</ele>
        <time>2018-06-20T11:18:18Z</time>
      </trkpt>
      <trkpt lat="45.91272" lon="4.73736">
        <ele>174</ele>
        <time>2018-06-20T11:18:19Z</time>
      </trkpt>
      <trkpt lat="45.91277" lon="4.73736">
        <ele>174</ele>
        <time>2018-06-20T11:18:20Z</time>
      </trkpt>
      <trkpt lat="45.91282" lon="4.73737">
        <ele>174</ele>
        <time>2018-06-20T11:18:21Z</time>
      </trkpt>
      <trkpt lat="45.91287" lon="4.73737">
        <ele>174</ele>
        <time>2018-06-20T11:18:22Z</time>
      </trkpt>
      <trkpt lat="45.91292" lon="4.73737">
        <ele>174</ele>
        <time>2018-06-20T11:18:23Z</time>
      </trkpt>
      <trkpt lat="45.91297" lon="4.73738">
        <ele>174</ele>
        <time>2018-06-20T11:18:24Z</time>
      </trkpt>
      <trkpt lat="45.91302" lon="4.73737">
        <ele>174</ele>
        <time>2018-06-20T11:18:25Z</time>
      </trkpt>
      <trkpt lat="45.91307" lon="4.73737">
        <ele>174</ele>
        <time>2018-06-20T11:18:26Z</time>
      </trkpt>
      <trkpt lat="45.91312" lon="4.73737">
        <ele>174</ele>
        <time>2018-06-20T11:18:27Z</time>
      </trkpt>
      <trkpt lat="45.91317" lon="4.73736">
        <ele>174</ele>
        <time>2018-06-20T11:18:28Z</time>
      </trkpt>
      <trkpt lat="45.91323" lon="4.73737">
        <ele>174</ele>
        <time>2018-06-20T11:18:29Z</time>
      </trkpt>
      <trkpt lat="45.91328" lon="4.73737">
        <ele>173</ele>
        <time>2018-06-20T11:18:30Z</time>
      </trkpt>
      <trkpt lat="45.91333" lon="4.73737">
        <ele>173</ele>
        <time>2018-06-20T11:18:31Z</time>
      </trkpt>
      <trkpt lat="45.91339" lon="4.73736">
        <ele>173</ele>
        <time>2018-06-20T11:18:32Z</time>
      </trkpt>
      <trkpt lat="45.91344" lon="4.73736">
        <ele>173</ele>
        <time>2018-06-20T11:18:33Z</time>
      </trkpt>
      <trkpt lat="45.91349" lon="4.73736">
        <ele>173</ele>
        <time>2018-06-20T11:18:34Z</time>
      </trkpt>
      <trkpt lat="45.91355" lon="4.73737">
        <ele>173</ele>
        <time>2018-06-20T11:18:35Z</time>
      </trkpt>
      <trkpt lat="45.9136" lon="4.73738">
        <ele>173</ele>
        <time>2018-06-20T11:18:36Z</time>
      </trkpt>
      <trkpt lat="45.91365" lon="4.73738">
        <ele>173</ele>
        <time>2018-06-20T11:18:37Z</time>
      </trkpt>
      <trkpt lat="45.9137" lon="4.73738">
        <ele>173</ele>
        <time>2018-06-20T11:18:38Z</time>
      </trkpt>
      <trkpt lat="45.91375" lon="4.73737">
        <ele>173</ele>
        <time>2018-06-20T11:18:39Z</time>
      </trkpt>
      <trkpt lat="45.9138" lon="4.73738">
        <ele>173</ele>
        <time>2018-06-20T11:18:40Z</time>
      </trkpt>
      <trkpt lat="45.91386" lon="4.73738">
        <ele>173</ele>
        <time>2018-06-20T11:18:41Z</time>
      </trkpt>
      <trkpt lat="45.91391" lon="4.73739">
        <ele>173</ele>
        <time>2018-06-20T11:18:42Z</time>
      </trkpt>
      <trkpt lat="45.91396" lon="4.73739">
        <ele>173</ele>
        <time>2018-06-20T11:18:43Z</time>
      </trkpt>
      <trkpt lat="45.91402" lon="4.73739">
        <ele>173</ele>
        <time>2018-06-20T11:18:44Z</time>
      </trkpt>
      <trkpt lat="45.91407" lon="4.73739">
        <ele>173</ele>
        <time>2018-06-20T11:18:45Z</time>
      </trkpt>
      <trkpt lat="45.91411" lon="4.7374">
        <ele>172</ele>
        <time>2018-06-20T11:18:46Z</time>
      </trkpt>
      <trkpt lat="45.91417" lon="4.73739">
        <ele>173</ele>
        <time>2018-06-20T11:18:47Z</time>
      </trkpt>
      <trkpt lat="45.91421" lon="4.73739">
        <ele>173</ele>
        <time>2018-06-20T11:18:48Z</time>
      </trkpt>
      <trkpt lat="45.91426" lon="4.7374">
        <ele>173</ele>
        <time>2018-06-20T11:18:49Z</time>
      </trkpt>
      <trkpt lat="45.91431" lon="4.7374">
        <ele>173</ele>
        <time>2018-06-20T11:18:50Z</time>
      </trkpt>
      <trkpt lat="45.91436" lon="4.73741">
        <ele>173</ele>
        <time>2018-06-20T11:18:51Z</time>
      </trkpt>
      <trkpt lat="45.91441" lon="4.7374">
        <ele>173</ele>
        <time>2018-06-20T11:18:52Z</time>
      </trkpt>
      <trkpt lat="45.91446" lon="4.73739">
        <ele>173</ele>
        <time>2018-06-20T11:18:53Z</time>
      </trkpt>
      <trkpt lat="45.91451" lon="4.7374">
        <ele>173</ele>
        <time>2018-06-20T11:18:54Z</time>
      </trkpt>
      <trkpt lat="45.91456" lon="4.73739">
        <ele>173</ele>
        <time>2018-06-20T11:18:55Z</time>
      </trkpt>
      <trkpt lat="45.91461" lon="4.7374">
        <ele>174</ele>
        <time>2018-06-20T11:18:56Z</time>
      </trkpt>
      <trkpt lat="45.91466" lon="4.73739">
        <ele>174</ele>
        <time>2018-06-20T11:18:57Z</time>
      </trkpt>
      <trkpt lat="45.91471" lon="4.73739">
        <ele>174</ele>
        <time>2018-06-20T11:18:58Z</time>
      </trkpt>
      <trkpt lat="45.91476" lon="4.73739">
        <ele>174</ele>
        <time>2018-06-20T11:18:59Z</time>
      </trkpt>
      <trkpt lat="45.91482" lon="4.73738">
        <ele>174</ele>
        <time>2018-06-20T11:19:00Z</time>
      </trkpt>
      <trkpt lat="45.91487" lon="4.73738">
        <ele>174</ele>
        <time>2018-06-20T11:19:01Z</time>
      </trkpt>
      <trkpt lat="45.91493" lon="4.73738">
        <ele>174</ele>
        <time>2018-06-20T11:19:02Z</time>
      </trkpt>
      <trkpt lat="45.91499" lon="4.73738">
        <ele>174</ele>
        <time>2018-06-20T11:19:03Z</time>
      </trkpt>
      <trkpt lat="45.91504" lon="4.73738">
        <ele>174</ele>
        <time>2018-06-20T11:19:04Z</time>
      </trkpt>
      <trkpt lat="45.9151" lon="4.73738">
        <ele>174</ele>
        <time>2018-06-20T11:19:05Z</time>
      </trkpt>
      <trkpt lat="45.91516" lon="4.73738">
        <ele>174</ele>
        <time>2018-06-20T11:19:06Z</time>
      </trkpt>
      <trkpt lat="45.91521" lon="4.73739">
        <ele>174</ele>
        <time>2018-06-20T11:19:07Z</time>
      </trkpt>
      <trkpt lat="45.91528" lon="4.73738">
        <ele>174</ele>
        <time>2018-06-20T11:19:08Z</time>
      </trkpt>
      <trkpt lat="45.91533" lon="4.73737">
        <ele>174</ele>
        <time>2018-06-20T11:19:09Z</time>
      </trkpt>
      <trkpt lat="45.91539" lon="4.73736">
        <ele>174</ele>
        <time>2018-06-20T11:19:10Z</time>
      </trkpt>
      <trkpt lat="45.91545" lon="4.73736">
        <ele>174</ele>
        <time>2018-06-20T11:19:11Z</time>
      </trkpt>
      <trkpt lat="45.91551" lon="4.73736">
        <ele>174</ele>
        <time>2018-06-20T11:19:12Z</time>
      </trkpt>
      <trkpt lat="45.91556" lon="4.73734">
        <ele>174</ele>
        <time>2018-06-20T11:19:13Z</time>
      </trkpt>
      <trkpt lat="45.91562" lon="4.73735">
        <ele>173</ele>
        <time>2018-06-20T11:19:14Z</time>
      </trkpt>
      <trkpt lat="45.91568" lon="4.73735">
        <ele>173</ele>
        <time>2018-06-20T11:19:15Z</time>
      </trkpt>
      <trkpt lat="45.91573" lon="4.73735">
        <ele>173</ele>
        <time>2018-06-20T11:19:16Z</time>
      </trkpt>
      <trkpt lat="45.91578" lon="4.73734">
        <ele>173</ele>
        <time>2018-06-20T11:19:17Z</time>
      </trkpt>
      <trkpt lat="45.91584" lon="4.73734">
        <ele>173</ele>
        <time>2018-06-20T11:19:18Z</time>
      </trkpt>
      <trkpt lat="45.91591" lon="4.73734">
        <ele>173</ele>
        <time>2018-06-20T11:19:19Z</time>
      </trkpt>
      <trkpt lat="45.91597" lon="4.73734">
        <ele>173</ele>
        <time>2018-06-20T11:19:20Z</time>
      </trkpt>
      <trkpt lat="45.91603" lon="4.73734">
        <ele>173</ele>
        <time>2018-06-20T11:19:21Z</time>
      </trkpt>
      <trkpt lat="45.91609" lon="4.73734">
        <ele>173</ele>
        <time>2018-06-20T11:19:22Z</time>
      </trkpt>
      <trkpt lat="45.91614" lon="4.73734">
        <ele>173</ele>
        <time>2018-06-20T11:19:23Z</time>
      </trkpt>
      <trkpt lat="45.9162" lon="4.73733">
        <ele>173</ele>
        <time>2018-06-20T11:19:24Z</time>
      </trkpt>
      <trkpt lat="45.91625" lon="4.73733">
        <ele>172</ele>
        <time>2018-06-20T11:19:25Z</time>
      </trkpt>
      <trkpt lat="45.91631" lon="4.73733">
        <ele>172</ele>
        <time>2018-06-20T11:19:26Z</time>
      </trkpt>
      <trkpt lat="45.91635" lon="4.7373">
        <ele>172</ele>
        <time>2018-06-20T11:19:27Z</time>
      </trkpt>
      <trkpt lat="45.9164" lon="4.7373">
        <ele>172</ele>
        <time>2018-06-20T11:19:28Z</time>
      </trkpt>
      <trkpt lat="45.91645" lon="4.7373">
        <ele>172</ele>
        <time>2018-06-20T11:19:29Z</time>
      </trkpt>
      <trkpt lat="45.9165" lon="4.73731">
        <ele>172</ele>
        <time>2018-06-20T11:19:30Z</time>
      </trkpt>
      <trkpt lat="45.91655" lon="4.73732">
        <ele>172</ele>
        <time>2018-06-20T11:19:31Z</time>
      </trkpt>
      <trkpt lat="45.9166" lon="4.73732">
        <ele>172</ele>
        <time>2018-06-20T11:19:32Z</time>
      </trkpt>
      <trkpt lat="45.91665" lon="4.73732">
        <ele>172</ele>
        <time>2018-06-20T11:19:33Z</time>
      </trkpt>
      <trkpt lat="45.91669" lon="4.73733">
        <ele>172</ele>
        <time>2018-06-20T11:19:34Z</time>
      </trkpt>
      <trkpt lat="45.91675" lon="4.73733">
        <ele>172</ele>
        <time>2018-06-20T11:19:35Z</time>
      </trkpt>
      <trkpt lat="45.91681" lon="4.73733">
        <ele>172</ele>
        <time>2018-06-20T11:19:36Z</time>
      </trkpt>
      <trkpt lat="45.91686" lon="4.73733">
        <ele>172</ele>
        <time>2018-06-20T11:19:37Z</time>
      </trkpt>
      <trkpt lat="45.91692" lon="4.73733">
        <ele>172</ele>
        <time>2018-06-20T11:19:38Z</time>
      </trkpt>
      <trkpt lat="45.91697" lon="4.73733">
        <ele>172</ele>
        <time>2018-06-20T11:19:39Z</time>
      </trkpt>
      <trkpt lat="45.91702" lon="4.73731">
        <ele>172</ele>
        <time>2018-06-20T11:19:40Z</time>
      </trkpt>
      <trkpt lat="45.91708" lon="4.7373">
        <ele>172</ele>
        <time>2018-06-20T11:19:41Z</time>
      </trkpt>
      <trkpt lat="45.91713" lon="4.7373">
        <ele>173</ele>
        <time>2018-06-20T11:19:42Z</time>
      </trkpt>
      <trkpt lat="45.91718" lon="4.73731">
        <ele>173</ele>
        <time>2018-06-20T11:19:43Z</time>
      </trkpt>
      <trkpt lat="45.91724" lon="4.73732">
        <ele>173</ele>
        <time>2018-06-20T11:19:44Z</time>
      </trkpt>
      <trkpt lat="45.91728" lon="4.73732">
        <ele>173</ele>
        <time>2018-06-20T11:19:45Z</time>
      </trkpt>
      <trkpt lat="45.91733" lon="4.73732">
        <ele>173</ele>
        <time>2018-06-20T11:19:46Z</time>
      </trkpt>
      <trkpt lat="45.91739" lon="4.73731">
        <ele>173</ele>
        <time>2018-06-20T11:19:47Z</time>
      </trkpt>
      <trkpt lat="45.91744" lon="4.73732">
        <ele>173</ele>
        <time>2018-06-20T11:19:48Z</time>
      </trkpt>
      <trkpt lat="45.9175" lon="4.7373">
        <ele>173</ele>
        <time>2018-06-20T11:19:49Z</time>
      </trkpt>
      <trkpt lat="45.91756" lon="4.7373">
        <ele>173</ele>
        <time>2018-06-20T11:19:50Z</time>
      </trkpt>
      <trkpt lat="45.91761" lon="4.7373">
        <ele>173</ele>
        <time>2018-06-20T11:19:51Z</time>
      </trkpt>
      <trkpt lat="45.91765" lon="4.7373">
        <ele>173</ele>
        <time>2018-06-20T11:19:52Z</time>
      </trkpt>
      <trkpt lat="45.9177" lon="4.7373">
        <ele>173</ele>
        <time>2018-06-20T11:19:53Z</time>
      </trkpt>
      <trkpt lat="45.91777" lon="4.7373">
        <ele>173</ele>
        <time>2018-06-20T11:19:54Z</time>
      </trkpt>
      <trkpt lat="45.91785" lon="4.73729">
        <ele>173</ele>
        <time>2018-06-20T11:19:56Z</time>
      </trkpt>
      <trkpt lat="45.9179" lon="4.7373">
        <ele>173</ele>
        <time>2018-06-20T11:19:57Z</time>
      </trkpt>
      <trkpt lat="45.91795" lon="4.7373">
        <ele>172</ele>
        <time>2018-06-20T11:19:58Z</time>
      </trkpt>
      <trkpt lat="45.918" lon="4.7373">
        <ele>172</ele>
        <time>2018-06-20T11:19:59Z</time>
      </trkpt>
      <trkpt lat="45.91807" lon="4.73729">
        <ele>172</ele>
        <time>2018-06-20T11:20:00Z</time>
      </trkpt>
      <trkpt lat="45.91812" lon="4.73729">
        <ele>172</ele>
        <time>2018-06-20T11:20:01Z</time>
      </trkpt>
      <trkpt lat="45.91817" lon="4.73729">
        <ele>172</ele>
        <time>2018-06-20T11:20:02Z</time>
      </trkpt>
      <trkpt lat="45.91822" lon="4.73727">
        <ele>172</ele>
        <time>2018-06-20T11:20:03Z</time>
      </trkpt>
      <trkpt lat="45.91828" lon="4.73726">
        <ele>172</ele>
        <time>2018-06-20T11:20:04Z</time>
      </trkpt>
      <trkpt lat="45.91833" lon="4.73726">
        <ele>172</ele>
        <time>2018-06-20T11:20:05Z</time>
      </trkpt>
      <trkpt lat="45.91839" lon="4.73726">
        <ele>172</ele>
        <time>2018-06-20T11:20:06Z</time>
      </trkpt>
      <trkpt lat="45.91844" lon="4.73726">
        <ele>172</ele>
        <time>2018-06-20T11:20:07Z</time>
      </trkpt>
      <trkpt lat="45.91849" lon="4.73726">
        <ele>171</ele>
        <time>2018-06-20T11:20:08Z</time>
      </trkpt>
      <trkpt lat="45.91854" lon="4.73725">
        <ele>171</ele>
        <time>2018-06-20T11:20:09Z</time>
      </trkpt>
      <trkpt lat="45.9186" lon="4.73725">
        <ele>171</ele>
        <time>2018-06-20T11:20:10Z</time>
      </trkpt>
      <trkpt lat="45.91865" lon="4.73725">
        <ele>171</ele>
        <time>2018-06-20T11:20:11Z</time>
      </trkpt>
      <trkpt lat="45.91871" lon="4.73727">
        <ele>171</ele>
        <time>2018-06-20T11:20:12Z</time>
      </trkpt>
      <trkpt lat="45.91876" lon="4.73726">
        <ele>171</ele>
        <time>2018-06-20T11:20:13Z</time>
      </trkpt>
      <trkpt lat="45.91883" lon="4.73726">
        <ele>171</ele>
        <time>2018-06-20T11:20:14Z</time>
      </trkpt>
      <trkpt lat="45.91889" lon="4.73727">
        <ele>171</ele>
        <time>2018-06-20T11:20:15Z</time>
      </trkpt>
      <trkpt lat="45.91896" lon="4.73727">
        <ele>171</ele>
        <time>2018-06-20T11:20:16Z</time>
      </trkpt>
      <trkpt lat="45.91902" lon="4.73728">
        <ele>171</ele>
        <time>2018-06-20T11:20:17Z</time>
      </trkpt>
      <trkpt lat="45.91908" lon="4.73727">
        <ele>171</ele>
        <time>2018-06-20T11:20:18Z</time>
      </trkpt>
      <trkpt lat="45.91915" lon="4.73727">
        <ele>171</ele>
        <time>2018-06-20T11:20:19Z</time>
      </trkpt>
      <trkpt lat="45.91921" lon="4.73727">
        <ele>170</ele>
        <time>2018-06-20T11:20:20Z</time>
      </trkpt>
      <trkpt lat="45.91927" lon="4.73726">
        <ele>170</ele>
        <time>2018-06-20T11:20:21Z</time>
      </trkpt>
      <trkpt lat="45.91932" lon="4.73727">
        <ele>170</ele>
        <time>2018-06-20T11:20:22Z</time>
      </trkpt>
      <trkpt lat="45.91938" lon="4.73725">
        <ele>170</ele>
        <time>2018-06-20T11:20:23Z</time>
      </trkpt>
      <trkpt lat="45.91944" lon="4.73724">
        <ele>170</ele>
        <time>2018-06-20T11:20:24Z</time>
      </trkpt>
      <trkpt lat="45.91949" lon="4.73724">
        <ele>170</ele>
        <time>2018-06-20T11:20:25Z</time>
      </trkpt>
      <trkpt lat="45.91955" lon="4.73724">
        <ele>170</ele>
        <time>2018-06-20T11:20:26Z</time>
      </trkpt>
      <trkpt lat="45.9196" lon="4.73724">
        <ele>171</ele>
        <time>2018-06-20T11:20:27Z</time>
      </trkpt>
      <trkpt lat="45.91966" lon="4.73724">
        <ele>171</ele>
        <time>2018-06-20T11:20:28Z</time>
      </trkpt>
      <trkpt lat="45.9197" lon="4.73719">
        <ele>171</ele>
        <time>2018-06-20T11:20:29Z</time>
      </trkpt>
      <trkpt lat="45.91976" lon="4.7372">
        <ele>171</ele>
        <time>2018-06-20T11:20:30Z</time>
      </trkpt>
      <trkpt lat="45.91983" lon="4.73721">
        <ele>171</ele>
        <time>2018-06-20T11:20:31Z</time>
      </trkpt>
      <trkpt lat="45.91988" lon="4.73721">
        <ele>171</ele>
        <time>2018-06-20T11:20:32Z</time>
      </trkpt>
      <trkpt lat="45.91993" lon="4.7372">
        <ele>171</ele>
        <time>2018-06-20T11:20:33Z</time>
      </trkpt>
      <trkpt lat="45.91999" lon="4.7372">
        <ele>171</ele>
        <time>2018-06-20T11:20:34Z</time>
      </trkpt>
      <trkpt lat="45.92005" lon="4.73721">
        <ele>171</ele>
        <time>2018-06-20T11:20:35Z</time>
      </trkpt>
      <trkpt lat="45.92011" lon="4.73721">
        <ele>171</ele>
        <time>2018-06-20T11:20:36Z</time>
      </trkpt>
      <trkpt lat="45.92016" lon="4.73719">
        <ele>171</ele>
        <time>2018-06-20T11:20:37Z</time>
      </trkpt>
      <trkpt lat="45.92021" lon="4.73719">
        <ele>171</ele>
        <time>2018-06-20T11:20:38Z</time>
      </trkpt>
      <trkpt lat="45.92027" lon="4.73721">
        <ele>171</ele>
        <time>2018-06-20T11:20:39Z</time>
      </trkpt>
      <trkpt lat="45.92032" lon="4.73722">
        <ele>171</ele>
        <time>2018-06-20T11:20:40Z</time>
      </trkpt>
      <trkpt lat="45.92038" lon="4.73722">
        <ele>171</ele>
        <time>2018-06-20T11:20:41Z</time>
      </trkpt>
      <trkpt lat="45.92044" lon="4.7372">
        <ele>171</ele>
        <time>2018-06-20T11:20:42Z</time>
      </trkpt>
      <trkpt lat="45.9205" lon="4.73718">
        <ele>171</ele>
        <time>2018-06-20T11:20:43Z</time>
      </trkpt>
      <trkpt lat="45.92056" lon="4.73717">
        <ele>171</ele>
        <time>2018-06-20T11:20:44Z</time>
      </trkpt>
      <trkpt lat="45.92061" lon="4.73717">
        <ele>171</ele>
        <time>2018-06-20T11:20:45Z</time>
      </trkpt>
      <trkpt lat="45.92066" lon="4.73717">
        <ele>171</ele>
        <time>2018-06-20T11:20:46Z</time>
      </trkpt>
      <trkpt lat="45.92073" lon="4.73718">
        <ele>171</ele>
        <time>2018-06-20T11:20:47Z</time>
      </trkpt>
      <trkpt lat="45.92078" lon="4.73719">
        <ele>171</ele>
        <time>2018-06-20T11:20:48Z</time>
      </trkpt>
      <trkpt lat="45.92084" lon="4.73719">
        <ele>171</ele>
        <time>2018-06-20T11:20:49Z</time>
      </trkpt>
      <trkpt lat="45.92089" lon="4.73717">
        <ele>171</ele>
        <time>2018-06-20T11:20:50Z</time>
      </trkpt>
      <trkpt lat="45.92095" lon="4.73717">
        <ele>171</ele>
        <time>2018-06-20T11:20:51Z</time>
      </trkpt>
      <trkpt lat="45.92099" lon="4.73717">
        <ele>171</ele>
        <time>2018-06-20T11:20:52Z</time>
      </trkpt>
      <trkpt lat="45.92104" lon="4.73715">
        <ele>171</ele>
        <time>2018-06-20T11:20:53Z</time>
      </trkpt>
      <trkpt lat="45.92113" lon="4.73714">
        <ele>171</ele>
        <time>2018-06-20T11:20:55Z</time>
      </trkpt>
      <trkpt lat="45.92118" lon="4.73715">
        <ele>171</ele>
        <time>2018-06-20T11:20:56Z</time>
      </trkpt>
      <trkpt lat="45.92122" lon="4.73713">
        <ele>171</ele>
        <time>2018-06-20T11:20:57Z</time>
      </trkpt>
      <trkpt lat="45.92127" lon="4.73712">
        <ele>171</ele>
        <time>2018-06-20T11:20:58Z</time>
      </trkpt>
      <trkpt lat="45.92133" lon="4.73706">
        <ele>171</ele>
        <time>2018-06-20T11:20:59Z</time>
      </trkpt>
      <trkpt lat="45.92138" lon="4.73704">
        <ele>171</ele>
        <time>2018-06-20T11:21:00Z</time>
      </trkpt>
      <trkpt lat="45.92142" lon="4.73702">
        <ele>171</ele>
        <time>2018-06-20T11:21:01Z</time>
      </trkpt>
      <trkpt lat="45.92147" lon="4.73699">
        <ele>171</ele>
        <time>2018-06-20T11:21:02Z</time>
      </trkpt>
      <trkpt lat="45.92156" lon="4.73699">
        <ele>171</ele>
        <time>2018-06-20T11:21:04Z</time>
      </trkpt>
      <trkpt lat="45.92161" lon="4.73697">
        <ele>171</ele>
        <time>2018-06-20T11:21:05Z</time>
      </trkpt>
      <trkpt lat="45.92166" lon="4.73693">
        <ele>171</ele>
        <time>2018-06-20T11:21:06Z</time>
      </trkpt>
      <trkpt lat="45.92172" lon="4.73691">
        <ele>171</ele>
        <time>2018-06-20T11:21:07Z</time>
      </trkpt>
      <trkpt lat="45.92177" lon="4.73689">
        <ele>171</ele>
        <time>2018-06-20T11:21:08Z</time>
      </trkpt>
      <trkpt lat="45.92182" lon="4.73687">
        <ele>171</ele>
        <time>2018-06-20T11:21:09Z</time>
      </trkpt>
      <trkpt lat="45.92187" lon="4.73684">
        <ele>171</ele>
        <time>2018-06-20T11:21:10Z</time>
      </trkpt>
      <trkpt lat="45.92191" lon="4.73681">
        <ele>171</ele>
        <time>2018-06-20T11:21:11Z</time>
      </trkpt>
      <trkpt lat="45.92196" lon="4.73679">
        <ele>171</ele>
        <time>2018-06-20T11:21:12Z</time>
      </trkpt>
      <trkpt lat="45.92202" lon="4.73676">
        <ele>171</ele>
        <time>2018-06-20T11:21:13Z</time>
      </trkpt>
      <trkpt lat="45.92207" lon="4.73672">
        <ele>171</ele>
        <time>2018-06-20T11:21:14Z</time>
      </trkpt>
      <trkpt lat="45.92212" lon="4.73669">
        <ele>171</ele>
        <time>2018-06-20T11:21:15Z</time>
      </trkpt>
      <trkpt lat="45.92217" lon="4.73665">
        <ele>171</ele>
        <time>2018-06-20T11:21:16Z</time>
      </trkpt>
      <trkpt lat="45.92222" lon="4.73664">
        <ele>171</ele>
        <time>2018-06-20T11:21:17Z</time>
      </trkpt>
      <trkpt lat="45.92226" lon="4.73661">
        <ele>171</ele>
        <time>2018-06-20T11:21:18Z</time>
      </trkpt>
      <trkpt lat="45.92231" lon="4.7366">
        <ele>171</ele>
        <time>2018-06-20T11:21:19Z</time>
      </trkpt>
      <trkpt lat="45.92236" lon="4.73657">
        <ele>171</ele>
        <time>2018-06-20T11:21:20Z</time>
      </trkpt>
      <trkpt lat="45.92242" lon="4.73654">
        <ele>171</ele>
        <time>2018-06-20T11:21:21Z</time>
      </trkpt>
      <trkpt lat="45.92248" lon="4.73651">
        <ele>171</ele>
        <time>2018-06-20T11:21:22Z</time>
      </trkpt>
      <trkpt lat="45.92253" lon="4.73649">
        <ele>171</ele>
        <time>2018-06-20T11:21:23Z</time>
      </trkpt>
      <trkpt lat="45.92258" lon="4.73646">
        <ele>171</ele>
        <time>2018-06-20T11:21:24Z</time>
      </trkpt>
      <trkpt lat="45.92263" lon="4.73642">
        <ele>172</ele>
        <time>2018-06-20T11:21:25Z</time>
      </trkpt>
      <trkpt lat="45.92267" lon="4.73639">
        <ele>172</ele>
        <time>2018-06-20T11:21:26Z</time>
      </trkpt>
      <trkpt lat="45.92272" lon="4.73636">
        <ele>172</ele>
        <time>2018-06-20T11:21:27Z</time>
      </trkpt>
      <trkpt lat="45.92277" lon="4.73633">
        <ele>172</ele>
        <time>2018-06-20T11:21:28Z</time>
      </trkpt>
      <trkpt lat="45.92282" lon="4.7363">
        <ele>172</ele>
        <time>2018-06-20T11:21:29Z</time>
      </trkpt>
      <trkpt lat="45.92288" lon="4.73627">
        <ele>172</ele>
        <time>2018-06-20T11:21:30Z</time>
      </trkpt>
      <trkpt lat="45.92293" lon="4.73624">
        <ele>172</ele>
        <time>2018-06-20T11:21:31Z</time>
      </trkpt>
      <trkpt lat="45.92299" lon="4.73621">
        <ele>172</ele>
        <time>2018-06-20T11:21:32Z</time>
      </trkpt>
      <trkpt lat="45.92304" lon="4.73618">
        <ele>172</ele>
        <time>2018-06-20T11:21:33Z</time>
      </trkpt>
      <trkpt lat="45.92308" lon="4.73615">
        <ele>172</ele>
        <time>2018-06-20T11:21:34Z</time>
      </trkpt>
      <trkpt lat="45.92312" lon="4.73612">
        <ele>172</ele>
        <time>2018-06-20T11:21:35Z</time>
      </trkpt>
      <trkpt lat="45.92317" lon="4.73609">
        <ele>172</ele>
        <time>2018-06-20T11:21:36Z</time>
      </trkpt>
      <trkpt lat="45.92321" lon="4.73605">
        <ele>172</ele>
        <time>2018-06-20T11:21:37Z</time>
      </trkpt>
      <trkpt lat="45.92327" lon="4.73603">
        <ele>172</ele>
        <time>2018-06-20T11:21:38Z</time>
      </trkpt>
      <trkpt lat="45.92332" lon="4.73598">
        <ele>172</ele>
        <time>2018-06-20T11:21:39Z</time>
      </trkpt>
      <trkpt lat="45.92337" lon="4.73599">
        <ele>172</ele>
        <time>2018-06-20T11:21:40Z</time>
      </trkpt>
      <trkpt lat="45.92342" lon="4.73597">
        <ele>172</ele>
        <time>2018-06-20T11:21:41Z</time>
      </trkpt>
      <trkpt lat="45.92347" lon="4.73595">
        <ele>173</ele>
        <time>2018-06-20T11:21:42Z</time>
      </trkpt>
      <trkpt lat="45.92352" lon="4.73593">
        <ele>173</ele>
        <time>2018-06-20T11:21:43Z</time>
      </trkpt>
      <trkpt lat="45.92358" lon="4.7359">
        <ele>173</ele>
        <time>2018-06-20T11:21:44Z</time>
      </trkpt>
      <trkpt lat="45.92363" lon="4.73587">
        <ele>173</ele>
        <time>2018-06-20T11:21:45Z</time>
      </trkpt>
      <trkpt lat="45.92368" lon="4.73585">
        <ele>173</ele>
        <time>2018-06-20T11:21:46Z</time>
      </trkpt>
      <trkpt lat="45.92374" lon="4.73581">
        <ele>173</ele>
        <time>2018-06-20T11:21:47Z</time>
      </trkpt>
      <trkpt lat="45.9238" lon="4.73578">
        <ele>173</ele>
        <time>2018-06-20T11:21:48Z</time>
      </trkpt>
      <trkpt lat="45.92385" lon="4.73574">
        <ele>173</ele>
        <time>2018-06-20T11:21:49Z</time>
      </trkpt>
      <trkpt lat="45.9239" lon="4.73571">
        <ele>173</ele>
        <time>2018-06-20T11:21:50Z</time>
      </trkpt>
      <trkpt lat="45.92395" lon="4.73569">
        <ele>173</ele>
        <time>2018-06-20T11:21:51Z</time>
      </trkpt>
      <trkpt lat="45.92401" lon="4.73567">
        <ele>173</ele>
        <time>2018-06-20T11:21:52Z</time>
      </trkpt>
      <trkpt lat="45.92405" lon="4.73565">
        <ele>173</ele>
        <time>2018-06-20T11:21:53Z</time>
      </trkpt>
      <trkpt lat="45.92409" lon="4.73563">
        <ele>173</ele>
        <time>2018-06-20T11:21:54Z</time>
      </trkpt>
      <trkpt lat="45.92415" lon="4.73559">
        <ele>173</ele>
        <time>2018-06-20T11:21:55Z</time>
      </trkpt>
      <trkpt lat="45.92419" lon="4.73557">
        <ele>174</ele>
        <time>2018-06-20T11:21:56Z</time>
      </trkpt>
      <trkpt lat="45.92423" lon="4.73556">
        <ele>174</ele>
        <time>2018-06-20T11:21:57Z</time>
      </trkpt>
      <trkpt lat="45.92427" lon="4.73551">
        <ele>174</ele>
        <time>2018-06-20T11:21:58Z</time>
      </trkpt>
      <trkpt lat="45.92432" lon="4.73549">
        <ele>174</ele>
        <time>2018-06-20T11:21:59Z</time>
      </trkpt>
      <trkpt lat="45.92436" lon="4.73546">
        <ele>174</ele>
        <time>2018-06-20T11:22:00Z</time>
      </trkpt>
      <trkpt lat="45.9244" lon="4.73541">
        <ele>173</ele>
        <time>2018-06-20T11:22:01Z</time>
      </trkpt>
      <trkpt lat="45.92445" lon="4.7354">
        <ele>173</ele>
        <time>2018-06-20T11:22:02Z</time>
      </trkpt>
      <trkpt lat="45.9245" lon="4.73539">
        <ele>173</ele>
        <time>2018-06-20T11:22:03Z</time>
      </trkpt>
      <trkpt lat="45.92455" lon="4.73536">
        <ele>173</ele>
        <time>2018-06-20T11:22:04Z</time>
      </trkpt>
      <trkpt lat="45.9246" lon="4.73535">
        <ele>174</ele>
        <time>2018-06-20T11:22:05Z</time>
      </trkpt>
      <trkpt lat="45.92463" lon="4.73539">
        <ele>174</ele>
        <time>2018-06-20T11:22:06Z</time>
      </trkpt>
      <trkpt lat="45.92468" lon="4.73542">
        <ele>173</ele>
        <time>2018-06-20T11:22:07Z</time>
      </trkpt>
      <trkpt lat="45.92469" lon="4.7355">
        <ele>173</ele>
        <time>2018-06-20T11:22:08Z</time>
      </trkpt>
      <trkpt lat="45.92471" lon="4.73557">
        <ele>173</ele>
        <time>2018-06-20T11:22:09Z</time>
      </trkpt>
      <trkpt lat="45.9247" lon="4.73565">
        <ele>173</ele>
        <time>2018-06-20T11:22:10Z</time>
      </trkpt>
      <trkpt lat="45.9247" lon="4.73572">
        <ele>173</ele>
        <time>2018-06-20T11:22:11Z</time>
      </trkpt>
      <trkpt lat="45.9247" lon="4.7358">
        <ele>173</ele>
        <time>2018-06-20T11:22:12Z</time>
      </trkpt>
      <trkpt lat="45.92469" lon="4.73587">
        <ele>174</ele>
        <time>2018-06-20T11:22:13Z</time>
      </trkpt>
      <trkpt lat="45.92469" lon="4.73595">
        <ele>174</ele>
        <time>2018-06-20T11:22:14Z</time>
      </trkpt>
      <trkpt lat="45.92469" lon="4.73603">
        <ele>174</ele>
        <time>2018-06-20T11:22:15Z</time>
      </trkpt>
      <trkpt lat="45.92469" lon="4.7361">
        <ele>174</ele>
        <time>2018-06-20T11:22:16Z</time>
      </trkpt>
      <trkpt lat="45.92469" lon="4.73619">
        <ele>174</ele>
        <time>2018-06-20T11:22:17Z</time>
      </trkpt>
      <trkpt lat="45.9247" lon="4.73626">
        <ele>174</ele>
        <time>2018-06-20T11:22:18Z</time>
      </trkpt>
      <trkpt lat="45.9247" lon="4.73633">
        <ele>174</ele>
        <time>2018-06-20T11:22:19Z</time>
      </trkpt>
      <trkpt lat="45.92469" lon="4.73641">
        <ele>174</ele>
        <time>2018-06-20T11:22:20Z</time>
      </trkpt>
      <trkpt lat="45.9247" lon="4.73648">
        <ele>174</ele>
        <time>2018-06-20T11:22:21Z</time>
      </trkpt>
      <trkpt lat="45.92469" lon="4.73654">
        <ele>174</ele>
        <time>2018-06-20T11:22:22Z</time>
      </trkpt>
      <trkpt lat="45.92469" lon="4.73661">
        <ele>174</ele>
        <time>2018-06-20T11:22:23Z</time>
      </trkpt>
      <trkpt lat="45.92468" lon="4.73674">
        <ele>174</ele>
        <time>2018-06-20T11:22:25Z</time>
      </trkpt>
      <trkpt lat="45.92467" lon="4.7368">
        <ele>174</ele>
        <time>2018-06-20T11:22:26Z</time>
      </trkpt>
      <trkpt lat="45.92466" lon="4.73692">
        <ele>174</ele>
        <time>2018-06-20T11:22:28Z</time>
      </trkpt>
      <trkpt lat="45.92465" lon="4.73698">
        <ele>174</ele>
        <time>2018-06-20T11:22:29Z</time>
      </trkpt>
      <trkpt lat="45.92464" lon="4.73703">
        <ele>174</ele>
        <time>2018-06-20T11:22:32Z</time>
      </trkpt>
      <trkpt lat="45.92464" lon="4.73704">
        <ele>174</ele>
        <time>2018-06-20T11:22:33Z</time>
      </trkpt>
      <trkpt lat="45.92463" lon="4.73704">
        <ele>174</ele>
        <time>2018-06-20T11:22:42Z</time>
      </trkpt>
      <trkpt lat="45.92463" lon="4.73705">
        <ele>174</ele>
        <time>2018-06-20T11:22:43Z</time>
      </trkpt>
      <trkpt lat="45.92457" lon="4.73707">
        <ele>174</ele>
        <time>2018-06-20T11:22:52Z</time>
      </trkpt>
      <trkpt lat="45.92457" lon="4.73707">
        <ele>174</ele>
        <time>2018-06-20T11:22:53Z</time>
      </trkpt>
      <trkpt lat="45.92459" lon="4.73706">
        <ele>174</ele>
        <time>2018-06-20T11:22:57Z</time>
      </trkpt>
      <trkpt lat="45.92459" lon="4.73705">
        <ele>174</ele>
        <time>2018-06-20T11:22:58Z</time>
      </trkpt>
      <trkpt lat="45.92458" lon="4.73706">
        <ele>174</ele>
        <time>2018-06-20T11:23:10.526Z</time>
      </trkpt>
    </trkseg>
  </trk>
</gpx>